<?xml version="1.0" encoding="UTF-8"?>
<gpx creator="Garmin Connect" version="1.1"
  xsi:schemaLocation="http://www.topografix.com/GPX/1/1 http://www.topografix.com/GPX/11.xsd"
  xmlns:ns3="http://www.garmin.com/xmlschemas/TrackPointExtension/v1"
  xmlns="http://www.topografix.com/GPX/1/1"
  xmlns:xsi="http://www.w3.org/2001/XMLSchema-instance" xmlns:ns2="http://www.garmin.com/xmlschemas/GpxExtensions/v3">
  <metadata>
    <link href="connect.garmin.com">
      <text>Garmin Connect</text>
    </link>
    <time>2026-04-26T09:31:05.000Z</time>
  </metadata>
  <trk>
    <name>Лужский район ПСР</name>
    <type>other</type>
    <trkseg>
      <trkpt lat="59.067829214036464691162109375" lon="30.07955328561365604400634765625">
        <ele>70.40000152587890625</ele>
        <time>2026-04-26T09:31:25.000Z</time>
        <extensions>
          <ns3:TrackPointExtension>
            <ns3:hr>93</ns3:hr>
          </ns3:TrackPointExtension>
        </extensions>
      </trkpt>
      <trkpt lat="59.06781546771526336669921875" lon="30.0795617513358592987060546875">
        <ele>71.1999969482421875</ele>
        <time>2026-04-26T09:31:26.000Z</time>
        <extensions>
          <ns3:TrackPointExtension>
            <ns3:hr>94</ns3:hr>
          </ns3:TrackPointExtension>
        </extensions>
      </trkpt>
      <trkpt lat="59.0677784197032451629638671875" lon="30.07962034083902835845947265625">
        <ele>71.1999969482421875</ele>
        <time>2026-04-26T09:31:29.000Z</time>
        <extensions>
          <ns3:TrackPointExtension>
            <ns3:hr>93</ns3:hr>
          </ns3:TrackPointExtension>
        </extensions>
      </trkpt>
      <trkpt lat="59.06776878051459789276123046875" lon="30.079619586467742919921875">
        <ele>71.1999969482421875</ele>
        <time>2026-04-26T09:31:31.000Z</time>
        <extensions>
          <ns3:TrackPointExtension>
            <ns3:hr>92</ns3:hr>
          </ns3:TrackPointExtension>
        </extensions>
      </trkpt>
      <trkpt lat="59.067758135497570037841796875" lon="30.07967063225805759429931640625">
        <ele>71.1999969482421875</ele>
        <time>2026-04-26T09:31:34.000Z</time>
        <extensions>
          <ns3:TrackPointExtension>
            <ns3:hr>94</ns3:hr>
          </ns3:TrackPointExtension>
        </extensions>
      </trkpt>
      <trkpt lat="59.06777389347553253173828125" lon="30.079782195389270782470703125">
        <ele>71.1999969482421875</ele>
        <time>2026-04-26T09:31:39.000Z</time>
        <extensions>
          <ns3:TrackPointExtension>
            <ns3:hr>95</ns3:hr>
          </ns3:TrackPointExtension>
        </extensions>
      </trkpt>
      <trkpt lat="59.06777665950357913970947265625" lon="30.07984866388142108917236328125">
        <ele>71</ele>
        <time>2026-04-26T09:31:47.000Z</time>
        <extensions>
          <ns3:TrackPointExtension>
            <ns3:hr>96</ns3:hr>
          </ns3:TrackPointExtension>
        </extensions>
      </trkpt>
      <trkpt lat="59.06780339777469635009765625" lon="30.07997288368642330169677734375">
        <ele>70.40000152587890625</ele>
        <time>2026-04-26T09:31:54.000Z</time>
        <extensions>
          <ns3:TrackPointExtension>
            <ns3:hr>99</ns3:hr>
          </ns3:TrackPointExtension>
        </extensions>
      </trkpt>
      <trkpt lat="59.06780415214598178863525390625" lon="30.07998361252248287200927734375">
        <ele>70.59999847412109375</ele>
        <time>2026-04-26T09:31:55.000Z</time>
        <extensions>
          <ns3:TrackPointExtension>
            <ns3:hr>99</ns3:hr>
          </ns3:TrackPointExtension>
        </extensions>
      </trkpt>
      <trkpt lat="59.06780197285115718841552734375" lon="30.08009559474885463714599609375">
        <ele>71</ele>
        <time>2026-04-26T09:32:01.000Z</time>
        <extensions>
          <ns3:TrackPointExtension>
            <ns3:hr>102</ns3:hr>
          </ns3:TrackPointExtension>
        </extensions>
      </trkpt>
      <trkpt lat="59.06781010329723358154296875" lon="30.0802225805819034576416015625">
        <ele>71.59999847412109375</ele>
        <time>2026-04-26T09:32:08.000Z</time>
        <extensions>
          <ns3:TrackPointExtension>
            <ns3:hr>103</ns3:hr>
          </ns3:TrackPointExtension>
        </extensions>
      </trkpt>
      <trkpt lat="59.0678253583610057830810546875" lon="30.08030296303331851959228515625">
        <ele>71.8000030517578125</ele>
        <time>2026-04-26T09:32:12.000Z</time>
        <extensions>
          <ns3:TrackPointExtension>
            <ns3:hr>100</ns3:hr>
          </ns3:TrackPointExtension>
        </extensions>
      </trkpt>
      <trkpt lat="59.067838601768016815185546875" lon="30.080338418483734130859375">
        <ele>71.59999847412109375</ele>
        <time>2026-04-26T09:32:14.000Z</time>
        <extensions>
          <ns3:TrackPointExtension>
            <ns3:hr>97</ns3:hr>
          </ns3:TrackPointExtension>
        </extensions>
      </trkpt>
      <trkpt lat="59.0678389370441436767578125" lon="30.08037890307605266571044921875">
        <ele>71.59999847412109375</ele>
        <time>2026-04-26T09:32:15.000Z</time>
        <extensions>
          <ns3:TrackPointExtension>
            <ns3:hr>96</ns3:hr>
          </ns3:TrackPointExtension>
        </extensions>
      </trkpt>
      <trkpt lat="59.0678401105105876922607421875" lon="30.08040002547204494476318359375">
        <ele>71.40000152587890625</ele>
        <time>2026-04-26T09:32:17.000Z</time>
        <extensions>
          <ns3:TrackPointExtension>
            <ns3:hr>100</ns3:hr>
          </ns3:TrackPointExtension>
        </extensions>
      </trkpt>
      <trkpt lat="59.0678411163389682769775390625" lon="30.08045350201427936553955078125">
        <ele>71.40000152587890625</ele>
        <time>2026-04-26T09:32:20.000Z</time>
        <extensions>
          <ns3:TrackPointExtension>
            <ns3:hr>103</ns3:hr>
          </ns3:TrackPointExtension>
        </extensions>
      </trkpt>
      <trkpt lat="59.0678431279957294464111328125" lon="30.08045719005167484283447265625">
        <ele>71.40000152587890625</ele>
        <time>2026-04-26T09:32:21.000Z</time>
        <extensions>
          <ns3:TrackPointExtension>
            <ns3:hr>103</ns3:hr>
          </ns3:TrackPointExtension>
        </extensions>
      </trkpt>
      <trkpt lat="59.0678498335182666778564453125" lon="30.080478899180889129638671875">
        <ele>71.1999969482421875</ele>
        <time>2026-04-26T09:32:25.000Z</time>
        <extensions>
          <ns3:TrackPointExtension>
            <ns3:hr>106</ns3:hr>
          </ns3:TrackPointExtension>
        </extensions>
      </trkpt>
      <trkpt lat="59.0678612329065799713134765625" lon="30.08056548424065113067626953125">
        <ele>71.1999969482421875</ele>
        <time>2026-04-26T09:32:29.000Z</time>
        <extensions>
          <ns3:TrackPointExtension>
            <ns3:hr>108</ns3:hr>
          </ns3:TrackPointExtension>
        </extensions>
      </trkpt>
      <trkpt lat="59.06785494647920131683349609375" lon="30.08066774345934391021728515625">
        <ele>71.1999969482421875</ele>
        <time>2026-04-26T09:32:35.000Z</time>
        <extensions>
          <ns3:TrackPointExtension>
            <ns3:hr>108</ns3:hr>
          </ns3:TrackPointExtension>
        </extensions>
      </trkpt>
      <trkpt lat="59.06787690706551074981689453125" lon="30.0807167775928974151611328125">
        <ele>71.1999969482421875</ele>
        <time>2026-04-26T09:32:41.000Z</time>
        <extensions>
          <ns3:TrackPointExtension>
            <ns3:hr>108</ns3:hr>
          </ns3:TrackPointExtension>
        </extensions>
      </trkpt>
      <trkpt lat="59.06789015047252178192138671875" lon="30.08073194883763790130615234375">
        <ele>71.1999969482421875</ele>
        <time>2026-04-26T09:32:43.000Z</time>
        <extensions>
          <ns3:TrackPointExtension>
            <ns3:hr>105</ns3:hr>
          </ns3:TrackPointExtension>
        </extensions>
      </trkpt>
      <trkpt lat="59.0679068304598331451416015625" lon="30.08077251724898815155029296875">
        <ele>71.1999969482421875</ele>
        <time>2026-04-26T09:32:49.000Z</time>
        <extensions>
          <ns3:TrackPointExtension>
            <ns3:hr>105</ns3:hr>
          </ns3:TrackPointExtension>
        </extensions>
      </trkpt>
      <trkpt lat="59.06790473498404026031494140625" lon="30.0807903707027435302734375">
        <ele>71.1999969482421875</ele>
        <time>2026-04-26T09:32:50.000Z</time>
        <extensions>
          <ns3:TrackPointExtension>
            <ns3:hr>105</ns3:hr>
          </ns3:TrackPointExtension>
        </extensions>
      </trkpt>
      <trkpt lat="59.067911691963672637939453125" lon="30.08082532323896884918212890625">
        <ele>71.1999969482421875</ele>
        <time>2026-04-26T09:32:52.000Z</time>
        <extensions>
          <ns3:TrackPointExtension>
            <ns3:hr>114</ns3:hr>
          </ns3:TrackPointExtension>
        </extensions>
      </trkpt>
      <trkpt lat="59.067916385829448699951171875" lon="30.0809263251721858978271484375">
        <ele>71.1999969482421875</ele>
        <time>2026-04-26T09:32:54.000Z</time>
        <extensions>
          <ns3:TrackPointExtension>
            <ns3:hr>118</ns3:hr>
          </ns3:TrackPointExtension>
        </extensions>
      </trkpt>
      <trkpt lat="59.06791714020073413848876953125" lon="30.08094384334981441497802734375">
        <ele>71.1999969482421875</ele>
        <time>2026-04-26T09:32:56.000Z</time>
        <extensions>
          <ns3:TrackPointExtension>
            <ns3:hr>115</ns3:hr>
          </ns3:TrackPointExtension>
        </extensions>
      </trkpt>
      <trkpt lat="59.0679088421165943145751953125" lon="30.08097284473478794097900390625">
        <ele>71.1999969482421875</ele>
        <time>2026-04-26T09:32:58.000Z</time>
        <extensions>
          <ns3:TrackPointExtension>
            <ns3:hr>110</ns3:hr>
          </ns3:TrackPointExtension>
        </extensions>
      </trkpt>
      <trkpt lat="59.06790154986083507537841796875" lon="30.08099564351141452789306640625">
        <ele>71.1999969482421875</ele>
        <time>2026-04-26T09:33:00.000Z</time>
        <extensions>
          <ns3:TrackPointExtension>
            <ns3:hr>107</ns3:hr>
          </ns3:TrackPointExtension>
        </extensions>
      </trkpt>
      <trkpt lat="59.06790607608854770660400390625" lon="30.08103118278086185455322265625">
        <ele>71.1999969482421875</ele>
        <time>2026-04-26T09:33:02.000Z</time>
        <extensions>
          <ns3:TrackPointExtension>
            <ns3:hr>107</ns3:hr>
          </ns3:TrackPointExtension>
        </extensions>
      </trkpt>
      <trkpt lat="59.067915715277194976806640625" lon="30.08111919276416301727294921875">
        <ele>71.40000152587890625</ele>
        <time>2026-04-26T09:33:08.000Z</time>
        <extensions>
          <ns3:TrackPointExtension>
            <ns3:hr>104</ns3:hr>
          </ns3:TrackPointExtension>
        </extensions>
      </trkpt>
      <trkpt lat="59.067925103008747100830078125" lon="30.08125296793878078460693359375">
        <ele>71.40000152587890625</ele>
        <time>2026-04-26T09:33:14.000Z</time>
        <extensions>
          <ns3:TrackPointExtension>
            <ns3:hr>104</ns3:hr>
          </ns3:TrackPointExtension>
        </extensions>
      </trkpt>
      <trkpt lat="59.06793105415999889373779296875" lon="30.081351287662982940673828125">
        <ele>71.1999969482421875</ele>
        <time>2026-04-26T09:33:20.000Z</time>
        <extensions>
          <ns3:TrackPointExtension>
            <ns3:hr>104</ns3:hr>
          </ns3:TrackPointExtension>
        </extensions>
      </trkpt>
      <trkpt lat="59.06795536167919635772705078125" lon="30.08150182664394378662109375">
        <ele>71.1999969482421875</ele>
        <time>2026-04-26T09:33:28.000Z</time>
        <extensions>
          <ns3:TrackPointExtension>
            <ns3:hr>106</ns3:hr>
          </ns3:TrackPointExtension>
        </extensions>
      </trkpt>
      <trkpt lat="59.0679547749459743499755859375" lon="30.0816475041210651397705078125">
        <ele>71</ele>
        <time>2026-04-26T09:33:36.000Z</time>
        <extensions>
          <ns3:TrackPointExtension>
            <ns3:hr>107</ns3:hr>
          </ns3:TrackPointExtension>
        </extensions>
      </trkpt>
      <trkpt lat="59.06796458177268505096435546875" lon="30.0818017311394214630126953125">
        <ele>70.8000030517578125</ele>
        <time>2026-04-26T09:33:44.000Z</time>
        <extensions>
          <ns3:TrackPointExtension>
            <ns3:hr>104</ns3:hr>
          </ns3:TrackPointExtension>
        </extensions>
      </trkpt>
      <trkpt lat="59.06796961091458797454833984375" lon="30.08184858597815036773681640625">
        <ele>70.8000030517578125</ele>
        <time>2026-04-26T09:33:47.000Z</time>
        <extensions>
          <ns3:TrackPointExtension>
            <ns3:hr>101</ns3:hr>
          </ns3:TrackPointExtension>
        </extensions>
      </trkpt>
      <trkpt lat="59.06797866337001323699951171875" lon="30.08192653767764568328857421875">
        <ele>71</ele>
        <time>2026-04-26T09:33:51.000Z</time>
        <extensions>
          <ns3:TrackPointExtension>
            <ns3:hr>104</ns3:hr>
          </ns3:TrackPointExtension>
        </extensions>
      </trkpt>
      <trkpt lat="59.067996181547641754150390625" lon="30.081988312304019927978515625">
        <ele>70.8000030517578125</ele>
        <time>2026-04-26T09:33:54.000Z</time>
        <extensions>
          <ns3:TrackPointExtension>
            <ns3:hr>101</ns3:hr>
          </ns3:TrackPointExtension>
        </extensions>
      </trkpt>
      <trkpt lat="59.06800665892660617828369140625" lon="30.08206232450902462005615234375">
        <ele>70.8000030517578125</ele>
        <time>2026-04-26T09:33:57.000Z</time>
        <extensions>
          <ns3:TrackPointExtension>
            <ns3:hr>100</ns3:hr>
          </ns3:TrackPointExtension>
        </extensions>
      </trkpt>
      <trkpt lat="59.0680144540965557098388671875" lon="30.0820944271981716156005859375">
        <ele>70.8000030517578125</ele>
        <time>2026-04-26T09:33:58.000Z</time>
        <extensions>
          <ns3:TrackPointExtension>
            <ns3:hr>105</ns3:hr>
          </ns3:TrackPointExtension>
        </extensions>
      </trkpt>
      <trkpt lat="59.06801638193428516387939453125" lon="30.082170031964778900146484375">
        <ele>71</ele>
        <time>2026-04-26T09:34:02.000Z</time>
        <extensions>
          <ns3:TrackPointExtension>
            <ns3:hr>103</ns3:hr>
          </ns3:TrackPointExtension>
        </extensions>
      </trkpt>
      <trkpt lat="59.0680151246488094329833984375" lon="30.08218847215175628662109375">
        <ele>70.8000030517578125</ele>
        <time>2026-04-26T09:34:04.000Z</time>
        <extensions>
          <ns3:TrackPointExtension>
            <ns3:hr>100</ns3:hr>
          </ns3:TrackPointExtension>
        </extensions>
      </trkpt>
      <trkpt lat="59.06801084987819194793701171875" lon="30.082269273698329925537109375">
        <ele>70.8000030517578125</ele>
        <time>2026-04-26T09:34:06.000Z</time>
        <extensions>
          <ns3:TrackPointExtension>
            <ns3:hr>97</ns3:hr>
          </ns3:TrackPointExtension>
        </extensions>
      </trkpt>
      <trkpt lat="59.06801084987819194793701171875" lon="30.082269273698329925537109375">
        <ele>70.8000030517578125</ele>
        <time>2026-04-26T09:34:07.000Z</time>
        <extensions>
          <ns3:TrackPointExtension>
            <ns3:hr>96</ns3:hr>
          </ns3:TrackPointExtension>
        </extensions>
      </trkpt>
      <trkpt lat="59.06802493147552013397216796875" lon="30.082336328923702239990234375">
        <ele>70.8000030517578125</ele>
        <time>2026-04-26T09:34:10.000Z</time>
        <extensions>
          <ns3:TrackPointExtension>
            <ns3:hr>93</ns3:hr>
          </ns3:TrackPointExtension>
        </extensions>
      </trkpt>
      <trkpt lat="59.0680342353880405426025390625" lon="30.08237413130700588226318359375">
        <ele>70.8000030517578125</ele>
        <time>2026-04-26T09:34:13.000Z</time>
        <extensions>
          <ns3:TrackPointExtension>
            <ns3:hr>94</ns3:hr>
          </ns3:TrackPointExtension>
        </extensions>
      </trkpt>
      <trkpt lat="59.0680466406047344207763671875" lon="30.082489550113677978515625">
        <ele>70.59999847412109375</ele>
        <time>2026-04-26T09:34:19.000Z</time>
        <extensions>
          <ns3:TrackPointExtension>
            <ns3:hr>95</ns3:hr>
          </ns3:TrackPointExtension>
        </extensions>
      </trkpt>
      <trkpt lat="59.0680466406047344207763671875" lon="30.082489550113677978515625">
        <ele>70.59999847412109375</ele>
        <time>2026-04-26T09:34:20.000Z</time>
        <extensions>
          <ns3:TrackPointExtension>
            <ns3:hr>96</ns3:hr>
          </ns3:TrackPointExtension>
        </extensions>
      </trkpt>
      <trkpt lat="59.0680597163736820220947265625" lon="30.0825933180749416351318359375">
        <ele>70.59999847412109375</ele>
        <time>2026-04-26T09:34:22.000Z</time>
        <extensions>
          <ns3:TrackPointExtension>
            <ns3:hr>99</ns3:hr>
          </ns3:TrackPointExtension>
        </extensions>
      </trkpt>
      <trkpt lat="59.06805980019271373748779296875" lon="30.0826389156281948089599609375">
        <ele>70.40000152587890625</ele>
        <time>2026-04-26T09:34:25.000Z</time>
        <extensions>
          <ns3:TrackPointExtension>
            <ns3:hr>101</ns3:hr>
          </ns3:TrackPointExtension>
        </extensions>
      </trkpt>
      <trkpt lat="59.06804940663278102874755859375" lon="30.08269901387393474578857421875">
        <ele>70.59999847412109375</ele>
        <time>2026-04-26T09:34:27.000Z</time>
        <extensions>
          <ns3:TrackPointExtension>
            <ns3:hr>105</ns3:hr>
          </ns3:TrackPointExtension>
        </extensions>
      </trkpt>
      <trkpt lat="59.06804856844246387481689453125" lon="30.082709826529026031494140625">
        <ele>70.59999847412109375</ele>
        <time>2026-04-26T09:34:29.000Z</time>
        <extensions>
          <ns3:TrackPointExtension>
            <ns3:hr>108</ns3:hr>
          </ns3:TrackPointExtension>
        </extensions>
      </trkpt>
      <trkpt lat="59.06804806552827358245849609375" lon="30.082731954753398895263671875">
        <ele>70.59999847412109375</ele>
        <time>2026-04-26T09:34:30.000Z</time>
        <extensions>
          <ns3:TrackPointExtension>
            <ns3:hr>109</ns3:hr>
          </ns3:TrackPointExtension>
        </extensions>
      </trkpt>
      <trkpt lat="59.06805862672626972198486328125" lon="30.08279540576040744781494140625">
        <ele>70.1999969482421875</ele>
        <time>2026-04-26T09:34:34.000Z</time>
        <extensions>
          <ns3:TrackPointExtension>
            <ns3:hr>111</ns3:hr>
          </ns3:TrackPointExtension>
        </extensions>
      </trkpt>
      <trkpt lat="59.06807052902877330780029296875" lon="30.082845948636531829833984375">
        <ele>70.1999969482421875</ele>
        <time>2026-04-26T09:34:36.000Z</time>
        <extensions>
          <ns3:TrackPointExtension>
            <ns3:hr>109</ns3:hr>
          </ns3:TrackPointExtension>
        </extensions>
      </trkpt>
      <trkpt lat="59.0680895559489727020263671875" lon="30.08291442878544330596923828125">
        <ele>70.1999969482421875</ele>
        <time>2026-04-26T09:34:38.000Z</time>
        <extensions>
          <ns3:TrackPointExtension>
            <ns3:hr>106</ns3:hr>
          </ns3:TrackPointExtension>
        </extensions>
      </trkpt>
      <trkpt lat="59.06809533946216106414794921875" lon="30.08294980041682720184326171875">
        <ele>70</ele>
        <time>2026-04-26T09:34:41.000Z</time>
        <extensions>
          <ns3:TrackPointExtension>
            <ns3:hr>103</ns3:hr>
          </ns3:TrackPointExtension>
        </extensions>
      </trkpt>
      <trkpt lat="59.06809433363378047943115234375" lon="30.08296857587993144989013671875">
        <ele>70</ele>
        <time>2026-04-26T09:34:42.000Z</time>
        <extensions>
          <ns3:TrackPointExtension>
            <ns3:hr>104</ns3:hr>
          </ns3:TrackPointExtension>
        </extensions>
      </trkpt>
      <trkpt lat="59.06809307634830474853515625" lon="30.08301299996674060821533203125">
        <ele>70</ele>
        <time>2026-04-26T09:34:44.000Z</time>
        <extensions>
          <ns3:TrackPointExtension>
            <ns3:hr>107</ns3:hr>
          </ns3:TrackPointExtension>
        </extensions>
      </trkpt>
      <trkpt lat="59.06809802167117595672607421875" lon="30.0830539874732494354248046875">
        <ele>70</ele>
        <time>2026-04-26T09:34:47.000Z</time>
        <extensions>
          <ns3:TrackPointExtension>
            <ns3:hr>107</ns3:hr>
          </ns3:TrackPointExtension>
        </extensions>
      </trkpt>
      <trkpt lat="59.0681157074868679046630859375" lon="30.083163790404796600341796875">
        <ele>70.1999969482421875</ele>
        <time>2026-04-26T09:34:51.000Z</time>
        <extensions>
          <ns3:TrackPointExtension>
            <ns3:hr>110</ns3:hr>
          </ns3:TrackPointExtension>
        </extensions>
      </trkpt>
      <trkpt lat="59.068116880953311920166015625" lon="30.0831880979239940643310546875">
        <ele>70.1999969482421875</ele>
        <time>2026-04-26T09:34:52.000Z</time>
        <extensions>
          <ns3:TrackPointExtension>
            <ns3:hr>112</ns3:hr>
          </ns3:TrackPointExtension>
        </extensions>
      </trkpt>
      <trkpt lat="59.068116880953311920166015625" lon="30.0831880979239940643310546875">
        <ele>70.1999969482421875</ele>
        <time>2026-04-26T09:34:53.000Z</time>
        <extensions>
          <ns3:TrackPointExtension>
            <ns3:hr>118</ns3:hr>
          </ns3:TrackPointExtension>
        </extensions>
      </trkpt>
      <trkpt lat="59.06811721622943878173828125" lon="30.08321047760546207427978515625">
        <ele>70</ele>
        <time>2026-04-26T09:34:54.000Z</time>
        <extensions>
          <ns3:TrackPointExtension>
            <ns3:hr>121</ns3:hr>
          </ns3:TrackPointExtension>
        </extensions>
      </trkpt>
      <trkpt lat="59.068113528192043304443359375" lon="30.08329530246555805206298828125">
        <ele>70</ele>
        <time>2026-04-26T09:34:58.000Z</time>
        <extensions>
          <ns3:TrackPointExtension>
            <ns3:hr>121</ns3:hr>
          </ns3:TrackPointExtension>
        </extensions>
      </trkpt>
      <trkpt lat="59.06812836416065692901611328125" lon="30.08337325416505336761474609375">
        <ele>70</ele>
        <time>2026-04-26T09:35:02.000Z</time>
        <extensions>
          <ns3:TrackPointExtension>
            <ns3:hr>118</ns3:hr>
          </ns3:TrackPointExtension>
        </extensions>
      </trkpt>
      <trkpt lat="59.06812953762710094451904296875" lon="30.0834006629884243011474609375">
        <ele>70</ele>
        <time>2026-04-26T09:35:03.000Z</time>
        <extensions>
          <ns3:TrackPointExtension>
            <ns3:hr>116</ns3:hr>
          </ns3:TrackPointExtension>
        </extensions>
      </trkpt>
      <trkpt lat="59.0681261010468006134033203125" lon="30.0834462605416774749755859375">
        <ele>70</ele>
        <time>2026-04-26T09:35:05.000Z</time>
        <extensions>
          <ns3:TrackPointExtension>
            <ns3:hr>113</ns3:hr>
          </ns3:TrackPointExtension>
        </extensions>
      </trkpt>
      <trkpt lat="59.06811780296266078948974609375" lon="30.08355145342648029327392578125">
        <ele>69.8000030517578125</ele>
        <time>2026-04-26T09:35:08.000Z</time>
        <extensions>
          <ns3:TrackPointExtension>
            <ns3:hr>113</ns3:hr>
          </ns3:TrackPointExtension>
        </extensions>
      </trkpt>
      <trkpt lat="59.0681214071810245513916015625" lon="30.08363158442080020904541015625">
        <ele>69.59999847412109375</ele>
        <time>2026-04-26T09:35:14.000Z</time>
        <extensions>
          <ns3:TrackPointExtension>
            <ns3:hr>113</ns3:hr>
          </ns3:TrackPointExtension>
        </extensions>
      </trkpt>
      <trkpt lat="59.0681291185319423675537109375" lon="30.083643235266208648681640625">
        <ele>69.59999847412109375</ele>
        <time>2026-04-26T09:35:16.000Z</time>
        <extensions>
          <ns3:TrackPointExtension>
            <ns3:hr>117</ns3:hr>
          </ns3:TrackPointExtension>
        </extensions>
      </trkpt>
      <trkpt lat="59.0681291185319423675537109375" lon="30.0836833007633686065673828125">
        <ele>69.1999969482421875</ele>
        <time>2026-04-26T09:35:24.000Z</time>
        <extensions>
          <ns3:TrackPointExtension>
            <ns3:hr>118</ns3:hr>
          </ns3:TrackPointExtension>
        </extensions>
      </trkpt>
      <trkpt lat="59.06812719069421291351318359375" lon="30.08379100821912288665771484375">
        <ele>69.1999969482421875</ele>
        <time>2026-04-26T09:35:29.000Z</time>
        <extensions>
          <ns3:TrackPointExtension>
            <ns3:hr>117</ns3:hr>
          </ns3:TrackPointExtension>
        </extensions>
      </trkpt>
      <trkpt lat="59.068134985864162445068359375" lon="30.083872564136981964111328125">
        <ele>69</ele>
        <time>2026-04-26T09:35:35.000Z</time>
        <extensions>
          <ns3:TrackPointExtension>
            <ns3:hr>117</ns3:hr>
          </ns3:TrackPointExtension>
        </extensions>
      </trkpt>
      <trkpt lat="59.06815015710890293121337890625" lon="30.08390198461711406707763671875">
        <ele>68.8000030517578125</ele>
        <time>2026-04-26T09:35:37.000Z</time>
        <extensions>
          <ns3:TrackPointExtension>
            <ns3:hr>114</ns3:hr>
          </ns3:TrackPointExtension>
        </extensions>
      </trkpt>
      <trkpt lat="59.06815418042242527008056640625" lon="30.08393165655434131622314453125">
        <ele>68.8000030517578125</ele>
        <time>2026-04-26T09:35:38.000Z</time>
        <extensions>
          <ns3:TrackPointExtension>
            <ns3:hr>114</ns3:hr>
          </ns3:TrackPointExtension>
        </extensions>
      </trkpt>
      <trkpt lat="59.0681539289653301239013671875" lon="30.0839592330157756805419921875">
        <ele>68.8000030517578125</ele>
        <time>2026-04-26T09:35:40.000Z</time>
        <extensions>
          <ns3:TrackPointExtension>
            <ns3:hr>111</ns3:hr>
          </ns3:TrackPointExtension>
        </extensions>
      </trkpt>
      <trkpt lat="59.06817010603845119476318359375" lon="30.08402972482144832611083984375">
        <ele>69</ele>
        <time>2026-04-26T09:35:43.000Z</time>
        <extensions>
          <ns3:TrackPointExtension>
            <ns3:hr>110</ns3:hr>
          </ns3:TrackPointExtension>
        </extensions>
      </trkpt>
      <trkpt lat="59.0681727044284343719482421875" lon="30.08406543172895908355712890625">
        <ele>68.8000030517578125</ele>
        <time>2026-04-26T09:35:45.000Z</time>
        <extensions>
          <ns3:TrackPointExtension>
            <ns3:hr>112</ns3:hr>
          </ns3:TrackPointExtension>
        </extensions>
      </trkpt>
      <trkpt lat="59.0681713633239269256591796875" lon="30.0840765796601772308349609375">
        <ele>68.8000030517578125</ele>
        <time>2026-04-26T09:35:48.000Z</time>
        <extensions>
          <ns3:TrackPointExtension>
            <ns3:hr>115</ns3:hr>
          </ns3:TrackPointExtension>
        </extensions>
      </trkpt>
      <trkpt lat="59.0681777335703372955322265625" lon="30.084109939634799957275390625">
        <ele>68.8000030517578125</ele>
        <time>2026-04-26T09:35:50.000Z</time>
        <extensions>
          <ns3:TrackPointExtension>
            <ns3:hr>114</ns3:hr>
          </ns3:TrackPointExtension>
        </extensions>
      </trkpt>
      <trkpt lat="59.06817714683711528778076171875" lon="30.08414388634264469146728515625">
        <ele>68.59999847412109375</ele>
        <time>2026-04-26T09:35:52.000Z</time>
        <extensions>
          <ns3:TrackPointExtension>
            <ns3:hr>111</ns3:hr>
          </ns3:TrackPointExtension>
        </extensions>
      </trkpt>
      <trkpt lat="59.068178571760654449462890625" lon="30.08415059186518192291259765625">
        <ele>68.8000030517578125</ele>
        <time>2026-04-26T09:35:53.000Z</time>
        <extensions>
          <ns3:TrackPointExtension>
            <ns3:hr>110</ns3:hr>
          </ns3:TrackPointExtension>
        </extensions>
      </trkpt>
      <trkpt lat="59.0681944973766803741455078125" lon="30.084162242710590362548828125">
        <ele>68.8000030517578125</ele>
        <time>2026-04-26T09:35:56.000Z</time>
        <extensions>
          <ns3:TrackPointExtension>
            <ns3:hr>106</ns3:hr>
          </ns3:TrackPointExtension>
        </extensions>
      </trkpt>
      <trkpt lat="59.06820279546082019805908203125" lon="30.08417121134698390960693359375">
        <ele>68.8000030517578125</ele>
        <time>2026-04-26T09:35:59.000Z</time>
        <extensions>
          <ns3:TrackPointExtension>
            <ns3:hr>104</ns3:hr>
          </ns3:TrackPointExtension>
        </extensions>
      </trkpt>
      <trkpt lat="59.06820983625948429107666015625" lon="30.08419082500040531158447265625">
        <ele>68.8000030517578125</ele>
        <time>2026-04-26T09:36:00.000Z</time>
        <extensions>
          <ns3:TrackPointExtension>
            <ns3:hr>107</ns3:hr>
          </ns3:TrackPointExtension>
        </extensions>
      </trkpt>
      <trkpt lat="59.0682166256010532379150390625" lon="30.0842155516147613525390625">
        <ele>68.8000030517578125</ele>
        <time>2026-04-26T09:36:02.000Z</time>
        <extensions>
          <ns3:TrackPointExtension>
            <ns3:hr>106</ns3:hr>
          </ns3:TrackPointExtension>
        </extensions>
      </trkpt>
      <trkpt lat="59.06821737997233867645263671875" lon="30.0842338241636753082275390625">
        <ele>68.8000030517578125</ele>
        <time>2026-04-26T09:36:04.000Z</time>
        <extensions>
          <ns3:TrackPointExtension>
            <ns3:hr>106</ns3:hr>
          </ns3:TrackPointExtension>
        </extensions>
      </trkpt>
      <trkpt lat="59.0682169608771800994873046875" lon="30.08426190353929996490478515625">
        <ele>68.59999847412109375</ele>
        <time>2026-04-26T09:36:07.000Z</time>
        <extensions>
          <ns3:TrackPointExtension>
            <ns3:hr>109</ns3:hr>
          </ns3:TrackPointExtension>
        </extensions>
      </trkpt>
      <trkpt lat="59.068214781582355499267578125" lon="30.08428956381976604461669921875">
        <ele>68.8000030517578125</ele>
        <time>2026-04-26T09:36:09.000Z</time>
        <extensions>
          <ns3:TrackPointExtension>
            <ns3:hr>113</ns3:hr>
          </ns3:TrackPointExtension>
        </extensions>
      </trkpt>
      <trkpt lat="59.06821520067751407623291015625" lon="30.084308087825775146484375">
        <ele>68.8000030517578125</ele>
        <time>2026-04-26T09:36:10.000Z</time>
        <extensions>
          <ns3:TrackPointExtension>
            <ns3:hr>116</ns3:hr>
          </ns3:TrackPointExtension>
        </extensions>
      </trkpt>
      <trkpt lat="59.06819676049053668975830078125" lon="30.08437891490757465362548828125">
        <ele>68.8000030517578125</ele>
        <time>2026-04-26T09:36:13.000Z</time>
        <extensions>
          <ns3:TrackPointExtension>
            <ns3:hr>118</ns3:hr>
          </ns3:TrackPointExtension>
        </extensions>
      </trkpt>
      <trkpt lat="59.0682055614888668060302734375" lon="30.08441470563411712646484375">
        <ele>69.1999969482421875</ele>
        <time>2026-04-26T09:36:17.000Z</time>
        <extensions>
          <ns3:TrackPointExtension>
            <ns3:hr>117</ns3:hr>
          </ns3:TrackPointExtension>
        </extensions>
      </trkpt>
      <trkpt lat="59.0682065673172473907470703125" lon="30.0844386778771877288818359375">
        <ele>69.1999969482421875</ele>
        <time>2026-04-26T09:36:18.000Z</time>
        <extensions>
          <ns3:TrackPointExtension>
            <ns3:hr>118</ns3:hr>
          </ns3:TrackPointExtension>
        </extensions>
      </trkpt>
      <trkpt lat="59.06821453012526035308837890625" lon="30.0845449604094028472900390625">
        <ele>68.8000030517578125</ele>
        <time>2026-04-26T09:36:23.000Z</time>
        <extensions>
          <ns3:TrackPointExtension>
            <ns3:hr>117</ns3:hr>
          </ns3:TrackPointExtension>
        </extensions>
      </trkpt>
      <trkpt lat="59.06821302138268947601318359375" lon="30.0845677591860294342041015625">
        <ele>68.8000030517578125</ele>
        <time>2026-04-26T09:36:24.000Z</time>
        <extensions>
          <ns3:TrackPointExtension>
            <ns3:hr>117</ns3:hr>
          </ns3:TrackPointExtension>
        </extensions>
      </trkpt>
      <trkpt lat="59.0682119317352771759033203125" lon="30.08457387797534465789794921875">
        <ele>68.8000030517578125</ele>
        <time>2026-04-26T09:36:25.000Z</time>
        <extensions>
          <ns3:TrackPointExtension>
            <ns3:hr>116</ns3:hr>
          </ns3:TrackPointExtension>
        </extensions>
      </trkpt>
      <trkpt lat="59.0682171285152435302734375" lon="30.084626935422420501708984375">
        <ele>68.8000030517578125</ele>
        <time>2026-04-26T09:36:28.000Z</time>
        <extensions>
          <ns3:TrackPointExtension>
            <ns3:hr>115</ns3:hr>
          </ns3:TrackPointExtension>
        </extensions>
      </trkpt>
      <trkpt lat="59.0682183019816875457763671875" lon="30.0846431963145732879638671875">
        <ele>68.8000030517578125</ele>
        <time>2026-04-26T09:36:29.000Z</time>
        <extensions>
          <ns3:TrackPointExtension>
            <ns3:hr>114</ns3:hr>
          </ns3:TrackPointExtension>
        </extensions>
      </trkpt>
      <trkpt lat="59.0682179667055606842041015625" lon="30.08465736173093318939208984375">
        <ele>68.59999847412109375</ele>
        <time>2026-04-26T09:36:30.000Z</time>
        <extensions>
          <ns3:TrackPointExtension>
            <ns3:hr>111</ns3:hr>
          </ns3:TrackPointExtension>
        </extensions>
      </trkpt>
      <trkpt lat="59.06821603886783123016357421875" lon="30.08467429317533969879150390625">
        <ele>68.59999847412109375</ele>
        <time>2026-04-26T09:36:31.000Z</time>
        <extensions>
          <ns3:TrackPointExtension>
            <ns3:hr>108</ns3:hr>
          </ns3:TrackPointExtension>
        </extensions>
      </trkpt>
      <trkpt lat="59.068221487104892730712890625" lon="30.08470681495964527130126953125">
        <ele>68.59999847412109375</ele>
        <time>2026-04-26T09:36:33.000Z</time>
        <extensions>
          <ns3:TrackPointExtension>
            <ns3:hr>105</ns3:hr>
          </ns3:TrackPointExtension>
        </extensions>
      </trkpt>
      <trkpt lat="59.0682224929332733154296875" lon="30.0847226567566394805908203125">
        <ele>68.59999847412109375</ele>
        <time>2026-04-26T09:36:34.000Z</time>
        <extensions>
          <ns3:TrackPointExtension>
            <ns3:hr>103</ns3:hr>
          </ns3:TrackPointExtension>
        </extensions>
      </trkpt>
      <trkpt lat="59.06823229975998401641845703125" lon="30.0847491435706615447998046875">
        <ele>68.59999847412109375</ele>
        <time>2026-04-26T09:36:35.000Z</time>
        <extensions>
          <ns3:TrackPointExtension>
            <ns3:hr>102</ns3:hr>
          </ns3:TrackPointExtension>
        </extensions>
      </trkpt>
      <trkpt lat="59.06824730336666107177734375" lon="30.08476230315864086151123046875">
        <ele>68.8000030517578125</ele>
        <time>2026-04-26T09:36:38.000Z</time>
        <extensions>
          <ns3:TrackPointExtension>
            <ns3:hr>99</ns3:hr>
          </ns3:TrackPointExtension>
        </extensions>
      </trkpt>
      <trkpt lat="59.068241603672504425048828125" lon="30.08485718630254268646240234375">
        <ele>68.59999847412109375</ele>
        <time>2026-04-26T09:36:44.000Z</time>
        <extensions>
          <ns3:TrackPointExtension>
            <ns3:hr>96</ns3:hr>
          </ns3:TrackPointExtension>
        </extensions>
      </trkpt>
      <trkpt lat="59.068248309195041656494140625" lon="30.0849023647606372833251953125">
        <ele>68.59999847412109375</ele>
        <time>2026-04-26T09:36:48.000Z</time>
        <extensions>
          <ns3:TrackPointExtension>
            <ns3:hr>96</ns3:hr>
          </ns3:TrackPointExtension>
        </extensions>
      </trkpt>
      <trkpt lat="59.06824906356632709503173828125" lon="30.08491803891956806182861328125">
        <ele>68.59999847412109375</ele>
        <time>2026-04-26T09:36:49.000Z</time>
        <extensions>
          <ns3:TrackPointExtension>
            <ns3:hr>99</ns3:hr>
          </ns3:TrackPointExtension>
        </extensions>
      </trkpt>
      <trkpt lat="59.06824990175664424896240234375" lon="30.08492323569953441619873046875">
        <ele>68.59999847412109375</ele>
        <time>2026-04-26T09:36:50.000Z</time>
        <extensions>
          <ns3:TrackPointExtension>
            <ns3:hr>106</ns3:hr>
          </ns3:TrackPointExtension>
        </extensions>
      </trkpt>
      <trkpt lat="59.06825266778469085693359375" lon="30.08494569920003414154052734375">
        <ele>68.59999847412109375</ele>
        <time>2026-04-26T09:36:51.000Z</time>
        <extensions>
          <ns3:TrackPointExtension>
            <ns3:hr>112</ns3:hr>
          </ns3:TrackPointExtension>
        </extensions>
      </trkpt>
      <trkpt lat="59.068253003060817718505859375" lon="30.08495609275996685028076171875">
        <ele>68.59999847412109375</ele>
        <time>2026-04-26T09:36:52.000Z</time>
        <extensions>
          <ns3:TrackPointExtension>
            <ns3:hr>115</ns3:hr>
          </ns3:TrackPointExtension>
        </extensions>
      </trkpt>
      <trkpt lat="59.06825560145080089569091796875" lon="30.08497570641338825225830078125">
        <ele>68.59999847412109375</ele>
        <time>2026-04-26T09:36:53.000Z</time>
        <extensions>
          <ns3:TrackPointExtension>
            <ns3:hr>115</ns3:hr>
          </ns3:TrackPointExtension>
        </extensions>
      </trkpt>
      <trkpt lat="59.06826884485781192779541015625" lon="30.084987692534923553466796875">
        <ele>68.59999847412109375</ele>
        <time>2026-04-26T09:36:54.000Z</time>
        <extensions>
          <ns3:TrackPointExtension>
            <ns3:hr>116</ns3:hr>
          </ns3:TrackPointExtension>
        </extensions>
      </trkpt>
      <trkpt lat="59.06826633028686046600341796875" lon="30.0850052945315837860107421875">
        <ele>68.59999847412109375</ele>
        <time>2026-04-26T09:36:55.000Z</time>
        <extensions>
          <ns3:TrackPointExtension>
            <ns3:hr>116</ns3:hr>
          </ns3:TrackPointExtension>
        </extensions>
      </trkpt>
      <trkpt lat="59.06825258396565914154052734375" lon="30.08501258678734302520751953125">
        <ele>68.59999847412109375</ele>
        <time>2026-04-26T09:36:57.000Z</time>
        <extensions>
          <ns3:TrackPointExtension>
            <ns3:hr>115</ns3:hr>
          </ns3:TrackPointExtension>
        </extensions>
      </trkpt>
      <trkpt lat="59.06824403442442417144775390625" lon="30.0850575976073741912841796875">
        <ele>68.59999847412109375</ele>
        <time>2026-04-26T09:36:59.000Z</time>
        <extensions>
          <ns3:TrackPointExtension>
            <ns3:hr>113</ns3:hr>
          </ns3:TrackPointExtension>
        </extensions>
      </trkpt>
      <trkpt lat="59.06824403442442417144775390625" lon="30.0850575976073741912841796875">
        <ele>68.59999847412109375</ele>
        <time>2026-04-26T09:37:00.000Z</time>
        <extensions>
          <ns3:TrackPointExtension>
            <ns3:hr>113</ns3:hr>
          </ns3:TrackPointExtension>
        </extensions>
      </trkpt>
      <trkpt lat="59.06825627200305461883544921875" lon="30.08508970029652118682861328125">
        <ele>68.59999847412109375</ele>
        <time>2026-04-26T09:37:03.000Z</time>
        <extensions>
          <ns3:TrackPointExtension>
            <ns3:hr>112</ns3:hr>
          </ns3:TrackPointExtension>
        </extensions>
      </trkpt>
      <trkpt lat="59.06827102415263652801513671875" lon="30.085168741643428802490234375">
        <ele>68.40000152587890625</ele>
        <time>2026-04-26T09:37:08.000Z</time>
        <extensions>
          <ns3:TrackPointExtension>
            <ns3:hr>110</ns3:hr>
          </ns3:TrackPointExtension>
        </extensions>
      </trkpt>
      <trkpt lat="59.06828158535063266754150390625" lon="30.08522339165210723876953125">
        <ele>68.40000152587890625</ele>
        <time>2026-04-26T09:37:13.000Z</time>
        <extensions>
          <ns3:TrackPointExtension>
            <ns3:hr>109</ns3:hr>
          </ns3:TrackPointExtension>
        </extensions>
      </trkpt>
      <trkpt lat="59.06828829087316989898681640625" lon="30.0852818973362445831298828125">
        <ele>68.40000152587890625</ele>
        <time>2026-04-26T09:37:17.000Z</time>
        <extensions>
          <ns3:TrackPointExtension>
            <ns3:hr>112</ns3:hr>
          </ns3:TrackPointExtension>
        </extensions>
      </trkpt>
      <trkpt lat="59.06829080544412136077880859375" lon="30.0852996669709682464599609375">
        <ele>68.1999969482421875</ele>
        <time>2026-04-26T09:37:18.000Z</time>
        <extensions>
          <ns3:TrackPointExtension>
            <ns3:hr>114</ns3:hr>
          </ns3:TrackPointExtension>
        </extensions>
      </trkpt>
      <trkpt lat="59.068303294479846954345703125" lon="30.08536227978765964508056640625">
        <ele>68.40000152587890625</ele>
        <time>2026-04-26T09:37:22.000Z</time>
        <extensions>
          <ns3:TrackPointExtension>
            <ns3:hr>112</ns3:hr>
          </ns3:TrackPointExtension>
        </extensions>
      </trkpt>
      <trkpt lat="59.0683024562895298004150390625" lon="30.0853593461215496063232421875">
        <ele>68.59999847412109375</ele>
        <time>2026-04-26T09:37:23.000Z</time>
        <extensions>
          <ns3:TrackPointExtension>
            <ns3:hr>111</ns3:hr>
          </ns3:TrackPointExtension>
        </extensions>
      </trkpt>
      <trkpt lat="59.0682786516845226287841796875" lon="30.085457079112529754638671875">
        <ele>68.40000152587890625</ele>
        <time>2026-04-26T09:37:29.000Z</time>
        <extensions>
          <ns3:TrackPointExtension>
            <ns3:hr>109</ns3:hr>
          </ns3:TrackPointExtension>
        </extensions>
      </trkpt>
      <trkpt lat="59.0682625584304332733154296875" lon="30.08552648127079010009765625">
        <ele>68.40000152587890625</ele>
        <time>2026-04-26T09:37:33.000Z</time>
        <extensions>
          <ns3:TrackPointExtension>
            <ns3:hr>106</ns3:hr>
          </ns3:TrackPointExtension>
        </extensions>
      </trkpt>
      <trkpt lat="59.06826163642108440399169921875" lon="30.08553310297429561614990234375">
        <ele>68.40000152587890625</ele>
        <time>2026-04-26T09:37:34.000Z</time>
        <extensions>
          <ns3:TrackPointExtension>
            <ns3:hr>105</ns3:hr>
          </ns3:TrackPointExtension>
        </extensions>
      </trkpt>
      <trkpt lat="59.0682830102741718292236328125" lon="30.08557744324207305908203125">
        <ele>68.40000152587890625</ele>
        <time>2026-04-26T09:37:39.000Z</time>
        <extensions>
          <ns3:TrackPointExtension>
            <ns3:hr>105</ns3:hr>
          </ns3:TrackPointExtension>
        </extensions>
      </trkpt>
      <trkpt lat="59.06829834915697574615478515625" lon="30.08558222092688083648681640625">
        <ele>68.1999969482421875</ele>
        <time>2026-04-26T09:37:42.000Z</time>
        <extensions>
          <ns3:TrackPointExtension>
            <ns3:hr>108</ns3:hr>
          </ns3:TrackPointExtension>
        </extensions>
      </trkpt>
      <trkpt lat="59.0683017857372760772705078125" lon="30.08560149930417537689208984375">
        <ele>68.1999969482421875</ele>
        <time>2026-04-26T09:37:43.000Z</time>
        <extensions>
          <ns3:TrackPointExtension>
            <ns3:hr>110</ns3:hr>
          </ns3:TrackPointExtension>
        </extensions>
      </trkpt>
      <trkpt lat="59.06832349486649036407470703125" lon="30.08569420315325260162353515625">
        <ele>68.40000152587890625</ele>
        <time>2026-04-26T09:37:48.000Z</time>
        <extensions>
          <ns3:TrackPointExtension>
            <ns3:hr>112</ns3:hr>
          </ns3:TrackPointExtension>
        </extensions>
      </trkpt>
      <trkpt lat="59.068312011659145355224609375" lon="30.08572152815759181976318359375">
        <ele>68.40000152587890625</ele>
        <time>2026-04-26T09:37:54.000Z</time>
        <extensions>
          <ns3:TrackPointExtension>
            <ns3:hr>113</ns3:hr>
          </ns3:TrackPointExtension>
        </extensions>
      </trkpt>
      <trkpt lat="59.068315029144287109375" lon="30.08574449457228183746337890625">
        <ele>68.40000152587890625</ele>
        <time>2026-04-26T09:37:55.000Z</time>
        <extensions>
          <ns3:TrackPointExtension>
            <ns3:hr>118</ns3:hr>
          </ns3:TrackPointExtension>
        </extensions>
      </trkpt>
      <trkpt lat="59.0683056414127349853515625" lon="30.085762850940227508544921875">
        <ele>68.40000152587890625</ele>
        <time>2026-04-26T09:37:56.000Z</time>
        <extensions>
          <ns3:TrackPointExtension>
            <ns3:hr>124</ns3:hr>
          </ns3:TrackPointExtension>
        </extensions>
      </trkpt>
      <trkpt lat="59.06830555759370326995849609375" lon="30.0857831351459026336669921875">
        <ele>68.40000152587890625</ele>
        <time>2026-04-26T09:37:57.000Z</time>
        <extensions>
          <ns3:TrackPointExtension>
            <ns3:hr>123</ns3:hr>
          </ns3:TrackPointExtension>
        </extensions>
      </trkpt>
      <trkpt lat="59.06830254010856151580810546875" lon="30.08579310961067676544189453125">
        <ele>68.40000152587890625</ele>
        <time>2026-04-26T09:37:58.000Z</time>
        <extensions>
          <ns3:TrackPointExtension>
            <ns3:hr>122</ns3:hr>
          </ns3:TrackPointExtension>
        </extensions>
      </trkpt>
      <trkpt lat="59.0682841837406158447265625" lon="30.08583401329815387725830078125">
        <ele>68.1999969482421875</ele>
        <time>2026-04-26T09:38:03.000Z</time>
        <extensions>
          <ns3:TrackPointExtension>
            <ns3:hr>121</ns3:hr>
          </ns3:TrackPointExtension>
        </extensions>
      </trkpt>
      <trkpt lat="59.06829030252993106842041015625" lon="30.0858532078564167022705078125">
        <ele>68.59999847412109375</ele>
        <time>2026-04-26T09:38:11.000Z</time>
        <extensions>
          <ns3:TrackPointExtension>
            <ns3:hr>122</ns3:hr>
          </ns3:TrackPointExtension>
        </extensions>
      </trkpt>
      <trkpt lat="59.06829030252993106842041015625" lon="30.0858532078564167022705078125">
        <ele>68.40000152587890625</ele>
        <time>2026-04-26T09:38:18.000Z</time>
        <extensions>
          <ns3:TrackPointExtension>
            <ns3:hr>119</ns3:hr>
          </ns3:TrackPointExtension>
        </extensions>
      </trkpt>
      <trkpt lat="59.06829030252993106842041015625" lon="30.0858532078564167022705078125">
        <ele>68.1999969482421875</ele>
        <time>2026-04-26T09:38:26.000Z</time>
        <extensions>
          <ns3:TrackPointExtension>
            <ns3:hr>117</ns3:hr>
          </ns3:TrackPointExtension>
        </extensions>
      </trkpt>
      <trkpt lat="59.06829030252993106842041015625" lon="30.0858532078564167022705078125">
        <ele>68.40000152587890625</ele>
        <time>2026-04-26T09:38:37.000Z</time>
        <extensions>
          <ns3:TrackPointExtension>
            <ns3:hr>113</ns3:hr>
          </ns3:TrackPointExtension>
        </extensions>
      </trkpt>
      <trkpt lat="59.06829030252993106842041015625" lon="30.0858532078564167022705078125">
        <ele>68.1999969482421875</ele>
        <time>2026-04-26T09:38:38.000Z</time>
        <extensions>
          <ns3:TrackPointExtension>
            <ns3:hr>112</ns3:hr>
          </ns3:TrackPointExtension>
        </extensions>
      </trkpt>
      <trkpt lat="59.06829030252993106842041015625" lon="30.0858532078564167022705078125">
        <ele>68.40000152587890625</ele>
        <time>2026-04-26T09:38:44.000Z</time>
        <extensions>
          <ns3:TrackPointExtension>
            <ns3:hr>109</ns3:hr>
          </ns3:TrackPointExtension>
        </extensions>
      </trkpt>
      <trkpt lat="59.06829030252993106842041015625" lon="30.0858532078564167022705078125">
        <ele>68.40000152587890625</ele>
        <time>2026-04-26T09:38:46.000Z</time>
        <extensions>
          <ns3:TrackPointExtension>
            <ns3:hr>109</ns3:hr>
          </ns3:TrackPointExtension>
        </extensions>
      </trkpt>
      <trkpt lat="59.06829030252993106842041015625" lon="30.0858532078564167022705078125">
        <ele>68.40000152587890625</ele>
        <time>2026-04-26T09:38:54.000Z</time>
        <extensions>
          <ns3:TrackPointExtension>
            <ns3:hr>107</ns3:hr>
          </ns3:TrackPointExtension>
        </extensions>
      </trkpt>
      <trkpt lat="59.0682856924831867218017578125" lon="30.08584876544773578643798828125">
        <ele>68.40000152587890625</ele>
        <time>2026-04-26T09:38:55.000Z</time>
        <extensions>
          <ns3:TrackPointExtension>
            <ns3:hr>107</ns3:hr>
          </ns3:TrackPointExtension>
        </extensions>
      </trkpt>
      <trkpt lat="59.06829834915697574615478515625" lon="30.08588447235524654388427734375">
        <ele>68.40000152587890625</ele>
        <time>2026-04-26T09:38:58.000Z</time>
        <extensions>
          <ns3:TrackPointExtension>
            <ns3:hr>106</ns3:hr>
          </ns3:TrackPointExtension>
        </extensions>
      </trkpt>
      <trkpt lat="59.06831125728785991668701171875" lon="30.0859497673809528350830078125">
        <ele>68.40000152587890625</ele>
        <time>2026-04-26T09:39:04.000Z</time>
        <extensions>
          <ns3:TrackPointExtension>
            <ns3:hr>105</ns3:hr>
          </ns3:TrackPointExtension>
        </extensions>
      </trkpt>
      <trkpt lat="59.0683141909539699554443359375" lon="30.0859722308814525604248046875">
        <ele>68.40000152587890625</ele>
        <time>2026-04-26T09:39:05.000Z</time>
        <extensions>
          <ns3:TrackPointExtension>
            <ns3:hr>106</ns3:hr>
          </ns3:TrackPointExtension>
        </extensions>
      </trkpt>
      <trkpt lat="59.0683208964765071868896484375" lon="30.08598807267844676971435546875">
        <ele>68.40000152587890625</ele>
        <time>2026-04-26T09:39:10.000Z</time>
        <extensions>
          <ns3:TrackPointExtension>
            <ns3:hr>109</ns3:hr>
          </ns3:TrackPointExtension>
        </extensions>
      </trkpt>
      <trkpt lat="59.0683208964765071868896484375" lon="30.08598807267844676971435546875">
        <ele>68.40000152587890625</ele>
        <time>2026-04-26T09:39:11.000Z</time>
        <extensions>
          <ns3:TrackPointExtension>
            <ns3:hr>109</ns3:hr>
          </ns3:TrackPointExtension>
        </extensions>
      </trkpt>
      <trkpt lat="59.06833422370254993438720703125" lon="30.0860233604907989501953125">
        <ele>68.40000152587890625</ele>
        <time>2026-04-26T09:39:16.000Z</time>
        <extensions>
          <ns3:TrackPointExtension>
            <ns3:hr>106</ns3:hr>
          </ns3:TrackPointExtension>
        </extensions>
      </trkpt>
      <trkpt lat="59.06835727393627166748046875" lon="30.0860275514423847198486328125">
        <ele>68.40000152587890625</ele>
        <time>2026-04-26T09:39:19.000Z</time>
        <extensions>
          <ns3:TrackPointExtension>
            <ns3:hr>104</ns3:hr>
          </ns3:TrackPointExtension>
        </extensions>
      </trkpt>
      <trkpt lat="59.0683597885072231292724609375" lon="30.0860332511365413665771484375">
        <ele>68.59999847412109375</ele>
        <time>2026-04-26T09:39:22.000Z</time>
        <extensions>
          <ns3:TrackPointExtension>
            <ns3:hr>101</ns3:hr>
          </ns3:TrackPointExtension>
        </extensions>
      </trkpt>
      <trkpt lat="59.06835383735597133636474609375" lon="30.08601196110248565673828125">
        <ele>68.59999847412109375</ele>
        <time>2026-04-26T09:39:24.000Z</time>
        <extensions>
          <ns3:TrackPointExtension>
            <ns3:hr>99</ns3:hr>
          </ns3:TrackPointExtension>
        </extensions>
      </trkpt>
      <trkpt lat="59.06835517846047878265380859375" lon="30.08600902743637561798095703125">
        <ele>68.1999969482421875</ele>
        <time>2026-04-26T09:39:28.000Z</time>
        <extensions>
          <ns3:TrackPointExtension>
            <ns3:hr>100</ns3:hr>
          </ns3:TrackPointExtension>
        </extensions>
      </trkpt>
      <trkpt lat="59.06836657784879207611083984375" lon="30.08599695749580860137939453125">
        <ele>68.59999847412109375</ele>
        <time>2026-04-26T09:39:31.000Z</time>
        <extensions>
          <ns3:TrackPointExtension>
            <ns3:hr>101</ns3:hr>
          </ns3:TrackPointExtension>
        </extensions>
      </trkpt>
      <trkpt lat="59.06836808659136295318603515625" lon="30.085997879505157470703125">
        <ele>68.40000152587890625</ele>
        <time>2026-04-26T09:39:33.000Z</time>
        <extensions>
          <ns3:TrackPointExtension>
            <ns3:hr>100</ns3:hr>
          </ns3:TrackPointExtension>
        </extensions>
      </trkpt>
      <trkpt lat="59.068372361361980438232421875" lon="30.08597181178629398345947265625">
        <ele>68.1999969482421875</ele>
        <time>2026-04-26T09:39:38.000Z</time>
        <extensions>
          <ns3:TrackPointExtension>
            <ns3:hr>100</ns3:hr>
          </ns3:TrackPointExtension>
        </extensions>
      </trkpt>
      <trkpt lat="59.068364985287189483642578125" lon="30.0859940238296985626220703125">
        <ele>68</ele>
        <time>2026-04-26T09:39:40.000Z</time>
        <extensions>
          <ns3:TrackPointExtension>
            <ns3:hr>101</ns3:hr>
          </ns3:TrackPointExtension>
        </extensions>
      </trkpt>
      <trkpt lat="59.068368338048458099365234375" lon="30.0859950296580791473388671875">
        <ele>68</ele>
        <time>2026-04-26T09:39:41.000Z</time>
        <extensions>
          <ns3:TrackPointExtension>
            <ns3:hr>101</ns3:hr>
          </ns3:TrackPointExtension>
        </extensions>
      </trkpt>
      <trkpt lat="59.06839524395763874053955078125" lon="30.08598111569881439208984375">
        <ele>68</ele>
        <time>2026-04-26T09:39:44.000Z</time>
        <extensions>
          <ns3:TrackPointExtension>
            <ns3:hr>103</ns3:hr>
          </ns3:TrackPointExtension>
        </extensions>
      </trkpt>
      <trkpt lat="59.06843028031289577484130859375" lon="30.08595831692218780517578125">
        <ele>68</ele>
        <time>2026-04-26T09:39:47.000Z</time>
        <extensions>
          <ns3:TrackPointExtension>
            <ns3:hr>106</ns3:hr>
          </ns3:TrackPointExtension>
        </extensions>
      </trkpt>
      <trkpt lat="59.0684466250240802764892578125" lon="30.085931830108165740966796875">
        <ele>68</ele>
        <time>2026-04-26T09:39:49.000Z</time>
        <extensions>
          <ns3:TrackPointExtension>
            <ns3:hr>106</ns3:hr>
          </ns3:TrackPointExtension>
        </extensions>
      </trkpt>
      <trkpt lat="59.0684643946588039398193359375" lon="30.08593124337494373321533203125">
        <ele>68.40000152587890625</ele>
        <time>2026-04-26T09:39:53.000Z</time>
        <extensions>
          <ns3:TrackPointExtension>
            <ns3:hr>105</ns3:hr>
          </ns3:TrackPointExtension>
        </extensions>
      </trkpt>
      <trkpt lat="59.06848208047449588775634765625" lon="30.08592872880399227142333984375">
        <ele>68.1999969482421875</ele>
        <time>2026-04-26T09:39:58.000Z</time>
        <extensions>
          <ns3:TrackPointExtension>
            <ns3:hr>106</ns3:hr>
          </ns3:TrackPointExtension>
        </extensions>
      </trkpt>
      <trkpt lat="59.0684759616851806640625" lon="30.0859098695218563079833984375">
        <ele>67.8000030517578125</ele>
        <time>2026-04-26T09:40:02.000Z</time>
        <extensions>
          <ns3:TrackPointExtension>
            <ns3:hr>109</ns3:hr>
          </ns3:TrackPointExtension>
        </extensions>
      </trkpt>
      <trkpt lat="59.06846833415329456329345703125" lon="30.0859001465141773223876953125">
        <ele>67.8000030517578125</ele>
        <time>2026-04-26T09:40:04.000Z</time>
        <extensions>
          <ns3:TrackPointExtension>
            <ns3:hr>111</ns3:hr>
          </ns3:TrackPointExtension>
        </extensions>
      </trkpt>
      <trkpt lat="59.0684771351516246795654296875" lon="30.08583837188780307769775390625">
        <ele>68</ele>
        <time>2026-04-26T09:40:09.000Z</time>
        <extensions>
          <ns3:TrackPointExtension>
            <ns3:hr>112</ns3:hr>
          </ns3:TrackPointExtension>
        </extensions>
      </trkpt>
      <trkpt lat="59.0685260854661464691162109375" lon="30.085842646658420562744140625">
        <ele>68.1999969482421875</ele>
        <time>2026-04-26T09:40:15.000Z</time>
        <extensions>
          <ns3:TrackPointExtension>
            <ns3:hr>114</ns3:hr>
          </ns3:TrackPointExtension>
        </extensions>
      </trkpt>
      <trkpt lat="59.068547375500202178955078125" lon="30.08581347763538360595703125">
        <ele>68.59999847412109375</ele>
        <time>2026-04-26T09:40:18.000Z</time>
        <extensions>
          <ns3:TrackPointExtension>
            <ns3:hr>116</ns3:hr>
          </ns3:TrackPointExtension>
        </extensions>
      </trkpt>
      <trkpt lat="59.06856556423008441925048828125" lon="30.085825882852077484130859375">
        <ele>68.59999847412109375</ele>
        <time>2026-04-26T09:40:20.000Z</time>
        <extensions>
          <ns3:TrackPointExtension>
            <ns3:hr>117</ns3:hr>
          </ns3:TrackPointExtension>
        </extensions>
      </trkpt>
      <trkpt lat="59.06860294751822948455810546875" lon="30.08582278154790401458740234375">
        <ele>68.1999969482421875</ele>
        <time>2026-04-26T09:40:26.000Z</time>
        <extensions>
          <ns3:TrackPointExtension>
            <ns3:hr>120</ns3:hr>
          </ns3:TrackPointExtension>
        </extensions>
      </trkpt>
      <trkpt lat="59.06861233524978160858154296875" lon="30.0858116336166858673095703125">
        <ele>68.1999969482421875</ele>
        <time>2026-04-26T09:40:27.000Z</time>
        <extensions>
          <ns3:TrackPointExtension>
            <ns3:hr>119</ns3:hr>
          </ns3:TrackPointExtension>
        </extensions>
      </trkpt>
      <trkpt lat="59.06864720396697521209716796875" lon="30.08579210378229618072509765625">
        <ele>68</ele>
        <time>2026-04-26T09:40:31.000Z</time>
        <extensions>
          <ns3:TrackPointExtension>
            <ns3:hr>120</ns3:hr>
          </ns3:TrackPointExtension>
        </extensions>
      </trkpt>
      <trkpt lat="59.068653322756290435791015625" lon="30.0857854820787906646728515625">
        <ele>68</ele>
        <time>2026-04-26T09:40:32.000Z</time>
        <extensions>
          <ns3:TrackPointExtension>
            <ns3:hr>120</ns3:hr>
          </ns3:TrackPointExtension>
        </extensions>
      </trkpt>
      <trkpt lat="59.068676121532917022705078125" lon="30.0857864879071712493896484375">
        <ele>68.1999969482421875</ele>
        <time>2026-04-26T09:40:35.000Z</time>
        <extensions>
          <ns3:TrackPointExtension>
            <ns3:hr>121</ns3:hr>
          </ns3:TrackPointExtension>
        </extensions>
      </trkpt>
      <trkpt lat="59.06869095750153064727783203125" lon="30.08581750094890594482421875">
        <ele>68</ele>
        <time>2026-04-26T09:40:40.000Z</time>
        <extensions>
          <ns3:TrackPointExtension>
            <ns3:hr>119</ns3:hr>
          </ns3:TrackPointExtension>
        </extensions>
      </trkpt>
      <trkpt lat="59.06872699968516826629638671875" lon="30.0858168303966522216796875">
        <ele>68</ele>
        <time>2026-04-26T09:40:43.000Z</time>
        <extensions>
          <ns3:TrackPointExtension>
            <ns3:hr>116</ns3:hr>
          </ns3:TrackPointExtension>
        </extensions>
      </trkpt>
      <trkpt lat="59.068733789026737213134765625" lon="30.08579160086810588836669921875">
        <ele>68</ele>
        <time>2026-04-26T09:40:45.000Z</time>
        <extensions>
          <ns3:TrackPointExtension>
            <ns3:hr>114</ns3:hr>
          </ns3:TrackPointExtension>
        </extensions>
      </trkpt>
      <trkpt lat="59.06875013373792171478271484375" lon="30.08579478599131107330322265625">
        <ele>68.1999969482421875</ele>
        <time>2026-04-26T09:40:49.000Z</time>
        <extensions>
          <ns3:TrackPointExtension>
            <ns3:hr>114</ns3:hr>
          </ns3:TrackPointExtension>
        </extensions>
      </trkpt>
      <trkpt lat="59.06875784508883953094482421875" lon="30.0857898406684398651123046875">
        <ele>68.1999969482421875</ele>
        <time>2026-04-26T09:40:50.000Z</time>
        <extensions>
          <ns3:TrackPointExtension>
            <ns3:hr>117</ns3:hr>
          </ns3:TrackPointExtension>
        </extensions>
      </trkpt>
      <trkpt lat="59.0687688253819942474365234375" lon="30.08577902801334857940673828125">
        <ele>68.1999969482421875</ele>
        <time>2026-04-26T09:40:54.000Z</time>
        <extensions>
          <ns3:TrackPointExtension>
            <ns3:hr>118</ns3:hr>
          </ns3:TrackPointExtension>
        </extensions>
      </trkpt>
      <trkpt lat="59.0687933005392551422119140625" lon="30.085777938365936279296875">
        <ele>68.40000152587890625</ele>
        <time>2026-04-26T09:41:00.000Z</time>
        <extensions>
          <ns3:TrackPointExtension>
            <ns3:hr>119</ns3:hr>
          </ns3:TrackPointExtension>
        </extensions>
      </trkpt>
      <trkpt lat="59.06879581511020660400390625" lon="30.0857898406684398651123046875">
        <ele>68.1999969482421875</ele>
        <time>2026-04-26T09:41:04.000Z</time>
        <extensions>
          <ns3:TrackPointExtension>
            <ns3:hr>112</ns3:hr>
          </ns3:TrackPointExtension>
        </extensions>
      </trkpt>
      <trkpt lat="59.06879581511020660400390625" lon="30.0857898406684398651123046875">
        <ele>68.1999969482421875</ele>
        <time>2026-04-26T09:41:05.000Z</time>
        <extensions>
          <ns3:TrackPointExtension>
            <ns3:hr>106</ns3:hr>
          </ns3:TrackPointExtension>
        </extensions>
      </trkpt>
      <trkpt lat="59.0687949769198894500732421875" lon="30.085791684687137603759765625">
        <ele>68</ele>
        <time>2026-04-26T09:41:06.000Z</time>
        <extensions>
          <ns3:TrackPointExtension>
            <ns3:hr>103</ns3:hr>
          </ns3:TrackPointExtension>
        </extensions>
      </trkpt>
      <trkpt lat="59.06879581511020660400390625" lon="30.0857898406684398651123046875">
        <ele>68</ele>
        <time>2026-04-26T09:41:08.000Z</time>
        <extensions>
          <ns3:TrackPointExtension>
            <ns3:hr>100</ns3:hr>
          </ns3:TrackPointExtension>
        </extensions>
      </trkpt>
      <trkpt lat="59.06880595721304416656494140625" lon="30.0857938639819622039794921875">
        <ele>67.8000030517578125</ele>
        <time>2026-04-26T09:41:11.000Z</time>
        <extensions>
          <ns3:TrackPointExtension>
            <ns3:hr>106</ns3:hr>
          </ns3:TrackPointExtension>
        </extensions>
      </trkpt>
      <trkpt lat="59.06881383620202541351318359375" lon="30.08579059503972530364990234375">
        <ele>67.8000030517578125</ele>
        <time>2026-04-26T09:41:12.000Z</time>
        <extensions>
          <ns3:TrackPointExtension>
            <ns3:hr>110</ns3:hr>
          </ns3:TrackPointExtension>
        </extensions>
      </trkpt>
      <trkpt lat="59.06881459057331085205078125" lon="30.08578204549849033355712890625">
        <ele>67.8000030517578125</ele>
        <time>2026-04-26T09:41:13.000Z</time>
        <extensions>
          <ns3:TrackPointExtension>
            <ns3:hr>114</ns3:hr>
          </ns3:TrackPointExtension>
        </extensions>
      </trkpt>
      <trkpt lat="59.0688207931816577911376953125" lon="30.08576343767344951629638671875">
        <ele>67.8000030517578125</ele>
        <time>2026-04-26T09:41:14.000Z</time>
        <extensions>
          <ns3:TrackPointExtension>
            <ns3:hr>114</ns3:hr>
          </ns3:TrackPointExtension>
        </extensions>
      </trkpt>
      <trkpt lat="59.0688486211001873016357421875" lon="30.08574466221034526824951171875">
        <ele>67.59999847412109375</ele>
        <time>2026-04-26T09:41:18.000Z</time>
        <extensions>
          <ns3:TrackPointExtension>
            <ns3:hr>114</ns3:hr>
          </ns3:TrackPointExtension>
        </extensions>
      </trkpt>
      <trkpt lat="59.06887016259133815765380859375" lon="30.08573628030717372894287109375">
        <ele>67.8000030517578125</ele>
        <time>2026-04-26T09:41:21.000Z</time>
        <extensions>
          <ns3:TrackPointExtension>
            <ns3:hr>113</ns3:hr>
          </ns3:TrackPointExtension>
        </extensions>
      </trkpt>
      <trkpt lat="59.06889061443507671356201171875" lon="30.085716582834720611572265625">
        <ele>67.8000030517578125</ele>
        <time>2026-04-26T09:41:23.000Z</time>
        <extensions>
          <ns3:TrackPointExtension>
            <ns3:hr>113</ns3:hr>
          </ns3:TrackPointExtension>
        </extensions>
      </trkpt>
      <trkpt lat="59.06888407655060291290283203125" lon="30.0857033394277095794677734375">
        <ele>67.59999847412109375</ele>
        <time>2026-04-26T09:41:28.000Z</time>
        <extensions>
          <ns3:TrackPointExtension>
            <ns3:hr>115</ns3:hr>
          </ns3:TrackPointExtension>
        </extensions>
      </trkpt>
      <trkpt lat="59.0689277462661266326904296875" lon="30.0857046805322170257568359375">
        <ele>68</ele>
        <time>2026-04-26T09:41:33.000Z</time>
        <extensions>
          <ns3:TrackPointExtension>
            <ns3:hr>116</ns3:hr>
          </ns3:TrackPointExtension>
        </extensions>
      </trkpt>
      <trkpt lat="59.0689461864531040191650390625" lon="30.08567710407078266143798828125">
        <ele>67.8000030517578125</ele>
        <time>2026-04-26T09:41:37.000Z</time>
        <extensions>
          <ns3:TrackPointExtension>
            <ns3:hr>115</ns3:hr>
          </ns3:TrackPointExtension>
        </extensions>
      </trkpt>
      <trkpt lat="59.0689649619162082672119140625" lon="30.0856654532253742218017578125">
        <ele>67.8000030517578125</ele>
        <time>2026-04-26T09:41:42.000Z</time>
        <extensions>
          <ns3:TrackPointExtension>
            <ns3:hr>118</ns3:hr>
          </ns3:TrackPointExtension>
        </extensions>
      </trkpt>
      <trkpt lat="59.0689736790955066680908203125" lon="30.08567626588046550750732421875">
        <ele>67.8000030517578125</ele>
        <time>2026-04-26T09:41:43.000Z</time>
        <extensions>
          <ns3:TrackPointExtension>
            <ns3:hr>123</ns3:hr>
          </ns3:TrackPointExtension>
        </extensions>
      </trkpt>
      <trkpt lat="59.06898180954158306121826171875" lon="30.08568246848881244659423828125">
        <ele>67.8000030517578125</ele>
        <time>2026-04-26T09:41:44.000Z</time>
        <extensions>
          <ns3:TrackPointExtension>
            <ns3:hr>129</ns3:hr>
          </ns3:TrackPointExtension>
        </extensions>
      </trkpt>
      <trkpt lat="59.06899639405310153961181640625" lon="30.0856936164200305938720703125">
        <ele>67.8000030517578125</ele>
        <time>2026-04-26T09:41:47.000Z</time>
        <extensions>
          <ns3:TrackPointExtension>
            <ns3:hr>123</ns3:hr>
          </ns3:TrackPointExtension>
        </extensions>
      </trkpt>
      <trkpt lat="59.0690112300217151641845703125" lon="30.0856934487819671630859375">
        <ele>67.8000030517578125</ele>
        <time>2026-04-26T09:41:48.000Z</time>
        <extensions>
          <ns3:TrackPointExtension>
            <ns3:hr>115</ns3:hr>
          </ns3:TrackPointExtension>
        </extensions>
      </trkpt>
      <trkpt lat="59.06901868991553783416748046875" lon="30.08568582125008106231689453125">
        <ele>67.8000030517578125</ele>
        <time>2026-04-26T09:41:49.000Z</time>
        <extensions>
          <ns3:TrackPointExtension>
            <ns3:hr>108</ns3:hr>
          </ns3:TrackPointExtension>
        </extensions>
      </trkpt>
      <trkpt lat="59.06903813593089580535888671875" lon="30.08566553704440593719482421875">
        <ele>67.8000030517578125</ele>
        <time>2026-04-26T09:41:53.000Z</time>
        <extensions>
          <ns3:TrackPointExtension>
            <ns3:hr>107</ns3:hr>
          </ns3:TrackPointExtension>
        </extensions>
      </trkpt>
      <trkpt lat="59.0690662153065204620361328125" lon="30.0856617651879787445068359375">
        <ele>68</ele>
        <time>2026-04-26T09:41:58.000Z</time>
        <extensions>
          <ns3:TrackPointExtension>
            <ns3:hr>107</ns3:hr>
          </ns3:TrackPointExtension>
        </extensions>
      </trkpt>
      <trkpt lat="59.06908155418932437896728515625" lon="30.08566997945308685302734375">
        <ele>68</ele>
        <time>2026-04-26T09:41:59.000Z</time>
        <extensions>
          <ns3:TrackPointExtension>
            <ns3:hr>107</ns3:hr>
          </ns3:TrackPointExtension>
        </extensions>
      </trkpt>
      <trkpt lat="59.0690930373966693878173828125" lon="30.0856694765388965606689453125">
        <ele>67.8000030517578125</ele>
        <time>2026-04-26T09:42:01.000Z</time>
        <extensions>
          <ns3:TrackPointExtension>
            <ns3:hr>107</ns3:hr>
          </ns3:TrackPointExtension>
        </extensions>
      </trkpt>
      <trkpt lat="59.06910049729049205780029296875" lon="30.08564508520066738128662109375">
        <ele>67.8000030517578125</ele>
        <time>2026-04-26T09:42:02.000Z</time>
        <extensions>
          <ns3:TrackPointExtension>
            <ns3:hr>108</ns3:hr>
          </ns3:TrackPointExtension>
        </extensions>
      </trkpt>
      <trkpt lat="59.06911206431686878204345703125" lon="30.08565430529415607452392578125">
        <ele>67.8000030517578125</ele>
        <time>2026-04-26T09:42:07.000Z</time>
        <extensions>
          <ns3:TrackPointExtension>
            <ns3:hr>110</ns3:hr>
          </ns3:TrackPointExtension>
        </extensions>
      </trkpt>
      <trkpt lat="59.06915028579533100128173828125" lon="30.085641480982303619384765625">
        <ele>67.59999847412109375</ele>
        <time>2026-04-26T09:42:12.000Z</time>
        <extensions>
          <ns3:TrackPointExtension>
            <ns3:hr>113</ns3:hr>
          </ns3:TrackPointExtension>
        </extensions>
      </trkpt>
      <trkpt lat="59.06915799714624881744384765625" lon="30.08564106188714504241943359375">
        <ele>67.59999847412109375</ele>
        <time>2026-04-26T09:42:13.000Z</time>
        <extensions>
          <ns3:TrackPointExtension>
            <ns3:hr>113</ns3:hr>
          </ns3:TrackPointExtension>
        </extensions>
      </trkpt>
      <trkpt lat="59.069173671305179595947265625" lon="30.0856423191726207733154296875">
        <ele>67.8000030517578125</ele>
        <time>2026-04-26T09:42:16.000Z</time>
        <extensions>
          <ns3:TrackPointExtension>
            <ns3:hr>113</ns3:hr>
          </ns3:TrackPointExtension>
        </extensions>
      </trkpt>
      <trkpt lat="59.06919253058731555938720703125" lon="30.08562061004340648651123046875">
        <ele>68</ele>
        <time>2026-04-26T09:42:19.000Z</time>
        <extensions>
          <ns3:TrackPointExtension>
            <ns3:hr>112</ns3:hr>
          </ns3:TrackPointExtension>
        </extensions>
      </trkpt>
      <trkpt lat="59.0692120604217052459716796875" lon="30.08561876602470874786376953125">
        <ele>67.8000030517578125</ele>
        <time>2026-04-26T09:42:21.000Z</time>
        <extensions>
          <ns3:TrackPointExtension>
            <ns3:hr>110</ns3:hr>
          </ns3:TrackPointExtension>
        </extensions>
      </trkpt>
      <trkpt lat="59.06922002322971820831298828125" lon="30.08562128059566020965576171875">
        <ele>67.59999847412109375</ele>
        <time>2026-04-26T09:42:24.000Z</time>
        <extensions>
          <ns3:TrackPointExtension>
            <ns3:hr>107</ns3:hr>
          </ns3:TrackPointExtension>
        </extensions>
      </trkpt>
      <trkpt lat="59.06922639347612857818603515625" lon="30.0856087915599346160888671875">
        <ele>67.59999847412109375</ele>
        <time>2026-04-26T09:42:25.000Z</time>
        <extensions>
          <ns3:TrackPointExtension>
            <ns3:hr>106</ns3:hr>
          </ns3:TrackPointExtension>
        </extensions>
      </trkpt>
      <trkpt lat="59.06924081034958362579345703125" lon="30.08561189286410808563232421875">
        <ele>67.59999847412109375</ele>
        <time>2026-04-26T09:42:28.000Z</time>
        <extensions>
          <ns3:TrackPointExtension>
            <ns3:hr>105</ns3:hr>
          </ns3:TrackPointExtension>
        </extensions>
      </trkpt>
      <trkpt lat="59.06924868933856487274169921875" lon="30.0856103003025054931640625">
        <ele>67.59999847412109375</ele>
        <time>2026-04-26T09:42:30.000Z</time>
        <extensions>
          <ns3:TrackPointExtension>
            <ns3:hr>108</ns3:hr>
          </ns3:TrackPointExtension>
        </extensions>
      </trkpt>
      <trkpt lat="59.0692573226988315582275390625" lon="30.0856104679405689239501953125">
        <ele>67.59999847412109375</ele>
        <time>2026-04-26T09:42:32.000Z</time>
        <extensions>
          <ns3:TrackPointExtension>
            <ns3:hr>115</ns3:hr>
          </ns3:TrackPointExtension>
        </extensions>
      </trkpt>
      <trkpt lat="59.06925824470818042755126953125" lon="30.08561323396861553192138671875">
        <ele>67.59999847412109375</ele>
        <time>2026-04-26T09:42:33.000Z</time>
        <extensions>
          <ns3:TrackPointExtension>
            <ns3:hr>118</ns3:hr>
          </ns3:TrackPointExtension>
        </extensions>
      </trkpt>
      <trkpt lat="59.06927232630550861358642578125" lon="30.0856295786798000335693359375">
        <ele>67.59999847412109375</ele>
        <time>2026-04-26T09:42:35.000Z</time>
        <extensions>
          <ns3:TrackPointExtension>
            <ns3:hr>120</ns3:hr>
          </ns3:TrackPointExtension>
        </extensions>
      </trkpt>
      <trkpt lat="59.06930836848914623260498046875" lon="30.0855967216193675994873046875">
        <ele>67.8000030517578125</ele>
        <time>2026-04-26T09:42:40.000Z</time>
        <extensions>
          <ns3:TrackPointExtension>
            <ns3:hr>122</ns3:hr>
          </ns3:TrackPointExtension>
        </extensions>
      </trkpt>
      <trkpt lat="59.0693329274654388427734375" lon="30.08559353649616241455078125">
        <ele>67.8000030517578125</ele>
        <time>2026-04-26T09:42:43.000Z</time>
        <extensions>
          <ns3:TrackPointExtension>
            <ns3:hr>125</ns3:hr>
          </ns3:TrackPointExtension>
        </extensions>
      </trkpt>
      <trkpt lat="59.06934139318764209747314453125" lon="30.08558289147913455963134765625">
        <ele>67.8000030517578125</ele>
        <time>2026-04-26T09:42:45.000Z</time>
        <extensions>
          <ns3:TrackPointExtension>
            <ns3:hr>127</ns3:hr>
          </ns3:TrackPointExtension>
        </extensions>
      </trkpt>
      <trkpt lat="59.06934927217662334442138671875" lon="30.08558440022170543670654296875">
        <ele>67.59999847412109375</ele>
        <time>2026-04-26T09:42:47.000Z</time>
        <extensions>
          <ns3:TrackPointExtension>
            <ns3:hr>128</ns3:hr>
          </ns3:TrackPointExtension>
        </extensions>
      </trkpt>
      <trkpt lat="59.069349355995655059814453125" lon="30.08558456785976886749267578125">
        <ele>67.8000030517578125</ele>
        <time>2026-04-26T09:42:49.000Z</time>
        <extensions>
          <ns3:TrackPointExtension>
            <ns3:hr>129</ns3:hr>
          </ns3:TrackPointExtension>
        </extensions>
      </trkpt>
      <trkpt lat="59.069386906921863555908203125" lon="30.08558926172554492950439453125">
        <ele>67.8000030517578125</ele>
        <time>2026-04-26T09:42:53.000Z</time>
        <extensions>
          <ns3:TrackPointExtension>
            <ns3:hr>129</ns3:hr>
          </ns3:TrackPointExtension>
        </extensions>
      </trkpt>
      <trkpt lat="59.06939134933054447174072265625" lon="30.08558205328881740570068359375">
        <ele>67.8000030517578125</ele>
        <time>2026-04-26T09:42:55.000Z</time>
        <extensions>
          <ns3:TrackPointExtension>
            <ns3:hr>129</ns3:hr>
          </ns3:TrackPointExtension>
        </extensions>
      </trkpt>
      <trkpt lat="59.069396965205669403076171875" lon="30.08557283319532871246337890625">
        <ele>67.59999847412109375</ele>
        <time>2026-04-26T09:42:58.000Z</time>
        <extensions>
          <ns3:TrackPointExtension>
            <ns3:hr>129</ns3:hr>
          </ns3:TrackPointExtension>
        </extensions>
      </trkpt>
      <trkpt lat="59.0694242902100086212158203125" lon="30.08556294254958629608154296875">
        <ele>67.8000030517578125</ele>
        <time>2026-04-26T09:43:00.000Z</time>
        <extensions>
          <ns3:TrackPointExtension>
            <ns3:hr>130</ns3:hr>
          </ns3:TrackPointExtension>
        </extensions>
      </trkpt>
      <trkpt lat="59.0694249607622623443603515625" lon="30.0855648703873157501220703125">
        <ele>67.8000030517578125</ele>
        <time>2026-04-26T09:43:03.000Z</time>
        <extensions>
          <ns3:TrackPointExtension>
            <ns3:hr>129</ns3:hr>
          </ns3:TrackPointExtension>
        </extensions>
      </trkpt>
      <trkpt lat="59.06943342648446559906005859375" lon="30.0855336897075176239013671875">
        <ele>67.8000030517578125</ele>
        <time>2026-04-26T09:43:07.000Z</time>
        <extensions>
          <ns3:TrackPointExtension>
            <ns3:hr>132</ns3:hr>
          </ns3:TrackPointExtension>
        </extensions>
      </trkpt>
      <trkpt lat="59.06943342648446559906005859375" lon="30.0855336897075176239013671875">
        <ele>67.59999847412109375</ele>
        <time>2026-04-26T09:43:10.000Z</time>
        <extensions>
          <ns3:TrackPointExtension>
            <ns3:hr>131</ns3:hr>
          </ns3:TrackPointExtension>
        </extensions>
      </trkpt>
      <trkpt lat="59.06943342648446559906005859375" lon="30.0855336897075176239013671875">
        <ele>67.59999847412109375</ele>
        <time>2026-04-26T09:43:15.000Z</time>
        <extensions>
          <ns3:TrackPointExtension>
            <ns3:hr>129</ns3:hr>
          </ns3:TrackPointExtension>
        </extensions>
      </trkpt>
      <trkpt lat="59.06943342648446559906005859375" lon="30.0855336897075176239013671875">
        <ele>67.59999847412109375</ele>
        <time>2026-04-26T09:43:21.000Z</time>
        <extensions>
          <ns3:TrackPointExtension>
            <ns3:hr>128</ns3:hr>
          </ns3:TrackPointExtension>
        </extensions>
      </trkpt>
      <trkpt lat="59.0694350190460681915283203125" lon="30.0855340249836444854736328125">
        <ele>67.8000030517578125</ele>
        <time>2026-04-26T09:43:26.000Z</time>
        <extensions>
          <ns3:TrackPointExtension>
            <ns3:hr>127</ns3:hr>
          </ns3:TrackPointExtension>
        </extensions>
      </trkpt>
      <trkpt lat="59.0694350190460681915283203125" lon="30.0855340249836444854736328125">
        <ele>67.8000030517578125</ele>
        <time>2026-04-26T09:43:27.000Z</time>
        <extensions>
          <ns3:TrackPointExtension>
            <ns3:hr>126</ns3:hr>
          </ns3:TrackPointExtension>
        </extensions>
      </trkpt>
      <trkpt lat="59.06945790164172649383544921875" lon="30.08554265834391117095947265625">
        <ele>67.59999847412109375</ele>
        <time>2026-04-26T09:43:33.000Z</time>
        <extensions>
          <ns3:TrackPointExtension>
            <ns3:hr>123</ns3:hr>
          </ns3:TrackPointExtension>
        </extensions>
      </trkpt>
      <trkpt lat="59.06945790164172649383544921875" lon="30.08554265834391117095947265625">
        <ele>67.40000152587890625</ele>
        <time>2026-04-26T09:43:35.000Z</time>
        <extensions>
          <ns3:TrackPointExtension>
            <ns3:hr>120</ns3:hr>
          </ns3:TrackPointExtension>
        </extensions>
      </trkpt>
      <trkpt lat="59.06945790164172649383544921875" lon="30.08554265834391117095947265625">
        <ele>67.59999847412109375</ele>
        <time>2026-04-26T09:43:43.000Z</time>
        <extensions>
          <ns3:TrackPointExtension>
            <ns3:hr>122</ns3:hr>
          </ns3:TrackPointExtension>
        </extensions>
      </trkpt>
      <trkpt lat="59.06949243508279323577880859375" lon="30.0855137407779693603515625">
        <ele>67.8000030517578125</ele>
        <time>2026-04-26T09:43:51.000Z</time>
        <extensions>
          <ns3:TrackPointExtension>
            <ns3:hr>124</ns3:hr>
          </ns3:TrackPointExtension>
        </extensions>
      </trkpt>
      <trkpt lat="59.06950366683304309844970703125" lon="30.085508041083812713623046875">
        <ele>67.8000030517578125</ele>
        <time>2026-04-26T09:43:54.000Z</time>
        <extensions>
          <ns3:TrackPointExtension>
            <ns3:hr>126</ns3:hr>
          </ns3:TrackPointExtension>
        </extensions>
      </trkpt>
      <trkpt lat="59.06950936652719974517822265625" lon="30.0855025090277194976806640625">
        <ele>67.8000030517578125</ele>
        <time>2026-04-26T09:43:57.000Z</time>
        <extensions>
          <ns3:TrackPointExtension>
            <ns3:hr>123</ns3:hr>
          </ns3:TrackPointExtension>
        </extensions>
      </trkpt>
      <trkpt lat="59.06953384168446063995361328125" lon="30.08553243242204189300537109375">
        <ele>67.8000030517578125</ele>
        <time>2026-04-26T09:44:00.000Z</time>
        <extensions>
          <ns3:TrackPointExtension>
            <ns3:hr>127</ns3:hr>
          </ns3:TrackPointExtension>
        </extensions>
      </trkpt>
      <trkpt lat="59.06953484751284122467041015625" lon="30.0855279900133609771728515625">
        <ele>67.59999847412109375</ele>
        <time>2026-04-26T09:44:02.000Z</time>
        <extensions>
          <ns3:TrackPointExtension>
            <ns3:hr>124</ns3:hr>
          </ns3:TrackPointExtension>
        </extensions>
      </trkpt>
      <trkpt lat="59.06955077312886714935302734375" lon="30.0855001620948314666748046875">
        <ele>67.59999847412109375</ele>
        <time>2026-04-26T09:44:03.000Z</time>
        <extensions>
          <ns3:TrackPointExtension>
            <ns3:hr>126</ns3:hr>
          </ns3:TrackPointExtension>
        </extensions>
      </trkpt>
      <trkpt lat="59.069551862776279449462890625" lon="30.08549823425710201263427734375">
        <ele>67.8000030517578125</ele>
        <time>2026-04-26T09:44:04.000Z</time>
        <extensions>
          <ns3:TrackPointExtension>
            <ns3:hr>124</ns3:hr>
          </ns3:TrackPointExtension>
        </extensions>
      </trkpt>
      <trkpt lat="59.06956904567778110504150390625" lon="30.08550711907446384429931640625">
        <ele>67.8000030517578125</ele>
        <time>2026-04-26T09:44:07.000Z</time>
        <extensions>
          <ns3:TrackPointExtension>
            <ns3:hr>122</ns3:hr>
          </ns3:TrackPointExtension>
        </extensions>
      </trkpt>
      <trkpt lat="59.06959385611116886138916015625" lon="30.08550410158932209014892578125">
        <ele>67.59999847412109375</ele>
        <time>2026-04-26T09:44:11.000Z</time>
        <extensions>
          <ns3:TrackPointExtension>
            <ns3:hr>124</ns3:hr>
          </ns3:TrackPointExtension>
        </extensions>
      </trkpt>
      <trkpt lat="59.069601483643054962158203125" lon="30.08549404330551624298095703125">
        <ele>67.59999847412109375</ele>
        <time>2026-04-26T09:44:13.000Z</time>
        <extensions>
          <ns3:TrackPointExtension>
            <ns3:hr>127</ns3:hr>
          </ns3:TrackPointExtension>
        </extensions>
      </trkpt>
      <trkpt lat="59.06960408203303813934326171875" lon="30.0854988209903240203857421875">
        <ele>67.59999847412109375</ele>
        <time>2026-04-26T09:44:14.000Z</time>
        <extensions>
          <ns3:TrackPointExtension>
            <ns3:hr>127</ns3:hr>
          </ns3:TrackPointExtension>
        </extensions>
      </trkpt>
      <trkpt lat="59.0696298144757747650146484375" lon="30.08547442965209484100341796875">
        <ele>67.59999847412109375</ele>
        <time>2026-04-26T09:44:20.000Z</time>
        <extensions>
          <ns3:TrackPointExtension>
            <ns3:hr>130</ns3:hr>
          </ns3:TrackPointExtension>
        </extensions>
      </trkpt>
      <trkpt lat="59.06963559798896312713623046875" lon="30.0854676403105258941650390625">
        <ele>67.59999847412109375</ele>
        <time>2026-04-26T09:44:21.000Z</time>
        <extensions>
          <ns3:TrackPointExtension>
            <ns3:hr>129</ns3:hr>
          </ns3:TrackPointExtension>
        </extensions>
      </trkpt>
      <trkpt lat="59.06965873204171657562255859375" lon="30.08550376631319522857666015625">
        <ele>67.59999847412109375</ele>
        <time>2026-04-26T09:44:26.000Z</time>
        <extensions>
          <ns3:TrackPointExtension>
            <ns3:hr>126</ns3:hr>
          </ns3:TrackPointExtension>
        </extensions>
      </trkpt>
      <trkpt lat="59.06966309063136577606201171875" lon="30.0855031795799732208251953125">
        <ele>67.59999847412109375</ele>
        <time>2026-04-26T09:44:27.000Z</time>
        <extensions>
          <ns3:TrackPointExtension>
            <ns3:hr>125</ns3:hr>
          </ns3:TrackPointExtension>
        </extensions>
      </trkpt>
      <trkpt lat="59.06966124661266803741455078125" lon="30.0854887627065181732177734375">
        <ele>67.59999847412109375</ele>
        <time>2026-04-26T09:44:28.000Z</time>
        <extensions>
          <ns3:TrackPointExtension>
            <ns3:hr>125</ns3:hr>
          </ns3:TrackPointExtension>
        </extensions>
      </trkpt>
      <trkpt lat="59.06967650167644023895263671875" lon="30.08550778962671756744384765625">
        <ele>67.40000152587890625</ele>
        <time>2026-04-26T09:44:33.000Z</time>
        <extensions>
          <ns3:TrackPointExtension>
            <ns3:hr>123</ns3:hr>
          </ns3:TrackPointExtension>
        </extensions>
      </trkpt>
      <trkpt lat="59.06968924216926097869873046875" lon="30.08552690036594867706298828125">
        <ele>67.40000152587890625</ele>
        <time>2026-04-26T09:44:35.000Z</time>
        <extensions>
          <ns3:TrackPointExtension>
            <ns3:hr>123</ns3:hr>
          </ns3:TrackPointExtension>
        </extensions>
      </trkpt>
      <trkpt lat="59.069704748690128326416015625" lon="30.0855105556547641754150390625">
        <ele>67.40000152587890625</ele>
        <time>2026-04-26T09:44:38.000Z</time>
        <extensions>
          <ns3:TrackPointExtension>
            <ns3:hr>128</ns3:hr>
          </ns3:TrackPointExtension>
        </extensions>
      </trkpt>
      <trkpt lat="59.069706089794635772705078125" lon="30.085510052740573883056640625">
        <ele>67.40000152587890625</ele>
        <time>2026-04-26T09:44:39.000Z</time>
        <extensions>
          <ns3:TrackPointExtension>
            <ns3:hr>129</ns3:hr>
          </ns3:TrackPointExtension>
        </extensions>
      </trkpt>
      <trkpt lat="59.0697481669485569000244140625" lon="30.085518099367618560791015625">
        <ele>67.40000152587890625</ele>
        <time>2026-04-26T09:44:45.000Z</time>
        <extensions>
          <ns3:TrackPointExtension>
            <ns3:hr>132</ns3:hr>
          </ns3:TrackPointExtension>
        </extensions>
      </trkpt>
      <trkpt lat="59.0697518549859523773193359375" lon="30.08551432751119136810302734375">
        <ele>67.40000152587890625</ele>
        <time>2026-04-26T09:44:46.000Z</time>
        <extensions>
          <ns3:TrackPointExtension>
            <ns3:hr>131</ns3:hr>
          </ns3:TrackPointExtension>
        </extensions>
      </trkpt>
      <trkpt lat="59.06977289356291294097900390625" lon="30.08551080711185932159423828125">
        <ele>67.40000152587890625</ele>
        <time>2026-04-26T09:44:48.000Z</time>
        <extensions>
          <ns3:TrackPointExtension>
            <ns3:hr>132</ns3:hr>
          </ns3:TrackPointExtension>
        </extensions>
      </trkpt>
      <trkpt lat="59.06980323605239391326904296875" lon="30.0854954682290554046630859375">
        <ele>67.1999969482421875</ele>
        <time>2026-04-26T09:44:52.000Z</time>
        <extensions>
          <ns3:TrackPointExtension>
            <ns3:hr>131</ns3:hr>
          </ns3:TrackPointExtension>
        </extensions>
      </trkpt>
      <trkpt lat="59.06981497071683406829833984375" lon="30.08549219928681850433349609375">
        <ele>67</ele>
        <time>2026-04-26T09:44:54.000Z</time>
        <extensions>
          <ns3:TrackPointExtension>
            <ns3:hr>129</ns3:hr>
          </ns3:TrackPointExtension>
        </extensions>
      </trkpt>
      <trkpt lat="59.06982838176190853118896484375" lon="30.08548599667847156524658203125">
        <ele>67</ele>
        <time>2026-04-26T09:44:56.000Z</time>
        <extensions>
          <ns3:TrackPointExtension>
            <ns3:hr>129</ns3:hr>
          </ns3:TrackPointExtension>
        </extensions>
      </trkpt>
      <trkpt lat="59.06983357854187488555908203125" lon="30.08548624813556671142578125">
        <ele>66.8000030517578125</ele>
        <time>2026-04-26T09:44:58.000Z</time>
        <extensions>
          <ns3:TrackPointExtension>
            <ns3:hr>128</ns3:hr>
          </ns3:TrackPointExtension>
        </extensions>
      </trkpt>
      <trkpt lat="59.0698685310781002044677734375" lon="30.08546772412955760955810546875">
        <ele>67.1999969482421875</ele>
        <time>2026-04-26T09:45:02.000Z</time>
        <extensions>
          <ns3:TrackPointExtension>
            <ns3:hr>128</ns3:hr>
          </ns3:TrackPointExtension>
        </extensions>
      </trkpt>
      <trkpt lat="59.06990935094654560089111328125" lon="30.0854332745075225830078125">
        <ele>67</ele>
        <time>2026-04-26T09:45:07.000Z</time>
        <extensions>
          <ns3:TrackPointExtension>
            <ns3:hr>130</ns3:hr>
          </ns3:TrackPointExtension>
        </extensions>
      </trkpt>
      <trkpt lat="59.06991622410714626312255859375" lon="30.0854421593248844146728515625">
        <ele>67</ele>
        <time>2026-04-26T09:45:08.000Z</time>
        <extensions>
          <ns3:TrackPointExtension>
            <ns3:hr>130</ns3:hr>
          </ns3:TrackPointExtension>
        </extensions>
      </trkpt>
      <trkpt lat="59.069927036762237548828125" lon="30.0854421593248844146728515625">
        <ele>66.8000030517578125</ele>
        <time>2026-04-26T09:45:10.000Z</time>
        <extensions>
          <ns3:TrackPointExtension>
            <ns3:hr>127</ns3:hr>
          </ns3:TrackPointExtension>
        </extensions>
      </trkpt>
      <trkpt lat="59.06993684358894824981689453125" lon="30.08542397059500217437744140625">
        <ele>67</ele>
        <time>2026-04-26T09:45:13.000Z</time>
        <extensions>
          <ns3:TrackPointExtension>
            <ns3:hr>124</ns3:hr>
          </ns3:TrackPointExtension>
        </extensions>
      </trkpt>
      <trkpt lat="59.06993684358894824981689453125" lon="30.08542397059500217437744140625">
        <ele>67.1999969482421875</ele>
        <time>2026-04-26T09:45:14.000Z</time>
        <extensions>
          <ns3:TrackPointExtension>
            <ns3:hr>123</ns3:hr>
          </ns3:TrackPointExtension>
        </extensions>
      </trkpt>
      <trkpt lat="59.06995528377592563629150390625" lon="30.0854304246604442596435546875">
        <ele>67.40000152587890625</ele>
        <time>2026-04-26T09:45:18.000Z</time>
        <extensions>
          <ns3:TrackPointExtension>
            <ns3:hr>121</ns3:hr>
          </ns3:TrackPointExtension>
        </extensions>
      </trkpt>
      <trkpt lat="59.06998327933251857757568359375" lon="30.0854545645415782928466796875">
        <ele>67.40000152587890625</ele>
        <time>2026-04-26T09:45:23.000Z</time>
        <extensions>
          <ns3:TrackPointExtension>
            <ns3:hr>120</ns3:hr>
          </ns3:TrackPointExtension>
        </extensions>
      </trkpt>
      <trkpt lat="59.07004882581532001495361328125" lon="30.08543654344975948333740234375">
        <ele>67</ele>
        <time>2026-04-26T09:45:31.000Z</time>
        <extensions>
          <ns3:TrackPointExtension>
            <ns3:hr>121</ns3:hr>
          </ns3:TrackPointExtension>
        </extensions>
      </trkpt>
      <trkpt lat="59.07006273977458477020263671875" lon="30.08542816154658794403076171875">
        <ele>67</ele>
        <time>2026-04-26T09:45:32.000Z</time>
        <extensions>
          <ns3:TrackPointExtension>
            <ns3:hr>125</ns3:hr>
          </ns3:TrackPointExtension>
        </extensions>
      </trkpt>
      <trkpt lat="59.07006273977458477020263671875" lon="30.08542816154658794403076171875">
        <ele>67</ele>
        <time>2026-04-26T09:45:33.000Z</time>
        <extensions>
          <ns3:TrackPointExtension>
            <ns3:hr>130</ns3:hr>
          </ns3:TrackPointExtension>
        </extensions>
      </trkpt>
      <trkpt lat="59.07005821354687213897705078125" lon="30.08541307412087917327880859375">
        <ele>67</ele>
        <time>2026-04-26T09:45:37.000Z</time>
        <extensions>
          <ns3:TrackPointExtension>
            <ns3:hr>133</ns3:hr>
          </ns3:TrackPointExtension>
        </extensions>
      </trkpt>
      <trkpt lat="59.07005201093852519989013671875" lon="30.0854103080928325653076171875">
        <ele>67</ele>
        <time>2026-04-26T09:45:39.000Z</time>
        <extensions>
          <ns3:TrackPointExtension>
            <ns3:hr>134</ns3:hr>
          </ns3:TrackPointExtension>
        </extensions>
      </trkpt>
      <trkpt lat="59.0700624883174896240234375" lon="30.085420869290828704833984375">
        <ele>67</ele>
        <time>2026-04-26T09:45:45.000Z</time>
        <extensions>
          <ns3:TrackPointExtension>
            <ns3:hr>136</ns3:hr>
          </ns3:TrackPointExtension>
        </extensions>
      </trkpt>
      <trkpt lat="59.070087634027004241943359375" lon="30.08540368638932704925537109375">
        <ele>66.8000030517578125</ele>
        <time>2026-04-26T09:45:51.000Z</time>
        <extensions>
          <ns3:TrackPointExtension>
            <ns3:hr>137</ns3:hr>
          </ns3:TrackPointExtension>
        </extensions>
      </trkpt>
      <trkpt lat="59.0700757317245006561279296875" lon="30.08540502749383449554443359375">
        <ele>66.59999847412109375</ele>
        <time>2026-04-26T09:45:57.000Z</time>
        <extensions>
          <ns3:TrackPointExtension>
            <ns3:hr>137</ns3:hr>
          </ns3:TrackPointExtension>
        </extensions>
      </trkpt>
      <trkpt lat="59.07010213471949100494384765625" lon="30.085407793521881103515625">
        <ele>66.8000030517578125</ele>
        <time>2026-04-26T09:46:00.000Z</time>
        <extensions>
          <ns3:TrackPointExtension>
            <ns3:hr>137</ns3:hr>
          </ns3:TrackPointExtension>
        </extensions>
      </trkpt>
      <trkpt lat="59.0701183117926120758056640625" lon="30.0854029320180416107177734375">
        <ele>66.8000030517578125</ele>
        <time>2026-04-26T09:46:01.000Z</time>
        <extensions>
          <ns3:TrackPointExtension>
            <ns3:hr>137</ns3:hr>
          </ns3:TrackPointExtension>
        </extensions>
      </trkpt>
      <trkpt lat="59.070120491087436676025390625" lon="30.08539312519133090972900390625">
        <ele>67</ele>
        <time>2026-04-26T09:46:05.000Z</time>
        <extensions>
          <ns3:TrackPointExtension>
            <ns3:hr>136</ns3:hr>
          </ns3:TrackPointExtension>
        </extensions>
      </trkpt>
      <trkpt lat="59.07015837728977203369140625" lon="30.08536680601537227630615234375">
        <ele>66.8000030517578125</ele>
        <time>2026-04-26T09:46:09.000Z</time>
        <extensions>
          <ns3:TrackPointExtension>
            <ns3:hr>135</ns3:hr>
          </ns3:TrackPointExtension>
        </extensions>
      </trkpt>
      <trkpt lat="59.0701900608837604522705078125" lon="30.08535624481737613677978515625">
        <ele>66.59999847412109375</ele>
        <time>2026-04-26T09:46:17.000Z</time>
        <extensions>
          <ns3:TrackPointExtension>
            <ns3:hr>135</ns3:hr>
          </ns3:TrackPointExtension>
        </extensions>
      </trkpt>
      <trkpt lat="59.0702105127274990081787109375" lon="30.085354484617710113525390625">
        <ele>66.59999847412109375</ele>
        <time>2026-04-26T09:46:21.000Z</time>
        <extensions>
          <ns3:TrackPointExtension>
            <ns3:hr>132</ns3:hr>
          </ns3:TrackPointExtension>
        </extensions>
      </trkpt>
      <trkpt lat="59.07021864317357540130615234375" lon="30.08535959757864475250244140625">
        <ele>66.8000030517578125</ele>
        <time>2026-04-26T09:46:23.000Z</time>
        <extensions>
          <ns3:TrackPointExtension>
            <ns3:hr>131</ns3:hr>
          </ns3:TrackPointExtension>
        </extensions>
      </trkpt>
      <trkpt lat="59.070229120552539825439453125" lon="30.085353814065456390380859375">
        <ele>66.8000030517578125</ele>
        <time>2026-04-26T09:46:25.000Z</time>
        <extensions>
          <ns3:TrackPointExtension>
            <ns3:hr>127</ns3:hr>
          </ns3:TrackPointExtension>
        </extensions>
      </trkpt>
      <trkpt lat="59.07023356296122074127197265625" lon="30.08535909466445446014404296875">
        <ele>66.59999847412109375</ele>
        <time>2026-04-26T09:46:28.000Z</time>
        <extensions>
          <ns3:TrackPointExtension>
            <ns3:hr>124</ns3:hr>
          </ns3:TrackPointExtension>
        </extensions>
      </trkpt>
      <trkpt lat="59.070239849388599395751953125" lon="30.085345096886157989501953125">
        <ele>66.59999847412109375</ele>
        <time>2026-04-26T09:46:29.000Z</time>
        <extensions>
          <ns3:TrackPointExtension>
            <ns3:hr>124</ns3:hr>
          </ns3:TrackPointExtension>
        </extensions>
      </trkpt>
      <trkpt lat="59.0702772326767444610595703125" lon="30.0853125751018524169921875">
        <ele>66.40000152587890625</ele>
        <time>2026-04-26T09:46:36.000Z</time>
        <extensions>
          <ns3:TrackPointExtension>
            <ns3:hr>121</ns3:hr>
          </ns3:TrackPointExtension>
        </extensions>
      </trkpt>
      <trkpt lat="59.07030765898525714874267578125" lon="30.085314251482486724853515625">
        <ele>66.59999847412109375</ele>
        <time>2026-04-26T09:46:41.000Z</time>
        <extensions>
          <ns3:TrackPointExtension>
            <ns3:hr>121</ns3:hr>
          </ns3:TrackPointExtension>
        </extensions>
      </trkpt>
      <trkpt lat="59.070322327315807342529296875" lon="30.08528986014425754547119140625">
        <ele>66.40000152587890625</ele>
        <time>2026-04-26T09:46:46.000Z</time>
        <extensions>
          <ns3:TrackPointExtension>
            <ns3:hr>122</ns3:hr>
          </ns3:TrackPointExtension>
        </extensions>
      </trkpt>
      <trkpt lat="59.07033196650445461273193359375" lon="30.08529639802873134613037109375">
        <ele>66.40000152587890625</ele>
        <time>2026-04-26T09:46:50.000Z</time>
        <extensions>
          <ns3:TrackPointExtension>
            <ns3:hr>119</ns3:hr>
          </ns3:TrackPointExtension>
        </extensions>
      </trkpt>
      <trkpt lat="59.0703422762453556060791015625" lon="30.08528348989784717559814453125">
        <ele>66.40000152587890625</ele>
        <time>2026-04-26T09:46:52.000Z</time>
        <extensions>
          <ns3:TrackPointExtension>
            <ns3:hr>124</ns3:hr>
          </ns3:TrackPointExtension>
        </extensions>
      </trkpt>
      <trkpt lat="59.0703432820737361907958984375" lon="30.08528172969818115234375">
        <ele>66.59999847412109375</ele>
        <time>2026-04-26T09:46:53.000Z</time>
        <extensions>
          <ns3:TrackPointExtension>
            <ns3:hr>128</ns3:hr>
          </ns3:TrackPointExtension>
        </extensions>
      </trkpt>
      <trkpt lat="59.0703432820737361907958984375" lon="30.08528172969818115234375">
        <ele>66.59999847412109375</ele>
        <time>2026-04-26T09:46:54.000Z</time>
        <extensions>
          <ns3:TrackPointExtension>
            <ns3:hr>131</ns3:hr>
          </ns3:TrackPointExtension>
        </extensions>
      </trkpt>
      <trkpt lat="59.0703432820737361907958984375" lon="30.08528172969818115234375">
        <ele>66.40000152587890625</ele>
        <time>2026-04-26T09:46:56.000Z</time>
        <extensions>
          <ns3:TrackPointExtension>
            <ns3:hr>136</ns3:hr>
          </ns3:TrackPointExtension>
        </extensions>
      </trkpt>
      <trkpt lat="59.0703513287007808685302734375" lon="30.08529447019100189208984375">
        <ele>66.1999969482421875</ele>
        <time>2026-04-26T09:46:58.000Z</time>
        <extensions>
          <ns3:TrackPointExtension>
            <ns3:hr>139</ns3:hr>
          </ns3:TrackPointExtension>
        </extensions>
      </trkpt>
      <trkpt lat="59.07036834396421909332275390625" lon="30.08527711965143680572509765625">
        <ele>66.59999847412109375</ele>
        <time>2026-04-26T09:47:02.000Z</time>
        <extensions>
          <ns3:TrackPointExtension>
            <ns3:hr>139</ns3:hr>
          </ns3:TrackPointExtension>
        </extensions>
      </trkpt>
      <trkpt lat="59.07036918215453624725341796875" lon="30.0852964818477630615234375">
        <ele>66.59999847412109375</ele>
        <time>2026-04-26T09:47:03.000Z</time>
        <extensions>
          <ns3:TrackPointExtension>
            <ns3:hr>139</ns3:hr>
          </ns3:TrackPointExtension>
        </extensions>
      </trkpt>
      <trkpt lat="59.07037320546805858612060546875" lon="30.08529740385711193084716796875">
        <ele>66.40000152587890625</ele>
        <time>2026-04-26T09:47:07.000Z</time>
        <extensions>
          <ns3:TrackPointExtension>
            <ns3:hr>138</ns3:hr>
          </ns3:TrackPointExtension>
        </extensions>
      </trkpt>
      <trkpt lat="59.07040623016655445098876953125" lon="30.08528801612555980682373046875">
        <ele>66.1999969482421875</ele>
        <time>2026-04-26T09:47:15.000Z</time>
        <extensions>
          <ns3:TrackPointExtension>
            <ns3:hr>137</ns3:hr>
          </ns3:TrackPointExtension>
        </extensions>
      </trkpt>
      <trkpt lat="59.07041025348007678985595703125" lon="30.08527963422238826751708984375">
        <ele>66.1999969482421875</ele>
        <time>2026-04-26T09:47:18.000Z</time>
        <extensions>
          <ns3:TrackPointExtension>
            <ns3:hr>134</ns3:hr>
          </ns3:TrackPointExtension>
        </extensions>
      </trkpt>
      <trkpt lat="59.07041025348007678985595703125" lon="30.08527963422238826751708984375">
        <ele>66.40000152587890625</ele>
        <time>2026-04-26T09:47:21.000Z</time>
        <extensions>
          <ns3:TrackPointExtension>
            <ns3:hr>131</ns3:hr>
          </ns3:TrackPointExtension>
        </extensions>
      </trkpt>
      <trkpt lat="59.07041025348007678985595703125" lon="30.08527963422238826751708984375">
        <ele>66.40000152587890625</ele>
        <time>2026-04-26T09:47:22.000Z</time>
        <extensions>
          <ns3:TrackPointExtension>
            <ns3:hr>130</ns3:hr>
          </ns3:TrackPointExtension>
        </extensions>
      </trkpt>
      <trkpt lat="59.0704100020229816436767578125" lon="30.08525063283741474151611328125">
        <ele>66</ele>
        <time>2026-04-26T09:47:31.000Z</time>
        <extensions>
          <ns3:TrackPointExtension>
            <ns3:hr>130</ns3:hr>
          </ns3:TrackPointExtension>
        </extensions>
      </trkpt>
      <trkpt lat="59.0704100020229816436767578125" lon="30.08525063283741474151611328125">
        <ele>66</ele>
        <time>2026-04-26T09:47:32.000Z</time>
        <extensions>
          <ns3:TrackPointExtension>
            <ns3:hr>131</ns3:hr>
          </ns3:TrackPointExtension>
        </extensions>
      </trkpt>
      <trkpt lat="59.0704267658293247222900390625" lon="30.08526605553925037384033203125">
        <ele>65.8000030517578125</ele>
        <time>2026-04-26T09:47:34.000Z</time>
        <extensions>
          <ns3:TrackPointExtension>
            <ns3:hr>130</ns3:hr>
          </ns3:TrackPointExtension>
        </extensions>
      </trkpt>
      <trkpt lat="59.0704495646059513092041015625" lon="30.08524074219167232513427734375">
        <ele>66</ele>
        <time>2026-04-26T09:47:36.000Z</time>
        <extensions>
          <ns3:TrackPointExtension>
            <ns3:hr>132</ns3:hr>
          </ns3:TrackPointExtension>
        </extensions>
      </trkpt>
      <trkpt lat="59.07044537365436553955078125" lon="30.085241496562957763671875">
        <ele>66</ele>
        <time>2026-04-26T09:47:40.000Z</time>
        <extensions>
          <ns3:TrackPointExtension>
            <ns3:hr>135</ns3:hr>
          </ns3:TrackPointExtension>
        </extensions>
      </trkpt>
      <trkpt lat="59.070493988692760467529296875" lon="30.0852399878203868865966796875">
        <ele>65.8000030517578125</ele>
        <time>2026-04-26T09:47:46.000Z</time>
        <extensions>
          <ns3:TrackPointExtension>
            <ns3:hr>135</ns3:hr>
          </ns3:TrackPointExtension>
        </extensions>
      </trkpt>
      <trkpt lat="59.0705307014286518096923828125" lon="30.08524660952389240264892578125">
        <ele>65.59999847412109375</ele>
        <time>2026-04-26T09:47:50.000Z</time>
        <extensions>
          <ns3:TrackPointExtension>
            <ns3:hr>138</ns3:hr>
          </ns3:TrackPointExtension>
        </extensions>
      </trkpt>
      <trkpt lat="59.0705384127795696258544921875" lon="30.0852336175739765167236328125">
        <ele>65.8000030517578125</ele>
        <time>2026-04-26T09:47:52.000Z</time>
        <extensions>
          <ns3:TrackPointExtension>
            <ns3:hr>139</ns3:hr>
          </ns3:TrackPointExtension>
        </extensions>
      </trkpt>
      <trkpt lat="59.07054905779659748077392578125" lon="30.0852235592901706695556640625">
        <ele>66.1999969482421875</ele>
        <time>2026-04-26T09:47:58.000Z</time>
        <extensions>
          <ns3:TrackPointExtension>
            <ns3:hr>139</ns3:hr>
          </ns3:TrackPointExtension>
        </extensions>
      </trkpt>
      <trkpt lat="59.07056313939392566680908203125" lon="30.08520050905644893646240234375">
        <ele>66.40000152587890625</ele>
        <time>2026-04-26T09:48:01.000Z</time>
        <extensions>
          <ns3:TrackPointExtension>
            <ns3:hr>139</ns3:hr>
          </ns3:TrackPointExtension>
        </extensions>
      </trkpt>
      <trkpt lat="59.0705819986760616302490234375" lon="30.085199587047100067138671875">
        <ele>66.40000152587890625</ele>
        <time>2026-04-26T09:48:04.000Z</time>
        <extensions>
          <ns3:TrackPointExtension>
            <ns3:hr>136</ns3:hr>
          </ns3:TrackPointExtension>
        </extensions>
      </trkpt>
      <trkpt lat="59.0705970861017704010009765625" lon="30.08519112132489681243896484375">
        <ele>66.40000152587890625</ele>
        <time>2026-04-26T09:48:06.000Z</time>
        <extensions>
          <ns3:TrackPointExtension>
            <ns3:hr>134</ns3:hr>
          </ns3:TrackPointExtension>
        </extensions>
      </trkpt>
      <trkpt lat="59.070613682270050048828125" lon="30.0852101482450962066650390625">
        <ele>66.59999847412109375</ele>
        <time>2026-04-26T09:48:08.000Z</time>
        <extensions>
          <ns3:TrackPointExtension>
            <ns3:hr>134</ns3:hr>
          </ns3:TrackPointExtension>
        </extensions>
      </trkpt>
      <trkpt lat="59.0706343017518520355224609375" lon="30.08520000614225864410400390625">
        <ele>66.59999847412109375</ele>
        <time>2026-04-26T09:48:10.000Z</time>
        <extensions>
          <ns3:TrackPointExtension>
            <ns3:hr>134</ns3:hr>
          </ns3:TrackPointExtension>
        </extensions>
      </trkpt>
      <trkpt lat="59.07064109109342098236083984375" lon="30.08520050905644893646240234375">
        <ele>66.40000152587890625</ele>
        <time>2026-04-26T09:48:11.000Z</time>
        <extensions>
          <ns3:TrackPointExtension>
            <ns3:hr>134</ns3:hr>
          </ns3:TrackPointExtension>
        </extensions>
      </trkpt>
      <trkpt lat="59.070677720010280609130859375" lon="30.08520587347447872161865234375">
        <ele>66.1999969482421875</ele>
        <time>2026-04-26T09:48:15.000Z</time>
        <extensions>
          <ns3:TrackPointExtension>
            <ns3:hr>130</ns3:hr>
          </ns3:TrackPointExtension>
        </extensions>
      </trkpt>
      <trkpt lat="59.070683419704437255859375" lon="30.08519849739968776702880859375">
        <ele>66.1999969482421875</ele>
        <time>2026-04-26T09:48:17.000Z</time>
        <extensions>
          <ns3:TrackPointExtension>
            <ns3:hr>127</ns3:hr>
          </ns3:TrackPointExtension>
        </extensions>
      </trkpt>
      <trkpt lat="59.07068769447505474090576171875" lon="30.085186846554279327392578125">
        <ele>66</ele>
        <time>2026-04-26T09:48:19.000Z</time>
        <extensions>
          <ns3:TrackPointExtension>
            <ns3:hr>125</ns3:hr>
          </ns3:TrackPointExtension>
        </extensions>
      </trkpt>
      <trkpt lat="59.0707013569772243499755859375" lon="30.0852071307599544525146484375">
        <ele>66</ele>
        <time>2026-04-26T09:48:23.000Z</time>
        <extensions>
          <ns3:TrackPointExtension>
            <ns3:hr>126</ns3:hr>
          </ns3:TrackPointExtension>
        </extensions>
      </trkpt>
      <trkpt lat="59.07072558067739009857177734375" lon="30.08521006442606449127197265625">
        <ele>65.8000030517578125</ele>
        <time>2026-04-26T09:48:24.000Z</time>
        <extensions>
          <ns3:TrackPointExtension>
            <ns3:hr>126</ns3:hr>
          </ns3:TrackPointExtension>
        </extensions>
      </trkpt>
      <trkpt lat="59.0707345493137836456298828125" lon="30.08519330061972141265869140625">
        <ele>65.8000030517578125</ele>
        <time>2026-04-26T09:48:26.000Z</time>
        <extensions>
          <ns3:TrackPointExtension>
            <ns3:hr>130</ns3:hr>
          </ns3:TrackPointExtension>
        </extensions>
      </trkpt>
      <trkpt lat="59.07073345966637134552001953125" lon="30.08519615046679973602294921875">
        <ele>65.59999847412109375</ele>
        <time>2026-04-26T09:48:28.000Z</time>
        <extensions>
          <ns3:TrackPointExtension>
            <ns3:hr>133</ns3:hr>
          </ns3:TrackPointExtension>
        </extensions>
      </trkpt>
      <trkpt lat="59.07073245383799076080322265625" lon="30.0851886905729770660400390625">
        <ele>65.59999847412109375</ele>
        <time>2026-04-26T09:48:29.000Z</time>
        <extensions>
          <ns3:TrackPointExtension>
            <ns3:hr>134</ns3:hr>
          </ns3:TrackPointExtension>
        </extensions>
      </trkpt>
      <trkpt lat="59.07074150629341602325439453125" lon="30.0851650536060333251953125">
        <ele>65.8000030517578125</ele>
        <time>2026-04-26T09:48:32.000Z</time>
        <extensions>
          <ns3:TrackPointExtension>
            <ns3:hr>134</ns3:hr>
          </ns3:TrackPointExtension>
        </extensions>
      </trkpt>
      <trkpt lat="59.07077654264867305755615234375" lon="30.08516664616763591766357421875">
        <ele>66</ele>
        <time>2026-04-26T09:48:36.000Z</time>
        <extensions>
          <ns3:TrackPointExtension>
            <ns3:hr>136</ns3:hr>
          </ns3:TrackPointExtension>
        </extensions>
      </trkpt>
      <trkpt lat="59.07079582102596759796142578125" lon="30.085143260657787322998046875">
        <ele>66</ele>
        <time>2026-04-26T09:48:42.000Z</time>
        <extensions>
          <ns3:TrackPointExtension>
            <ns3:hr>137</ns3:hr>
          </ns3:TrackPointExtension>
        </extensions>
      </trkpt>
      <trkpt lat="59.07079447992146015167236328125" lon="30.08514133282005786895751953125">
        <ele>65.8000030517578125</ele>
        <time>2026-04-26T09:48:45.000Z</time>
        <extensions>
          <ns3:TrackPointExtension>
            <ns3:hr>131</ns3:hr>
          </ns3:TrackPointExtension>
        </extensions>
      </trkpt>
      <trkpt lat="59.0708052925765514373779296875" lon="30.0851491279900074005126953125">
        <ele>65.8000030517578125</ele>
        <time>2026-04-26T09:48:47.000Z</time>
        <extensions>
          <ns3:TrackPointExtension>
            <ns3:hr>128</ns3:hr>
          </ns3:TrackPointExtension>
        </extensions>
      </trkpt>
      <trkpt lat="59.0708269178867340087890625" lon="30.08513948880136013031005859375">
        <ele>65.59999847412109375</ele>
        <time>2026-04-26T09:48:50.000Z</time>
        <extensions>
          <ns3:TrackPointExtension>
            <ns3:hr>125</ns3:hr>
          </ns3:TrackPointExtension>
        </extensions>
      </trkpt>
      <trkpt lat="59.0708529017865657806396484375" lon="30.08512959815561771392822265625">
        <ele>65.8000030517578125</ele>
        <time>2026-04-26T09:48:53.000Z</time>
        <extensions>
          <ns3:TrackPointExtension>
            <ns3:hr>123</ns3:hr>
          </ns3:TrackPointExtension>
        </extensions>
      </trkpt>
      <trkpt lat="59.07086782157421112060546875" lon="30.08509858511388301849365234375">
        <ele>65.8000030517578125</ele>
        <time>2026-04-26T09:49:00.000Z</time>
        <extensions>
          <ns3:TrackPointExtension>
            <ns3:hr>123</ns3:hr>
          </ns3:TrackPointExtension>
        </extensions>
      </trkpt>
      <trkpt lat="59.07088584266602993011474609375" lon="30.08509992621839046478271484375">
        <ele>66</ele>
        <time>2026-04-26T09:49:04.000Z</time>
        <extensions>
          <ns3:TrackPointExtension>
            <ns3:hr>126</ns3:hr>
          </ns3:TrackPointExtension>
        </extensions>
      </trkpt>
      <trkpt lat="59.07089590094983577728271484375" lon="30.08510612882673740386962890625">
        <ele>66</ele>
        <time>2026-04-26T09:49:05.000Z</time>
        <extensions>
          <ns3:TrackPointExtension>
            <ns3:hr>126</ns3:hr>
          </ns3:TrackPointExtension>
        </extensions>
      </trkpt>
      <trkpt lat="59.07092993147671222686767578125" lon="30.0851216353476047515869140625">
        <ele>66.1999969482421875</ele>
        <time>2026-04-26T09:49:07.000Z</time>
        <extensions>
          <ns3:TrackPointExtension>
            <ns3:hr>127</ns3:hr>
          </ns3:TrackPointExtension>
        </extensions>
      </trkpt>
      <trkpt lat="59.07094292342662811279296875" lon="30.08511987514793872833251953125">
        <ele>66.1999969482421875</ele>
        <time>2026-04-26T09:49:09.000Z</time>
        <extensions>
          <ns3:TrackPointExtension>
            <ns3:hr>130</ns3:hr>
          </ns3:TrackPointExtension>
        </extensions>
      </trkpt>
      <trkpt lat="59.0709531493484973907470703125" lon="30.08512557484209537506103515625">
        <ele>66.1999969482421875</ele>
        <time>2026-04-26T09:49:11.000Z</time>
        <extensions>
          <ns3:TrackPointExtension>
            <ns3:hr>133</ns3:hr>
          </ns3:TrackPointExtension>
        </extensions>
      </trkpt>
      <trkpt lat="59.07098449766635894775390625" lon="30.0850961543619632720947265625">
        <ele>66</ele>
        <time>2026-04-26T09:49:15.000Z</time>
        <extensions>
          <ns3:TrackPointExtension>
            <ns3:hr>136</ns3:hr>
          </ns3:TrackPointExtension>
        </extensions>
      </trkpt>
      <trkpt lat="59.0710305981338024139404296875" lon="30.08507746271789073944091796875">
        <ele>65.8000030517578125</ele>
        <time>2026-04-26T09:49:20.000Z</time>
        <extensions>
          <ns3:TrackPointExtension>
            <ns3:hr>137</ns3:hr>
          </ns3:TrackPointExtension>
        </extensions>
      </trkpt>
      <trkpt lat="59.0710379742085933685302734375" lon="30.08508131839334964752197265625">
        <ele>65.8000030517578125</ele>
        <time>2026-04-26T09:49:21.000Z</time>
        <extensions>
          <ns3:TrackPointExtension>
            <ns3:hr>137</ns3:hr>
          </ns3:TrackPointExtension>
        </extensions>
      </trkpt>
      <trkpt lat="59.0710549056529998779296875" lon="30.08505550213158130645751953125">
        <ele>65.8000030517578125</ele>
        <time>2026-04-26T09:49:26.000Z</time>
        <extensions>
          <ns3:TrackPointExtension>
            <ns3:hr>133</ns3:hr>
          </ns3:TrackPointExtension>
        </extensions>
      </trkpt>
      <trkpt lat="59.07107443548738956451416015625" lon="30.085063464939594268798828125">
        <ele>65.8000030517578125</ele>
        <time>2026-04-26T09:49:28.000Z</time>
        <extensions>
          <ns3:TrackPointExtension>
            <ns3:hr>130</ns3:hr>
          </ns3:TrackPointExtension>
        </extensions>
      </trkpt>
      <trkpt lat="59.07109069637954235076904296875" lon="30.08505399338901042938232421875">
        <ele>65.59999847412109375</ele>
        <time>2026-04-26T09:49:31.000Z</time>
        <extensions>
          <ns3:TrackPointExtension>
            <ns3:hr>127</ns3:hr>
          </ns3:TrackPointExtension>
        </extensions>
      </trkpt>
      <trkpt lat="59.0710937976837158203125" lon="30.08502583019435405731201171875">
        <ele>65.8000030517578125</ele>
        <time>2026-04-26T09:49:34.000Z</time>
        <extensions>
          <ns3:TrackPointExtension>
            <ns3:hr>126</ns3:hr>
          </ns3:TrackPointExtension>
        </extensions>
      </trkpt>
      <trkpt lat="59.07113579101860523223876953125" lon="30.0850368104875087738037109375">
        <ele>65.8000030517578125</ele>
        <time>2026-04-26T09:49:39.000Z</time>
        <extensions>
          <ns3:TrackPointExtension>
            <ns3:hr>125</ns3:hr>
          </ns3:TrackPointExtension>
        </extensions>
      </trkpt>
      <trkpt lat="59.0711569972336292266845703125" lon="30.0849962420761585235595703125">
        <ele>66</ele>
        <time>2026-04-26T09:49:43.000Z</time>
        <extensions>
          <ns3:TrackPointExtension>
            <ns3:hr>126</ns3:hr>
          </ns3:TrackPointExtension>
        </extensions>
      </trkpt>
      <trkpt lat="59.07116864807903766632080078125" lon="30.08499498479068279266357421875">
        <ele>65.8000030517578125</ele>
        <time>2026-04-26T09:49:45.000Z</time>
        <extensions>
          <ns3:TrackPointExtension>
            <ns3:hr>130</ns3:hr>
          </ns3:TrackPointExtension>
        </extensions>
      </trkpt>
      <trkpt lat="59.07119044102728366851806640625" lon="30.08499112911522388458251953125">
        <ele>65.8000030517578125</ele>
        <time>2026-04-26T09:49:49.000Z</time>
        <extensions>
          <ns3:TrackPointExtension>
            <ns3:hr>130</ns3:hr>
          </ns3:TrackPointExtension>
        </extensions>
      </trkpt>
      <trkpt lat="59.0712230466306209564208984375" lon="30.0849938951432704925537109375">
        <ele>65.59999847412109375</ele>
        <time>2026-04-26T09:49:53.000Z</time>
        <extensions>
          <ns3:TrackPointExtension>
            <ns3:hr>131</ns3:hr>
          </ns3:TrackPointExtension>
        </extensions>
      </trkpt>
      <trkpt lat="59.07123436219990253448486328125" lon="30.084971599280834197998046875">
        <ele>65.8000030517578125</ele>
        <time>2026-04-26T09:49:59.000Z</time>
        <extensions>
          <ns3:TrackPointExtension>
            <ns3:hr>131</ns3:hr>
          </ns3:TrackPointExtension>
        </extensions>
      </trkpt>
      <trkpt lat="59.07124659977853298187255859375" lon="30.08496866561472415924072265625">
        <ele>65.8000030517578125</ele>
        <time>2026-04-26T09:50:01.000Z</time>
        <extensions>
          <ns3:TrackPointExtension>
            <ns3:hr>131</ns3:hr>
          </ns3:TrackPointExtension>
        </extensions>
      </trkpt>
      <trkpt lat="59.0712709911167621612548828125" lon="30.0849586911499500274658203125">
        <ele>65.59999847412109375</ele>
        <time>2026-04-26T09:50:04.000Z</time>
        <extensions>
          <ns3:TrackPointExtension>
            <ns3:hr>132</ns3:hr>
          </ns3:TrackPointExtension>
        </extensions>
      </trkpt>
      <trkpt lat="59.07131533138453960418701171875" lon="30.0849539972841739654541015625">
        <ele>65.8000030517578125</ele>
        <time>2026-04-26T09:50:10.000Z</time>
        <extensions>
          <ns3:TrackPointExtension>
            <ns3:hr>130</ns3:hr>
          </ns3:TrackPointExtension>
        </extensions>
      </trkpt>
      <trkpt lat="59.07134852372109889984130859375" lon="30.0849167816340923309326171875">
        <ele>65.8000030517578125</ele>
        <time>2026-04-26T09:50:16.000Z</time>
        <extensions>
          <ns3:TrackPointExtension>
            <ns3:hr>127</ns3:hr>
          </ns3:TrackPointExtension>
        </extensions>
      </trkpt>
      <trkpt lat="59.07136009074747562408447265625" lon="30.084908567368984222412109375">
        <ele>65.8000030517578125</ele>
        <time>2026-04-26T09:50:17.000Z</time>
        <extensions>
          <ns3:TrackPointExtension>
            <ns3:hr>127</ns3:hr>
          </ns3:TrackPointExtension>
        </extensions>
      </trkpt>
      <trkpt lat="59.07136294059455394744873046875" lon="30.08490378968417644500732421875">
        <ele>65.8000030517578125</ele>
        <time>2026-04-26T09:50:18.000Z</time>
        <extensions>
          <ns3:TrackPointExtension>
            <ns3:hr>124</ns3:hr>
          </ns3:TrackPointExtension>
        </extensions>
      </trkpt>
      <trkpt lat="59.0713789500296115875244140625" lon="30.08490395732223987579345703125">
        <ele>65.8000030517578125</ele>
        <time>2026-04-26T09:50:20.000Z</time>
        <extensions>
          <ns3:TrackPointExtension>
            <ns3:hr>122</ns3:hr>
          </ns3:TrackPointExtension>
        </extensions>
      </trkpt>
      <trkpt lat="59.0713789500296115875244140625" lon="30.08490395732223987579345703125">
        <ele>65.8000030517578125</ele>
        <time>2026-04-26T09:50:21.000Z</time>
        <extensions>
          <ns3:TrackPointExtension>
            <ns3:hr>122</ns3:hr>
          </ns3:TrackPointExtension>
        </extensions>
      </trkpt>
      <trkpt lat="59.07138607464730739593505859375" lon="30.08491518907248973846435546875">
        <ele>65.8000030517578125</ele>
        <time>2026-04-26T09:50:22.000Z</time>
        <extensions>
          <ns3:TrackPointExtension>
            <ns3:hr>125</ns3:hr>
          </ns3:TrackPointExtension>
        </extensions>
      </trkpt>
      <trkpt lat="59.07141222618520259857177734375" lon="30.08493295870721340179443359375">
        <ele>65.8000030517578125</ele>
        <time>2026-04-26T09:50:26.000Z</time>
        <extensions>
          <ns3:TrackPointExtension>
            <ns3:hr>127</ns3:hr>
          </ns3:TrackPointExtension>
        </extensions>
      </trkpt>
      <trkpt lat="59.07145614735782146453857421875" lon="30.084897167980670928955078125">
        <ele>65.8000030517578125</ele>
        <time>2026-04-26T09:50:31.000Z</time>
        <extensions>
          <ns3:TrackPointExtension>
            <ns3:hr>127</ns3:hr>
          </ns3:TrackPointExtension>
        </extensions>
      </trkpt>
      <trkpt lat="59.07146084122359752655029296875" lon="30.08489524014294147491455078125">
        <ele>66</ele>
        <time>2026-04-26T09:50:35.000Z</time>
        <extensions>
          <ns3:TrackPointExtension>
            <ns3:hr>127</ns3:hr>
          </ns3:TrackPointExtension>
        </extensions>
      </trkpt>
      <trkpt lat="59.071462266147136688232421875" lon="30.0848869420588016510009765625">
        <ele>65.8000030517578125</ele>
        <time>2026-04-26T09:50:37.000Z</time>
        <extensions>
          <ns3:TrackPointExtension>
            <ns3:hr>127</ns3:hr>
          </ns3:TrackPointExtension>
        </extensions>
      </trkpt>
      <trkpt lat="59.071482717990875244140625" lon="30.08484897203743457794189453125">
        <ele>66</ele>
        <time>2026-04-26T09:50:41.000Z</time>
        <extensions>
          <ns3:TrackPointExtension>
            <ns3:hr>126</ns3:hr>
          </ns3:TrackPointExtension>
        </extensions>
      </trkpt>
      <trkpt lat="59.07149001024663448333740234375" lon="30.08480706252157688140869140625">
        <ele>66</ele>
        <time>2026-04-26T09:50:46.000Z</time>
        <extensions>
          <ns3:TrackPointExtension>
            <ns3:hr>126</ns3:hr>
          </ns3:TrackPointExtension>
        </extensions>
      </trkpt>
      <trkpt lat="59.0714902617037296295166015625" lon="30.084800608456134796142578125">
        <ele>65.8000030517578125</ele>
        <time>2026-04-26T09:50:54.000Z</time>
        <extensions>
          <ns3:TrackPointExtension>
            <ns3:hr>126</ns3:hr>
          </ns3:TrackPointExtension>
        </extensions>
      </trkpt>
      <trkpt lat="59.07153300940990447998046875" lon="30.084833800792694091796875">
        <ele>65.8000030517578125</ele>
        <time>2026-04-26T09:51:00.000Z</time>
        <extensions>
          <ns3:TrackPointExtension>
            <ns3:hr>123</ns3:hr>
          </ns3:TrackPointExtension>
        </extensions>
      </trkpt>
      <trkpt lat="59.07153342850506305694580078125" lon="30.08482365868985652923583984375">
        <ele>65.8000030517578125</ele>
        <time>2026-04-26T09:51:06.000Z</time>
        <extensions>
          <ns3:TrackPointExtension>
            <ns3:hr>121</ns3:hr>
          </ns3:TrackPointExtension>
        </extensions>
      </trkpt>
      <trkpt lat="59.07154365442693233489990234375" lon="30.0848332978785037994384765625">
        <ele>65.8000030517578125</ele>
        <time>2026-04-26T09:51:07.000Z</time>
        <extensions>
          <ns3:TrackPointExtension>
            <ns3:hr>122</ns3:hr>
          </ns3:TrackPointExtension>
        </extensions>
      </trkpt>
      <trkpt lat="59.07155874185264110565185546875" lon="30.08483220823109149932861328125">
        <ele>65.59999847412109375</ele>
        <time>2026-04-26T09:51:10.000Z</time>
        <extensions>
          <ns3:TrackPointExtension>
            <ns3:hr>125</ns3:hr>
          </ns3:TrackPointExtension>
        </extensions>
      </trkpt>
      <trkpt lat="59.0715779364109039306640625" lon="30.0848239101469516754150390625">
        <ele>65.59999847412109375</ele>
        <time>2026-04-26T09:51:13.000Z</time>
        <extensions>
          <ns3:TrackPointExtension>
            <ns3:hr>127</ns3:hr>
          </ns3:TrackPointExtension>
        </extensions>
      </trkpt>
      <trkpt lat="59.07163359224796295166015625" lon="30.08480991236865520477294921875">
        <ele>65.59999847412109375</ele>
        <time>2026-04-26T09:51:18.000Z</time>
        <extensions>
          <ns3:TrackPointExtension>
            <ns3:hr>130</ns3:hr>
          </ns3:TrackPointExtension>
        </extensions>
      </trkpt>
      <trkpt lat="59.07163359224796295166015625" lon="30.08480991236865520477294921875">
        <ele>65.59999847412109375</ele>
        <time>2026-04-26T09:51:19.000Z</time>
        <extensions>
          <ns3:TrackPointExtension>
            <ns3:hr>130</ns3:hr>
          </ns3:TrackPointExtension>
        </extensions>
      </trkpt>
      <trkpt lat="59.07163836993277072906494140625" lon="30.08480287156999111175537109375">
        <ele>65.8000030517578125</ele>
        <time>2026-04-26T09:51:20.000Z</time>
        <extensions>
          <ns3:TrackPointExtension>
            <ns3:hr>129</ns3:hr>
          </ns3:TrackPointExtension>
        </extensions>
      </trkpt>
      <trkpt lat="59.071658737957477569580078125" lon="30.08478392846882343292236328125">
        <ele>65.8000030517578125</ele>
        <time>2026-04-26T09:51:23.000Z</time>
        <extensions>
          <ns3:TrackPointExtension>
            <ns3:hr>130</ns3:hr>
          </ns3:TrackPointExtension>
        </extensions>
      </trkpt>
      <trkpt lat="59.0717165730893611907958984375" lon="30.0848178751766681671142578125">
        <ele>65.8000030517578125</ele>
        <time>2026-04-26T09:51:30.000Z</time>
        <extensions>
          <ns3:TrackPointExtension>
            <ns3:hr>130</ns3:hr>
          </ns3:TrackPointExtension>
        </extensions>
      </trkpt>
      <trkpt lat="59.0717447362840175628662109375" lon="30.0847706012427806854248046875">
        <ele>65.8000030517578125</ele>
        <time>2026-04-26T09:51:35.000Z</time>
        <extensions>
          <ns3:TrackPointExtension>
            <ns3:hr>133</ns3:hr>
          </ns3:TrackPointExtension>
        </extensions>
      </trkpt>
      <trkpt lat="59.07175102271139621734619140625" lon="30.08475291542708873748779296875">
        <ele>66</ele>
        <time>2026-04-26T09:51:36.000Z</time>
        <extensions>
          <ns3:TrackPointExtension>
            <ns3:hr>133</ns3:hr>
          </ns3:TrackPointExtension>
        </extensions>
      </trkpt>
      <trkpt lat="59.07177315093576908111572265625" lon="30.08475978858768939971923828125">
        <ele>66</ele>
        <time>2026-04-26T09:51:38.000Z</time>
        <extensions>
          <ns3:TrackPointExtension>
            <ns3:hr>130</ns3:hr>
          </ns3:TrackPointExtension>
        </extensions>
      </trkpt>
      <trkpt lat="59.0717842988669872283935546875" lon="30.084773786365985870361328125">
        <ele>66</ele>
        <time>2026-04-26T09:51:41.000Z</time>
        <extensions>
          <ns3:TrackPointExtension>
            <ns3:hr>127</ns3:hr>
          </ns3:TrackPointExtension>
        </extensions>
      </trkpt>
      <trkpt lat="59.0717987157404422760009765625" lon="30.0847568549215793609619140625">
        <ele>65.8000030517578125</ele>
        <time>2026-04-26T09:51:43.000Z</time>
        <extensions>
          <ns3:TrackPointExtension>
            <ns3:hr>124</ns3:hr>
          </ns3:TrackPointExtension>
        </extensions>
      </trkpt>
      <trkpt lat="59.07184104435145854949951171875" lon="30.08473179303109645843505859375">
        <ele>65.8000030517578125</ele>
        <time>2026-04-26T09:51:47.000Z</time>
        <extensions>
          <ns3:TrackPointExtension>
            <ns3:hr>121</ns3:hr>
          </ns3:TrackPointExtension>
        </extensions>
      </trkpt>
      <trkpt lat="59.07184104435145854949951171875" lon="30.08473179303109645843505859375">
        <ele>65.8000030517578125</ele>
        <time>2026-04-26T09:51:48.000Z</time>
        <extensions>
          <ns3:TrackPointExtension>
            <ns3:hr>119</ns3:hr>
          </ns3:TrackPointExtension>
        </extensions>
      </trkpt>
      <trkpt lat="59.07186719588935375213623046875" lon="30.084733553230762481689453125">
        <ele>65.8000030517578125</ele>
        <time>2026-04-26T09:51:50.000Z</time>
        <extensions>
          <ns3:TrackPointExtension>
            <ns3:hr>116</ns3:hr>
          </ns3:TrackPointExtension>
        </extensions>
      </trkpt>
      <trkpt lat="59.07189887948334217071533203125" lon="30.084737576544284820556640625">
        <ele>66.1999969482421875</ele>
        <time>2026-04-26T09:51:54.000Z</time>
        <extensions>
          <ns3:TrackPointExtension>
            <ns3:hr>119</ns3:hr>
          </ns3:TrackPointExtension>
        </extensions>
      </trkpt>
      <trkpt lat="59.07189887948334217071533203125" lon="30.084737576544284820556640625">
        <ele>66.1999969482421875</ele>
        <time>2026-04-26T09:51:55.000Z</time>
        <extensions>
          <ns3:TrackPointExtension>
            <ns3:hr>119</ns3:hr>
          </ns3:TrackPointExtension>
        </extensions>
      </trkpt>
      <trkpt lat="59.07190826721489429473876953125" lon="30.08471000008285045623779296875">
        <ele>66</ele>
        <time>2026-04-26T09:51:59.000Z</time>
        <extensions>
          <ns3:TrackPointExtension>
            <ns3:hr>122</ns3:hr>
          </ns3:TrackPointExtension>
        </extensions>
      </trkpt>
      <trkpt lat="59.0719187445938587188720703125" lon="30.08468636311590671539306640625">
        <ele>65.8000030517578125</ele>
        <time>2026-04-26T09:52:02.000Z</time>
        <extensions>
          <ns3:TrackPointExtension>
            <ns3:hr>122</ns3:hr>
          </ns3:TrackPointExtension>
        </extensions>
      </trkpt>
      <trkpt lat="59.071932323276996612548828125" lon="30.08466959930956363677978515625">
        <ele>66</ele>
        <time>2026-04-26T09:52:06.000Z</time>
        <extensions>
          <ns3:TrackPointExtension>
            <ns3:hr>121</ns3:hr>
          </ns3:TrackPointExtension>
        </extensions>
      </trkpt>
      <trkpt lat="59.07194447703659534454345703125" lon="30.08468720130622386932373046875">
        <ele>66</ele>
        <time>2026-04-26T09:52:08.000Z</time>
        <extensions>
          <ns3:TrackPointExtension>
            <ns3:hr>121</ns3:hr>
          </ns3:TrackPointExtension>
        </extensions>
      </trkpt>
      <trkpt lat="59.0719747357070446014404296875" lon="30.0846804119646549224853515625">
        <ele>65.8000030517578125</ele>
        <time>2026-04-26T09:52:13.000Z</time>
        <extensions>
          <ns3:TrackPointExtension>
            <ns3:hr>120</ns3:hr>
          </ns3:TrackPointExtension>
        </extensions>
      </trkpt>
      <trkpt lat="59.0720397792756557464599609375" lon="30.084663145244121551513671875">
        <ele>65.8000030517578125</ele>
        <time>2026-04-26T09:52:19.000Z</time>
        <extensions>
          <ns3:TrackPointExtension>
            <ns3:hr>120</ns3:hr>
          </ns3:TrackPointExtension>
        </extensions>
      </trkpt>
      <trkpt lat="59.0720635838806629180908203125" lon="30.084624253213405609130859375">
        <ele>65.8000030517578125</ele>
        <time>2026-04-26T09:52:21.000Z</time>
        <extensions>
          <ns3:TrackPointExtension>
            <ns3:hr>121</ns3:hr>
          </ns3:TrackPointExtension>
        </extensions>
      </trkpt>
      <trkpt lat="59.07206785865128040313720703125" lon="30.0846183858811855316162109375">
        <ele>65.8000030517578125</ele>
        <time>2026-04-26T09:52:24.000Z</time>
        <extensions>
          <ns3:TrackPointExtension>
            <ns3:hr>123</ns3:hr>
          </ns3:TrackPointExtension>
        </extensions>
      </trkpt>
      <trkpt lat="59.07208210788667201995849609375" lon="30.0846405141055583953857421875">
        <ele>65.59999847412109375</ele>
        <time>2026-04-26T09:52:27.000Z</time>
        <extensions>
          <ns3:TrackPointExtension>
            <ns3:hr>126</ns3:hr>
          </ns3:TrackPointExtension>
        </extensions>
      </trkpt>
      <trkpt lat="59.07209602184593677520751953125" lon="30.08463372476398944854736328125">
        <ele>65.59999847412109375</ele>
        <time>2026-04-26T09:52:29.000Z</time>
        <extensions>
          <ns3:TrackPointExtension>
            <ns3:hr>128</ns3:hr>
          </ns3:TrackPointExtension>
        </extensions>
      </trkpt>
      <trkpt lat="59.07211161218583583831787109375" lon="30.08464596234261989593505859375">
        <ele>66</ele>
        <time>2026-04-26T09:52:33.000Z</time>
        <extensions>
          <ns3:TrackPointExtension>
            <ns3:hr>125</ns3:hr>
          </ns3:TrackPointExtension>
        </extensions>
      </trkpt>
      <trkpt lat="59.07211379148066043853759765625" lon="30.08467965759336948394775390625">
        <ele>66.1999969482421875</ele>
        <time>2026-04-26T09:52:36.000Z</time>
        <extensions>
          <ns3:TrackPointExtension>
            <ns3:hr>122</ns3:hr>
          </ns3:TrackPointExtension>
        </extensions>
      </trkpt>
      <trkpt lat="59.07211965881288051605224609375" lon="30.0846545957028865814208984375">
        <ele>66.1999969482421875</ele>
        <time>2026-04-26T09:52:41.000Z</time>
        <extensions>
          <ns3:TrackPointExtension>
            <ns3:hr>121</ns3:hr>
          </ns3:TrackPointExtension>
        </extensions>
      </trkpt>
      <trkpt lat="59.07217162661254405975341796875" lon="30.0846314616501331329345703125">
        <ele>66.1999969482421875</ele>
        <time>2026-04-26T09:52:49.000Z</time>
        <extensions>
          <ns3:TrackPointExtension>
            <ns3:hr>123</ns3:hr>
          </ns3:TrackPointExtension>
        </extensions>
      </trkpt>
      <trkpt lat="59.0722476504743099212646484375" lon="30.084589384496212005615234375">
        <ele>66</ele>
        <time>2026-04-26T09:52:57.000Z</time>
        <extensions>
          <ns3:TrackPointExtension>
            <ns3:hr>124</ns3:hr>
          </ns3:TrackPointExtension>
        </extensions>
      </trkpt>
      <trkpt lat="59.07230003736913204193115234375" lon="30.08462450467050075531005859375">
        <ele>66.1999969482421875</ele>
        <time>2026-04-26T09:53:04.000Z</time>
        <extensions>
          <ns3:TrackPointExtension>
            <ns3:hr>122</ns3:hr>
          </ns3:TrackPointExtension>
        </extensions>
      </trkpt>
      <trkpt lat="59.07233708538115024566650390625" lon="30.08456868119537830352783203125">
        <ele>66.1999969482421875</ele>
        <time>2026-04-26T09:53:11.000Z</time>
        <extensions>
          <ns3:TrackPointExtension>
            <ns3:hr>121</ns3:hr>
          </ns3:TrackPointExtension>
        </extensions>
      </trkpt>
      <trkpt lat="59.0723820962011814117431640625" lon="30.08452090434730052947998046875">
        <ele>66</ele>
        <time>2026-04-26T09:53:16.000Z</time>
        <extensions>
          <ns3:TrackPointExtension>
            <ns3:hr>120</ns3:hr>
          </ns3:TrackPointExtension>
        </extensions>
      </trkpt>
      <trkpt lat="59.072437584400177001953125" lon="30.08450883440673351287841796875">
        <ele>66</ele>
        <time>2026-04-26T09:53:21.000Z</time>
        <extensions>
          <ns3:TrackPointExtension>
            <ns3:hr>121</ns3:hr>
          </ns3:TrackPointExtension>
        </extensions>
      </trkpt>
      <trkpt lat="59.072513692080974578857421875" lon="30.084476061165332794189453125">
        <ele>66</ele>
        <time>2026-04-26T09:53:27.000Z</time>
        <extensions>
          <ns3:TrackPointExtension>
            <ns3:hr>123</ns3:hr>
          </ns3:TrackPointExtension>
        </extensions>
      </trkpt>
      <trkpt lat="59.07252400182187557220458984375" lon="30.084474049508571624755859375">
        <ele>66</ele>
        <time>2026-04-26T09:53:28.000Z</time>
        <extensions>
          <ns3:TrackPointExtension>
            <ns3:hr>123</ns3:hr>
          </ns3:TrackPointExtension>
        </extensions>
      </trkpt>
      <trkpt lat="59.07256138511002063751220703125" lon="30.0844685174524784088134765625">
        <ele>66</ele>
        <time>2026-04-26T09:53:34.000Z</time>
        <extensions>
          <ns3:TrackPointExtension>
            <ns3:hr>121</ns3:hr>
          </ns3:TrackPointExtension>
        </extensions>
      </trkpt>
      <trkpt lat="59.072544872760772705078125" lon="30.0844489037990570068359375">
        <ele>65.8000030517578125</ele>
        <time>2026-04-26T09:53:37.000Z</time>
        <extensions>
          <ns3:TrackPointExtension>
            <ns3:hr>120</ns3:hr>
          </ns3:TrackPointExtension>
        </extensions>
      </trkpt>
      <trkpt lat="59.07256725244224071502685546875" lon="30.0844274461269378662109375">
        <ele>66</ele>
        <time>2026-04-26T09:53:40.000Z</time>
        <extensions>
          <ns3:TrackPointExtension>
            <ns3:hr>117</ns3:hr>
          </ns3:TrackPointExtension>
        </extensions>
      </trkpt>
      <trkpt lat="59.0725896321237087249755859375" lon="30.08442954160273075103759765625">
        <ele>66</ele>
        <time>2026-04-26T09:53:43.000Z</time>
        <extensions>
          <ns3:TrackPointExtension>
            <ns3:hr>115</ns3:hr>
          </ns3:TrackPointExtension>
        </extensions>
      </trkpt>
      <trkpt lat="59.072659872472286224365234375" lon="30.084418393671512603759765625">
        <ele>66.1999969482421875</ele>
        <time>2026-04-26T09:53:49.000Z</time>
        <extensions>
          <ns3:TrackPointExtension>
            <ns3:hr>117</ns3:hr>
          </ns3:TrackPointExtension>
        </extensions>
      </trkpt>
      <trkpt lat="59.07269306480884552001953125" lon="30.0844088383018970489501953125">
        <ele>66</ele>
        <time>2026-04-26T09:53:52.000Z</time>
        <extensions>
          <ns3:TrackPointExtension>
            <ns3:hr>120</ns3:hr>
          </ns3:TrackPointExtension>
        </extensions>
      </trkpt>
      <trkpt lat="59.07270521856844425201416015625" lon="30.0844011269509792327880859375">
        <ele>66</ele>
        <time>2026-04-26T09:53:54.000Z</time>
        <extensions>
          <ns3:TrackPointExtension>
            <ns3:hr>123</ns3:hr>
          </ns3:TrackPointExtension>
        </extensions>
      </trkpt>
      <trkpt lat="59.072735644876956939697265625" lon="30.08439685218036174774169921875">
        <ele>66</ele>
        <time>2026-04-26T09:53:56.000Z</time>
        <extensions>
          <ns3:TrackPointExtension>
            <ns3:hr>123</ns3:hr>
          </ns3:TrackPointExtension>
        </extensions>
      </trkpt>
      <trkpt lat="59.07281569205224514007568359375" lon="30.084393583238124847412109375">
        <ele>66.40000152587890625</ele>
        <time>2026-04-26T09:54:04.000Z</time>
        <extensions>
          <ns3:TrackPointExtension>
            <ns3:hr>123</ns3:hr>
          </ns3:TrackPointExtension>
        </extensions>
      </trkpt>
      <trkpt lat="59.072850644588470458984375" lon="30.08440741337835788726806640625">
        <ele>66.40000152587890625</ele>
        <time>2026-04-26T09:54:07.000Z</time>
        <extensions>
          <ns3:TrackPointExtension>
            <ns3:hr>120</ns3:hr>
          </ns3:TrackPointExtension>
        </extensions>
      </trkpt>
      <trkpt lat="59.07287134788930416107177734375" lon="30.08440238423645496368408203125">
        <ele>66.1999969482421875</ele>
        <time>2026-04-26T09:54:09.000Z</time>
        <extensions>
          <ns3:TrackPointExtension>
            <ns3:hr>116</ns3:hr>
          </ns3:TrackPointExtension>
        </extensions>
      </trkpt>
      <trkpt lat="59.07288174144923686981201171875" lon="30.08442501537501811981201171875">
        <ele>66</ele>
        <time>2026-04-26T09:54:11.000Z</time>
        <extensions>
          <ns3:TrackPointExtension>
            <ns3:hr>118</ns3:hr>
          </ns3:TrackPointExtension>
        </extensions>
      </trkpt>
      <trkpt lat="59.07287319190800189971923828125" lon="30.08445502258837223052978515625">
        <ele>66.1999969482421875</ele>
        <time>2026-04-26T09:54:21.000Z</time>
        <extensions>
          <ns3:TrackPointExtension>
            <ns3:hr>117</ns3:hr>
          </ns3:TrackPointExtension>
        </extensions>
      </trkpt>
      <trkpt lat="59.0728960745036602020263671875" lon="30.084406323730945587158203125">
        <ele>66.40000152587890625</ele>
        <time>2026-04-26T09:54:27.000Z</time>
        <extensions>
          <ns3:TrackPointExtension>
            <ns3:hr>118</ns3:hr>
          </ns3:TrackPointExtension>
        </extensions>
      </trkpt>
      <trkpt lat="59.07295751385390758514404296875" lon="30.08436500094830989837646484375">
        <ele>66.1999969482421875</ele>
        <time>2026-04-26T09:54:33.000Z</time>
        <extensions>
          <ns3:TrackPointExtension>
            <ns3:hr>119</ns3:hr>
          </ns3:TrackPointExtension>
        </extensions>
      </trkpt>
      <trkpt lat="59.07301283441483974456787109375" lon="30.084354691207408905029296875">
        <ele>66.1999969482421875</ele>
        <time>2026-04-26T09:54:40.000Z</time>
        <extensions>
          <ns3:TrackPointExtension>
            <ns3:hr>119</ns3:hr>
          </ns3:TrackPointExtension>
        </extensions>
      </trkpt>
      <trkpt lat="59.073033034801483154296875" lon="30.08435712195932865142822265625">
        <ele>66.59999847412109375</ele>
        <time>2026-04-26T09:54:43.000Z</time>
        <extensions>
          <ns3:TrackPointExtension>
            <ns3:hr>118</ns3:hr>
          </ns3:TrackPointExtension>
        </extensions>
      </trkpt>
      <trkpt lat="59.0730576775968074798583984375" lon="30.0843595527112483978271484375">
        <ele>66.59999847412109375</ele>
        <time>2026-04-26T09:54:45.000Z</time>
        <extensions>
          <ns3:TrackPointExtension>
            <ns3:hr>119</ns3:hr>
          </ns3:TrackPointExtension>
        </extensions>
      </trkpt>
      <trkpt lat="59.07306144945323467254638671875" lon="30.08433423936367034912109375">
        <ele>66.40000152587890625</ele>
        <time>2026-04-26T09:54:48.000Z</time>
        <extensions>
          <ns3:TrackPointExtension>
            <ns3:hr>115</ns3:hr>
          </ns3:TrackPointExtension>
        </extensions>
      </trkpt>
      <trkpt lat="59.07307854853570461273193359375" lon="30.08430548943579196929931640625">
        <ele>66.40000152587890625</ele>
        <time>2026-04-26T09:54:51.000Z</time>
        <extensions>
          <ns3:TrackPointExtension>
            <ns3:hr>115</ns3:hr>
          </ns3:TrackPointExtension>
        </extensions>
      </trkpt>
      <trkpt lat="59.07306530512869358062744140625" lon="30.08428906090557575225830078125">
        <ele>66.59999847412109375</ele>
        <time>2026-04-26T09:54:56.000Z</time>
        <extensions>
          <ns3:TrackPointExtension>
            <ns3:hr>115</ns3:hr>
          </ns3:TrackPointExtension>
        </extensions>
      </trkpt>
      <trkpt lat="59.073062874376773834228515625" lon="30.0842639990150928497314453125">
        <ele>66.59999847412109375</ele>
        <time>2026-04-26T09:55:02.000Z</time>
        <extensions>
          <ns3:TrackPointExtension>
            <ns3:hr>112</ns3:hr>
          </ns3:TrackPointExtension>
        </extensions>
      </trkpt>
      <trkpt lat="59.073070585727691650390625" lon="30.08427062071859836578369140625">
        <ele>66.8000030517578125</ele>
        <time>2026-04-26T09:55:05.000Z</time>
        <extensions>
          <ns3:TrackPointExtension>
            <ns3:hr>116</ns3:hr>
          </ns3:TrackPointExtension>
        </extensions>
      </trkpt>
      <trkpt lat="59.07305692322552204132080078125" lon="30.08421580307185649871826171875">
        <ele>66.8000030517578125</ele>
        <time>2026-04-26T09:55:08.000Z</time>
        <extensions>
          <ns3:TrackPointExtension>
            <ns3:hr>118</ns3:hr>
          </ns3:TrackPointExtension>
        </extensions>
      </trkpt>
      <trkpt lat="59.0730563364923000335693359375" lon="30.08415746502578258514404296875">
        <ele>67</ele>
        <time>2026-04-26T09:55:14.000Z</time>
        <extensions>
          <ns3:TrackPointExtension>
            <ns3:hr>119</ns3:hr>
          </ns3:TrackPointExtension>
        </extensions>
      </trkpt>
      <trkpt lat="59.07305507920682430267333984375" lon="30.08413977921009063720703125">
        <ele>67</ele>
        <time>2026-04-26T09:55:15.000Z</time>
        <extensions>
          <ns3:TrackPointExtension>
            <ns3:hr>119</ns3:hr>
          </ns3:TrackPointExtension>
        </extensions>
      </trkpt>
      <trkpt lat="59.0730583481490612030029296875" lon="30.08411957882344722747802734375">
        <ele>67</ele>
        <time>2026-04-26T09:55:18.000Z</time>
        <extensions>
          <ns3:TrackPointExtension>
            <ns3:hr>120</ns3:hr>
          </ns3:TrackPointExtension>
        </extensions>
      </trkpt>
      <trkpt lat="59.07306731678545475006103515625" lon="30.08412360213696956634521484375">
        <ele>67</ele>
        <time>2026-04-26T09:55:22.000Z</time>
        <extensions>
          <ns3:TrackPointExtension>
            <ns3:hr>123</ns3:hr>
          </ns3:TrackPointExtension>
        </extensions>
      </trkpt>
      <trkpt lat="59.07306731678545475006103515625" lon="30.08412360213696956634521484375">
        <ele>67</ele>
        <time>2026-04-26T09:55:23.000Z</time>
        <extensions>
          <ns3:TrackPointExtension>
            <ns3:hr>124</ns3:hr>
          </ns3:TrackPointExtension>
        </extensions>
      </trkpt>
      <trkpt lat="59.07305918633937835693359375" lon="30.08411454968154430389404296875">
        <ele>67</ele>
        <time>2026-04-26T09:55:25.000Z</time>
        <extensions>
          <ns3:TrackPointExtension>
            <ns3:hr>124</ns3:hr>
          </ns3:TrackPointExtension>
        </extensions>
      </trkpt>
      <trkpt lat="59.0730719268321990966796875" lon="30.08418797515332698822021484375">
        <ele>67</ele>
        <time>2026-04-26T09:55:29.000Z</time>
        <extensions>
          <ns3:TrackPointExtension>
            <ns3:hr>124</ns3:hr>
          </ns3:TrackPointExtension>
        </extensions>
      </trkpt>
      <trkpt lat="59.07307603396475315093994140625" lon="30.08421219885349273681640625">
        <ele>67</ele>
        <time>2026-04-26T09:55:30.000Z</time>
        <extensions>
          <ns3:TrackPointExtension>
            <ns3:hr>124</ns3:hr>
          </ns3:TrackPointExtension>
        </extensions>
      </trkpt>
      <trkpt lat="59.07311107032001018524169921875" lon="30.0842609815299510955810546875">
        <ele>66.8000030517578125</ele>
        <time>2026-04-26T09:55:34.000Z</time>
        <extensions>
          <ns3:TrackPointExtension>
            <ns3:hr>125</ns3:hr>
          </ns3:TrackPointExtension>
        </extensions>
      </trkpt>
      <trkpt lat="59.0731384791433811187744140625" lon="30.08424111641943454742431640625">
        <ele>66.8000030517578125</ele>
        <time>2026-04-26T09:55:40.000Z</time>
        <extensions>
          <ns3:TrackPointExtension>
            <ns3:hr>125</ns3:hr>
          </ns3:TrackPointExtension>
        </extensions>
      </trkpt>
      <trkpt lat="59.07316379249095916748046875" lon="30.08426995016634464263916015625">
        <ele>66.8000030517578125</ele>
        <time>2026-04-26T09:55:44.000Z</time>
        <extensions>
          <ns3:TrackPointExtension>
            <ns3:hr>124</ns3:hr>
          </ns3:TrackPointExtension>
        </extensions>
      </trkpt>
      <trkpt lat="59.07318600453436374664306640625" lon="30.08427129127085208892822265625">
        <ele>67.40000152587890625</ele>
        <time>2026-04-26T09:55:51.000Z</time>
        <extensions>
          <ns3:TrackPointExtension>
            <ns3:hr>126</ns3:hr>
          </ns3:TrackPointExtension>
        </extensions>
      </trkpt>
      <trkpt lat="59.07318667508661746978759765625" lon="30.08431839756667613983154296875">
        <ele>67.59999847412109375</ele>
        <time>2026-04-26T09:55:56.000Z</time>
        <extensions>
          <ns3:TrackPointExtension>
            <ns3:hr>123</ns3:hr>
          </ns3:TrackPointExtension>
        </extensions>
      </trkpt>
      <trkpt lat="59.07318667508661746978759765625" lon="30.08431839756667613983154296875">
        <ele>67.59999847412109375</ele>
        <time>2026-04-26T09:55:57.000Z</time>
        <extensions>
          <ns3:TrackPointExtension>
            <ns3:hr>123</ns3:hr>
          </ns3:TrackPointExtension>
        </extensions>
      </trkpt>
      <trkpt lat="59.0732072107493877410888671875" lon="30.0843498297035694122314453125">
        <ele>67.40000152587890625</ele>
        <time>2026-04-26T09:56:00.000Z</time>
        <extensions>
          <ns3:TrackPointExtension>
            <ns3:hr>124</ns3:hr>
          </ns3:TrackPointExtension>
        </extensions>
      </trkpt>
      <trkpt lat="59.07321215607225894927978515625" lon="30.084346644580364227294921875">
        <ele>67.40000152587890625</ele>
        <time>2026-04-26T09:56:04.000Z</time>
        <extensions>
          <ns3:TrackPointExtension>
            <ns3:hr>121</ns3:hr>
          </ns3:TrackPointExtension>
        </extensions>
      </trkpt>
      <trkpt lat="59.073218442499637603759765625" lon="30.0843441300094127655029296875">
        <ele>67.40000152587890625</ele>
        <time>2026-04-26T09:56:05.000Z</time>
        <extensions>
          <ns3:TrackPointExtension>
            <ns3:hr>121</ns3:hr>
          </ns3:TrackPointExtension>
        </extensions>
      </trkpt>
      <trkpt lat="59.07323780469596385955810546875" lon="30.08433155715465545654296875">
        <ele>67.40000152587890625</ele>
        <time>2026-04-26T09:56:07.000Z</time>
        <extensions>
          <ns3:TrackPointExtension>
            <ns3:hr>123</ns3:hr>
          </ns3:TrackPointExtension>
        </extensions>
      </trkpt>
      <trkpt lat="59.0732621960341930389404296875" lon="30.084319151937961578369140625">
        <ele>67.1999969482421875</ele>
        <time>2026-04-26T09:56:09.000Z</time>
        <extensions>
          <ns3:TrackPointExtension>
            <ns3:hr>126</ns3:hr>
          </ns3:TrackPointExtension>
        </extensions>
      </trkpt>
      <trkpt lat="59.0732876770198345184326171875" lon="30.08429526351392269134521484375">
        <ele>67.1999969482421875</ele>
        <time>2026-04-26T09:56:11.000Z</time>
        <extensions>
          <ns3:TrackPointExtension>
            <ns3:hr>127</ns3:hr>
          </ns3:TrackPointExtension>
        </extensions>
      </trkpt>
      <trkpt lat="59.07331458292901515960693359375" lon="30.0842881388962268829345703125">
        <ele>67.1999969482421875</ele>
        <time>2026-04-26T09:56:16.000Z</time>
        <extensions>
          <ns3:TrackPointExtension>
            <ns3:hr>130</ns3:hr>
          </ns3:TrackPointExtension>
        </extensions>
      </trkpt>
      <trkpt lat="59.07333671115338802337646484375" lon="30.08425989188253879547119140625">
        <ele>67.1999969482421875</ele>
        <time>2026-04-26T09:56:18.000Z</time>
        <extensions>
          <ns3:TrackPointExtension>
            <ns3:hr>130</ns3:hr>
          </ns3:TrackPointExtension>
        </extensions>
      </trkpt>
      <trkpt lat="59.0733916126191616058349609375" lon="30.08420021273195743560791015625">
        <ele>67.1999969482421875</ele>
        <time>2026-04-26T09:56:25.000Z</time>
        <extensions>
          <ns3:TrackPointExtension>
            <ns3:hr>130</ns3:hr>
          </ns3:TrackPointExtension>
        </extensions>
      </trkpt>
      <trkpt lat="59.0734341926872730255126953125" lon="30.0842026434838771820068359375">
        <ele>67.40000152587890625</ele>
        <time>2026-04-26T09:56:31.000Z</time>
        <extensions>
          <ns3:TrackPointExtension>
            <ns3:hr>131</ns3:hr>
          </ns3:TrackPointExtension>
        </extensions>
      </trkpt>
      <trkpt lat="59.0734486095607280731201171875" lon="30.08421362377703189849853515625">
        <ele>67.40000152587890625</ele>
        <time>2026-04-26T09:56:32.000Z</time>
        <extensions>
          <ns3:TrackPointExtension>
            <ns3:hr>128</ns3:hr>
          </ns3:TrackPointExtension>
        </extensions>
      </trkpt>
      <trkpt lat="59.07345171086490154266357421875" lon="30.08421379141509532928466796875">
        <ele>67.59999847412109375</ele>
        <time>2026-04-26T09:56:33.000Z</time>
        <extensions>
          <ns3:TrackPointExtension>
            <ns3:hr>125</ns3:hr>
          </ns3:TrackPointExtension>
        </extensions>
      </trkpt>
      <trkpt lat="59.07345741055905818939208984375" lon="30.0841935910284519195556640625">
        <ele>67.8000030517578125</ele>
        <time>2026-04-26T09:56:35.000Z</time>
        <extensions>
          <ns3:TrackPointExtension>
            <ns3:hr>121</ns3:hr>
          </ns3:TrackPointExtension>
        </extensions>
      </trkpt>
      <trkpt lat="59.07346361316740512847900390625" lon="30.0842023082077503204345703125">
        <ele>67.8000030517578125</ele>
        <time>2026-04-26T09:56:38.000Z</time>
        <extensions>
          <ns3:TrackPointExtension>
            <ns3:hr>117</ns3:hr>
          </ns3:TrackPointExtension>
        </extensions>
      </trkpt>
      <trkpt lat="59.0735064446926116943359375" lon="30.0842101871967315673828125">
        <ele>67.40000152587890625</ele>
        <time>2026-04-26T09:56:44.000Z</time>
        <extensions>
          <ns3:TrackPointExtension>
            <ns3:hr>116</ns3:hr>
          </ns3:TrackPointExtension>
        </extensions>
      </trkpt>
      <trkpt lat="59.07350116409361362457275390625" lon="30.08419878780841827392578125">
        <ele>67.1999969482421875</ele>
        <time>2026-04-26T09:56:51.000Z</time>
        <extensions>
          <ns3:TrackPointExtension>
            <ns3:hr>116</ns3:hr>
          </ns3:TrackPointExtension>
        </extensions>
      </trkpt>
      <trkpt lat="59.07352186739444732666015625" lon="30.084203816950321197509765625">
        <ele>67.59999847412109375</ele>
        <time>2026-04-26T09:56:59.000Z</time>
        <extensions>
          <ns3:TrackPointExtension>
            <ns3:hr>121</ns3:hr>
          </ns3:TrackPointExtension>
        </extensions>
      </trkpt>
      <trkpt lat="59.07351625151932239532470703125" lon="30.0842021405696868896484375">
        <ele>67.8000030517578125</ele>
        <time>2026-04-26T09:57:01.000Z</time>
        <extensions>
          <ns3:TrackPointExtension>
            <ns3:hr>123</ns3:hr>
          </ns3:TrackPointExtension>
        </extensions>
      </trkpt>
      <trkpt lat="59.0735381282866001129150390625" lon="30.0841860473155975341796875">
        <ele>67.59999847412109375</ele>
        <time>2026-04-26T09:57:08.000Z</time>
        <extensions>
          <ns3:TrackPointExtension>
            <ns3:hr>126</ns3:hr>
          </ns3:TrackPointExtension>
        </extensions>
      </trkpt>
      <trkpt lat="59.0735381282866001129150390625" lon="30.0841860473155975341796875">
        <ele>67.59999847412109375</ele>
        <time>2026-04-26T09:57:09.000Z</time>
        <extensions>
          <ns3:TrackPointExtension>
            <ns3:hr>129</ns3:hr>
          </ns3:TrackPointExtension>
        </extensions>
      </trkpt>
      <trkpt lat="59.07354139722883701324462890625" lon="30.08418579585850238800048828125">
        <ele>67.59999847412109375</ele>
        <time>2026-04-26T09:57:11.000Z</time>
        <extensions>
          <ns3:TrackPointExtension>
            <ns3:hr>132</ns3:hr>
          </ns3:TrackPointExtension>
        </extensions>
      </trkpt>
      <trkpt lat="59.07354139722883701324462890625" lon="30.08418579585850238800048828125">
        <ele>67.59999847412109375</ele>
        <time>2026-04-26T09:57:12.000Z</time>
        <extensions>
          <ns3:TrackPointExtension>
            <ns3:hr>131</ns3:hr>
          </ns3:TrackPointExtension>
        </extensions>
      </trkpt>
      <trkpt lat="59.073558412492275238037109375" lon="30.08418579585850238800048828125">
        <ele>67.59999847412109375</ele>
        <time>2026-04-26T09:57:20.000Z</time>
        <extensions>
          <ns3:TrackPointExtension>
            <ns3:hr>130</ns3:hr>
          </ns3:TrackPointExtension>
        </extensions>
      </trkpt>
      <trkpt lat="59.0735627710819244384765625" lon="30.08417791686952114105224609375">
        <ele>67.59999847412109375</ele>
        <time>2026-04-26T09:57:29.000Z</time>
        <extensions>
          <ns3:TrackPointExtension>
            <ns3:hr>127</ns3:hr>
          </ns3:TrackPointExtension>
        </extensions>
      </trkpt>
      <trkpt lat="59.0735627710819244384765625" lon="30.08417791686952114105224609375">
        <ele>67.59999847412109375</ele>
        <time>2026-04-26T09:57:30.000Z</time>
        <extensions>
          <ns3:TrackPointExtension>
            <ns3:hr>127</ns3:hr>
          </ns3:TrackPointExtension>
        </extensions>
      </trkpt>
      <trkpt lat="59.073565788567066192626953125" lon="30.08419434539973735809326171875">
        <ele>67.59999847412109375</ele>
        <time>2026-04-26T09:57:33.000Z</time>
        <extensions>
          <ns3:TrackPointExtension>
            <ns3:hr>123</ns3:hr>
          </ns3:TrackPointExtension>
        </extensions>
      </trkpt>
      <trkpt lat="59.07356402836740016937255859375" lon="30.08420457132160663604736328125">
        <ele>67.59999847412109375</ele>
        <time>2026-04-26T09:57:35.000Z</time>
        <extensions>
          <ns3:TrackPointExtension>
            <ns3:hr>120</ns3:hr>
          </ns3:TrackPointExtension>
        </extensions>
      </trkpt>
      <trkpt lat="59.073570482432842254638671875" lon="30.08418328128755092620849609375">
        <ele>67.59999847412109375</ele>
        <time>2026-04-26T09:57:37.000Z</time>
        <extensions>
          <ns3:TrackPointExtension>
            <ns3:hr>119</ns3:hr>
          </ns3:TrackPointExtension>
        </extensions>
      </trkpt>
      <trkpt lat="59.073550365865230560302734375" lon="30.08411639370024204254150390625">
        <ele>67.40000152587890625</ele>
        <time>2026-04-26T09:57:45.000Z</time>
        <extensions>
          <ns3:TrackPointExtension>
            <ns3:hr>117</ns3:hr>
          </ns3:TrackPointExtension>
        </extensions>
      </trkpt>
      <trkpt lat="59.07356746494770050048828125" lon="30.08408990688621997833251953125">
        <ele>67.59999847412109375</ele>
        <time>2026-04-26T09:57:50.000Z</time>
        <extensions>
          <ns3:TrackPointExtension>
            <ns3:hr>114</ns3:hr>
          </ns3:TrackPointExtension>
        </extensions>
      </trkpt>
      <trkpt lat="59.073574841022491455078125" lon="30.08409954607486724853515625">
        <ele>67.59999847412109375</ele>
        <time>2026-04-26T09:57:54.000Z</time>
        <extensions>
          <ns3:TrackPointExtension>
            <ns3:hr>112</ns3:hr>
          </ns3:TrackPointExtension>
        </extensions>
      </trkpt>
      <trkpt lat="59.07356721349060535430908203125" lon="30.08411371149122714996337890625">
        <ele>67.59999847412109375</ele>
        <time>2026-04-26T09:58:00.000Z</time>
        <extensions>
          <ns3:TrackPointExtension>
            <ns3:hr>113</ns3:hr>
          </ns3:TrackPointExtension>
        </extensions>
      </trkpt>
      <trkpt lat="59.07358489930629730224609375" lon="30.0841268710792064666748046875">
        <ele>67.8000030517578125</ele>
        <time>2026-04-26T09:58:05.000Z</time>
        <extensions>
          <ns3:TrackPointExtension>
            <ns3:hr>110</ns3:hr>
          </ns3:TrackPointExtension>
        </extensions>
      </trkpt>
      <trkpt lat="59.073583893477916717529296875" lon="30.0841392762959003448486328125">
        <ele>67.59999847412109375</ele>
        <time>2026-04-26T09:58:08.000Z</time>
        <extensions>
          <ns3:TrackPointExtension>
            <ns3:hr>111</ns3:hr>
          </ns3:TrackPointExtension>
        </extensions>
      </trkpt>
      <trkpt lat="59.07363225705921649932861328125" lon="30.08411337621510028839111328125">
        <ele>67.8000030517578125</ele>
        <time>2026-04-26T09:58:16.000Z</time>
        <extensions>
          <ns3:TrackPointExtension>
            <ns3:hr>113</ns3:hr>
          </ns3:TrackPointExtension>
        </extensions>
      </trkpt>
      <trkpt lat="59.073652289807796478271484375" lon="30.08409242145717144012451171875">
        <ele>68</ele>
        <time>2026-04-26T09:58:21.000Z</time>
        <extensions>
          <ns3:TrackPointExtension>
            <ns3:hr>114</ns3:hr>
          </ns3:TrackPointExtension>
        </extensions>
      </trkpt>
      <trkpt lat="59.07366360537707805633544921875" lon="30.08409258909523487091064453125">
        <ele>68</ele>
        <time>2026-04-26T09:58:23.000Z</time>
        <extensions>
          <ns3:TrackPointExtension>
            <ns3:hr>114</ns3:hr>
          </ns3:TrackPointExtension>
        </extensions>
      </trkpt>
      <trkpt lat="59.07368774525821208953857421875" lon="30.084060989320278167724609375">
        <ele>68</ele>
        <time>2026-04-26T09:58:28.000Z</time>
        <extensions>
          <ns3:TrackPointExtension>
            <ns3:hr>115</ns3:hr>
          </ns3:TrackPointExtension>
        </extensions>
      </trkpt>
      <trkpt lat="59.073718674480915069580078125" lon="30.08404028601944446563720703125">
        <ele>68</ele>
        <time>2026-04-26T09:58:34.000Z</time>
        <extensions>
          <ns3:TrackPointExtension>
            <ns3:hr>114</ns3:hr>
          </ns3:TrackPointExtension>
        </extensions>
      </trkpt>
      <trkpt lat="59.0737617574632167816162109375" lon="30.08403592742979526519775390625">
        <ele>68</ele>
        <time>2026-04-26T09:58:40.000Z</time>
        <extensions>
          <ns3:TrackPointExtension>
            <ns3:hr>115</ns3:hr>
          </ns3:TrackPointExtension>
        </extensions>
      </trkpt>
      <trkpt lat="59.0737788565456867218017578125" lon="30.08400742895901203155517578125">
        <ele>68</ele>
        <time>2026-04-26T09:58:45.000Z</time>
        <extensions>
          <ns3:TrackPointExtension>
            <ns3:hr>117</ns3:hr>
          </ns3:TrackPointExtension>
        </extensions>
      </trkpt>
      <trkpt lat="59.07380752265453338623046875" lon="30.08403006009757518768310546875">
        <ele>68</ele>
        <time>2026-04-26T09:58:50.000Z</time>
        <extensions>
          <ns3:TrackPointExtension>
            <ns3:hr>120</ns3:hr>
          </ns3:TrackPointExtension>
        </extensions>
      </trkpt>
      <trkpt lat="59.0738204307854175567626953125" lon="30.08403542451560497283935546875">
        <ele>68.1999969482421875</ele>
        <time>2026-04-26T09:58:52.000Z</time>
        <extensions>
          <ns3:TrackPointExtension>
            <ns3:hr>120</ns3:hr>
          </ns3:TrackPointExtension>
        </extensions>
      </trkpt>
      <trkpt lat="59.073846079409122467041015625" lon="30.08401664905250072479248046875">
        <ele>68.59999847412109375</ele>
        <time>2026-04-26T09:58:56.000Z</time>
        <extensions>
          <ns3:TrackPointExtension>
            <ns3:hr>123</ns3:hr>
          </ns3:TrackPointExtension>
        </extensions>
      </trkpt>
      <trkpt lat="59.073846079409122467041015625" lon="30.08401664905250072479248046875">
        <ele>68.59999847412109375</ele>
        <time>2026-04-26T09:58:57.000Z</time>
        <extensions>
          <ns3:TrackPointExtension>
            <ns3:hr>123</ns3:hr>
          </ns3:TrackPointExtension>
        </extensions>
      </trkpt>
      <trkpt lat="59.0738831274211406707763671875" lon="30.08401103317737579345703125">
        <ele>68.59999847412109375</ele>
        <time>2026-04-26T09:59:01.000Z</time>
        <extensions>
          <ns3:TrackPointExtension>
            <ns3:hr>122</ns3:hr>
          </ns3:TrackPointExtension>
        </extensions>
      </trkpt>
      <trkpt lat="59.073886983096599578857421875" lon="30.084000639617443084716796875">
        <ele>68.40000152587890625</ele>
        <time>2026-04-26T09:59:06.000Z</time>
        <extensions>
          <ns3:TrackPointExtension>
            <ns3:hr>123</ns3:hr>
          </ns3:TrackPointExtension>
        </extensions>
      </trkpt>
      <trkpt lat="59.073910452425479888916015625" lon="30.084044896066188812255859375">
        <ele>68.40000152587890625</ele>
        <time>2026-04-26T09:59:13.000Z</time>
        <extensions>
          <ns3:TrackPointExtension>
            <ns3:hr>123</ns3:hr>
          </ns3:TrackPointExtension>
        </extensions>
      </trkpt>
      <trkpt lat="59.0739300660789012908935546875" lon="30.0840165652334690093994140625">
        <ele>68.59999847412109375</ele>
        <time>2026-04-26T09:59:20.000Z</time>
        <extensions>
          <ns3:TrackPointExtension>
            <ns3:hr>123</ns3:hr>
          </ns3:TrackPointExtension>
        </extensions>
      </trkpt>
      <trkpt lat="59.0739645995199680328369140625" lon="30.0839890725910663604736328125">
        <ele>68.59999847412109375</ele>
        <time>2026-04-26T09:59:27.000Z</time>
        <extensions>
          <ns3:TrackPointExtension>
            <ns3:hr>125</ns3:hr>
          </ns3:TrackPointExtension>
        </extensions>
      </trkpt>
      <trkpt lat="59.073974825441837310791015625" lon="30.08400374092161655426025390625">
        <ele>68.59999847412109375</ele>
        <time>2026-04-26T09:59:29.000Z</time>
        <extensions>
          <ns3:TrackPointExtension>
            <ns3:hr>122</ns3:hr>
          </ns3:TrackPointExtension>
        </extensions>
      </trkpt>
      <trkpt lat="59.0739981271326541900634765625" lon="30.08400927297770977020263671875">
        <ele>68.59999847412109375</ele>
        <time>2026-04-26T09:59:31.000Z</time>
        <extensions>
          <ns3:TrackPointExtension>
            <ns3:hr>125</ns3:hr>
          </ns3:TrackPointExtension>
        </extensions>
      </trkpt>
      <trkpt lat="59.0739981271326541900634765625" lon="30.08400927297770977020263671875">
        <ele>68.59999847412109375</ele>
        <time>2026-04-26T09:59:32.000Z</time>
        <extensions>
          <ns3:TrackPointExtension>
            <ns3:hr>129</ns3:hr>
          </ns3:TrackPointExtension>
        </extensions>
      </trkpt>
      <trkpt lat="59.07400458119809627532958984375" lon="30.08400675840675830841064453125">
        <ele>68.59999847412109375</ele>
        <time>2026-04-26T09:59:33.000Z</time>
        <extensions>
          <ns3:TrackPointExtension>
            <ns3:hr>130</ns3:hr>
          </ns3:TrackPointExtension>
        </extensions>
      </trkpt>
      <trkpt lat="59.07400458119809627532958984375" lon="30.08400675840675830841064453125">
        <ele>68.59999847412109375</ele>
        <time>2026-04-26T09:59:34.000Z</time>
        <extensions>
          <ns3:TrackPointExtension>
            <ns3:hr>127</ns3:hr>
          </ns3:TrackPointExtension>
        </extensions>
      </trkpt>
      <trkpt lat="59.0740252844989299774169921875" lon="30.08400424383580684661865234375">
        <ele>68.59999847412109375</ele>
        <time>2026-04-26T09:59:36.000Z</time>
        <extensions>
          <ns3:TrackPointExtension>
            <ns3:hr>123</ns3:hr>
          </ns3:TrackPointExtension>
        </extensions>
      </trkpt>
      <trkpt lat="59.074047245085239410400390625" lon="30.08399837650358676910400390625">
        <ele>68.8000030517578125</ele>
        <time>2026-04-26T09:59:41.000Z</time>
        <extensions>
          <ns3:TrackPointExtension>
            <ns3:hr>121</ns3:hr>
          </ns3:TrackPointExtension>
        </extensions>
      </trkpt>
      <trkpt lat="59.07405252568423748016357421875" lon="30.0840065069496631622314453125">
        <ele>68.8000030517578125</ele>
        <time>2026-04-26T09:59:42.000Z</time>
        <extensions>
          <ns3:TrackPointExtension>
            <ns3:hr>121</ns3:hr>
          </ns3:TrackPointExtension>
        </extensions>
      </trkpt>
      <trkpt lat="59.0740665234625339508056640625" lon="30.08399896323680877685546875">
        <ele>68.8000030517578125</ele>
        <time>2026-04-26T09:59:47.000Z</time>
        <extensions>
          <ns3:TrackPointExtension>
            <ns3:hr>122</ns3:hr>
          </ns3:TrackPointExtension>
        </extensions>
      </trkpt>
      <trkpt lat="59.07408202998340129852294921875" lon="30.083964429795742034912109375">
        <ele>69</ele>
        <time>2026-04-26T09:59:50.000Z</time>
        <extensions>
          <ns3:TrackPointExtension>
            <ns3:hr>121</ns3:hr>
          </ns3:TrackPointExtension>
        </extensions>
      </trkpt>
      <trkpt lat="59.07408990897238254547119140625" lon="30.083997957408428192138671875">
        <ele>69</ele>
        <time>2026-04-26T09:59:55.000Z</time>
        <extensions>
          <ns3:TrackPointExtension>
            <ns3:hr>121</ns3:hr>
          </ns3:TrackPointExtension>
        </extensions>
      </trkpt>
      <trkpt lat="59.07411941327154636383056640625" lon="30.08394724689424037933349609375">
        <ele>68.8000030517578125</ele>
        <time>2026-04-26T10:00:00.000Z</time>
        <extensions>
          <ns3:TrackPointExtension>
            <ns3:hr>122</ns3:hr>
          </ns3:TrackPointExtension>
        </extensions>
      </trkpt>
      <trkpt lat="59.07413366250693798065185546875" lon="30.08393601514399051666259765625">
        <ele>68.8000030517578125</ele>
        <time>2026-04-26T10:00:03.000Z</time>
        <extensions>
          <ns3:TrackPointExtension>
            <ns3:hr>119</ns3:hr>
          </ns3:TrackPointExtension>
        </extensions>
      </trkpt>
      <trkpt lat="59.074153862893581390380859375" lon="30.08394372649490833282470703125">
        <ele>68.8000030517578125</ele>
        <time>2026-04-26T10:00:08.000Z</time>
        <extensions>
          <ns3:TrackPointExtension>
            <ns3:hr>120</ns3:hr>
          </ns3:TrackPointExtension>
        </extensions>
      </trkpt>
      <trkpt lat="59.0741798467934131622314453125" lon="30.0839776732027530670166015625">
        <ele>68.8000030517578125</ele>
        <time>2026-04-26T10:00:16.000Z</time>
        <extensions>
          <ns3:TrackPointExtension>
            <ns3:hr>121</ns3:hr>
          </ns3:TrackPointExtension>
        </extensions>
      </trkpt>
      <trkpt lat="59.07421060837805271148681640625" lon="30.084000639617443084716796875">
        <ele>69.1999969482421875</ele>
        <time>2026-04-26T10:00:22.000Z</time>
        <extensions>
          <ns3:TrackPointExtension>
            <ns3:hr>120</ns3:hr>
          </ns3:TrackPointExtension>
        </extensions>
      </trkpt>
      <trkpt lat="59.07419652678072452545166015625" lon="30.0839702971279621124267578125">
        <ele>69.40000152587890625</ele>
        <time>2026-04-26T10:00:30.000Z</time>
        <extensions>
          <ns3:TrackPointExtension>
            <ns3:hr>123</ns3:hr>
          </ns3:TrackPointExtension>
        </extensions>
      </trkpt>
      <trkpt lat="59.07420373521745204925537109375" lon="30.08394339121878147125244140625">
        <ele>69.40000152587890625</ele>
        <time>2026-04-26T10:00:34.000Z</time>
        <extensions>
          <ns3:TrackPointExtension>
            <ns3:hr>126</ns3:hr>
          </ns3:TrackPointExtension>
        </extensions>
      </trkpt>
      <trkpt lat="59.07423106022179126739501953125" lon="30.08391925133764743804931640625">
        <ele>69.40000152587890625</ele>
        <time>2026-04-26T10:00:41.000Z</time>
        <extensions>
          <ns3:TrackPointExtension>
            <ns3:hr>126</ns3:hr>
          </ns3:TrackPointExtension>
        </extensions>
      </trkpt>
      <trkpt lat="59.07428302802145481109619140625" lon="30.08390550501644611358642578125">
        <ele>69.40000152587890625</ele>
        <time>2026-04-26T10:00:47.000Z</time>
        <extensions>
          <ns3:TrackPointExtension>
            <ns3:hr>125</ns3:hr>
          </ns3:TrackPointExtension>
        </extensions>
      </trkpt>
      <trkpt lat="59.0743307210505008697509765625" lon="30.08388840593397617340087890625">
        <ele>69.59999847412109375</ele>
        <time>2026-04-26T10:00:53.000Z</time>
        <extensions>
          <ns3:TrackPointExtension>
            <ns3:hr>123</ns3:hr>
          </ns3:TrackPointExtension>
        </extensions>
      </trkpt>
      <trkpt lat="59.07437556423246860504150390625" lon="30.0838668644428253173828125">
        <ele>69.8000030517578125</ele>
        <time>2026-04-26T10:00:58.000Z</time>
        <extensions>
          <ns3:TrackPointExtension>
            <ns3:hr>123</ns3:hr>
          </ns3:TrackPointExtension>
        </extensions>
      </trkpt>
      <trkpt lat="59.074385873973369598388671875" lon="30.08386778645217418670654296875">
        <ele>69.8000030517578125</ele>
        <time>2026-04-26T10:01:01.000Z</time>
        <extensions>
          <ns3:TrackPointExtension>
            <ns3:hr>121</ns3:hr>
          </ns3:TrackPointExtension>
        </extensions>
      </trkpt>
      <trkpt lat="59.074401296675205230712890625" lon="30.08384867571294307708740234375">
        <ele>69.8000030517578125</ele>
        <time>2026-04-26T10:01:05.000Z</time>
        <extensions>
          <ns3:TrackPointExtension>
            <ns3:hr>119</ns3:hr>
          </ns3:TrackPointExtension>
        </extensions>
      </trkpt>
      <trkpt lat="59.07441244460642337799072265625" lon="30.08386057801544666290283203125">
        <ele>70</ele>
        <time>2026-04-26T10:01:07.000Z</time>
        <extensions>
          <ns3:TrackPointExtension>
            <ns3:hr>115</ns3:hr>
          </ns3:TrackPointExtension>
        </extensions>
      </trkpt>
      <trkpt lat="59.07442283816635608673095703125" lon="30.083879940211772918701171875">
        <ele>70</ele>
        <time>2026-04-26T10:01:10.000Z</time>
        <extensions>
          <ns3:TrackPointExtension>
            <ns3:hr>118</ns3:hr>
          </ns3:TrackPointExtension>
        </extensions>
      </trkpt>
      <trkpt lat="59.07443691976368427276611328125" lon="30.0838905014097690582275390625">
        <ele>70</ele>
        <time>2026-04-26T10:01:11.000Z</time>
        <extensions>
          <ns3:TrackPointExtension>
            <ns3:hr>119</ns3:hr>
          </ns3:TrackPointExtension>
        </extensions>
      </trkpt>
      <trkpt lat="59.0744510851800441741943359375" lon="30.0838864780962467193603515625">
        <ele>70.1999969482421875</ele>
        <time>2026-04-26T10:01:12.000Z</time>
        <extensions>
          <ns3:TrackPointExtension>
            <ns3:hr>123</ns3:hr>
          </ns3:TrackPointExtension>
        </extensions>
      </trkpt>
      <trkpt lat="59.0744715370237827301025390625" lon="30.0838749110698699951171875">
        <ele>70.1999969482421875</ele>
        <time>2026-04-26T10:01:14.000Z</time>
        <extensions>
          <ns3:TrackPointExtension>
            <ns3:hr>127</ns3:hr>
          </ns3:TrackPointExtension>
        </extensions>
      </trkpt>
      <trkpt lat="59.0744789130985736846923828125" lon="30.0838641822338104248046875">
        <ele>70.1999969482421875</ele>
        <time>2026-04-26T10:01:16.000Z</time>
        <extensions>
          <ns3:TrackPointExtension>
            <ns3:hr>130</ns3:hr>
          </ns3:TrackPointExtension>
        </extensions>
      </trkpt>
      <trkpt lat="59.074481762945652008056640625" lon="30.08385680615901947021484375">
        <ele>70.1999969482421875</ele>
        <time>2026-04-26T10:01:17.000Z</time>
        <extensions>
          <ns3:TrackPointExtension>
            <ns3:hr>131</ns3:hr>
          </ns3:TrackPointExtension>
        </extensions>
      </trkpt>
      <trkpt lat="59.07452342100441455841064453125" lon="30.0838304869830608367919921875">
        <ele>70.59999847412109375</ele>
        <time>2026-04-26T10:01:24.000Z</time>
        <extensions>
          <ns3:TrackPointExtension>
            <ns3:hr>129</ns3:hr>
          </ns3:TrackPointExtension>
        </extensions>
      </trkpt>
      <trkpt lat="59.074557535350322723388671875" lon="30.083812214434146881103515625">
        <ele>70.59999847412109375</ele>
        <time>2026-04-26T10:01:29.000Z</time>
        <extensions>
          <ns3:TrackPointExtension>
            <ns3:hr>127</ns3:hr>
          </ns3:TrackPointExtension>
        </extensions>
      </trkpt>
      <trkpt lat="59.07463020645081996917724609375" lon="30.0837724842131137847900390625">
        <ele>70.59999847412109375</ele>
        <time>2026-04-26T10:01:35.000Z</time>
        <extensions>
          <ns3:TrackPointExtension>
            <ns3:hr>126</ns3:hr>
          </ns3:TrackPointExtension>
        </extensions>
      </trkpt>
      <trkpt lat="59.074684269726276397705078125" lon="30.0837342627346515655517578125">
        <ele>70.8000030517578125</ele>
        <time>2026-04-26T10:01:41.000Z</time>
        <extensions>
          <ns3:TrackPointExtension>
            <ns3:hr>126</ns3:hr>
          </ns3:TrackPointExtension>
        </extensions>
      </trkpt>
      <trkpt lat="59.07473196275532245635986328125" lon="30.083739459514617919921875">
        <ele>70.8000030517578125</ele>
        <time>2026-04-26T10:01:48.000Z</time>
        <extensions>
          <ns3:TrackPointExtension>
            <ns3:hr>128</ns3:hr>
          </ns3:TrackPointExtension>
        </extensions>
      </trkpt>
      <trkpt lat="59.0747635625302791595458984375" lon="30.08374356664717197418212890625">
        <ele>71</ele>
        <time>2026-04-26T10:01:53.000Z</time>
        <extensions>
          <ns3:TrackPointExtension>
            <ns3:hr>127</ns3:hr>
          </ns3:TrackPointExtension>
        </extensions>
      </trkpt>
      <trkpt lat="59.07480656169354915618896484375" lon="30.083696879446506500244140625">
        <ele>70.8000030517578125</ele>
        <time>2026-04-26T10:01:59.000Z</time>
        <extensions>
          <ns3:TrackPointExtension>
            <ns3:hr>128</ns3:hr>
          </ns3:TrackPointExtension>
        </extensions>
      </trkpt>
      <trkpt lat="59.07485115341842174530029296875" lon="30.0837117992341518402099609375">
        <ele>71</ele>
        <time>2026-04-26T10:02:04.000Z</time>
        <extensions>
          <ns3:TrackPointExtension>
            <ns3:hr>128</ns3:hr>
          </ns3:TrackPointExtension>
        </extensions>
      </trkpt>
      <trkpt lat="59.07485115341842174530029296875" lon="30.0837117992341518402099609375">
        <ele>71</ele>
        <time>2026-04-26T10:02:05.000Z</time>
        <extensions>
          <ns3:TrackPointExtension>
            <ns3:hr>128</ns3:hr>
          </ns3:TrackPointExtension>
        </extensions>
      </trkpt>
      <trkpt lat="59.07491552643477916717529296875" lon="30.08369185030460357666015625">
        <ele>71</ele>
        <time>2026-04-26T10:02:11.000Z</time>
        <extensions>
          <ns3:TrackPointExtension>
            <ns3:hr>129</ns3:hr>
          </ns3:TrackPointExtension>
        </extensions>
      </trkpt>
      <trkpt lat="59.07493111677467823028564453125" lon="30.08368439041078090667724609375">
        <ele>71</ele>
        <time>2026-04-26T10:02:12.000Z</time>
        <extensions>
          <ns3:TrackPointExtension>
            <ns3:hr>128</ns3:hr>
          </ns3:TrackPointExtension>
        </extensions>
      </trkpt>
      <trkpt lat="59.0749454498291015625" lon="30.08367600850760936737060546875">
        <ele>71</ele>
        <time>2026-04-26T10:02:15.000Z</time>
        <extensions>
          <ns3:TrackPointExtension>
            <ns3:hr>127</ns3:hr>
          </ns3:TrackPointExtension>
        </extensions>
      </trkpt>
      <trkpt lat="59.07495953142642974853515625" lon="30.0836846418678760528564453125">
        <ele>71.1999969482421875</ele>
        <time>2026-04-26T10:02:19.000Z</time>
        <extensions>
          <ns3:TrackPointExtension>
            <ns3:hr>127</ns3:hr>
          </ns3:TrackPointExtension>
        </extensions>
      </trkpt>
      <trkpt lat="59.07498635351657867431640625" lon="30.0836920179426670074462890625">
        <ele>71.1999969482421875</ele>
        <time>2026-04-26T10:02:22.000Z</time>
        <extensions>
          <ns3:TrackPointExtension>
            <ns3:hr>127</ns3:hr>
          </ns3:TrackPointExtension>
        </extensions>
      </trkpt>
      <trkpt lat="59.07500236295163631439208984375" lon="30.08368271403014659881591796875">
        <ele>71.40000152587890625</ele>
        <time>2026-04-26T10:02:25.000Z</time>
        <extensions>
          <ns3:TrackPointExtension>
            <ns3:hr>128</ns3:hr>
          </ns3:TrackPointExtension>
        </extensions>
      </trkpt>
      <trkpt lat="59.075054414570331573486328125" lon="30.08366393856704235076904296875">
        <ele>71</ele>
        <time>2026-04-26T10:02:31.000Z</time>
        <extensions>
          <ns3:TrackPointExtension>
            <ns3:hr>127</ns3:hr>
          </ns3:TrackPointExtension>
        </extensions>
      </trkpt>
      <trkpt lat="59.07509674318134784698486328125" lon="30.08359671570360660552978515625">
        <ele>71.1999969482421875</ele>
        <time>2026-04-26T10:02:36.000Z</time>
        <extensions>
          <ns3:TrackPointExtension>
            <ns3:hr>126</ns3:hr>
          </ns3:TrackPointExtension>
        </extensions>
      </trkpt>
      <trkpt lat="59.07512675039470195770263671875" lon="30.0836058519780635833740234375">
        <ele>71</ele>
        <time>2026-04-26T10:02:42.000Z</time>
        <extensions>
          <ns3:TrackPointExtension>
            <ns3:hr>125</ns3:hr>
          </ns3:TrackPointExtension>
        </extensions>
      </trkpt>
      <trkpt lat="59.07513395883142948150634765625" lon="30.08357584476470947265625">
        <ele>71.1999969482421875</ele>
        <time>2026-04-26T10:02:47.000Z</time>
        <extensions>
          <ns3:TrackPointExtension>
            <ns3:hr>122</ns3:hr>
          </ns3:TrackPointExtension>
        </extensions>
      </trkpt>
      <trkpt lat="59.07514502294361591339111328125" lon="30.0835718214511871337890625">
        <ele>71.1999969482421875</ele>
        <time>2026-04-26T10:02:49.000Z</time>
        <extensions>
          <ns3:TrackPointExtension>
            <ns3:hr>119</ns3:hr>
          </ns3:TrackPointExtension>
        </extensions>
      </trkpt>
      <trkpt lat="59.07517352141439914703369140625" lon="30.08356444537639617919921875">
        <ele>71.40000152587890625</ele>
        <time>2026-04-26T10:02:52.000Z</time>
        <extensions>
          <ns3:TrackPointExtension>
            <ns3:hr>118</ns3:hr>
          </ns3:TrackPointExtension>
        </extensions>
      </trkpt>
      <trkpt lat="59.075194559991359710693359375" lon="30.083558745682239532470703125">
        <ele>71.40000152587890625</ele>
        <time>2026-04-26T10:02:56.000Z</time>
        <extensions>
          <ns3:TrackPointExtension>
            <ns3:hr>122</ns3:hr>
          </ns3:TrackPointExtension>
        </extensions>
      </trkpt>
      <trkpt lat="59.0752195380628108978271484375" lon="30.08353636600077152252197265625">
        <ele>71.59999847412109375</ele>
        <time>2026-04-26T10:02:57.000Z</time>
        <extensions>
          <ns3:TrackPointExtension>
            <ns3:hr>125</ns3:hr>
          </ns3:TrackPointExtension>
        </extensions>
      </trkpt>
      <trkpt lat="59.07521702349185943603515625" lon="30.0835582427680492401123046875">
        <ele>71.40000152587890625</ele>
        <time>2026-04-26T10:02:58.000Z</time>
        <extensions>
          <ns3:TrackPointExtension>
            <ns3:hr>126</ns3:hr>
          </ns3:TrackPointExtension>
        </extensions>
      </trkpt>
      <trkpt lat="59.07524644397199153900146484375" lon="30.08354256860911846160888671875">
        <ele>71.40000152587890625</ele>
        <time>2026-04-26T10:03:03.000Z</time>
        <extensions>
          <ns3:TrackPointExtension>
            <ns3:hr>124</ns3:hr>
          </ns3:TrackPointExtension>
        </extensions>
      </trkpt>
      <trkpt lat="59.0753070451319217681884765625" lon="30.083570145070552825927734375">
        <ele>71.1999969482421875</ele>
        <time>2026-04-26T10:03:09.000Z</time>
        <extensions>
          <ns3:TrackPointExtension>
            <ns3:hr>122</ns3:hr>
          </ns3:TrackPointExtension>
        </extensions>
      </trkpt>
      <trkpt lat="59.075307548046112060546875" lon="30.08353737182915210723876953125">
        <ele>71.1999969482421875</ele>
        <time>2026-04-26T10:03:14.000Z</time>
        <extensions>
          <ns3:TrackPointExtension>
            <ns3:hr>124</ns3:hr>
          </ns3:TrackPointExtension>
        </extensions>
      </trkpt>
      <trkpt lat="59.07532489858567714691162109375" lon="30.08351507596671581268310546875">
        <ele>71.40000152587890625</ele>
        <time>2026-04-26T10:03:20.000Z</time>
        <extensions>
          <ns3:TrackPointExtension>
            <ns3:hr>123</ns3:hr>
          </ns3:TrackPointExtension>
        </extensions>
      </trkpt>
      <trkpt lat="59.075359515845775604248046875" lon="30.08352211676537990570068359375">
        <ele>71.1999969482421875</ele>
        <time>2026-04-26T10:03:26.000Z</time>
        <extensions>
          <ns3:TrackPointExtension>
            <ns3:hr>125</ns3:hr>
          </ns3:TrackPointExtension>
        </extensions>
      </trkpt>
      <trkpt lat="59.07534585334360599517822265625" lon="30.0835235416889190673828125">
        <ele>71.40000152587890625</ele>
        <time>2026-04-26T10:03:30.000Z</time>
        <extensions>
          <ns3:TrackPointExtension>
            <ns3:hr>128</ns3:hr>
          </ns3:TrackPointExtension>
        </extensions>
      </trkpt>
      <trkpt lat="59.075351469218730926513671875" lon="30.08351482450962066650390625">
        <ele>71.40000152587890625</ele>
        <time>2026-04-26T10:03:31.000Z</time>
        <extensions>
          <ns3:TrackPointExtension>
            <ns3:hr>128</ns3:hr>
          </ns3:TrackPointExtension>
        </extensions>
      </trkpt>
      <trkpt lat="59.07537133432924747467041015625" lon="30.08350141346454620361328125">
        <ele>71.1999969482421875</ele>
        <time>2026-04-26T10:03:33.000Z</time>
        <extensions>
          <ns3:TrackPointExtension>
            <ns3:hr>129</ns3:hr>
          </ns3:TrackPointExtension>
        </extensions>
      </trkpt>
      <trkpt lat="59.07539195381104946136474609375" lon="30.0835056044161319732666015625">
        <ele>71.1999969482421875</ele>
        <time>2026-04-26T10:03:39.000Z</time>
        <extensions>
          <ns3:TrackPointExtension>
            <ns3:hr>131</ns3:hr>
          </ns3:TrackPointExtension>
        </extensions>
      </trkpt>
      <trkpt lat="59.0754069574177265167236328125" lon="30.0835032574832439422607421875">
        <ele>71.1999969482421875</ele>
        <time>2026-04-26T10:03:44.000Z</time>
        <extensions>
          <ns3:TrackPointExtension>
            <ns3:hr>135</ns3:hr>
          </ns3:TrackPointExtension>
        </extensions>
      </trkpt>
      <trkpt lat="59.0754069574177265167236328125" lon="30.0835032574832439422607421875">
        <ele>71.1999969482421875</ele>
        <time>2026-04-26T10:03:45.000Z</time>
        <extensions>
          <ns3:TrackPointExtension>
            <ns3:hr>135</ns3:hr>
          </ns3:TrackPointExtension>
        </extensions>
      </trkpt>
      <trkpt lat="59.0754025988280773162841796875" lon="30.08349177427589893341064453125">
        <ele>71.40000152587890625</ele>
        <time>2026-04-26T10:03:48.000Z</time>
        <extensions>
          <ns3:TrackPointExtension>
            <ns3:hr>132</ns3:hr>
          </ns3:TrackPointExtension>
        </extensions>
      </trkpt>
      <trkpt lat="59.0754072926938533782958984375" lon="30.08353217504918575286865234375">
        <ele>71.40000152587890625</ele>
        <time>2026-04-26T10:03:50.000Z</time>
        <extensions>
          <ns3:TrackPointExtension>
            <ns3:hr>132</ns3:hr>
          </ns3:TrackPointExtension>
        </extensions>
      </trkpt>
      <trkpt lat="59.075466133654117584228515625" lon="30.08351071737706661224365234375">
        <ele>71.59999847412109375</ele>
        <time>2026-04-26T10:03:56.000Z</time>
        <extensions>
          <ns3:TrackPointExtension>
            <ns3:hr>133</ns3:hr>
          </ns3:TrackPointExtension>
        </extensions>
      </trkpt>
      <trkpt lat="59.07553444616496562957763671875" lon="30.0834714062511920928955078125">
        <ele>71.59999847412109375</ele>
        <time>2026-04-26T10:04:02.000Z</time>
        <extensions>
          <ns3:TrackPointExtension>
            <ns3:hr>136</ns3:hr>
          </ns3:TrackPointExtension>
        </extensions>
      </trkpt>
      <trkpt lat="59.07553754746913909912109375" lon="30.083470232784748077392578125">
        <ele>71.59999847412109375</ele>
        <time>2026-04-26T10:04:03.000Z</time>
        <extensions>
          <ns3:TrackPointExtension>
            <ns3:hr>137</ns3:hr>
          </ns3:TrackPointExtension>
        </extensions>
      </trkpt>
      <trkpt lat="59.07557015307247638702392578125" lon="30.08344768546521663665771484375">
        <ele>71.40000152587890625</ele>
        <time>2026-04-26T10:04:06.000Z</time>
        <extensions>
          <ns3:TrackPointExtension>
            <ns3:hr>140</ns3:hr>
          </ns3:TrackPointExtension>
        </extensions>
      </trkpt>
      <trkpt lat="59.07557015307247638702392578125" lon="30.08344768546521663665771484375">
        <ele>71.40000152587890625</ele>
        <time>2026-04-26T10:04:07.000Z</time>
        <extensions>
          <ns3:TrackPointExtension>
            <ns3:hr>141</ns3:hr>
          </ns3:TrackPointExtension>
        </extensions>
      </trkpt>
      <trkpt lat="59.07560099847614765167236328125" lon="30.08342086337506771087646484375">
        <ele>71.40000152587890625</ele>
        <time>2026-04-26T10:04:12.000Z</time>
        <extensions>
          <ns3:TrackPointExtension>
            <ns3:hr>138</ns3:hr>
          </ns3:TrackPointExtension>
        </extensions>
      </trkpt>
      <trkpt lat="59.07561005093157291412353515625" lon="30.08340544067323207855224609375">
        <ele>71.59999847412109375</ele>
        <time>2026-04-26T10:04:13.000Z</time>
        <extensions>
          <ns3:TrackPointExtension>
            <ns3:hr>137</ns3:hr>
          </ns3:TrackPointExtension>
        </extensions>
      </trkpt>
      <trkpt lat="59.0756208635866641998291015625" lon="30.0834090448915958404541015625">
        <ele>71.59999847412109375</ele>
        <time>2026-04-26T10:04:14.000Z</time>
        <extensions>
          <ns3:TrackPointExtension>
            <ns3:hr>137</ns3:hr>
          </ns3:TrackPointExtension>
        </extensions>
      </trkpt>
      <trkpt lat="59.07565229572355747222900390625" lon="30.08342354558408260345458984375">
        <ele>71.59999847412109375</ele>
        <time>2026-04-26T10:04:17.000Z</time>
        <extensions>
          <ns3:TrackPointExtension>
            <ns3:hr>134</ns3:hr>
          </ns3:TrackPointExtension>
        </extensions>
      </trkpt>
      <trkpt lat="59.075659923255443572998046875" lon="30.0834242999553680419921875">
        <ele>71.8000030517578125</ele>
        <time>2026-04-26T10:04:18.000Z</time>
        <extensions>
          <ns3:TrackPointExtension>
            <ns3:hr>134</ns3:hr>
          </ns3:TrackPointExtension>
        </extensions>
      </trkpt>
      <trkpt lat="59.07570644281804561614990234375" lon="30.08341650478541851043701171875">
        <ele>71.8000030517578125</ele>
        <time>2026-04-26T10:04:24.000Z</time>
        <extensions>
          <ns3:TrackPointExtension>
            <ns3:hr>136</ns3:hr>
          </ns3:TrackPointExtension>
        </extensions>
      </trkpt>
      <trkpt lat="59.07570644281804561614990234375" lon="30.08341650478541851043701171875">
        <ele>71.8000030517578125</ele>
        <time>2026-04-26T10:04:25.000Z</time>
        <extensions>
          <ns3:TrackPointExtension>
            <ns3:hr>137</ns3:hr>
          </ns3:TrackPointExtension>
        </extensions>
      </trkpt>
      <trkpt lat="59.0756976418197154998779296875" lon="30.083416588604450225830078125">
        <ele>71.59999847412109375</ele>
        <time>2026-04-26T10:04:28.000Z</time>
        <extensions>
          <ns3:TrackPointExtension>
            <ns3:hr>138</ns3:hr>
          </ns3:TrackPointExtension>
        </extensions>
      </trkpt>
      <trkpt lat="59.07573661766946315765380859375" lon="30.08343310095369815826416015625">
        <ele>71.8000030517578125</ele>
        <time>2026-04-26T10:04:34.000Z</time>
        <extensions>
          <ns3:TrackPointExtension>
            <ns3:hr>137</ns3:hr>
          </ns3:TrackPointExtension>
        </extensions>
      </trkpt>
      <trkpt lat="59.07576478086411952972412109375" lon="30.0834167562425136566162109375">
        <ele>71.59999847412109375</ele>
        <time>2026-04-26T10:04:40.000Z</time>
        <extensions>
          <ns3:TrackPointExtension>
            <ns3:hr>135</ns3:hr>
          </ns3:TrackPointExtension>
        </extensions>
      </trkpt>
      <trkpt lat="59.07583619467914104461669921875" lon="30.08336730301380157470703125">
        <ele>71.40000152587890625</ele>
        <time>2026-04-26T10:04:48.000Z</time>
        <extensions>
          <ns3:TrackPointExtension>
            <ns3:hr>133</ns3:hr>
          </ns3:TrackPointExtension>
        </extensions>
      </trkpt>
      <trkpt lat="59.0758589096367359161376953125" lon="30.08335917256772518157958984375">
        <ele>71.40000152587890625</ele>
        <time>2026-04-26T10:04:53.000Z</time>
        <extensions>
          <ns3:TrackPointExtension>
            <ns3:hr>131</ns3:hr>
          </ns3:TrackPointExtension>
        </extensions>
      </trkpt>
      <trkpt lat="59.0758803673088550567626953125" lon="30.0833634473383426666259765625">
        <ele>71.59999847412109375</ele>
        <time>2026-04-26T10:04:57.000Z</time>
        <extensions>
          <ns3:TrackPointExtension>
            <ns3:hr>131</ns3:hr>
          </ns3:TrackPointExtension>
        </extensions>
      </trkpt>
      <trkpt lat="59.075897969305515289306640625" lon="30.08336084894835948944091796875">
        <ele>71.59999847412109375</ele>
        <time>2026-04-26T10:04:58.000Z</time>
        <extensions>
          <ns3:TrackPointExtension>
            <ns3:hr>131</ns3:hr>
          </ns3:TrackPointExtension>
        </extensions>
      </trkpt>
      <trkpt lat="59.0759534575045108795166015625" lon="30.0833315961062908172607421875">
        <ele>72</ele>
        <time>2026-04-26T10:05:03.000Z</time>
        <extensions>
          <ns3:TrackPointExtension>
            <ns3:hr>131</ns3:hr>
          </ns3:TrackPointExtension>
        </extensions>
      </trkpt>
      <trkpt lat="59.07596209086477756500244140625" lon="30.08332279510796070098876953125">
        <ele>71.8000030517578125</ele>
        <time>2026-04-26T10:05:04.000Z</time>
        <extensions>
          <ns3:TrackPointExtension>
            <ns3:hr>130</ns3:hr>
          </ns3:TrackPointExtension>
        </extensions>
      </trkpt>
      <trkpt lat="59.07604406587779521942138671875" lon="30.08330871351063251495361328125">
        <ele>71.8000030517578125</ele>
        <time>2026-04-26T10:05:12.000Z</time>
        <extensions>
          <ns3:TrackPointExtension>
            <ns3:hr>128</ns3:hr>
          </ns3:TrackPointExtension>
        </extensions>
      </trkpt>
      <trkpt lat="59.07608605921268463134765625" lon="30.083283819258213043212890625">
        <ele>71.8000030517578125</ele>
        <time>2026-04-26T10:05:18.000Z</time>
        <extensions>
          <ns3:TrackPointExtension>
            <ns3:hr>129</ns3:hr>
          </ns3:TrackPointExtension>
        </extensions>
      </trkpt>
      <trkpt lat="59.07608681358397006988525390625" lon="30.08327334187924861907958984375">
        <ele>72</ele>
        <time>2026-04-26T10:05:26.000Z</time>
        <extensions>
          <ns3:TrackPointExtension>
            <ns3:hr>131</ns3:hr>
          </ns3:TrackPointExtension>
        </extensions>
      </trkpt>
      <trkpt lat="59.07608681358397006988525390625" lon="30.08327334187924861907958984375">
        <ele>72.1999969482421875</ele>
        <time>2026-04-26T10:05:33.000Z</time>
        <extensions>
          <ns3:TrackPointExtension>
            <ns3:hr>130</ns3:hr>
          </ns3:TrackPointExtension>
        </extensions>
      </trkpt>
      <trkpt lat="59.07608681358397006988525390625" lon="30.08327334187924861907958984375">
        <ele>72.1999969482421875</ele>
        <time>2026-04-26T10:05:38.000Z</time>
        <extensions>
          <ns3:TrackPointExtension>
            <ns3:hr>130</ns3:hr>
          </ns3:TrackPointExtension>
        </extensions>
      </trkpt>
      <trkpt lat="59.0761046670377254486083984375" lon="30.0832598470151424407958984375">
        <ele>72.1999969482421875</ele>
        <time>2026-04-26T10:05:45.000Z</time>
        <extensions>
          <ns3:TrackPointExtension>
            <ns3:hr>130</ns3:hr>
          </ns3:TrackPointExtension>
        </extensions>
      </trkpt>
      <trkpt lat="59.07616158016026020050048828125" lon="30.08322975598275661468505859375">
        <ele>72.1999969482421875</ele>
        <time>2026-04-26T10:05:51.000Z</time>
        <extensions>
          <ns3:TrackPointExtension>
            <ns3:hr>129</ns3:hr>
          </ns3:TrackPointExtension>
        </extensions>
      </trkpt>
      <trkpt lat="59.07617951743304729461669921875" lon="30.08323461748659610748291015625">
        <ele>72.40000152587890625</ele>
        <time>2026-04-26T10:05:53.000Z</time>
        <extensions>
          <ns3:TrackPointExtension>
            <ns3:hr>126</ns3:hr>
          </ns3:TrackPointExtension>
        </extensions>
      </trkpt>
      <trkpt lat="59.07619946636259555816650390625" lon="30.08323076181113719940185546875">
        <ele>72.40000152587890625</ele>
        <time>2026-04-26T10:05:55.000Z</time>
        <extensions>
          <ns3:TrackPointExtension>
            <ns3:hr>111</ns3:hr>
          </ns3:TrackPointExtension>
        </extensions>
      </trkpt>
      <trkpt lat="59.07621891237795352935791015625" lon="30.08322891779243946075439453125">
        <ele>72.40000152587890625</ele>
        <time>2026-04-26T10:05:56.000Z</time>
        <extensions>
          <ns3:TrackPointExtension>
            <ns3:hr>105</ns3:hr>
          </ns3:TrackPointExtension>
        </extensions>
      </trkpt>
      <trkpt lat="59.07623215578496456146240234375" lon="30.08321986533701419830322265625">
        <ele>72.59999847412109375</ele>
        <time>2026-04-26T10:05:58.000Z</time>
        <extensions>
          <ns3:TrackPointExtension>
            <ns3:hr>104</ns3:hr>
          </ns3:TrackPointExtension>
        </extensions>
      </trkpt>
      <trkpt lat="59.07627381384372711181640625" lon="30.08319907821714878082275390625">
        <ele>72.59999847412109375</ele>
        <time>2026-04-26T10:06:02.000Z</time>
        <extensions>
          <ns3:TrackPointExtension>
            <ns3:hr>107</ns3:hr>
          </ns3:TrackPointExtension>
        </extensions>
      </trkpt>
      <trkpt lat="59.07628010027110576629638671875" lon="30.08318549953401088714599609375">
        <ele>72.40000152587890625</ele>
        <time>2026-04-26T10:06:03.000Z</time>
        <extensions>
          <ns3:TrackPointExtension>
            <ns3:hr>107</ns3:hr>
          </ns3:TrackPointExtension>
        </extensions>
      </trkpt>
      <trkpt lat="59.07630600035190582275390625" lon="30.08315272629261016845703125">
        <ele>72.1999969482421875</ele>
        <time>2026-04-26T10:06:08.000Z</time>
        <extensions>
          <ns3:TrackPointExtension>
            <ns3:hr>102</ns3:hr>
          </ns3:TrackPointExtension>
        </extensions>
      </trkpt>
      <trkpt lat="59.07630600035190582275390625" lon="30.08315272629261016845703125">
        <ele>72.1999969482421875</ele>
        <time>2026-04-26T10:06:09.000Z</time>
        <extensions>
          <ns3:TrackPointExtension>
            <ns3:hr>105</ns3:hr>
          </ns3:TrackPointExtension>
        </extensions>
      </trkpt>
      <trkpt lat="59.07631513662636280059814453125" lon="30.083144344389438629150390625">
        <ele>72.1999969482421875</ele>
        <time>2026-04-26T10:06:10.000Z</time>
        <extensions>
          <ns3:TrackPointExtension>
            <ns3:hr>109</ns3:hr>
          </ns3:TrackPointExtension>
        </extensions>
      </trkpt>
      <trkpt lat="59.0763490833342075347900390625" lon="30.08316052146255970001220703125">
        <ele>72.1999969482421875</ele>
        <time>2026-04-26T10:06:13.000Z</time>
        <extensions>
          <ns3:TrackPointExtension>
            <ns3:hr>113</ns3:hr>
          </ns3:TrackPointExtension>
        </extensions>
      </trkpt>
      <trkpt lat="59.07637171447277069091796875" lon="30.0831703282892704010009765625">
        <ele>72</ele>
        <time>2026-04-26T10:06:15.000Z</time>
        <extensions>
          <ns3:TrackPointExtension>
            <ns3:hr>113</ns3:hr>
          </ns3:TrackPointExtension>
        </extensions>
      </trkpt>
      <trkpt lat="59.0764327347278594970703125" lon="30.0832212902605533599853515625">
        <ele>72</ele>
        <time>2026-04-26T10:06:20.000Z</time>
        <extensions>
          <ns3:TrackPointExtension>
            <ns3:hr>117</ns3:hr>
          </ns3:TrackPointExtension>
        </extensions>
      </trkpt>
      <trkpt lat="59.07643918879330158233642578125" lon="30.08321131579577922821044921875">
        <ele>72.1999969482421875</ele>
        <time>2026-04-26T10:06:22.000Z</time>
        <extensions>
          <ns3:TrackPointExtension>
            <ns3:hr>120</ns3:hr>
          </ns3:TrackPointExtension>
        </extensions>
      </trkpt>
      <trkpt lat="59.076468944549560546875" lon="30.0832031853497028350830078125">
        <ele>72.40000152587890625</ele>
        <time>2026-04-26T10:06:26.000Z</time>
        <extensions>
          <ns3:TrackPointExtension>
            <ns3:hr>123</ns3:hr>
          </ns3:TrackPointExtension>
        </extensions>
      </trkpt>
      <trkpt lat="59.0765274502336978912353515625" lon="30.0831663049757480621337890625">
        <ele>72.59999847412109375</ele>
        <time>2026-04-26T10:06:32.000Z</time>
        <extensions>
          <ns3:TrackPointExtension>
            <ns3:hr>125</ns3:hr>
          </ns3:TrackPointExtension>
        </extensions>
      </trkpt>
      <trkpt lat="59.07658897340297698974609375" lon="30.08314945735037326812744140625">
        <ele>72.40000152587890625</ele>
        <time>2026-04-26T10:06:38.000Z</time>
        <extensions>
          <ns3:TrackPointExtension>
            <ns3:hr>124</ns3:hr>
          </ns3:TrackPointExtension>
        </extensions>
      </trkpt>
      <trkpt lat="59.07661068253219127655029296875" lon="30.08313034661114215850830078125">
        <ele>72.1999969482421875</ele>
        <time>2026-04-26T10:06:44.000Z</time>
        <extensions>
          <ns3:TrackPointExtension>
            <ns3:hr>121</ns3:hr>
          </ns3:TrackPointExtension>
        </extensions>
      </trkpt>
      <trkpt lat="59.07661068253219127655029296875" lon="30.08313034661114215850830078125">
        <ele>72.1999969482421875</ele>
        <time>2026-04-26T10:06:45.000Z</time>
        <extensions>
          <ns3:TrackPointExtension>
            <ns3:hr>121</ns3:hr>
          </ns3:TrackPointExtension>
        </extensions>
      </trkpt>
      <trkpt lat="59.0766431204974651336669921875" lon="30.08310017175972461700439453125">
        <ele>72.1999969482421875</ele>
        <time>2026-04-26T10:06:48.000Z</time>
        <extensions>
          <ns3:TrackPointExtension>
            <ns3:hr>124</ns3:hr>
          </ns3:TrackPointExtension>
        </extensions>
      </trkpt>
      <trkpt lat="59.07668419182300567626953125" lon="30.08306513540446758270263671875">
        <ele>72</ele>
        <time>2026-04-26T10:06:52.000Z</time>
        <extensions>
          <ns3:TrackPointExtension>
            <ns3:hr>126</ns3:hr>
          </ns3:TrackPointExtension>
        </extensions>
      </trkpt>
      <trkpt lat="59.07673113048076629638671875" lon="30.08307158946990966796875">
        <ele>72.40000152587890625</ele>
        <time>2026-04-26T10:06:58.000Z</time>
        <extensions>
          <ns3:TrackPointExtension>
            <ns3:hr>126</ns3:hr>
          </ns3:TrackPointExtension>
        </extensions>
      </trkpt>
      <trkpt lat="59.07681067474186420440673828125" lon="30.08308676071465015411376953125">
        <ele>72.1999969482421875</ele>
        <time>2026-04-26T10:07:05.000Z</time>
        <extensions>
          <ns3:TrackPointExtension>
            <ns3:hr>126</ns3:hr>
          </ns3:TrackPointExtension>
        </extensions>
      </trkpt>
      <trkpt lat="59.07687286846339702606201171875" lon="30.0830492936074733734130859375">
        <ele>72.1999969482421875</ele>
        <time>2026-04-26T10:07:15.000Z</time>
        <extensions>
          <ns3:TrackPointExtension>
            <ns3:hr>127</ns3:hr>
          </ns3:TrackPointExtension>
        </extensions>
      </trkpt>
      <trkpt lat="59.0768831782042980194091796875" lon="30.0830013491213321685791015625">
        <ele>72.40000152587890625</ele>
        <time>2026-04-26T10:07:21.000Z</time>
        <extensions>
          <ns3:TrackPointExtension>
            <ns3:hr>127</ns3:hr>
          </ns3:TrackPointExtension>
        </extensions>
      </trkpt>
      <trkpt lat="59.07694545574486255645751953125" lon="30.0830107368528842926025390625">
        <ele>72.1999969482421875</ele>
        <time>2026-04-26T10:07:28.000Z</time>
        <extensions>
          <ns3:TrackPointExtension>
            <ns3:hr>127</ns3:hr>
          </ns3:TrackPointExtension>
        </extensions>
      </trkpt>
      <trkpt lat="59.076954424381256103515625" lon="30.08303345181047916412353515625">
        <ele>71.8000030517578125</ele>
        <time>2026-04-26T10:07:32.000Z</time>
        <extensions>
          <ns3:TrackPointExtension>
            <ns3:hr>128</ns3:hr>
          </ns3:TrackPointExtension>
        </extensions>
      </trkpt>
      <trkpt lat="59.0769906342029571533203125" lon="30.08300595916807651519775390625">
        <ele>72.40000152587890625</ele>
        <time>2026-04-26T10:07:39.000Z</time>
        <extensions>
          <ns3:TrackPointExtension>
            <ns3:hr>127</ns3:hr>
          </ns3:TrackPointExtension>
        </extensions>
      </trkpt>
      <trkpt lat="59.07702625729143619537353515625" lon="30.0830204598605632781982421875">
        <ele>72.59999847412109375</ele>
        <time>2026-04-26T10:07:45.000Z</time>
        <extensions>
          <ns3:TrackPointExtension>
            <ns3:hr>126</ns3:hr>
          </ns3:TrackPointExtension>
        </extensions>
      </trkpt>
      <trkpt lat="59.077056683599948883056640625" lon="30.08300922811031341552734375">
        <ele>72.40000152587890625</ele>
        <time>2026-04-26T10:07:51.000Z</time>
        <extensions>
          <ns3:TrackPointExtension>
            <ns3:hr>126</ns3:hr>
          </ns3:TrackPointExtension>
        </extensions>
      </trkpt>
      <trkpt lat="59.07710353843867778778076171875" lon="30.0829658098518848419189453125">
        <ele>72.40000152587890625</ele>
        <time>2026-04-26T10:07:56.000Z</time>
        <extensions>
          <ns3:TrackPointExtension>
            <ns3:hr>126</ns3:hr>
          </ns3:TrackPointExtension>
        </extensions>
      </trkpt>
      <trkpt lat="59.07715357840061187744140625" lon="30.082933790981769561767578125">
        <ele>72.1999969482421875</ele>
        <time>2026-04-26T10:08:03.000Z</time>
        <extensions>
          <ns3:TrackPointExtension>
            <ns3:hr>125</ns3:hr>
          </ns3:TrackPointExtension>
        </extensions>
      </trkpt>
      <trkpt lat="59.0772368945181369781494140625" lon="30.082931779325008392333984375">
        <ele>72.40000152587890625</ele>
        <time>2026-04-26T10:08:10.000Z</time>
        <extensions>
          <ns3:TrackPointExtension>
            <ns3:hr>126</ns3:hr>
          </ns3:TrackPointExtension>
        </extensions>
      </trkpt>
      <trkpt lat="59.0772513113915920257568359375" lon="30.08292549289762973785400390625">
        <ele>72.40000152587890625</ele>
        <time>2026-04-26T10:08:15.000Z</time>
        <extensions>
          <ns3:TrackPointExtension>
            <ns3:hr>126</ns3:hr>
          </ns3:TrackPointExtension>
        </extensions>
      </trkpt>
      <trkpt lat="59.0772784687578678131103515625" lon="30.082943849265575408935546875">
        <ele>72.40000152587890625</ele>
        <time>2026-04-26T10:08:25.000Z</time>
        <extensions>
          <ns3:TrackPointExtension>
            <ns3:hr>125</ns3:hr>
          </ns3:TrackPointExtension>
        </extensions>
      </trkpt>
      <trkpt lat="59.0772834978997707366943359375" lon="30.08292398415505886077880859375">
        <ele>72.40000152587890625</ele>
        <time>2026-04-26T10:08:28.000Z</time>
        <extensions>
          <ns3:TrackPointExtension>
            <ns3:hr>122</ns3:hr>
          </ns3:TrackPointExtension>
        </extensions>
      </trkpt>
      <trkpt lat="59.07728576101362705230712890625" lon="30.08292205631732940673828125">
        <ele>72.40000152587890625</ele>
        <time>2026-04-26T10:08:30.000Z</time>
        <extensions>
          <ns3:TrackPointExtension>
            <ns3:hr>127</ns3:hr>
          </ns3:TrackPointExtension>
        </extensions>
      </trkpt>
      <trkpt lat="59.07730302773416042327880859375" lon="30.08291526697576045989990234375">
        <ele>72.40000152587890625</ele>
        <time>2026-04-26T10:08:32.000Z</time>
        <extensions>
          <ns3:TrackPointExtension>
            <ns3:hr>132</ns3:hr>
          </ns3:TrackPointExtension>
        </extensions>
      </trkpt>
      <trkpt lat="59.0773079730570316314697265625" lon="30.08290755562484264373779296875">
        <ele>72.40000152587890625</ele>
        <time>2026-04-26T10:08:33.000Z</time>
        <extensions>
          <ns3:TrackPointExtension>
            <ns3:hr>136</ns3:hr>
          </ns3:TrackPointExtension>
        </extensions>
      </trkpt>
      <trkpt lat="59.07731451094150543212890625" lon="30.0828940607607364654541015625">
        <ele>72.40000152587890625</ele>
        <time>2026-04-26T10:08:34.000Z</time>
        <extensions>
          <ns3:TrackPointExtension>
            <ns3:hr>139</ns3:hr>
          </ns3:TrackPointExtension>
        </extensions>
      </trkpt>
      <trkpt lat="59.07732415013015270233154296875" lon="30.08288928307592868804931640625">
        <ele>72.40000152587890625</ele>
        <time>2026-04-26T10:08:35.000Z</time>
        <extensions>
          <ns3:TrackPointExtension>
            <ns3:hr>141</ns3:hr>
          </ns3:TrackPointExtension>
        </extensions>
      </trkpt>
      <trkpt lat="59.0773649699985980987548828125" lon="30.0828873552381992340087890625">
        <ele>72.1999969482421875</ele>
        <time>2026-04-26T10:08:41.000Z</time>
        <extensions>
          <ns3:TrackPointExtension>
            <ns3:hr>143</ns3:hr>
          </ns3:TrackPointExtension>
        </extensions>
      </trkpt>
      <trkpt lat="59.0774414129555225372314453125" lon="30.08288224227726459503173828125">
        <ele>72.59999847412109375</ele>
        <time>2026-04-26T10:08:47.000Z</time>
        <extensions>
          <ns3:TrackPointExtension>
            <ns3:hr>141</ns3:hr>
          </ns3:TrackPointExtension>
        </extensions>
      </trkpt>
      <trkpt lat="59.0775014273822307586669921875" lon="30.08286396972835063934326171875">
        <ele>72.59999847412109375</ele>
        <time>2026-04-26T10:08:53.000Z</time>
        <extensions>
          <ns3:TrackPointExtension>
            <ns3:hr>141</ns3:hr>
          </ns3:TrackPointExtension>
        </extensions>
      </trkpt>
      <trkpt lat="59.077559597790241241455078125" lon="30.08283597417175769805908203125">
        <ele>73</ele>
        <time>2026-04-26T10:08:58.000Z</time>
        <extensions>
          <ns3:TrackPointExtension>
            <ns3:hr>140</ns3:hr>
          </ns3:TrackPointExtension>
        </extensions>
      </trkpt>
      <trkpt lat="59.07758650369942188262939453125" lon="30.0828142650425434112548828125">
        <ele>72.8000030517578125</ele>
        <time>2026-04-26T10:09:01.000Z</time>
        <extensions>
          <ns3:TrackPointExtension>
            <ns3:hr>137</ns3:hr>
          </ns3:TrackPointExtension>
        </extensions>
      </trkpt>
      <trkpt lat="59.07759253866970539093017578125" lon="30.08281208574771881103515625">
        <ele>72.8000030517578125</ele>
        <time>2026-04-26T10:09:02.000Z</time>
        <extensions>
          <ns3:TrackPointExtension>
            <ns3:hr>134</ns3:hr>
          </ns3:TrackPointExtension>
        </extensions>
      </trkpt>
      <trkpt lat="59.07759253866970539093017578125" lon="30.08281208574771881103515625">
        <ele>72.8000030517578125</ele>
        <time>2026-04-26T10:09:03.000Z</time>
        <extensions>
          <ns3:TrackPointExtension>
            <ns3:hr>134</ns3:hr>
          </ns3:TrackPointExtension>
        </extensions>
      </trkpt>
      <trkpt lat="59.07762154005467891693115234375" lon="30.082803033292293548583984375">
        <ele>72.59999847412109375</ele>
        <time>2026-04-26T10:09:05.000Z</time>
        <extensions>
          <ns3:TrackPointExtension>
            <ns3:hr>132</ns3:hr>
          </ns3:TrackPointExtension>
        </extensions>
      </trkpt>
      <trkpt lat="59.07768172211945056915283203125" lon="30.08278132416307926177978515625">
        <ele>73</ele>
        <time>2026-04-26T10:09:12.000Z</time>
        <extensions>
          <ns3:TrackPointExtension>
            <ns3:hr>131</ns3:hr>
          </ns3:TrackPointExtension>
        </extensions>
      </trkpt>
      <trkpt lat="59.0777443349361419677734375" lon="30.082752071321010589599609375">
        <ele>73</ele>
        <time>2026-04-26T10:09:18.000Z</time>
        <extensions>
          <ns3:TrackPointExtension>
            <ns3:hr>130</ns3:hr>
          </ns3:TrackPointExtension>
        </extensions>
      </trkpt>
      <trkpt lat="59.077801667153835296630859375" lon="30.082735307514667510986328125">
        <ele>73</ele>
        <time>2026-04-26T10:09:23.000Z</time>
        <extensions>
          <ns3:TrackPointExtension>
            <ns3:hr>128</ns3:hr>
          </ns3:TrackPointExtension>
        </extensions>
      </trkpt>
      <trkpt lat="59.07785254530608654022216796875" lon="30.082722567021846771240234375">
        <ele>73</ele>
        <time>2026-04-26T10:09:29.000Z</time>
        <extensions>
          <ns3:TrackPointExtension>
            <ns3:hr>128</ns3:hr>
          </ns3:TrackPointExtension>
        </extensions>
      </trkpt>
      <trkpt lat="59.077884145081043243408203125" lon="30.082719884812831878662109375">
        <ele>72.8000030517578125</ele>
        <time>2026-04-26T10:09:32.000Z</time>
        <extensions>
          <ns3:TrackPointExtension>
            <ns3:hr>125</ns3:hr>
          </ns3:TrackPointExtension>
        </extensions>
      </trkpt>
      <trkpt lat="59.077904261648654937744140625" lon="30.08271527476608753204345703125">
        <ele>72.8000030517578125</ele>
        <time>2026-04-26T10:09:34.000Z</time>
        <extensions>
          <ns3:TrackPointExtension>
            <ns3:hr>120</ns3:hr>
          </ns3:TrackPointExtension>
        </extensions>
      </trkpt>
      <trkpt lat="59.0779111348092555999755859375" lon="30.0827210582792758941650390625">
        <ele>72.8000030517578125</ele>
        <time>2026-04-26T10:09:35.000Z</time>
        <extensions>
          <ns3:TrackPointExtension>
            <ns3:hr>119</ns3:hr>
          </ns3:TrackPointExtension>
        </extensions>
      </trkpt>
      <trkpt lat="59.0779362805187702178955078125" lon="30.08273421786725521087646484375">
        <ele>72.8000030517578125</ele>
        <time>2026-04-26T10:09:41.000Z</time>
        <extensions>
          <ns3:TrackPointExtension>
            <ns3:hr>125</ns3:hr>
          </ns3:TrackPointExtension>
        </extensions>
      </trkpt>
      <trkpt lat="59.07793636433780193328857421875" lon="30.08273740299046039581298828125">
        <ele>72.8000030517578125</ele>
        <time>2026-04-26T10:09:42.000Z</time>
        <extensions>
          <ns3:TrackPointExtension>
            <ns3:hr>128</ns3:hr>
          </ns3:TrackPointExtension>
        </extensions>
      </trkpt>
      <trkpt lat="59.07793544232845306396484375" lon="30.082739330828189849853515625">
        <ele>72.8000030517578125</ele>
        <time>2026-04-26T10:09:43.000Z</time>
        <extensions>
          <ns3:TrackPointExtension>
            <ns3:hr>128</ns3:hr>
          </ns3:TrackPointExtension>
        </extensions>
      </trkpt>
      <trkpt lat="59.0779708139598369598388671875" lon="30.0827036239206790924072265625">
        <ele>72.8000030517578125</ele>
        <time>2026-04-26T10:09:51.000Z</time>
        <extensions>
          <ns3:TrackPointExtension>
            <ns3:hr>125</ns3:hr>
          </ns3:TrackPointExtension>
        </extensions>
      </trkpt>
      <trkpt lat="59.077984727919101715087890625" lon="30.0826620496809482574462890625">
        <ele>72.8000030517578125</ele>
        <time>2026-04-26T10:09:58.000Z</time>
        <extensions>
          <ns3:TrackPointExtension>
            <ns3:hr>126</ns3:hr>
          </ns3:TrackPointExtension>
        </extensions>
      </trkpt>
      <trkpt lat="59.07800224609673023223876953125" lon="30.08264838717877864837646484375">
        <ele>73</ele>
        <time>2026-04-26T10:10:05.000Z</time>
        <extensions>
          <ns3:TrackPointExtension>
            <ns3:hr>127</ns3:hr>
          </ns3:TrackPointExtension>
        </extensions>
      </trkpt>
      <trkpt lat="59.07800291664898395538330078125" lon="30.0826768018305301666259765625">
        <ele>73.1999969482421875</ele>
        <time>2026-04-26T10:10:11.000Z</time>
        <extensions>
          <ns3:TrackPointExtension>
            <ns3:hr>129</ns3:hr>
          </ns3:TrackPointExtension>
        </extensions>
      </trkpt>
      <trkpt lat="59.07804482616484165191650390625" lon="30.08265492506325244903564453125">
        <ele>73.1999969482421875</ele>
        <time>2026-04-26T10:10:17.000Z</time>
        <extensions>
          <ns3:TrackPointExtension>
            <ns3:hr>128</ns3:hr>
          </ns3:TrackPointExtension>
        </extensions>
      </trkpt>
      <trkpt lat="59.078092016279697418212890625" lon="30.0826627202332019805908203125">
        <ele>73</ele>
        <time>2026-04-26T10:10:24.000Z</time>
        <extensions>
          <ns3:TrackPointExtension>
            <ns3:hr>128</ns3:hr>
          </ns3:TrackPointExtension>
        </extensions>
      </trkpt>
      <trkpt lat="59.07812009565532207489013671875" lon="30.0826238282024860382080078125">
        <ele>73</ele>
        <time>2026-04-26T10:10:33.000Z</time>
        <extensions>
          <ns3:TrackPointExtension>
            <ns3:hr>122</ns3:hr>
          </ns3:TrackPointExtension>
        </extensions>
      </trkpt>
      <trkpt lat="59.07811389304697513580322265625" lon="30.08261092007160186767578125">
        <ele>73</ele>
        <time>2026-04-26T10:10:34.000Z</time>
        <extensions>
          <ns3:TrackPointExtension>
            <ns3:hr>118</ns3:hr>
          </ns3:TrackPointExtension>
        </extensions>
      </trkpt>
      <trkpt lat="59.078118503093719482421875" lon="30.08258954621851444244384765625">
        <ele>73</ele>
        <time>2026-04-26T10:10:37.000Z</time>
        <extensions>
          <ns3:TrackPointExtension>
            <ns3:hr>115</ns3:hr>
          </ns3:TrackPointExtension>
        </extensions>
      </trkpt>
      <trkpt lat="59.0781481750309467315673828125" lon="30.08257831446826457977294921875">
        <ele>73</ele>
        <time>2026-04-26T10:10:41.000Z</time>
        <extensions>
          <ns3:TrackPointExtension>
            <ns3:hr>114</ns3:hr>
          </ns3:TrackPointExtension>
        </extensions>
      </trkpt>
      <trkpt lat="59.0781998075544834136962890625" lon="30.08260128088295459747314453125">
        <ele>73</ele>
        <time>2026-04-26T10:10:48.000Z</time>
        <extensions>
          <ns3:TrackPointExtension>
            <ns3:hr>114</ns3:hr>
          </ns3:TrackPointExtension>
        </extensions>
      </trkpt>
      <trkpt lat="59.07820877619087696075439453125" lon="30.08259725756943225860595703125">
        <ele>73</ele>
        <time>2026-04-26T10:10:51.000Z</time>
        <extensions>
          <ns3:TrackPointExtension>
            <ns3:hr>117</ns3:hr>
          </ns3:TrackPointExtension>
        </extensions>
      </trkpt>
      <trkpt lat="59.07822771929204463958740234375" lon="30.08258602581918239593505859375">
        <ele>73.1999969482421875</ele>
        <time>2026-04-26T10:10:54.000Z</time>
        <extensions>
          <ns3:TrackPointExtension>
            <ns3:hr>119</ns3:hr>
          </ns3:TrackPointExtension>
        </extensions>
      </trkpt>
      <trkpt lat="59.078226797282695770263671875" lon="30.08256121538579463958740234375">
        <ele>73.59999847412109375</ele>
        <time>2026-04-26T10:10:59.000Z</time>
        <extensions>
          <ns3:TrackPointExtension>
            <ns3:hr>119</ns3:hr>
          </ns3:TrackPointExtension>
        </extensions>
      </trkpt>
      <trkpt lat="59.078228138387203216552734375" lon="30.08259658701717853546142578125">
        <ele>73.59999847412109375</ele>
        <time>2026-04-26T10:11:04.000Z</time>
        <extensions>
          <ns3:TrackPointExtension>
            <ns3:hr>120</ns3:hr>
          </ns3:TrackPointExtension>
        </extensions>
      </trkpt>
      <trkpt lat="59.0782531164586544036865234375" lon="30.08263179101049900054931640625">
        <ele>73.59999847412109375</ele>
        <time>2026-04-26T10:11:07.000Z</time>
        <extensions>
          <ns3:TrackPointExtension>
            <ns3:hr>116</ns3:hr>
          </ns3:TrackPointExtension>
        </extensions>
      </trkpt>
      <trkpt lat="59.07826644368469715118408203125" lon="30.08263774216175079345703125">
        <ele>73.40000152587890625</ele>
        <time>2026-04-26T10:11:10.000Z</time>
        <extensions>
          <ns3:TrackPointExtension>
            <ns3:hr>114</ns3:hr>
          </ns3:TrackPointExtension>
        </extensions>
      </trkpt>
      <trkpt lat="59.0782886557281017303466796875" lon="30.08263296447694301605224609375">
        <ele>73.40000152587890625</ele>
        <time>2026-04-26T10:11:14.000Z</time>
        <extensions>
          <ns3:TrackPointExtension>
            <ns3:hr>112</ns3:hr>
          </ns3:TrackPointExtension>
        </extensions>
      </trkpt>
      <trkpt lat="59.0782886557281017303466796875" lon="30.08263296447694301605224609375">
        <ele>73.40000152587890625</ele>
        <time>2026-04-26T10:11:15.000Z</time>
        <extensions>
          <ns3:TrackPointExtension>
            <ns3:hr>112</ns3:hr>
          </ns3:TrackPointExtension>
        </extensions>
      </trkpt>
      <trkpt lat="59.0783081017434597015380859375" lon="30.08258602581918239593505859375">
        <ele>73.59999847412109375</ele>
        <time>2026-04-26T10:11:21.000Z</time>
        <extensions>
          <ns3:TrackPointExtension>
            <ns3:hr>113</ns3:hr>
          </ns3:TrackPointExtension>
        </extensions>
      </trkpt>
      <trkpt lat="59.07835814170539379119873046875" lon="30.08258753456175327301025390625">
        <ele>73.40000152587890625</ele>
        <time>2026-04-26T10:11:28.000Z</time>
        <extensions>
          <ns3:TrackPointExtension>
            <ns3:hr>112</ns3:hr>
          </ns3:TrackPointExtension>
        </extensions>
      </trkpt>
      <trkpt lat="59.0783771686255931854248046875" lon="30.0825698487460613250732421875">
        <ele>73.40000152587890625</ele>
        <time>2026-04-26T10:11:29.000Z</time>
        <extensions>
          <ns3:TrackPointExtension>
            <ns3:hr>112</ns3:hr>
          </ns3:TrackPointExtension>
        </extensions>
      </trkpt>
      <trkpt lat="59.07840256579220294952392578125" lon="30.08256104774773120880126953125">
        <ele>72.8000030517578125</ele>
        <time>2026-04-26T10:11:34.000Z</time>
        <extensions>
          <ns3:TrackPointExtension>
            <ns3:hr>112</ns3:hr>
          </ns3:TrackPointExtension>
        </extensions>
      </trkpt>
      <trkpt lat="59.078411869704723358154296875" lon="30.08262039162218570709228515625">
        <ele>72.8000030517578125</ele>
        <time>2026-04-26T10:11:37.000Z</time>
        <extensions>
          <ns3:TrackPointExtension>
            <ns3:hr>115</ns3:hr>
          </ns3:TrackPointExtension>
        </extensions>
      </trkpt>
      <trkpt lat="59.07842385582625865936279296875" lon="30.08263866417109966278076171875">
        <ele>72.59999847412109375</ele>
        <time>2026-04-26T10:11:39.000Z</time>
        <extensions>
          <ns3:TrackPointExtension>
            <ns3:hr>116</ns3:hr>
          </ns3:TrackPointExtension>
        </extensions>
      </trkpt>
      <trkpt lat="59.07844346947968006134033203125" lon="30.08264453150331974029541015625">
        <ele>72.1999969482421875</ele>
        <time>2026-04-26T10:11:44.000Z</time>
        <extensions>
          <ns3:TrackPointExtension>
            <ns3:hr>119</ns3:hr>
          </ns3:TrackPointExtension>
        </extensions>
      </trkpt>
      <trkpt lat="59.07844045199453830718994140625" lon="30.082642771303653717041015625">
        <ele>72.40000152587890625</ele>
        <time>2026-04-26T10:11:45.000Z</time>
        <extensions>
          <ns3:TrackPointExtension>
            <ns3:hr>119</ns3:hr>
          </ns3:TrackPointExtension>
        </extensions>
      </trkpt>
      <trkpt lat="59.0784609876573085784912109375" lon="30.08264369331300258636474609375">
        <ele>72.8000030517578125</ele>
        <time>2026-04-26T10:11:49.000Z</time>
        <extensions>
          <ns3:TrackPointExtension>
            <ns3:hr>121</ns3:hr>
          </ns3:TrackPointExtension>
        </extensions>
      </trkpt>
      <trkpt lat="59.07844229601323604583740234375" lon="30.0826442800462245941162109375">
        <ele>73</ele>
        <time>2026-04-26T10:11:53.000Z</time>
        <extensions>
          <ns3:TrackPointExtension>
            <ns3:hr>120</ns3:hr>
          </ns3:TrackPointExtension>
        </extensions>
      </trkpt>
      <trkpt lat="59.07843299210071563720703125" lon="30.08260689675807952880859375">
        <ele>72.59999847412109375</ele>
        <time>2026-04-26T10:12:00.000Z</time>
        <extensions>
          <ns3:TrackPointExtension>
            <ns3:hr>119</ns3:hr>
          </ns3:TrackPointExtension>
        </extensions>
      </trkpt>
      <trkpt lat="59.0784432180225849151611328125" lon="30.08258133195340633392333984375">
        <ele>72.59999847412109375</ele>
        <time>2026-04-26T10:12:03.000Z</time>
        <extensions>
          <ns3:TrackPointExtension>
            <ns3:hr>115</ns3:hr>
          </ns3:TrackPointExtension>
        </extensions>
      </trkpt>
      <trkpt lat="59.07844833098351955413818359375" lon="30.0825698487460613250732421875">
        <ele>72.59999847412109375</ele>
        <time>2026-04-26T10:12:04.000Z</time>
        <extensions>
          <ns3:TrackPointExtension>
            <ns3:hr>109</ns3:hr>
          </ns3:TrackPointExtension>
        </extensions>
      </trkpt>
      <trkpt lat="59.07845218665897846221923828125" lon="30.08256264030933380126953125">
        <ele>72.8000030517578125</ele>
        <time>2026-04-26T10:12:05.000Z</time>
        <extensions>
          <ns3:TrackPointExtension>
            <ns3:hr>105</ns3:hr>
          </ns3:TrackPointExtension>
        </extensions>
      </trkpt>
      <trkpt lat="59.07845537178218364715576171875" lon="30.0825450383126735687255859375">
        <ele>72.8000030517578125</ele>
        <time>2026-04-26T10:12:06.000Z</time>
        <extensions>
          <ns3:TrackPointExtension>
            <ns3:hr>105</ns3:hr>
          </ns3:TrackPointExtension>
        </extensions>
      </trkpt>
      <trkpt lat="59.07846325077116489410400390625" lon="30.08249550126492977142333984375">
        <ele>73.1999969482421875</ele>
        <time>2026-04-26T10:12:10.000Z</time>
        <extensions>
          <ns3:TrackPointExtension>
            <ns3:hr>108</ns3:hr>
          </ns3:TrackPointExtension>
        </extensions>
      </trkpt>
      <trkpt lat="59.07846861518919467926025390625" lon="30.08247773163020610809326171875">
        <ele>73.1999969482421875</ele>
        <time>2026-04-26T10:12:12.000Z</time>
        <extensions>
          <ns3:TrackPointExtension>
            <ns3:hr>108</ns3:hr>
          </ns3:TrackPointExtension>
        </extensions>
      </trkpt>
      <trkpt lat="59.07849778421223163604736328125" lon="30.0824320502579212188720703125">
        <ele>73</ele>
        <time>2026-04-26T10:12:17.000Z</time>
        <extensions>
          <ns3:TrackPointExtension>
            <ns3:hr>107</ns3:hr>
          </ns3:TrackPointExtension>
        </extensions>
      </trkpt>
      <trkpt lat="59.0785619057714939117431640625" lon="30.082403719425201416015625">
        <ele>72.8000030517578125</ele>
        <time>2026-04-26T10:12:24.000Z</time>
        <extensions>
          <ns3:TrackPointExtension>
            <ns3:hr>111</ns3:hr>
          </ns3:TrackPointExtension>
        </extensions>
      </trkpt>
      <trkpt lat="59.0786001272499561309814453125" lon="30.0823728740215301513671875">
        <ele>73</ele>
        <time>2026-04-26T10:12:29.000Z</time>
        <extensions>
          <ns3:TrackPointExtension>
            <ns3:hr>110</ns3:hr>
          </ns3:TrackPointExtension>
        </extensions>
      </trkpt>
      <trkpt lat="59.0786128677427768707275390625" lon="30.08235435001552104949951171875">
        <ele>73</ele>
        <time>2026-04-26T10:12:31.000Z</time>
        <extensions>
          <ns3:TrackPointExtension>
            <ns3:hr>113</ns3:hr>
          </ns3:TrackPointExtension>
        </extensions>
      </trkpt>
      <trkpt lat="59.07863524742424488067626953125" lon="30.0823250971734523773193359375">
        <ele>73.1999969482421875</ele>
        <time>2026-04-26T10:12:35.000Z</time>
        <extensions>
          <ns3:TrackPointExtension>
            <ns3:hr>113</ns3:hr>
          </ns3:TrackPointExtension>
        </extensions>
      </trkpt>
      <trkpt lat="59.07864513806998729705810546875" lon="30.0823165476322174072265625">
        <ele>73.1999969482421875</ele>
        <time>2026-04-26T10:12:38.000Z</time>
        <extensions>
          <ns3:TrackPointExtension>
            <ns3:hr>110</ns3:hr>
          </ns3:TrackPointExtension>
        </extensions>
      </trkpt>
      <trkpt lat="59.0786628238856792449951171875" lon="30.0823079980909824371337890625">
        <ele>73.1999969482421875</ele>
        <time>2026-04-26T10:12:41.000Z</time>
        <extensions>
          <ns3:TrackPointExtension>
            <ns3:hr>109</ns3:hr>
          </ns3:TrackPointExtension>
        </extensions>
      </trkpt>
      <trkpt lat="59.078675396740436553955078125" lon="30.0822952575981616973876953125">
        <ele>73</ele>
        <time>2026-04-26T10:12:45.000Z</time>
        <extensions>
          <ns3:TrackPointExtension>
            <ns3:hr>112</ns3:hr>
          </ns3:TrackPointExtension>
        </extensions>
      </trkpt>
      <trkpt lat="59.07871454022824764251708984375" lon="30.0822453014552593231201171875">
        <ele>73</ele>
        <time>2026-04-26T10:12:49.000Z</time>
        <extensions>
          <ns3:TrackPointExtension>
            <ns3:hr>110</ns3:hr>
          </ns3:TrackPointExtension>
        </extensions>
      </trkpt>
      <trkpt lat="59.07874119468033313751220703125" lon="30.08220666088163852691650390625">
        <ele>73</ele>
        <time>2026-04-26T10:12:53.000Z</time>
        <extensions>
          <ns3:TrackPointExtension>
            <ns3:hr>107</ns3:hr>
          </ns3:TrackPointExtension>
        </extensions>
      </trkpt>
      <trkpt lat="59.07874873839318752288818359375" lon="30.082185454666614532470703125">
        <ele>73.1999969482421875</ele>
        <time>2026-04-26T10:12:56.000Z</time>
        <extensions>
          <ns3:TrackPointExtension>
            <ns3:hr>104</ns3:hr>
          </ns3:TrackPointExtension>
        </extensions>
      </trkpt>
      <trkpt lat="59.0788059867918491363525390625" lon="30.08211831562221050262451171875">
        <ele>73</ele>
        <time>2026-04-26T10:13:01.000Z</time>
        <extensions>
          <ns3:TrackPointExtension>
            <ns3:hr>103</ns3:hr>
          </ns3:TrackPointExtension>
        </extensions>
      </trkpt>
      <trkpt lat="59.07882534898817539215087890625" lon="30.08209350518882274627685546875">
        <ele>73</ele>
        <time>2026-04-26T10:13:03.000Z</time>
        <extensions>
          <ns3:TrackPointExtension>
            <ns3:hr>99</ns3:hr>
          </ns3:TrackPointExtension>
        </extensions>
      </trkpt>
      <trkpt lat="59.07884211279451847076416015625" lon="30.0820843689143657684326171875">
        <ele>72.8000030517578125</ele>
        <time>2026-04-26T10:13:06.000Z</time>
        <extensions>
          <ns3:TrackPointExtension>
            <ns3:hr>105</ns3:hr>
          </ns3:TrackPointExtension>
        </extensions>
      </trkpt>
      <trkpt lat="59.0788485668599605560302734375" lon="30.08206651546061038970947265625">
        <ele>72.8000030517578125</ele>
        <time>2026-04-26T10:13:07.000Z</time>
        <extensions>
          <ns3:TrackPointExtension>
            <ns3:hr>110</ns3:hr>
          </ns3:TrackPointExtension>
        </extensions>
      </trkpt>
      <trkpt lat="59.07885435037314891815185546875" lon="30.08205226622521877288818359375">
        <ele>72.8000030517578125</ele>
        <time>2026-04-26T10:13:08.000Z</time>
        <extensions>
          <ns3:TrackPointExtension>
            <ns3:hr>116</ns3:hr>
          </ns3:TrackPointExtension>
        </extensions>
      </trkpt>
      <trkpt lat="59.07886357046663761138916015625" lon="30.08204991929233074188232421875">
        <ele>72.8000030517578125</ele>
        <time>2026-04-26T10:13:09.000Z</time>
        <extensions>
          <ns3:TrackPointExtension>
            <ns3:hr>124</ns3:hr>
          </ns3:TrackPointExtension>
        </extensions>
      </trkpt>
      <trkpt lat="59.07886424101889133453369140625" lon="30.08205377496778964996337890625">
        <ele>73</ele>
        <time>2026-04-26T10:13:11.000Z</time>
        <extensions>
          <ns3:TrackPointExtension>
            <ns3:hr>125</ns3:hr>
          </ns3:TrackPointExtension>
        </extensions>
      </trkpt>
      <trkpt lat="59.07886424101889133453369140625" lon="30.08205377496778964996337890625">
        <ele>73</ele>
        <time>2026-04-26T10:13:12.000Z</time>
        <extensions>
          <ns3:TrackPointExtension>
            <ns3:hr>125</ns3:hr>
          </ns3:TrackPointExtension>
        </extensions>
      </trkpt>
      <trkpt lat="59.07888762652873992919921875" lon="30.0820107758045196533203125">
        <ele>73.40000152587890625</ele>
        <time>2026-04-26T10:13:17.000Z</time>
        <extensions>
          <ns3:TrackPointExtension>
            <ns3:hr>125</ns3:hr>
          </ns3:TrackPointExtension>
        </extensions>
      </trkpt>
      <trkpt lat="59.0789390914142131805419921875" lon="30.081974230706691741943359375">
        <ele>73.1999969482421875</ele>
        <time>2026-04-26T10:13:24.000Z</time>
        <extensions>
          <ns3:TrackPointExtension>
            <ns3:hr>127</ns3:hr>
          </ns3:TrackPointExtension>
        </extensions>
      </trkpt>
      <trkpt lat="59.07897102646529674530029296875" lon="30.0819361768662929534912109375">
        <ele>73.1999969482421875</ele>
        <time>2026-04-26T10:13:30.000Z</time>
        <extensions>
          <ns3:TrackPointExtension>
            <ns3:hr>127</ns3:hr>
          </ns3:TrackPointExtension>
        </extensions>
      </trkpt>
      <trkpt lat="59.07900924794375896453857421875" lon="30.081889741122722625732421875">
        <ele>73</ele>
        <time>2026-04-26T10:13:37.000Z</time>
        <extensions>
          <ns3:TrackPointExtension>
            <ns3:hr>129</ns3:hr>
          </ns3:TrackPointExtension>
        </extensions>
      </trkpt>
      <trkpt lat="59.079020731151103973388671875" lon="30.08188395760953426361083984375">
        <ele>73</ele>
        <time>2026-04-26T10:13:38.000Z</time>
        <extensions>
          <ns3:TrackPointExtension>
            <ns3:hr>129</ns3:hr>
          </ns3:TrackPointExtension>
        </extensions>
      </trkpt>
      <trkpt lat="59.07906054519116878509521484375" lon="30.08185126818716526031494140625">
        <ele>72.8000030517578125</ele>
        <time>2026-04-26T10:13:42.000Z</time>
        <extensions>
          <ns3:TrackPointExtension>
            <ns3:hr>131</ns3:hr>
          </ns3:TrackPointExtension>
        </extensions>
      </trkpt>
      <trkpt lat="59.079083763062953948974609375" lon="30.08180583827197551727294921875">
        <ele>72.8000030517578125</ele>
        <time>2026-04-26T10:13:46.000Z</time>
        <extensions>
          <ns3:TrackPointExtension>
            <ns3:hr>128</ns3:hr>
          </ns3:TrackPointExtension>
        </extensions>
      </trkpt>
      <trkpt lat="59.07909105531871318817138671875" lon="30.08178672753274440765380859375">
        <ele>72.59999847412109375</ele>
        <time>2026-04-26T10:13:47.000Z</time>
        <extensions>
          <ns3:TrackPointExtension>
            <ns3:hr>128</ns3:hr>
          </ns3:TrackPointExtension>
        </extensions>
      </trkpt>
      <trkpt lat="59.07911620102822780609130859375" lon="30.08175085298717021942138671875">
        <ele>72.8000030517578125</ele>
        <time>2026-04-26T10:13:51.000Z</time>
        <extensions>
          <ns3:TrackPointExtension>
            <ns3:hr>125</ns3:hr>
          </ns3:TrackPointExtension>
        </extensions>
      </trkpt>
      <trkpt lat="59.0791198052465915679931640625" lon="30.08173459209501743316650390625">
        <ele>72.8000030517578125</ele>
        <time>2026-04-26T10:13:52.000Z</time>
        <extensions>
          <ns3:TrackPointExtension>
            <ns3:hr>123</ns3:hr>
          </ns3:TrackPointExtension>
        </extensions>
      </trkpt>
      <trkpt lat="59.07914453186094760894775390625" lon="30.08167482912540435791015625">
        <ele>73</ele>
        <time>2026-04-26T10:13:58.000Z</time>
        <extensions>
          <ns3:TrackPointExtension>
            <ns3:hr>121</ns3:hr>
          </ns3:TrackPointExtension>
        </extensions>
      </trkpt>
      <trkpt lat="59.07919608056545257568359375" lon="30.08165043778717517852783203125">
        <ele>73</ele>
        <time>2026-04-26T10:14:04.000Z</time>
        <extensions>
          <ns3:TrackPointExtension>
            <ns3:hr>121</ns3:hr>
          </ns3:TrackPointExtension>
        </extensions>
      </trkpt>
      <trkpt lat="59.07924796454608440399169921875" lon="30.08157013915479183197021484375">
        <ele>73</ele>
        <time>2026-04-26T10:14:12.000Z</time>
        <extensions>
          <ns3:TrackPointExtension>
            <ns3:hr>125</ns3:hr>
          </ns3:TrackPointExtension>
        </extensions>
      </trkpt>
      <trkpt lat="59.07925668172538280487060546875" lon="30.08156527765095233917236328125">
        <ele>72.8000030517578125</ele>
        <time>2026-04-26T10:14:13.000Z</time>
        <extensions>
          <ns3:TrackPointExtension>
            <ns3:hr>128</ns3:hr>
          </ns3:TrackPointExtension>
        </extensions>
      </trkpt>
      <trkpt lat="59.0792763791978359222412109375" lon="30.081538371741771697998046875">
        <ele>72.8000030517578125</ele>
        <time>2026-04-26T10:14:16.000Z</time>
        <extensions>
          <ns3:TrackPointExtension>
            <ns3:hr>132</ns3:hr>
          </ns3:TrackPointExtension>
        </extensions>
      </trkpt>
      <trkpt lat="59.07929666340351104736328125" lon="30.08150408975780010223388671875">
        <ele>72.8000030517578125</ele>
        <time>2026-04-26T10:14:19.000Z</time>
        <extensions>
          <ns3:TrackPointExtension>
            <ns3:hr>129</ns3:hr>
          </ns3:TrackPointExtension>
        </extensions>
      </trkpt>
      <trkpt lat="59.07930244691669940948486328125" lon="30.08148699067533016204833984375">
        <ele>72.8000030517578125</ele>
        <time>2026-04-26T10:14:20.000Z</time>
        <extensions>
          <ns3:TrackPointExtension>
            <ns3:hr>123</ns3:hr>
          </ns3:TrackPointExtension>
        </extensions>
      </trkpt>
      <trkpt lat="59.0793092362582683563232421875" lon="30.081482045352458953857421875">
        <ele>72.59999847412109375</ele>
        <time>2026-04-26T10:14:21.000Z</time>
        <extensions>
          <ns3:TrackPointExtension>
            <ns3:hr>123</ns3:hr>
          </ns3:TrackPointExtension>
        </extensions>
      </trkpt>
      <trkpt lat="59.07933815382421016693115234375" lon="30.0814510323107242584228515625">
        <ele>72.59999847412109375</ele>
        <time>2026-04-26T10:14:24.000Z</time>
        <extensions>
          <ns3:TrackPointExtension>
            <ns3:hr>125</ns3:hr>
          </ns3:TrackPointExtension>
        </extensions>
      </trkpt>
      <trkpt lat="59.07933999784290790557861328125" lon="30.081410966813564300537109375">
        <ele>72.59999847412109375</ele>
        <time>2026-04-26T10:14:29.000Z</time>
        <extensions>
          <ns3:TrackPointExtension>
            <ns3:hr>126</ns3:hr>
          </ns3:TrackPointExtension>
        </extensions>
      </trkpt>
      <trkpt lat="59.07935944385826587677001953125" lon="30.081349946558475494384765625">
        <ele>73.1999969482421875</ele>
        <time>2026-04-26T10:14:34.000Z</time>
        <extensions>
          <ns3:TrackPointExtension>
            <ns3:hr>123</ns3:hr>
          </ns3:TrackPointExtension>
        </extensions>
      </trkpt>
      <trkpt lat="59.07937788404524326324462890625" lon="30.0813410617411136627197265625">
        <ele>73</ele>
        <time>2026-04-26T10:14:36.000Z</time>
        <extensions>
          <ns3:TrackPointExtension>
            <ns3:hr>122</ns3:hr>
          </ns3:TrackPointExtension>
        </extensions>
      </trkpt>
      <trkpt lat="59.079430438578128814697265625" lon="30.081321112811565399169921875">
        <ele>73</ele>
        <time>2026-04-26T10:14:39.000Z</time>
        <extensions>
          <ns3:TrackPointExtension>
            <ns3:hr>122</ns3:hr>
          </ns3:TrackPointExtension>
        </extensions>
      </trkpt>
      <trkpt lat="59.07943873666226863861083984375" lon="30.08131382055580615997314453125">
        <ele>73</ele>
        <time>2026-04-26T10:14:40.000Z</time>
        <extensions>
          <ns3:TrackPointExtension>
            <ns3:hr>122</ns3:hr>
          </ns3:TrackPointExtension>
        </extensions>
      </trkpt>
      <trkpt lat="59.0794822387397289276123046875" lon="30.0812793709337711334228515625">
        <ele>73.1999969482421875</ele>
        <time>2026-04-26T10:14:45.000Z</time>
        <extensions>
          <ns3:TrackPointExtension>
            <ns3:hr>125</ns3:hr>
          </ns3:TrackPointExtension>
        </extensions>
      </trkpt>
      <trkpt lat="59.07948584295809268951416015625" lon="30.0812605954706668853759765625">
        <ele>73.1999969482421875</ele>
        <time>2026-04-26T10:14:46.000Z</time>
        <extensions>
          <ns3:TrackPointExtension>
            <ns3:hr>125</ns3:hr>
          </ns3:TrackPointExtension>
        </extensions>
      </trkpt>
      <trkpt lat="59.0795097313821315765380859375" lon="30.0812079571187496185302734375">
        <ele>73</ele>
        <time>2026-04-26T10:14:52.000Z</time>
        <extensions>
          <ns3:TrackPointExtension>
            <ns3:hr>125</ns3:hr>
          </ns3:TrackPointExtension>
        </extensions>
      </trkpt>
      <trkpt lat="59.07955155707895755767822265625" lon="30.08115707896649837493896484375">
        <ele>73.1999969482421875</ele>
        <time>2026-04-26T10:14:57.000Z</time>
        <extensions>
          <ns3:TrackPointExtension>
            <ns3:hr>125</ns3:hr>
          </ns3:TrackPointExtension>
        </extensions>
      </trkpt>
      <trkpt lat="59.07960386015474796295166015625" lon="30.08105264045298099517822265625">
        <ele>73</ele>
        <time>2026-04-26T10:15:04.000Z</time>
        <extensions>
          <ns3:TrackPointExtension>
            <ns3:hr>124</ns3:hr>
          </ns3:TrackPointExtension>
        </extensions>
      </trkpt>
      <trkpt lat="59.07963604666292667388916015625" lon="30.0809870101511478424072265625">
        <ele>73.40000152587890625</ele>
        <time>2026-04-26T10:15:10.000Z</time>
        <extensions>
          <ns3:TrackPointExtension>
            <ns3:hr>124</ns3:hr>
          </ns3:TrackPointExtension>
        </extensions>
      </trkpt>
      <trkpt lat="59.079690612852573394775390625" lon="30.08093990385532379150390625">
        <ele>73.1999969482421875</ele>
        <time>2026-04-26T10:15:17.000Z</time>
        <extensions>
          <ns3:TrackPointExtension>
            <ns3:hr>123</ns3:hr>
          </ns3:TrackPointExtension>
        </extensions>
      </trkpt>
      <trkpt lat="59.079695977270603179931640625" lon="30.08091115392744541168212890625">
        <ele>73.1999969482421875</ele>
        <time>2026-04-26T10:15:18.000Z</time>
        <extensions>
          <ns3:TrackPointExtension>
            <ns3:hr>124</ns3:hr>
          </ns3:TrackPointExtension>
        </extensions>
      </trkpt>
      <trkpt lat="59.07971517182886600494384765625" lon="30.08087645284831523895263671875">
        <ele>73.1999969482421875</ele>
        <time>2026-04-26T10:15:22.000Z</time>
        <extensions>
          <ns3:TrackPointExtension>
            <ns3:hr>123</ns3:hr>
          </ns3:TrackPointExtension>
        </extensions>
      </trkpt>
      <trkpt lat="59.079751633107662200927734375" lon="30.0808287598192691802978515625">
        <ele>73.1999969482421875</ele>
        <time>2026-04-26T10:15:28.000Z</time>
        <extensions>
          <ns3:TrackPointExtension>
            <ns3:hr>125</ns3:hr>
          </ns3:TrackPointExtension>
        </extensions>
      </trkpt>
      <trkpt lat="59.07979463227093219757080078125" lon="30.08079179562628269195556640625">
        <ele>73</ele>
        <time>2026-04-26T10:15:34.000Z</time>
        <extensions>
          <ns3:TrackPointExtension>
            <ns3:hr>123</ns3:hr>
          </ns3:TrackPointExtension>
        </extensions>
      </trkpt>
      <trkpt lat="59.079809971153736114501953125" lon="30.08077084086835384368896484375">
        <ele>73</ele>
        <time>2026-04-26T10:15:36.000Z</time>
        <extensions>
          <ns3:TrackPointExtension>
            <ns3:hr>118</ns3:hr>
          </ns3:TrackPointExtension>
        </extensions>
      </trkpt>
      <trkpt lat="59.07981139607727527618408203125" lon="30.08074267767369747161865234375">
        <ele>72.8000030517578125</ele>
        <time>2026-04-26T10:15:38.000Z</time>
        <extensions>
          <ns3:TrackPointExtension>
            <ns3:hr>114</ns3:hr>
          </ns3:TrackPointExtension>
        </extensions>
      </trkpt>
      <trkpt lat="59.0798230469226837158203125" lon="30.080707557499408721923828125">
        <ele>72.8000030517578125</ele>
        <time>2026-04-26T10:15:40.000Z</time>
        <extensions>
          <ns3:TrackPointExtension>
            <ns3:hr>111</ns3:hr>
          </ns3:TrackPointExtension>
        </extensions>
      </trkpt>
      <trkpt lat="59.0798359550535678863525390625" lon="30.080680064857006072998046875">
        <ele>72.59999847412109375</ele>
        <time>2026-04-26T10:15:42.000Z</time>
        <extensions>
          <ns3:TrackPointExtension>
            <ns3:hr>114</ns3:hr>
          </ns3:TrackPointExtension>
        </extensions>
      </trkpt>
      <trkpt lat="59.0798567421734333038330078125" lon="30.08067813701927661895751953125">
        <ele>72.40000152587890625</ele>
        <time>2026-04-26T10:15:45.000Z</time>
        <extensions>
          <ns3:TrackPointExtension>
            <ns3:hr>115</ns3:hr>
          </ns3:TrackPointExtension>
        </extensions>
      </trkpt>
      <trkpt lat="59.07985330559313297271728515625" lon="30.0806691683828830718994140625">
        <ele>72.40000152587890625</ele>
        <time>2026-04-26T10:15:46.000Z</time>
        <extensions>
          <ns3:TrackPointExtension>
            <ns3:hr>117</ns3:hr>
          </ns3:TrackPointExtension>
        </extensions>
      </trkpt>
      <trkpt lat="59.0798627771437168121337890625" lon="30.0806275941431522369384765625">
        <ele>72.40000152587890625</ele>
        <time>2026-04-26T10:15:49.000Z</time>
        <extensions>
          <ns3:TrackPointExtension>
            <ns3:hr>118</ns3:hr>
          </ns3:TrackPointExtension>
        </extensions>
      </trkpt>
      <trkpt lat="59.07987107522785663604736328125" lon="30.0805897079408168792724609375">
        <ele>72.40000152587890625</ele>
        <time>2026-04-26T10:15:51.000Z</time>
        <extensions>
          <ns3:TrackPointExtension>
            <ns3:hr>118</ns3:hr>
          </ns3:TrackPointExtension>
        </extensions>
      </trkpt>
      <trkpt lat="59.07988515682518482208251953125" lon="30.08059280924499034881591796875">
        <ele>72.40000152587890625</ele>
        <time>2026-04-26T10:15:54.000Z</time>
        <extensions>
          <ns3:TrackPointExtension>
            <ns3:hr>121</ns3:hr>
          </ns3:TrackPointExtension>
        </extensions>
      </trkpt>
      <trkpt lat="59.07990527339279651641845703125" lon="30.08059197105467319488525390625">
        <ele>72.40000152587890625</ele>
        <time>2026-04-26T10:15:57.000Z</time>
        <extensions>
          <ns3:TrackPointExtension>
            <ns3:hr>121</ns3:hr>
          </ns3:TrackPointExtension>
        </extensions>
      </trkpt>
      <trkpt lat="59.0799590013921260833740234375" lon="30.080533213913440704345703125">
        <ele>72.8000030517578125</ele>
        <time>2026-04-26T10:16:04.000Z</time>
        <extensions>
          <ns3:TrackPointExtension>
            <ns3:hr>122</ns3:hr>
          </ns3:TrackPointExtension>
        </extensions>
      </trkpt>
      <trkpt lat="59.07998674549162387847900390625" lon="30.0804904662072658538818359375">
        <ele>73</ele>
        <time>2026-04-26T10:16:09.000Z</time>
        <extensions>
          <ns3:TrackPointExtension>
            <ns3:hr>123</ns3:hr>
          </ns3:TrackPointExtension>
        </extensions>
      </trkpt>
      <trkpt lat="59.07998959533870220184326171875" lon="30.0804961659014225006103515625">
        <ele>73.40000152587890625</ele>
        <time>2026-04-26T10:16:14.000Z</time>
        <extensions>
          <ns3:TrackPointExtension>
            <ns3:hr>122</ns3:hr>
          </ns3:TrackPointExtension>
        </extensions>
      </trkpt>
      <trkpt lat="59.07997400499880313873291015625" lon="30.08049256168305873870849609375">
        <ele>73.40000152587890625</ele>
        <time>2026-04-26T10:16:21.000Z</time>
        <extensions>
          <ns3:TrackPointExtension>
            <ns3:hr>121</ns3:hr>
          </ns3:TrackPointExtension>
        </extensions>
      </trkpt>
      <trkpt lat="59.0799747593700885772705078125" lon="30.0804738700389862060546875">
        <ele>73.40000152587890625</ele>
        <time>2026-04-26T10:16:25.000Z</time>
        <extensions>
          <ns3:TrackPointExtension>
            <ns3:hr>124</ns3:hr>
          </ns3:TrackPointExtension>
        </extensions>
      </trkpt>
      <trkpt lat="59.0799747593700885772705078125" lon="30.0804738700389862060546875">
        <ele>73.40000152587890625</ele>
        <time>2026-04-26T10:16:28.000Z</time>
        <extensions>
          <ns3:TrackPointExtension>
            <ns3:hr>127</ns3:hr>
          </ns3:TrackPointExtension>
        </extensions>
      </trkpt>
      <trkpt lat="59.0799747593700885772705078125" lon="30.0804738700389862060546875">
        <ele>73.40000152587890625</ele>
        <time>2026-04-26T10:16:30.000Z</time>
        <extensions>
          <ns3:TrackPointExtension>
            <ns3:hr>128</ns3:hr>
          </ns3:TrackPointExtension>
        </extensions>
      </trkpt>
      <trkpt lat="59.07997484318912029266357421875" lon="30.0804738700389862060546875">
        <ele>73.1999969482421875</ele>
        <time>2026-04-26T10:16:34.000Z</time>
        <extensions>
          <ns3:TrackPointExtension>
            <ns3:hr>125</ns3:hr>
          </ns3:TrackPointExtension>
        </extensions>
      </trkpt>
      <trkpt lat="59.079993702471256256103515625" lon="30.0804364867508411407470703125">
        <ele>73.1999969482421875</ele>
        <time>2026-04-26T10:16:36.000Z</time>
        <extensions>
          <ns3:TrackPointExtension>
            <ns3:hr>122</ns3:hr>
          </ns3:TrackPointExtension>
        </extensions>
      </trkpt>
      <trkpt lat="59.08001013100147247314453125" lon="30.080418884754180908203125">
        <ele>73.1999969482421875</ele>
        <time>2026-04-26T10:16:38.000Z</time>
        <extensions>
          <ns3:TrackPointExtension>
            <ns3:hr>121</ns3:hr>
          </ns3:TrackPointExtension>
        </extensions>
      </trkpt>
      <trkpt lat="59.08003083430230617523193359375" lon="30.08040371350944042205810546875">
        <ele>73.1999969482421875</ele>
        <time>2026-04-26T10:16:44.000Z</time>
        <extensions>
          <ns3:TrackPointExtension>
            <ns3:hr>123</ns3:hr>
          </ns3:TrackPointExtension>
        </extensions>
      </trkpt>
      <trkpt lat="59.08004575408995151519775390625" lon="30.08044009096920490264892578125">
        <ele>73</ele>
        <time>2026-04-26T10:16:48.000Z</time>
        <extensions>
          <ns3:TrackPointExtension>
            <ns3:hr>124</ns3:hr>
          </ns3:TrackPointExtension>
        </extensions>
      </trkpt>
      <trkpt lat="59.08006737940013408660888671875" lon="30.08048987947404384613037109375">
        <ele>73</ele>
        <time>2026-04-26T10:16:53.000Z</time>
        <extensions>
          <ns3:TrackPointExtension>
            <ns3:hr>124</ns3:hr>
          </ns3:TrackPointExtension>
        </extensions>
      </trkpt>
      <trkpt lat="59.08008749596774578094482421875" lon="30.08045685477554798126220703125">
        <ele>73.1999969482421875</ele>
        <time>2026-04-26T10:16:58.000Z</time>
        <extensions>
          <ns3:TrackPointExtension>
            <ns3:hr>122</ns3:hr>
          </ns3:TrackPointExtension>
        </extensions>
      </trkpt>
      <trkpt lat="59.08009135164320468902587890625" lon="30.080409161746501922607421875">
        <ele>73</ele>
        <time>2026-04-26T10:17:03.000Z</time>
        <extensions>
          <ns3:TrackPointExtension>
            <ns3:hr>120</ns3:hr>
          </ns3:TrackPointExtension>
        </extensions>
      </trkpt>
      <trkpt lat="59.080103337764739990234375" lon="30.080328024923801422119140625">
        <ele>72.59999847412109375</ele>
        <time>2026-04-26T10:17:10.000Z</time>
        <extensions>
          <ns3:TrackPointExtension>
            <ns3:hr>121</ns3:hr>
          </ns3:TrackPointExtension>
        </extensions>
      </trkpt>
      <trkpt lat="59.080163352191448211669921875" lon="30.0802725367248058319091796875">
        <ele>72.8000030517578125</ele>
        <time>2026-04-26T10:17:15.000Z</time>
        <extensions>
          <ns3:TrackPointExtension>
            <ns3:hr>119</ns3:hr>
          </ns3:TrackPointExtension>
        </extensions>
      </trkpt>
      <trkpt lat="59.0801878273487091064453125" lon="30.08022819645702838897705078125">
        <ele>72.8000030517578125</ele>
        <time>2026-04-26T10:17:20.000Z</time>
        <extensions>
          <ns3:TrackPointExtension>
            <ns3:hr>122</ns3:hr>
          </ns3:TrackPointExtension>
        </extensions>
      </trkpt>
      <trkpt lat="59.08019210211932659149169921875" lon="30.08022383786737918853759765625">
        <ele>73</ele>
        <time>2026-04-26T10:17:21.000Z</time>
        <extensions>
          <ns3:TrackPointExtension>
            <ns3:hr>122</ns3:hr>
          </ns3:TrackPointExtension>
        </extensions>
      </trkpt>
      <trkpt lat="59.08023275434970855712890625" lon="30.08013767190277576446533203125">
        <ele>73</ele>
        <time>2026-04-26T10:17:29.000Z</time>
        <extensions>
          <ns3:TrackPointExtension>
            <ns3:hr>124</ns3:hr>
          </ns3:TrackPointExtension>
        </extensions>
      </trkpt>
      <trkpt lat="59.080280028283596038818359375" lon="30.08004731498658657073974609375">
        <ele>72.8000030517578125</ele>
        <time>2026-04-26T10:17:36.000Z</time>
        <extensions>
          <ns3:TrackPointExtension>
            <ns3:hr>121</ns3:hr>
          </ns3:TrackPointExtension>
        </extensions>
      </trkpt>
      <trkpt lat="59.08028212375938892364501953125" lon="30.08000758476555347442626953125">
        <ele>72.8000030517578125</ele>
        <time>2026-04-26T10:17:40.000Z</time>
        <extensions>
          <ns3:TrackPointExtension>
            <ns3:hr>124</ns3:hr>
          </ns3:TrackPointExtension>
        </extensions>
      </trkpt>
      <trkpt lat="59.08027927391231060028076171875" lon="30.0800130330026149749755859375">
        <ele>72.8000030517578125</ele>
        <time>2026-04-26T10:17:41.000Z</time>
        <extensions>
          <ns3:TrackPointExtension>
            <ns3:hr>125</ns3:hr>
          </ns3:TrackPointExtension>
        </extensions>
      </trkpt>
      <trkpt lat="59.080327637493610382080078125" lon="30.08001311682164669036865234375">
        <ele>72.59999847412109375</ele>
        <time>2026-04-26T10:17:47.000Z</time>
        <extensions>
          <ns3:TrackPointExtension>
            <ns3:hr>128</ns3:hr>
          </ns3:TrackPointExtension>
        </extensions>
      </trkpt>
      <trkpt lat="59.08036560751497745513916015625" lon="30.07996492087841033935546875">
        <ele>72.59999847412109375</ele>
        <time>2026-04-26T10:17:52.000Z</time>
        <extensions>
          <ns3:TrackPointExtension>
            <ns3:hr>127</ns3:hr>
          </ns3:TrackPointExtension>
        </extensions>
      </trkpt>
      <trkpt lat="59.080421514809131622314453125" lon="30.07984749041497707366943359375">
        <ele>72.59999847412109375</ele>
        <time>2026-04-26T10:17:59.000Z</time>
        <extensions>
          <ns3:TrackPointExtension>
            <ns3:hr>128</ns3:hr>
          </ns3:TrackPointExtension>
        </extensions>
      </trkpt>
      <trkpt lat="59.0804780088365077972412109375" lon="30.07981077767908573150634765625">
        <ele>73.1999969482421875</ele>
        <time>2026-04-26T10:18:05.000Z</time>
        <extensions>
          <ns3:TrackPointExtension>
            <ns3:hr>130</ns3:hr>
          </ns3:TrackPointExtension>
        </extensions>
      </trkpt>
      <trkpt lat="59.08051866106688976287841796875" lon="30.079743973910808563232421875">
        <ele>73</ele>
        <time>2026-04-26T10:18:11.000Z</time>
        <extensions>
          <ns3:TrackPointExtension>
            <ns3:hr>128</ns3:hr>
          </ns3:TrackPointExtension>
        </extensions>
      </trkpt>
      <trkpt lat="59.0805366821587085723876953125" lon="30.0797193311154842376708984375">
        <ele>72.8000030517578125</ele>
        <time>2026-04-26T10:18:15.000Z</time>
        <extensions>
          <ns3:TrackPointExtension>
            <ns3:hr>128</ns3:hr>
          </ns3:TrackPointExtension>
        </extensions>
      </trkpt>
      <trkpt lat="59.08056912012398242950439453125" lon="30.0796593166887760162353515625">
        <ele>72.8000030517578125</ele>
        <time>2026-04-26T10:18:21.000Z</time>
        <extensions>
          <ns3:TrackPointExtension>
            <ns3:hr>127</ns3:hr>
          </ns3:TrackPointExtension>
        </extensions>
      </trkpt>
      <trkpt lat="59.08057113178074359893798828125" lon="30.07961430586874485015869140625">
        <ele>72.59999847412109375</ele>
        <time>2026-04-26T10:18:25.000Z</time>
        <extensions>
          <ns3:TrackPointExtension>
            <ns3:hr>127</ns3:hr>
          </ns3:TrackPointExtension>
        </extensions>
      </trkpt>
      <trkpt lat="59.0805950202047824859619140625" lon="30.0796231068670749664306640625">
        <ele>72.59999847412109375</ele>
        <time>2026-04-26T10:18:27.000Z</time>
        <extensions>
          <ns3:TrackPointExtension>
            <ns3:hr>130</ns3:hr>
          </ns3:TrackPointExtension>
        </extensions>
      </trkpt>
      <trkpt lat="59.08060046844184398651123046875" lon="30.07961380295455455780029296875">
        <ele>72.59999847412109375</ele>
        <time>2026-04-26T10:18:28.000Z</time>
        <extensions>
          <ns3:TrackPointExtension>
            <ns3:hr>133</ns3:hr>
          </ns3:TrackPointExtension>
        </extensions>
      </trkpt>
      <trkpt lat="59.08060549758374691009521484375" lon="30.07960055954754352569580078125">
        <ele>72.59999847412109375</ele>
        <time>2026-04-26T10:18:29.000Z</time>
        <extensions>
          <ns3:TrackPointExtension>
            <ns3:hr>133</ns3:hr>
          </ns3:TrackPointExtension>
        </extensions>
      </trkpt>
      <trkpt lat="59.0806164778769016265869140625" lon="30.07959066890180110931396484375">
        <ele>72.40000152587890625</ele>
        <time>2026-04-26T10:18:31.000Z</time>
        <extensions>
          <ns3:TrackPointExtension>
            <ns3:hr>132</ns3:hr>
          </ns3:TrackPointExtension>
        </extensions>
      </trkpt>
      <trkpt lat="59.08068445511162281036376953125" lon="30.07950969971716403961181640625">
        <ele>72.40000152587890625</ele>
        <time>2026-04-26T10:18:37.000Z</time>
        <extensions>
          <ns3:TrackPointExtension>
            <ns3:hr>130</ns3:hr>
          </ns3:TrackPointExtension>
        </extensions>
      </trkpt>
      <trkpt lat="59.08070691861212253570556640625" lon="30.0795029103755950927734375">
        <ele>72.40000152587890625</ele>
        <time>2026-04-26T10:18:40.000Z</time>
        <extensions>
          <ns3:TrackPointExtension>
            <ns3:hr>127</ns3:hr>
          </ns3:TrackPointExtension>
        </extensions>
      </trkpt>
      <trkpt lat="59.080706499516963958740234375" lon="30.0795027427375316619873046875">
        <ele>72.40000152587890625</ele>
        <time>2026-04-26T10:18:41.000Z</time>
        <extensions>
          <ns3:TrackPointExtension>
            <ns3:hr>126</ns3:hr>
          </ns3:TrackPointExtension>
        </extensions>
      </trkpt>
      <trkpt lat="59.080709181725978851318359375" lon="30.07949410937726497650146484375">
        <ele>72.40000152587890625</ele>
        <time>2026-04-26T10:18:43.000Z</time>
        <extensions>
          <ns3:TrackPointExtension>
            <ns3:hr>122</ns3:hr>
          </ns3:TrackPointExtension>
        </extensions>
      </trkpt>
      <trkpt lat="59.08070054836571216583251953125" lon="30.07944515906274318695068359375">
        <ele>72.40000152587890625</ele>
        <time>2026-04-26T10:18:47.000Z</time>
        <extensions>
          <ns3:TrackPointExtension>
            <ns3:hr>121</ns3:hr>
          </ns3:TrackPointExtension>
        </extensions>
      </trkpt>
      <trkpt lat="59.08070482313632965087890625" lon="30.07940643467009067535400390625">
        <ele>72.40000152587890625</ele>
        <time>2026-04-26T10:18:49.000Z</time>
        <extensions>
          <ns3:TrackPointExtension>
            <ns3:hr>121</ns3:hr>
          </ns3:TrackPointExtension>
        </extensions>
      </trkpt>
      <trkpt lat="59.0807076729834079742431640625" lon="30.07940568029880523681640625">
        <ele>72.59999847412109375</ele>
        <time>2026-04-26T10:18:51.000Z</time>
        <extensions>
          <ns3:TrackPointExtension>
            <ns3:hr>119</ns3:hr>
          </ns3:TrackPointExtension>
        </extensions>
      </trkpt>
      <trkpt lat="59.080731309950351715087890625" lon="30.079394280910491943359375">
        <ele>72.59999847412109375</ele>
        <time>2026-04-26T10:18:55.000Z</time>
        <extensions>
          <ns3:TrackPointExtension>
            <ns3:hr>124</ns3:hr>
          </ns3:TrackPointExtension>
        </extensions>
      </trkpt>
      <trkpt lat="59.08074438571929931640625" lon="30.07937458343803882598876953125">
        <ele>72.59999847412109375</ele>
        <time>2026-04-26T10:18:57.000Z</time>
        <extensions>
          <ns3:TrackPointExtension>
            <ns3:hr>127</ns3:hr>
          </ns3:TrackPointExtension>
        </extensions>
      </trkpt>
      <trkpt lat="59.0807536058127880096435546875" lon="30.0793575681746006011962890625">
        <ele>72.59999847412109375</ele>
        <time>2026-04-26T10:18:59.000Z</time>
        <extensions>
          <ns3:TrackPointExtension>
            <ns3:hr>130</ns3:hr>
          </ns3:TrackPointExtension>
        </extensions>
      </trkpt>
      <trkpt lat="59.080769531428813934326171875" lon="30.0793488509953022003173828125">
        <ele>72.8000030517578125</ele>
        <time>2026-04-26T10:19:01.000Z</time>
        <extensions>
          <ns3:TrackPointExtension>
            <ns3:hr>133</ns3:hr>
          </ns3:TrackPointExtension>
        </extensions>
      </trkpt>
      <trkpt lat="59.08077715896070003509521484375" lon="30.079316161572933197021484375">
        <ele>72.59999847412109375</ele>
        <time>2026-04-26T10:19:03.000Z</time>
        <extensions>
          <ns3:TrackPointExtension>
            <ns3:hr>135</ns3:hr>
          </ns3:TrackPointExtension>
        </extensions>
      </trkpt>
      <trkpt lat="59.0807807631790637969970703125" lon="30.0792963802814483642578125">
        <ele>72.59999847412109375</ele>
        <time>2026-04-26T10:19:04.000Z</time>
        <extensions>
          <ns3:TrackPointExtension>
            <ns3:hr>138</ns3:hr>
          </ns3:TrackPointExtension>
        </extensions>
      </trkpt>
      <trkpt lat="59.08081236295402050018310546875" lon="30.07926486432552337646484375">
        <ele>72.40000152587890625</ele>
        <time>2026-04-26T10:19:10.000Z</time>
        <extensions>
          <ns3:TrackPointExtension>
            <ns3:hr>139</ns3:hr>
          </ns3:TrackPointExtension>
        </extensions>
      </trkpt>
      <trkpt lat="59.0808384306728839874267578125" lon="30.07921230979263782501220703125">
        <ele>72.1999969482421875</ele>
        <time>2026-04-26T10:19:15.000Z</time>
        <extensions>
          <ns3:TrackPointExtension>
            <ns3:hr>138</ns3:hr>
          </ns3:TrackPointExtension>
        </extensions>
      </trkpt>
      <trkpt lat="59.0808407776057720184326171875" lon="30.07920376025140285491943359375">
        <ele>72.1999969482421875</ele>
        <time>2026-04-26T10:19:16.000Z</time>
        <extensions>
          <ns3:TrackPointExtension>
            <ns3:hr>138</ns3:hr>
          </ns3:TrackPointExtension>
        </extensions>
      </trkpt>
      <trkpt lat="59.08084052614867687225341796875" lon="30.07918967865407466888427734375">
        <ele>72.1999969482421875</ele>
        <time>2026-04-26T10:19:17.000Z</time>
        <extensions>
          <ns3:TrackPointExtension>
            <ns3:hr>136</ns3:hr>
          </ns3:TrackPointExtension>
        </extensions>
      </trkpt>
      <trkpt lat="59.0808458067476749420166015625" lon="30.07915212772786617279052734375">
        <ele>72</ele>
        <time>2026-04-26T10:19:19.000Z</time>
        <extensions>
          <ns3:TrackPointExtension>
            <ns3:hr>132</ns3:hr>
          </ns3:TrackPointExtension>
        </extensions>
      </trkpt>
      <trkpt lat="59.08086315728724002838134765625" lon="30.079143829643726348876953125">
        <ele>72</ele>
        <time>2026-04-26T10:19:21.000Z</time>
        <extensions>
          <ns3:TrackPointExtension>
            <ns3:hr>130</ns3:hr>
          </ns3:TrackPointExtension>
        </extensions>
      </trkpt>
      <trkpt lat="59.08089601434767246246337890625" lon="30.07911675609648227691650390625">
        <ele>72</ele>
        <time>2026-04-26T10:19:25.000Z</time>
        <extensions>
          <ns3:TrackPointExtension>
            <ns3:hr>127</ns3:hr>
          </ns3:TrackPointExtension>
        </extensions>
      </trkpt>
      <trkpt lat="59.08091328106820583343505859375" lon="30.0791208632290363311767578125">
        <ele>71.8000030517578125</ele>
        <time>2026-04-26T10:19:27.000Z</time>
        <extensions>
          <ns3:TrackPointExtension>
            <ns3:hr>126</ns3:hr>
          </ns3:TrackPointExtension>
        </extensions>
      </trkpt>
      <trkpt lat="59.08091495744884014129638671875" lon="30.0791077874600887298583984375">
        <ele>71.8000030517578125</ele>
        <time>2026-04-26T10:19:28.000Z</time>
        <extensions>
          <ns3:TrackPointExtension>
            <ns3:hr>126</ns3:hr>
          </ns3:TrackPointExtension>
        </extensions>
      </trkpt>
      <trkpt lat="59.08092048950493335723876953125" lon="30.079039894044399261474609375">
        <ele>71.8000030517578125</ele>
        <time>2026-04-26T10:19:32.000Z</time>
        <extensions>
          <ns3:TrackPointExtension>
            <ns3:hr>127</ns3:hr>
          </ns3:TrackPointExtension>
        </extensions>
      </trkpt>
      <trkpt lat="59.0809200704097747802734375" lon="30.07901935838162899017333984375">
        <ele>72</ele>
        <time>2026-04-26T10:19:34.000Z</time>
        <extensions>
          <ns3:TrackPointExtension>
            <ns3:hr>133</ns3:hr>
          </ns3:TrackPointExtension>
        </extensions>
      </trkpt>
      <trkpt lat="59.0809242613613605499267578125" lon="30.07901600562036037445068359375">
        <ele>72</ele>
        <time>2026-04-26T10:19:35.000Z</time>
        <extensions>
          <ns3:TrackPointExtension>
            <ns3:hr>136</ns3:hr>
          </ns3:TrackPointExtension>
        </extensions>
      </trkpt>
      <trkpt lat="59.080930463969707489013671875" lon="30.07901080884039402008056640625">
        <ele>72</ele>
        <time>2026-04-26T10:19:36.000Z</time>
        <extensions>
          <ns3:TrackPointExtension>
            <ns3:hr>136</ns3:hr>
          </ns3:TrackPointExtension>
        </extensions>
      </trkpt>
      <trkpt lat="59.08094546757638454437255859375" lon="30.07899320684373378753662109375">
        <ele>72</ele>
        <time>2026-04-26T10:19:38.000Z</time>
        <extensions>
          <ns3:TrackPointExtension>
            <ns3:hr>137</ns3:hr>
          </ns3:TrackPointExtension>
        </extensions>
      </trkpt>
      <trkpt lat="59.0809678472578525543212890625" lon="30.07893897593021392822265625">
        <ele>72</ele>
        <time>2026-04-26T10:19:44.000Z</time>
        <extensions>
          <ns3:TrackPointExtension>
            <ns3:hr>137</ns3:hr>
          </ns3:TrackPointExtension>
        </extensions>
      </trkpt>
      <trkpt lat="59.080980755388736724853515625" lon="30.07889094762504100799560546875">
        <ele>72.1999969482421875</ele>
        <time>2026-04-26T10:19:48.000Z</time>
        <extensions>
          <ns3:TrackPointExtension>
            <ns3:hr>134</ns3:hr>
          </ns3:TrackPointExtension>
        </extensions>
      </trkpt>
      <trkpt lat="59.08098150976002216339111328125" lon="30.07887921296060085296630859375">
        <ele>72</ele>
        <time>2026-04-26T10:19:49.000Z</time>
        <extensions>
          <ns3:TrackPointExtension>
            <ns3:hr>132</ns3:hr>
          </ns3:TrackPointExtension>
        </extensions>
      </trkpt>
      <trkpt lat="59.08099072985351085662841796875" lon="30.07886010222136974334716796875">
        <ele>71.8000030517578125</ele>
        <time>2026-04-26T10:19:51.000Z</time>
        <extensions>
          <ns3:TrackPointExtension>
            <ns3:hr>135</ns3:hr>
          </ns3:TrackPointExtension>
        </extensions>
      </trkpt>
      <trkpt lat="59.080983437597751617431640625" lon="30.07884300313889980316162109375">
        <ele>71.59999847412109375</ele>
        <time>2026-04-26T10:19:52.000Z</time>
        <extensions>
          <ns3:TrackPointExtension>
            <ns3:hr>139</ns3:hr>
          </ns3:TrackPointExtension>
        </extensions>
      </trkpt>
      <trkpt lat="59.08099056221544742584228515625" lon="30.0788459368050098419189453125">
        <ele>71.59999847412109375</ele>
        <time>2026-04-26T10:19:53.000Z</time>
        <extensions>
          <ns3:TrackPointExtension>
            <ns3:hr>139</ns3:hr>
          </ns3:TrackPointExtension>
        </extensions>
      </trkpt>
      <trkpt lat="59.08099986612796783447265625" lon="30.07884518243372440338134765625">
        <ele>71.59999847412109375</ele>
        <time>2026-04-26T10:19:54.000Z</time>
        <extensions>
          <ns3:TrackPointExtension>
            <ns3:hr>139</ns3:hr>
          </ns3:TrackPointExtension>
        </extensions>
      </trkpt>
      <trkpt lat="59.08100799657404422760009765625" lon="30.078829340636730194091796875">
        <ele>71.8000030517578125</ele>
        <time>2026-04-26T10:19:57.000Z</time>
        <extensions>
          <ns3:TrackPointExtension>
            <ns3:hr>135</ns3:hr>
          </ns3:TrackPointExtension>
        </extensions>
      </trkpt>
      <trkpt lat="59.08101730048656463623046875" lon="30.07881819270551204681396484375">
        <ele>71.59999847412109375</ele>
        <time>2026-04-26T10:19:59.000Z</time>
        <extensions>
          <ns3:TrackPointExtension>
            <ns3:hr>132</ns3:hr>
          </ns3:TrackPointExtension>
        </extensions>
      </trkpt>
      <trkpt lat="59.0810281969606876373291015625" lon="30.07880947552621364593505859375">
        <ele>71.59999847412109375</ele>
        <time>2026-04-26T10:20:00.000Z</time>
        <extensions>
          <ns3:TrackPointExtension>
            <ns3:hr>130</ns3:hr>
          </ns3:TrackPointExtension>
        </extensions>
      </trkpt>
      <trkpt lat="59.08108259551227092742919921875" lon="30.07876287214457988739013671875">
        <ele>71.8000030517578125</ele>
        <time>2026-04-26T10:20:07.000Z</time>
        <extensions>
          <ns3:TrackPointExtension>
            <ns3:hr>128</ns3:hr>
          </ns3:TrackPointExtension>
        </extensions>
      </trkpt>
      <trkpt lat="59.081087373197078704833984375" lon="30.07871769368648529052734375">
        <ele>72</ele>
        <time>2026-04-26T10:20:13.000Z</time>
        <extensions>
          <ns3:TrackPointExtension>
            <ns3:hr>127</ns3:hr>
          </ns3:TrackPointExtension>
        </extensions>
      </trkpt>
      <trkpt lat="59.081105478107929229736328125" lon="30.07874510250985622406005859375">
        <ele>72</ele>
        <time>2026-04-26T10:20:18.000Z</time>
        <extensions>
          <ns3:TrackPointExtension>
            <ns3:hr>128</ns3:hr>
          </ns3:TrackPointExtension>
        </extensions>
      </trkpt>
      <trkpt lat="59.08114730380475521087646484375" lon="30.07881165482103824615478515625">
        <ele>72.1999969482421875</ele>
        <time>2026-04-26T10:20:23.000Z</time>
        <extensions>
          <ns3:TrackPointExtension>
            <ns3:hr>127</ns3:hr>
          </ns3:TrackPointExtension>
        </extensions>
      </trkpt>
      <trkpt lat="59.0811549313366413116455078125" lon="30.07881224155426025390625">
        <ele>72.1999969482421875</ele>
        <time>2026-04-26T10:20:25.000Z</time>
        <extensions>
          <ns3:TrackPointExtension>
            <ns3:hr>127</ns3:hr>
          </ns3:TrackPointExtension>
        </extensions>
      </trkpt>
      <trkpt lat="59.0811874531209468841552734375" lon="30.07880126126110553741455078125">
        <ele>72.1999969482421875</ele>
        <time>2026-04-26T10:20:28.000Z</time>
        <extensions>
          <ns3:TrackPointExtension>
            <ns3:hr>128</ns3:hr>
          </ns3:TrackPointExtension>
        </extensions>
      </trkpt>
      <trkpt lat="59.08120664767920970916748046875" lon="30.07876488380134105682373046875">
        <ele>72.40000152587890625</ele>
        <time>2026-04-26T10:20:33.000Z</time>
        <extensions>
          <ns3:TrackPointExtension>
            <ns3:hr>128</ns3:hr>
          </ns3:TrackPointExtension>
        </extensions>
      </trkpt>
      <trkpt lat="59.08122475259006023406982421875" lon="30.07871107198297977447509765625">
        <ele>72.1999969482421875</ele>
        <time>2026-04-26T10:20:38.000Z</time>
        <extensions>
          <ns3:TrackPointExtension>
            <ns3:hr>129</ns3:hr>
          </ns3:TrackPointExtension>
        </extensions>
      </trkpt>
      <trkpt lat="59.0812481380999088287353515625" lon="30.0787004269659519195556640625">
        <ele>72.1999969482421875</ele>
        <time>2026-04-26T10:20:40.000Z</time>
        <extensions>
          <ns3:TrackPointExtension>
            <ns3:hr>129</ns3:hr>
          </ns3:TrackPointExtension>
        </extensions>
      </trkpt>
      <trkpt lat="59.081267081201076507568359375" lon="30.07866966538131237030029296875">
        <ele>72.1999969482421875</ele>
        <time>2026-04-26T10:20:43.000Z</time>
        <extensions>
          <ns3:TrackPointExtension>
            <ns3:hr>130</ns3:hr>
          </ns3:TrackPointExtension>
        </extensions>
      </trkpt>
      <trkpt lat="59.0812742896378040313720703125" lon="30.07867838256061077117919921875">
        <ele>72</ele>
        <time>2026-04-26T10:20:49.000Z</time>
        <extensions>
          <ns3:TrackPointExtension>
            <ns3:hr>131</ns3:hr>
          </ns3:TrackPointExtension>
        </extensions>
      </trkpt>
      <trkpt lat="59.08129650168120861053466796875" lon="30.0786142610013484954833984375">
        <ele>72</ele>
        <time>2026-04-26T10:20:55.000Z</time>
        <extensions>
          <ns3:TrackPointExtension>
            <ns3:hr>131</ns3:hr>
          </ns3:TrackPointExtension>
        </extensions>
      </trkpt>
      <trkpt lat="59.0813547559082508087158203125" lon="30.078538991510868072509765625">
        <ele>72</ele>
        <time>2026-04-26T10:21:01.000Z</time>
        <extensions>
          <ns3:TrackPointExtension>
            <ns3:hr>131</ns3:hr>
          </ns3:TrackPointExtension>
        </extensions>
      </trkpt>
      <trkpt lat="59.0813653171062469482421875" lon="30.07852063514292240142822265625">
        <ele>72.1999969482421875</ele>
        <time>2026-04-26T10:21:04.000Z</time>
        <extensions>
          <ns3:TrackPointExtension>
            <ns3:hr>128</ns3:hr>
          </ns3:TrackPointExtension>
        </extensions>
      </trkpt>
      <trkpt lat="59.0813815779983997344970703125" lon="30.07850487716495990753173828125">
        <ele>72.1999969482421875</ele>
        <time>2026-04-26T10:21:07.000Z</time>
        <extensions>
          <ns3:TrackPointExtension>
            <ns3:hr>125</ns3:hr>
          </ns3:TrackPointExtension>
        </extensions>
      </trkpt>
      <trkpt lat="59.08140026964247226715087890625" lon="30.07847738452255725860595703125">
        <ele>72.1999969482421875</ele>
        <time>2026-04-26T10:21:10.000Z</time>
        <extensions>
          <ns3:TrackPointExtension>
            <ns3:hr>122</ns3:hr>
          </ns3:TrackPointExtension>
        </extensions>
      </trkpt>
      <trkpt lat="59.08141770400106906890869140625" lon="30.0784449465572834014892578125">
        <ele>72</ele>
        <time>2026-04-26T10:21:14.000Z</time>
        <extensions>
          <ns3:TrackPointExtension>
            <ns3:hr>122</ns3:hr>
          </ns3:TrackPointExtension>
        </extensions>
      </trkpt>
      <trkpt lat="59.0814570151269435882568359375" lon="30.0783742032945156097412109375">
        <ele>71.59999847412109375</ele>
        <time>2026-04-26T10:21:20.000Z</time>
        <extensions>
          <ns3:TrackPointExtension>
            <ns3:hr>120</ns3:hr>
          </ns3:TrackPointExtension>
        </extensions>
      </trkpt>
      <trkpt lat="59.08149146474897861480712890625" lon="30.07832064293324947357177734375">
        <ele>71.40000152587890625</ele>
        <time>2026-04-26T10:21:26.000Z</time>
        <extensions>
          <ns3:TrackPointExtension>
            <ns3:hr>118</ns3:hr>
          </ns3:TrackPointExtension>
        </extensions>
      </trkpt>
      <trkpt lat="59.08155776560306549072265625" lon="30.07824218831956386566162109375">
        <ele>72</ele>
        <time>2026-04-26T10:21:32.000Z</time>
        <extensions>
          <ns3:TrackPointExtension>
            <ns3:hr>122</ns3:hr>
          </ns3:TrackPointExtension>
        </extensions>
      </trkpt>
      <trkpt lat="59.08160068094730377197265625" lon="30.07818116806447505950927734375">
        <ele>72.1999969482421875</ele>
        <time>2026-04-26T10:21:37.000Z</time>
        <extensions>
          <ns3:TrackPointExtension>
            <ns3:hr>123</ns3:hr>
          </ns3:TrackPointExtension>
        </extensions>
      </trkpt>
      <trkpt lat="59.0816139243543148040771484375" lon="30.078150071203708648681640625">
        <ele>72.1999969482421875</ele>
        <time>2026-04-26T10:21:41.000Z</time>
        <extensions>
          <ns3:TrackPointExtension>
            <ns3:hr>120</ns3:hr>
          </ns3:TrackPointExtension>
        </extensions>
      </trkpt>
      <trkpt lat="59.08161937259137630462646484375" lon="30.07813188247382640838623046875">
        <ele>72</ele>
        <time>2026-04-26T10:21:43.000Z</time>
        <extensions>
          <ns3:TrackPointExtension>
            <ns3:hr>115</ns3:hr>
          </ns3:TrackPointExtension>
        </extensions>
      </trkpt>
      <trkpt lat="59.08163496293127536773681640625" lon="30.07812584750354290008544921875">
        <ele>72</ele>
        <time>2026-04-26T10:21:44.000Z</time>
        <extensions>
          <ns3:TrackPointExtension>
            <ns3:hr>112</ns3:hr>
          </ns3:TrackPointExtension>
        </extensions>
      </trkpt>
      <trkpt lat="59.08169497735798358917236328125" lon="30.07803440093994140625">
        <ele>72</ele>
        <time>2026-04-26T10:21:51.000Z</time>
        <extensions>
          <ns3:TrackPointExtension>
            <ns3:hr>114</ns3:hr>
          </ns3:TrackPointExtension>
        </extensions>
      </trkpt>
      <trkpt lat="59.08172733150422573089599609375" lon="30.07800213061273097991943359375">
        <ele>72.1999969482421875</ele>
        <time>2026-04-26T10:21:55.000Z</time>
        <extensions>
          <ns3:TrackPointExtension>
            <ns3:hr>116</ns3:hr>
          </ns3:TrackPointExtension>
        </extensions>
      </trkpt>
      <trkpt lat="59.08176823519170284271240234375" lon="30.0779229216277599334716796875">
        <ele>72</ele>
        <time>2026-04-26T10:22:02.000Z</time>
        <extensions>
          <ns3:TrackPointExtension>
            <ns3:hr>118</ns3:hr>
          </ns3:TrackPointExtension>
        </extensions>
      </trkpt>
      <trkpt lat="59.081802181899547576904296875" lon="30.077883861958980560302734375">
        <ele>72.1999969482421875</ele>
        <time>2026-04-26T10:22:06.000Z</time>
        <extensions>
          <ns3:TrackPointExtension>
            <ns3:hr>123</ns3:hr>
          </ns3:TrackPointExtension>
        </extensions>
      </trkpt>
      <trkpt lat="59.08181567676365375518798828125" lon="30.0778548605740070343017578125">
        <ele>72.1999969482421875</ele>
        <time>2026-04-26T10:22:08.000Z</time>
        <extensions>
          <ns3:TrackPointExtension>
            <ns3:hr>122</ns3:hr>
          </ns3:TrackPointExtension>
        </extensions>
      </trkpt>
      <trkpt lat="59.08185238949954509735107421875" lon="30.0777817703783512115478515625">
        <ele>72.1999969482421875</ele>
        <time>2026-04-26T10:22:14.000Z</time>
        <extensions>
          <ns3:TrackPointExtension>
            <ns3:hr>122</ns3:hr>
          </ns3:TrackPointExtension>
        </extensions>
      </trkpt>
      <trkpt lat="59.08188088797032833099365234375" lon="30.07773223333060741424560546875">
        <ele>72</ele>
        <time>2026-04-26T10:22:18.000Z</time>
        <extensions>
          <ns3:TrackPointExtension>
            <ns3:hr>122</ns3:hr>
          </ns3:TrackPointExtension>
        </extensions>
      </trkpt>
      <trkpt lat="59.08189077861607074737548828125" lon="30.0777177326381206512451171875">
        <ele>72</ele>
        <time>2026-04-26T10:22:19.000Z</time>
        <extensions>
          <ns3:TrackPointExtension>
            <ns3:hr>122</ns3:hr>
          </ns3:TrackPointExtension>
        </extensions>
      </trkpt>
      <trkpt lat="59.08194744028151035308837890625" lon="30.07768194191157817840576171875">
        <ele>72</ele>
        <time>2026-04-26T10:22:25.000Z</time>
        <extensions>
          <ns3:TrackPointExtension>
            <ns3:hr>121</ns3:hr>
          </ns3:TrackPointExtension>
        </extensions>
      </trkpt>
      <trkpt lat="59.0819622762501239776611328125" lon="30.07768638432025909423828125">
        <ele>72</ele>
        <time>2026-04-26T10:22:30.000Z</time>
        <extensions>
          <ns3:TrackPointExtension>
            <ns3:hr>122</ns3:hr>
          </ns3:TrackPointExtension>
        </extensions>
      </trkpt>
      <trkpt lat="59.081986583769321441650390625" lon="30.0776272080838680267333984375">
        <ele>72.1999969482421875</ele>
        <time>2026-04-26T10:22:36.000Z</time>
        <extensions>
          <ns3:TrackPointExtension>
            <ns3:hr>121</ns3:hr>
          </ns3:TrackPointExtension>
        </extensions>
      </trkpt>
      <trkpt lat="59.0820085443556308746337890625" lon="30.07759141735732555389404296875">
        <ele>72.1999969482421875</ele>
        <time>2026-04-26T10:22:42.000Z</time>
        <extensions>
          <ns3:TrackPointExtension>
            <ns3:hr>122</ns3:hr>
          </ns3:TrackPointExtension>
        </extensions>
      </trkpt>
      <trkpt lat="59.08204726874828338623046875" lon="30.077557303011417388916015625">
        <ele>72.40000152587890625</ele>
        <time>2026-04-26T10:22:46.000Z</time>
        <extensions>
          <ns3:TrackPointExtension>
            <ns3:hr>124</ns3:hr>
          </ns3:TrackPointExtension>
        </extensions>
      </trkpt>
      <trkpt lat="59.08207283355295658111572265625" lon="30.07753676734864711761474609375">
        <ele>72.40000152587890625</ele>
        <time>2026-04-26T10:22:48.000Z</time>
        <extensions>
          <ns3:TrackPointExtension>
            <ns3:hr>125</ns3:hr>
          </ns3:TrackPointExtension>
        </extensions>
      </trkpt>
      <trkpt lat="59.08210502006113529205322265625" lon="30.0774780102074146270751953125">
        <ele>72.40000152587890625</ele>
        <time>2026-04-26T10:22:53.000Z</time>
        <extensions>
          <ns3:TrackPointExtension>
            <ns3:hr>128</ns3:hr>
          </ns3:TrackPointExtension>
        </extensions>
      </trkpt>
      <trkpt lat="59.0821131505072116851806640625" lon="30.0774729810655117034912109375">
        <ele>72.40000152587890625</ele>
        <time>2026-04-26T10:22:54.000Z</time>
        <extensions>
          <ns3:TrackPointExtension>
            <ns3:hr>129</ns3:hr>
          </ns3:TrackPointExtension>
        </extensions>
      </trkpt>
      <trkpt lat="59.08212580718100070953369140625" lon="30.07743333466351032257080078125">
        <ele>72.40000152587890625</ele>
        <time>2026-04-26T10:22:56.000Z</time>
        <extensions>
          <ns3:TrackPointExtension>
            <ns3:hr>132</ns3:hr>
          </ns3:TrackPointExtension>
        </extensions>
      </trkpt>
      <trkpt lat="59.08214248716831207275390625" lon="30.07742126472294330596923828125">
        <ele>72.59999847412109375</ele>
        <time>2026-04-26T10:22:58.000Z</time>
        <extensions>
          <ns3:TrackPointExtension>
            <ns3:hr>123</ns3:hr>
          </ns3:TrackPointExtension>
        </extensions>
      </trkpt>
      <trkpt lat="59.082141816616058349609375" lon="30.0774089433252811431884765625">
        <ele>72.59999847412109375</ele>
        <time>2026-04-26T10:22:59.000Z</time>
        <extensions>
          <ns3:TrackPointExtension>
            <ns3:hr>120</ns3:hr>
          </ns3:TrackPointExtension>
        </extensions>
      </trkpt>
      <trkpt lat="59.0821564011275768280029296875" lon="30.077382624149322509765625">
        <ele>72.8000030517578125</ele>
        <time>2026-04-26T10:23:01.000Z</time>
        <extensions>
          <ns3:TrackPointExtension>
            <ns3:hr>121</ns3:hr>
          </ns3:TrackPointExtension>
        </extensions>
      </trkpt>
      <trkpt lat="59.08220074139535427093505859375" lon="30.0773008167743682861328125">
        <ele>72.59999847412109375</ele>
        <time>2026-04-26T10:23:08.000Z</time>
        <extensions>
          <ns3:TrackPointExtension>
            <ns3:hr>121</ns3:hr>
          </ns3:TrackPointExtension>
        </extensions>
      </trkpt>
      <trkpt lat="59.08222429454326629638671875" lon="30.0772667862474918365478515625">
        <ele>72.40000152587890625</ele>
        <time>2026-04-26T10:23:13.000Z</time>
        <extensions>
          <ns3:TrackPointExtension>
            <ns3:hr>120</ns3:hr>
          </ns3:TrackPointExtension>
        </extensions>
      </trkpt>
      <trkpt lat="59.082265533506870269775390625" lon="30.0771926902234554290771484375">
        <ele>72.1999969482421875</ele>
        <time>2026-04-26T10:23:20.000Z</time>
        <extensions>
          <ns3:TrackPointExtension>
            <ns3:hr>120</ns3:hr>
          </ns3:TrackPointExtension>
        </extensions>
      </trkpt>
      <trkpt lat="59.082293696701526641845703125" lon="30.077174417674541473388671875">
        <ele>72.40000152587890625</ele>
        <time>2026-04-26T10:23:25.000Z</time>
        <extensions>
          <ns3:TrackPointExtension>
            <ns3:hr>122</ns3:hr>
          </ns3:TrackPointExtension>
        </extensions>
      </trkpt>
      <trkpt lat="59.0822947025299072265625" lon="30.07715220563113689422607421875">
        <ele>72.40000152587890625</ele>
        <time>2026-04-26T10:23:30.000Z</time>
        <extensions>
          <ns3:TrackPointExtension>
            <ns3:hr>118</ns3:hr>
          </ns3:TrackPointExtension>
        </extensions>
      </trkpt>
      <trkpt lat="59.08232680521905422210693359375" lon="30.077112726867198944091796875">
        <ele>72.1999969482421875</ele>
        <time>2026-04-26T10:23:37.000Z</time>
        <extensions>
          <ns3:TrackPointExtension>
            <ns3:hr>119</ns3:hr>
          </ns3:TrackPointExtension>
        </extensions>
      </trkpt>
      <trkpt lat="59.08234038390219211578369140625" lon="30.07710945792496204376220703125">
        <ele>72.1999969482421875</ele>
        <time>2026-04-26T10:23:38.000Z</time>
        <extensions>
          <ns3:TrackPointExtension>
            <ns3:hr>119</ns3:hr>
          </ns3:TrackPointExtension>
        </extensions>
      </trkpt>
      <trkpt lat="59.08238581381738185882568359375" lon="30.07709101773798465728759765625">
        <ele>72</ele>
        <time>2026-04-26T10:23:42.000Z</time>
        <extensions>
          <ns3:TrackPointExtension>
            <ns3:hr>118</ns3:hr>
          </ns3:TrackPointExtension>
        </extensions>
      </trkpt>
      <trkpt lat="59.0824252925813198089599609375" lon="30.07703326642513275146484375">
        <ele>72.1999969482421875</ele>
        <time>2026-04-26T10:23:47.000Z</time>
        <extensions>
          <ns3:TrackPointExtension>
            <ns3:hr>118</ns3:hr>
          </ns3:TrackPointExtension>
        </extensions>
      </trkpt>
      <trkpt lat="59.08244247548282146453857421875" lon="30.07699814625084400177001953125">
        <ele>72.40000152587890625</ele>
        <time>2026-04-26T10:23:53.000Z</time>
        <extensions>
          <ns3:TrackPointExtension>
            <ns3:hr>119</ns3:hr>
          </ns3:TrackPointExtension>
        </extensions>
      </trkpt>
      <trkpt lat="59.08244683407247066497802734375" lon="30.0770004093647003173828125">
        <ele>72.40000152587890625</ele>
        <time>2026-04-26T10:23:54.000Z</time>
        <extensions>
          <ns3:TrackPointExtension>
            <ns3:hr>119</ns3:hr>
          </ns3:TrackPointExtension>
        </extensions>
      </trkpt>
      <trkpt lat="59.08246661536395549774169921875" lon="30.0769841484725475311279296875">
        <ele>72.59999847412109375</ele>
        <time>2026-04-26T10:23:56.000Z</time>
        <extensions>
          <ns3:TrackPointExtension>
            <ns3:hr>119</ns3:hr>
          </ns3:TrackPointExtension>
        </extensions>
      </trkpt>
      <trkpt lat="59.08247566781938076019287109375" lon="30.076960511505603790283203125">
        <ele>72.8000030517578125</ele>
        <time>2026-04-26T10:23:59.000Z</time>
        <extensions>
          <ns3:TrackPointExtension>
            <ns3:hr>117</ns3:hr>
          </ns3:TrackPointExtension>
        </extensions>
      </trkpt>
      <trkpt lat="59.08248740248382091522216796875" lon="30.0769522972404956817626953125">
        <ele>72.59999847412109375</ele>
        <time>2026-04-26T10:24:01.000Z</time>
        <extensions>
          <ns3:TrackPointExtension>
            <ns3:hr>120</ns3:hr>
          </ns3:TrackPointExtension>
        </extensions>
      </trkpt>
      <trkpt lat="59.08251154236495494842529296875" lon="30.07694768719375133514404296875">
        <ele>72.59999847412109375</ele>
        <time>2026-04-26T10:24:04.000Z</time>
        <extensions>
          <ns3:TrackPointExtension>
            <ns3:hr>123</ns3:hr>
          </ns3:TrackPointExtension>
        </extensions>
      </trkpt>
      <trkpt lat="59.08252537250518798828125" lon="30.076943747699260711669921875">
        <ele>72.59999847412109375</ele>
        <time>2026-04-26T10:24:05.000Z</time>
        <extensions>
          <ns3:TrackPointExtension>
            <ns3:hr>123</ns3:hr>
          </ns3:TrackPointExtension>
        </extensions>
      </trkpt>
      <trkpt lat="59.08254213631153106689453125" lon="30.07693000137805938720703125">
        <ele>72.59999847412109375</ele>
        <time>2026-04-26T10:24:06.000Z</time>
        <extensions>
          <ns3:TrackPointExtension>
            <ns3:hr>124</ns3:hr>
          </ns3:TrackPointExtension>
        </extensions>
      </trkpt>
      <trkpt lat="59.0825587324798107147216796875" lon="30.076874680817127227783203125">
        <ele>72.40000152587890625</ele>
        <time>2026-04-26T10:24:09.000Z</time>
        <extensions>
          <ns3:TrackPointExtension>
            <ns3:hr>121</ns3:hr>
          </ns3:TrackPointExtension>
        </extensions>
      </trkpt>
      <trkpt lat="59.0825642645359039306640625" lon="30.07686889730393886566162109375">
        <ele>72.40000152587890625</ele>
        <time>2026-04-26T10:24:10.000Z</time>
        <extensions>
          <ns3:TrackPointExtension>
            <ns3:hr>118</ns3:hr>
          </ns3:TrackPointExtension>
        </extensions>
      </trkpt>
      <trkpt lat="59.08256451599299907684326171875" lon="30.07685984484851360321044921875">
        <ele>72.40000152587890625</ele>
        <time>2026-04-26T10:24:11.000Z</time>
        <extensions>
          <ns3:TrackPointExtension>
            <ns3:hr>118</ns3:hr>
          </ns3:TrackPointExtension>
        </extensions>
      </trkpt>
      <trkpt lat="59.082592427730560302734375" lon="30.07680854760110378265380859375">
        <ele>72.40000152587890625</ele>
        <time>2026-04-26T10:24:16.000Z</time>
        <extensions>
          <ns3:TrackPointExtension>
            <ns3:hr>116</ns3:hr>
          </ns3:TrackPointExtension>
        </extensions>
      </trkpt>
      <trkpt lat="59.08259921707212924957275390625" lon="30.07679329253733158111572265625">
        <ele>72.40000152587890625</ele>
        <time>2026-04-26T10:24:20.000Z</time>
        <extensions>
          <ns3:TrackPointExtension>
            <ns3:hr>119</ns3:hr>
          </ns3:TrackPointExtension>
        </extensions>
      </trkpt>
      <trkpt lat="59.0826016478240489959716796875" lon="30.07680368609726428985595703125">
        <ele>72.40000152587890625</ele>
        <time>2026-04-26T10:24:23.000Z</time>
        <extensions>
          <ns3:TrackPointExtension>
            <ns3:hr>121</ns3:hr>
          </ns3:TrackPointExtension>
        </extensions>
      </trkpt>
      <trkpt lat="59.08261329866945743560791015625" lon="30.07678574882447719573974609375">
        <ele>72.59999847412109375</ele>
        <time>2026-04-26T10:24:30.000Z</time>
        <extensions>
          <ns3:TrackPointExtension>
            <ns3:hr>121</ns3:hr>
          </ns3:TrackPointExtension>
        </extensions>
      </trkpt>
      <trkpt lat="59.08261665143072605133056640625" lon="30.07678088732063770294189453125">
        <ele>72.40000152587890625</ele>
        <time>2026-04-26T10:24:34.000Z</time>
        <extensions>
          <ns3:TrackPointExtension>
            <ns3:hr>125</ns3:hr>
          </ns3:TrackPointExtension>
        </extensions>
      </trkpt>
      <trkpt lat="59.08261497505009174346923828125" lon="30.0767715834081172943115234375">
        <ele>72.40000152587890625</ele>
        <time>2026-04-26T10:24:35.000Z</time>
        <extensions>
          <ns3:TrackPointExtension>
            <ns3:hr>126</ns3:hr>
          </ns3:TrackPointExtension>
        </extensions>
      </trkpt>
      <trkpt lat="59.08260575495660305023193359375" lon="30.07675372995436191558837890625">
        <ele>71.59999847412109375</ele>
        <time>2026-04-26T10:24:42.000Z</time>
        <extensions>
          <ns3:TrackPointExtension>
            <ns3:hr>129</ns3:hr>
          </ns3:TrackPointExtension>
        </extensions>
      </trkpt>
      <trkpt lat="59.082603156566619873046875" lon="30.07674518041312694549560546875">
        <ele>71.59999847412109375</ele>
        <time>2026-04-26T10:24:45.000Z</time>
        <extensions>
          <ns3:TrackPointExtension>
            <ns3:hr>124</ns3:hr>
          </ns3:TrackPointExtension>
        </extensions>
      </trkpt>
      <trkpt lat="59.0826039947569370269775390625" lon="30.0767357088625431060791015625">
        <ele>71.59999847412109375</ele>
        <time>2026-04-26T10:24:46.000Z</time>
        <extensions>
          <ns3:TrackPointExtension>
            <ns3:hr>113</ns3:hr>
          </ns3:TrackPointExtension>
        </extensions>
      </trkpt>
      <trkpt lat="59.08260558731853961944580078125" lon="30.0767340324819087982177734375">
        <ele>71.59999847412109375</ele>
        <time>2026-04-26T10:24:47.000Z</time>
        <extensions>
          <ns3:TrackPointExtension>
            <ns3:hr>110</ns3:hr>
          </ns3:TrackPointExtension>
        </extensions>
      </trkpt>
      <trkpt lat="59.08260340802371501922607421875" lon="30.07673243992030620574951171875">
        <ele>71.59999847412109375</ele>
        <time>2026-04-26T10:24:48.000Z</time>
        <extensions>
          <ns3:TrackPointExtension>
            <ns3:hr>110</ns3:hr>
          </ns3:TrackPointExtension>
        </extensions>
      </trkpt>
      <trkpt lat="59.08260223455727100372314453125" lon="30.0767295062541961669921875">
        <ele>71.59999847412109375</ele>
        <time>2026-04-26T10:24:49.000Z</time>
        <extensions>
          <ns3:TrackPointExtension>
            <ns3:hr>110</ns3:hr>
          </ns3:TrackPointExtension>
        </extensions>
      </trkpt>
      <trkpt lat="59.0826130472123622894287109375" lon="30.07672472856938838958740234375">
        <ele>72.1999969482421875</ele>
        <time>2026-04-26T10:24:55.000Z</time>
        <extensions>
          <ns3:TrackPointExtension>
            <ns3:hr>110</ns3:hr>
          </ns3:TrackPointExtension>
        </extensions>
      </trkpt>
      <trkpt lat="59.082607515156269073486328125" lon="30.0767321884632110595703125">
        <ele>72</ele>
        <time>2026-04-26T10:24:59.000Z</time>
        <extensions>
          <ns3:TrackPointExtension>
            <ns3:hr>109</ns3:hr>
          </ns3:TrackPointExtension>
        </extensions>
      </trkpt>
      <trkpt lat="59.08264330588281154632568359375" lon="30.0767011754214763641357421875">
        <ele>72</ele>
        <time>2026-04-26T10:25:05.000Z</time>
        <extensions>
          <ns3:TrackPointExtension>
            <ns3:hr>110</ns3:hr>
          </ns3:TrackPointExtension>
        </extensions>
      </trkpt>
      <trkpt lat="59.08265839330852031707763671875" lon="30.07664292119443416595458984375">
        <ele>71.8000030517578125</ele>
        <time>2026-04-26T10:25:09.000Z</time>
        <extensions>
          <ns3:TrackPointExtension>
            <ns3:hr>108</ns3:hr>
          </ns3:TrackPointExtension>
        </extensions>
      </trkpt>
      <trkpt lat="59.08269041217863559722900390625" lon="30.07659296505153179168701171875">
        <ele>72.1999969482421875</ele>
        <time>2026-04-26T10:25:16.000Z</time>
        <extensions>
          <ns3:TrackPointExtension>
            <ns3:hr>110</ns3:hr>
          </ns3:TrackPointExtension>
        </extensions>
      </trkpt>
      <trkpt lat="59.08270281739532947540283203125" lon="30.07658944465219974517822265625">
        <ele>72</ele>
        <time>2026-04-26T10:25:20.000Z</time>
        <extensions>
          <ns3:TrackPointExtension>
            <ns3:hr>113</ns3:hr>
          </ns3:TrackPointExtension>
        </extensions>
      </trkpt>
      <trkpt lat="59.082730226218700408935546875" lon="30.076558850705623626708984375">
        <ele>71.8000030517578125</ele>
        <time>2026-04-26T10:25:22.000Z</time>
        <extensions>
          <ns3:TrackPointExtension>
            <ns3:hr>113</ns3:hr>
          </ns3:TrackPointExtension>
        </extensions>
      </trkpt>
      <trkpt lat="59.08274774439632892608642578125" lon="30.07653680630028247833251953125">
        <ele>71.59999847412109375</ele>
        <time>2026-04-26T10:25:24.000Z</time>
        <extensions>
          <ns3:TrackPointExtension>
            <ns3:hr>114</ns3:hr>
          </ns3:TrackPointExtension>
        </extensions>
      </trkpt>
      <trkpt lat="59.08276618458330631256103515625" lon="30.0765167735517024993896484375">
        <ele>71.59999847412109375</ele>
        <time>2026-04-26T10:25:26.000Z</time>
        <extensions>
          <ns3:TrackPointExtension>
            <ns3:hr>112</ns3:hr>
          </ns3:TrackPointExtension>
        </extensions>
      </trkpt>
      <trkpt lat="59.08277657814323902130126953125" lon="30.07651618681848049163818359375">
        <ele>71.8000030517578125</ele>
        <time>2026-04-26T10:25:27.000Z</time>
        <extensions>
          <ns3:TrackPointExtension>
            <ns3:hr>105</ns3:hr>
          </ns3:TrackPointExtension>
        </extensions>
      </trkpt>
      <trkpt lat="59.08278462477028369903564453125" lon="30.0765001773834228515625">
        <ele>71.8000030517578125</ele>
        <time>2026-04-26T10:25:28.000Z</time>
        <extensions>
          <ns3:TrackPointExtension>
            <ns3:hr>103</ns3:hr>
          </ns3:TrackPointExtension>
        </extensions>
      </trkpt>
      <trkpt lat="59.0827994607388973236083984375" lon="30.0764572620391845703125">
        <ele>72</ele>
        <time>2026-04-26T10:25:31.000Z</time>
        <extensions>
          <ns3:TrackPointExtension>
            <ns3:hr>104</ns3:hr>
          </ns3:TrackPointExtension>
        </extensions>
      </trkpt>
      <trkpt lat="59.0828378498554229736328125" lon="30.0764078088104724884033203125">
        <ele>71.59999847412109375</ele>
        <time>2026-04-26T10:25:38.000Z</time>
        <extensions>
          <ns3:TrackPointExtension>
            <ns3:hr>107</ns3:hr>
          </ns3:TrackPointExtension>
        </extensions>
      </trkpt>
      <trkpt lat="59.0828745625913143157958984375" lon="30.07636212743818759918212890625">
        <ele>72.1999969482421875</ele>
        <time>2026-04-26T10:25:45.000Z</time>
        <extensions>
          <ns3:TrackPointExtension>
            <ns3:hr>113</ns3:hr>
          </ns3:TrackPointExtension>
        </extensions>
      </trkpt>
      <trkpt lat="59.08288101665675640106201171875" lon="30.0763598643243312835693359375">
        <ele>71.8000030517578125</ele>
        <time>2026-04-26T10:25:51.000Z</time>
        <extensions>
          <ns3:TrackPointExtension>
            <ns3:hr>113</ns3:hr>
          </ns3:TrackPointExtension>
        </extensions>
      </trkpt>
      <trkpt lat="59.08289015293121337890625" lon="30.0763191282749176025390625">
        <ele>72</ele>
        <time>2026-04-26T10:25:56.000Z</time>
        <extensions>
          <ns3:TrackPointExtension>
            <ns3:hr>116</ns3:hr>
          </ns3:TrackPointExtension>
        </extensions>
      </trkpt>
      <trkpt lat="59.08289593644440174102783203125" lon="30.076325833797454833984375">
        <ele>72.8000030517578125</ele>
        <time>2026-04-26T10:26:04.000Z</time>
        <extensions>
          <ns3:TrackPointExtension>
            <ns3:hr>113</ns3:hr>
          </ns3:TrackPointExtension>
        </extensions>
      </trkpt>
      <trkpt lat="59.08290783874690532684326171875" lon="30.076320134103298187255859375">
        <ele>72.8000030517578125</ele>
        <time>2026-04-26T10:26:10.000Z</time>
        <extensions>
          <ns3:TrackPointExtension>
            <ns3:hr>113</ns3:hr>
          </ns3:TrackPointExtension>
        </extensions>
      </trkpt>
      <trkpt lat="59.082952179014682769775390625" lon="30.0762720219790935516357421875">
        <ele>72.1999969482421875</ele>
        <time>2026-04-26T10:26:16.000Z</time>
        <extensions>
          <ns3:TrackPointExtension>
            <ns3:hr>113</ns3:hr>
          </ns3:TrackPointExtension>
        </extensions>
      </trkpt>
      <trkpt lat="59.08298897556960582733154296875" lon="30.0762257538735866546630859375">
        <ele>72</ele>
        <time>2026-04-26T10:26:21.000Z</time>
        <extensions>
          <ns3:TrackPointExtension>
            <ns3:hr>114</ns3:hr>
          </ns3:TrackPointExtension>
        </extensions>
      </trkpt>
      <trkpt lat="59.083001129329204559326171875" lon="30.0762156955897808074951171875">
        <ele>72</ele>
        <time>2026-04-26T10:26:22.000Z</time>
        <extensions>
          <ns3:TrackPointExtension>
            <ns3:hr>117</ns3:hr>
          </ns3:TrackPointExtension>
        </extensions>
      </trkpt>
      <trkpt lat="59.0830148756504058837890625" lon="30.07619566284120082855224609375">
        <ele>72.1999969482421875</ele>
        <time>2026-04-26T10:26:24.000Z</time>
        <extensions>
          <ns3:TrackPointExtension>
            <ns3:hr>120</ns3:hr>
          </ns3:TrackPointExtension>
        </extensions>
      </trkpt>
      <trkpt lat="59.0830324776470661163330078125" lon="30.07616221904754638671875">
        <ele>72.1999969482421875</ele>
        <time>2026-04-26T10:26:26.000Z</time>
        <extensions>
          <ns3:TrackPointExtension>
            <ns3:hr>121</ns3:hr>
          </ns3:TrackPointExtension>
        </extensions>
      </trkpt>
      <trkpt lat="59.0830566175282001495361328125" lon="30.07609675638377666473388671875">
        <ele>72.1999969482421875</ele>
        <time>2026-04-26T10:26:31.000Z</time>
        <extensions>
          <ns3:TrackPointExtension>
            <ns3:hr>120</ns3:hr>
          </ns3:TrackPointExtension>
        </extensions>
      </trkpt>
      <trkpt lat="59.08305519260466098785400390625" lon="30.0760956667363643646240234375">
        <ele>72.1999969482421875</ele>
        <time>2026-04-26T10:26:32.000Z</time>
        <extensions>
          <ns3:TrackPointExtension>
            <ns3:hr>120</ns3:hr>
          </ns3:TrackPointExtension>
        </extensions>
      </trkpt>
      <trkpt lat="59.0830670110881328582763671875" lon="30.07606641389429569244384765625">
        <ele>72</ele>
        <time>2026-04-26T10:26:36.000Z</time>
        <extensions>
          <ns3:TrackPointExtension>
            <ns3:hr>120</ns3:hr>
          </ns3:TrackPointExtension>
        </extensions>
      </trkpt>
      <trkpt lat="59.08313532359898090362548828125" lon="30.075998604297637939453125">
        <ele>72.1999969482421875</ele>
        <time>2026-04-26T10:26:43.000Z</time>
        <extensions>
          <ns3:TrackPointExtension>
            <ns3:hr>115</ns3:hr>
          </ns3:TrackPointExtension>
        </extensions>
      </trkpt>
      <trkpt lat="59.08316717483103275299072265625" lon="30.0759543478488922119140625">
        <ele>72</ele>
        <time>2026-04-26T10:26:47.000Z</time>
        <extensions>
          <ns3:TrackPointExtension>
            <ns3:hr>118</ns3:hr>
          </ns3:TrackPointExtension>
        </extensions>
      </trkpt>
      <trkpt lat="59.083184190094470977783203125" lon="30.07591201923787593841552734375">
        <ele>72</ele>
        <time>2026-04-26T10:26:49.000Z</time>
        <extensions>
          <ns3:TrackPointExtension>
            <ns3:hr>118</ns3:hr>
          </ns3:TrackPointExtension>
        </extensions>
      </trkpt>
      <trkpt lat="59.08324227668344974517822265625" lon="30.0758535973727703094482421875">
        <ele>72.1999969482421875</ele>
        <time>2026-04-26T10:26:56.000Z</time>
        <extensions>
          <ns3:TrackPointExtension>
            <ns3:hr>117</ns3:hr>
          </ns3:TrackPointExtension>
        </extensions>
      </trkpt>
      <trkpt lat="59.08327035605907440185546875" lon="30.0758200697600841522216796875">
        <ele>72.40000152587890625</ele>
        <time>2026-04-26T10:27:00.000Z</time>
        <extensions>
          <ns3:TrackPointExtension>
            <ns3:hr>118</ns3:hr>
          </ns3:TrackPointExtension>
        </extensions>
      </trkpt>
      <trkpt lat="59.08327815122902393341064453125" lon="30.075809843838214874267578125">
        <ele>72.40000152587890625</ele>
        <time>2026-04-26T10:27:01.000Z</time>
        <extensions>
          <ns3:TrackPointExtension>
            <ns3:hr>118</ns3:hr>
          </ns3:TrackPointExtension>
        </extensions>
      </trkpt>
      <trkpt lat="59.08331251703202724456787109375" lon="30.07577405311167240142822265625">
        <ele>72.1999969482421875</ele>
        <time>2026-04-26T10:27:06.000Z</time>
        <extensions>
          <ns3:TrackPointExtension>
            <ns3:hr>119</ns3:hr>
          </ns3:TrackPointExtension>
        </extensions>
      </trkpt>
      <trkpt lat="59.08334017731249332427978515625" lon="30.07571219466626644134521484375">
        <ele>72.40000152587890625</ele>
        <time>2026-04-26T10:27:11.000Z</time>
        <extensions>
          <ns3:TrackPointExtension>
            <ns3:hr>118</ns3:hr>
          </ns3:TrackPointExtension>
        </extensions>
      </trkpt>
      <trkpt lat="59.08336280845105648040771484375" lon="30.07566290907561779022216796875">
        <ele>72.1999969482421875</ele>
        <time>2026-04-26T10:27:15.000Z</time>
        <extensions>
          <ns3:TrackPointExtension>
            <ns3:hr>125</ns3:hr>
          </ns3:TrackPointExtension>
        </extensions>
      </trkpt>
      <trkpt lat="59.08336934633553028106689453125" lon="30.07565167732536792755126953125">
        <ele>72.1999969482421875</ele>
        <time>2026-04-26T10:27:17.000Z</time>
        <extensions>
          <ns3:TrackPointExtension>
            <ns3:hr>130</ns3:hr>
          </ns3:TrackPointExtension>
        </extensions>
      </trkpt>
      <trkpt lat="59.08340186811983585357666015625" lon="30.07562016136944293975830078125">
        <ele>72.1999969482421875</ele>
        <time>2026-04-26T10:27:21.000Z</time>
        <extensions>
          <ns3:TrackPointExtension>
            <ns3:hr>129</ns3:hr>
          </ns3:TrackPointExtension>
        </extensions>
      </trkpt>
      <trkpt lat="59.0834522433578968048095703125" lon="30.07557691074907779693603515625">
        <ele>72.1999969482421875</ele>
        <time>2026-04-26T10:27:27.000Z</time>
        <extensions>
          <ns3:TrackPointExtension>
            <ns3:hr>126</ns3:hr>
          </ns3:TrackPointExtension>
        </extensions>
      </trkpt>
      <trkpt lat="59.083463139832019805908203125" lon="30.07554925046861171722412109375">
        <ele>72</ele>
        <time>2026-04-26T10:27:29.000Z</time>
        <extensions>
          <ns3:TrackPointExtension>
            <ns3:hr>123</ns3:hr>
          </ns3:TrackPointExtension>
        </extensions>
      </trkpt>
      <trkpt lat="59.0834896266460418701171875" lon="30.07548839785158634185791015625">
        <ele>72.1999969482421875</ele>
        <time>2026-04-26T10:27:33.000Z</time>
        <extensions>
          <ns3:TrackPointExtension>
            <ns3:hr>122</ns3:hr>
          </ns3:TrackPointExtension>
        </extensions>
      </trkpt>
      <trkpt lat="59.0834975056350231170654296875" lon="30.07547498680651187896728515625">
        <ele>72.1999969482421875</ele>
        <time>2026-04-26T10:27:34.000Z</time>
        <extensions>
          <ns3:TrackPointExtension>
            <ns3:hr>123</ns3:hr>
          </ns3:TrackPointExtension>
        </extensions>
      </trkpt>
      <trkpt lat="59.08351980149745941162109375" lon="30.07544598542153835296630859375">
        <ele>72.1999969482421875</ele>
        <time>2026-04-26T10:27:38.000Z</time>
        <extensions>
          <ns3:TrackPointExtension>
            <ns3:hr>122</ns3:hr>
          </ns3:TrackPointExtension>
        </extensions>
      </trkpt>
      <trkpt lat="59.08353388309478759765625" lon="30.0754294730722904205322265625">
        <ele>72.1999969482421875</ele>
        <time>2026-04-26T10:27:40.000Z</time>
        <extensions>
          <ns3:TrackPointExtension>
            <ns3:hr>119</ns3:hr>
          </ns3:TrackPointExtension>
        </extensions>
      </trkpt>
      <trkpt lat="59.0835964120924472808837890625" lon="30.0753426365554332733154296875">
        <ele>72</ele>
        <time>2026-04-26T10:27:46.000Z</time>
        <extensions>
          <ns3:TrackPointExtension>
            <ns3:hr>120</ns3:hr>
          </ns3:TrackPointExtension>
        </extensions>
      </trkpt>
      <trkpt lat="59.0836399979889392852783203125" lon="30.075289495289325714111328125">
        <ele>71.8000030517578125</ele>
        <time>2026-04-26T10:27:53.000Z</time>
        <extensions>
          <ns3:TrackPointExtension>
            <ns3:hr>118</ns3:hr>
          </ns3:TrackPointExtension>
        </extensions>
      </trkpt>
      <trkpt lat="59.0836688317358493804931640625" lon="30.0752596557140350341796875">
        <ele>71.59999847412109375</ele>
        <time>2026-04-26T10:27:56.000Z</time>
        <extensions>
          <ns3:TrackPointExtension>
            <ns3:hr>121</ns3:hr>
          </ns3:TrackPointExtension>
        </extensions>
      </trkpt>
      <trkpt lat="59.0837013535201549530029296875" lon="30.0752098672091960906982421875">
        <ele>71.40000152587890625</ele>
        <time>2026-04-26T10:28:00.000Z</time>
        <extensions>
          <ns3:TrackPointExtension>
            <ns3:hr>120</ns3:hr>
          </ns3:TrackPointExtension>
        </extensions>
      </trkpt>
      <trkpt lat="59.08372809179127216339111328125" lon="30.07515999488532543182373046875">
        <ele>71.40000152587890625</ele>
        <time>2026-04-26T10:28:05.000Z</time>
        <extensions>
          <ns3:TrackPointExtension>
            <ns3:hr>120</ns3:hr>
          </ns3:TrackPointExtension>
        </extensions>
      </trkpt>
      <trkpt lat="59.08373094163835048675537109375" lon="30.07512395270168781280517578125">
        <ele>71.59999847412109375</ele>
        <time>2026-04-26T10:28:10.000Z</time>
        <extensions>
          <ns3:TrackPointExtension>
            <ns3:hr>118</ns3:hr>
          </ns3:TrackPointExtension>
        </extensions>
      </trkpt>
      <trkpt lat="59.0837060473859310150146484375" lon="30.0751857273280620574951171875">
        <ele>71.8000030517578125</ele>
        <time>2026-04-26T10:28:19.000Z</time>
        <extensions>
          <ns3:TrackPointExtension>
            <ns3:hr>120</ns3:hr>
          </ns3:TrackPointExtension>
        </extensions>
      </trkpt>
      <trkpt lat="59.08370797522366046905517578125" lon="30.0752303190529346466064453125">
        <ele>71.59999847412109375</ele>
        <time>2026-04-26T10:28:26.000Z</time>
        <extensions>
          <ns3:TrackPointExtension>
            <ns3:hr>122</ns3:hr>
          </ns3:TrackPointExtension>
        </extensions>
      </trkpt>
      <trkpt lat="59.0837174467742443084716796875" lon="30.07525638677179813385009765625">
        <ele>71.59999847412109375</ele>
        <time>2026-04-26T10:28:29.000Z</time>
        <extensions>
          <ns3:TrackPointExtension>
            <ns3:hr>125</ns3:hr>
          </ns3:TrackPointExtension>
        </extensions>
      </trkpt>
      <trkpt lat="59.083713255822658538818359375" lon="30.07522570900619029998779296875">
        <ele>72</ele>
        <time>2026-04-26T10:28:33.000Z</time>
        <extensions>
          <ns3:TrackPointExtension>
            <ns3:hr>126</ns3:hr>
          </ns3:TrackPointExtension>
        </extensions>
      </trkpt>
      <trkpt lat="59.08370931632816791534423828125" lon="30.07520693354308605194091796875">
        <ele>71.59999847412109375</ele>
        <time>2026-04-26T10:28:39.000Z</time>
        <extensions>
          <ns3:TrackPointExtension>
            <ns3:hr>129</ns3:hr>
          </ns3:TrackPointExtension>
        </extensions>
      </trkpt>
      <trkpt lat="59.0837015211582183837890625" lon="30.0752209313213825225830078125">
        <ele>71.59999847412109375</ele>
        <time>2026-04-26T10:28:41.000Z</time>
        <extensions>
          <ns3:TrackPointExtension>
            <ns3:hr>132</ns3:hr>
          </ns3:TrackPointExtension>
        </extensions>
      </trkpt>
      <trkpt lat="59.08368752337992191314697265625" lon="30.075217075645923614501953125">
        <ele>71.59999847412109375</ele>
        <time>2026-04-26T10:28:44.000Z</time>
        <extensions>
          <ns3:TrackPointExtension>
            <ns3:hr>129</ns3:hr>
          </ns3:TrackPointExtension>
        </extensions>
      </trkpt>
      <trkpt lat="59.08370210789144039154052734375" lon="30.07523593492805957794189453125">
        <ele>71.40000152587890625</ele>
        <time>2026-04-26T10:28:50.000Z</time>
        <extensions>
          <ns3:TrackPointExtension>
            <ns3:hr>126</ns3:hr>
          </ns3:TrackPointExtension>
        </extensions>
      </trkpt>
      <trkpt lat="59.08371618948876857757568359375" lon="30.075239874422550201416015625">
        <ele>71.40000152587890625</ele>
        <time>2026-04-26T10:28:52.000Z</time>
        <extensions>
          <ns3:TrackPointExtension>
            <ns3:hr>123</ns3:hr>
          </ns3:TrackPointExtension>
        </extensions>
      </trkpt>
      <trkpt lat="59.0837234817445278167724609375" lon="30.0752313248813152313232421875">
        <ele>71.40000152587890625</ele>
        <time>2026-04-26T10:28:53.000Z</time>
        <extensions>
          <ns3:TrackPointExtension>
            <ns3:hr>122</ns3:hr>
          </ns3:TrackPointExtension>
        </extensions>
      </trkpt>
      <trkpt lat="59.0837174467742443084716796875" lon="30.0752433948218822479248046875">
        <ele>71.59999847412109375</ele>
        <time>2026-04-26T10:28:56.000Z</time>
        <extensions>
          <ns3:TrackPointExtension>
            <ns3:hr>119</ns3:hr>
          </ns3:TrackPointExtension>
        </extensions>
      </trkpt>
      <trkpt lat="59.08372842706739902496337890625" lon="30.0752410478889942169189453125">
        <ele>71.59999847412109375</ele>
        <time>2026-04-26T10:28:58.000Z</time>
        <extensions>
          <ns3:TrackPointExtension>
            <ns3:hr>118</ns3:hr>
          </ns3:TrackPointExtension>
        </extensions>
      </trkpt>
      <trkpt lat="59.08371836878359317779541015625" lon="30.07527482695877552032470703125">
        <ele>71.8000030517578125</ele>
        <time>2026-04-26T10:29:05.000Z</time>
        <extensions>
          <ns3:TrackPointExtension>
            <ns3:hr>115</ns3:hr>
          </ns3:TrackPointExtension>
        </extensions>
      </trkpt>
      <trkpt lat="59.08372373320162296295166015625" lon="30.0752886570990085601806640625">
        <ele>72</ele>
        <time>2026-04-26T10:29:06.000Z</time>
        <extensions>
          <ns3:TrackPointExtension>
            <ns3:hr>115</ns3:hr>
          </ns3:TrackPointExtension>
        </extensions>
      </trkpt>
      <trkpt lat="59.083715938031673431396484375" lon="30.0752916745841503143310546875">
        <ele>72</ele>
        <time>2026-04-26T10:29:09.000Z</time>
        <extensions>
          <ns3:TrackPointExtension>
            <ns3:hr>112</ns3:hr>
          </ns3:TrackPointExtension>
        </extensions>
      </trkpt>
      <trkpt lat="59.08371283672749996185302734375" lon="30.075248591601848602294921875">
        <ele>71.8000030517578125</ele>
        <time>2026-04-26T10:29:12.000Z</time>
        <extensions>
          <ns3:TrackPointExtension>
            <ns3:hr>109</ns3:hr>
          </ns3:TrackPointExtension>
        </extensions>
      </trkpt>
      <trkpt lat="59.08371669240295886993408203125" lon="30.07519369013607501983642578125">
        <ele>71.59999847412109375</ele>
        <time>2026-04-26T10:29:18.000Z</time>
        <extensions>
          <ns3:TrackPointExtension>
            <ns3:hr>108</ns3:hr>
          </ns3:TrackPointExtension>
        </extensions>
      </trkpt>
      <trkpt lat="59.08373630605638027191162109375" lon="30.075176842510700225830078125">
        <ele>71.8000030517578125</ele>
        <time>2026-04-26T10:29:25.000Z</time>
        <extensions>
          <ns3:TrackPointExtension>
            <ns3:hr>106</ns3:hr>
          </ns3:TrackPointExtension>
        </extensions>
      </trkpt>
      <trkpt lat="59.08371183089911937713623046875" lon="30.07516116835176944732666015625">
        <ele>71.40000152587890625</ele>
        <time>2026-04-26T10:29:32.000Z</time>
        <extensions>
          <ns3:TrackPointExtension>
            <ns3:hr>104</ns3:hr>
          </ns3:TrackPointExtension>
        </extensions>
      </trkpt>
      <trkpt lat="59.083718620240688323974609375" lon="30.075182877480983734130859375">
        <ele>71.1999969482421875</ele>
        <time>2026-04-26T10:29:39.000Z</time>
        <extensions>
          <ns3:TrackPointExtension>
            <ns3:hr>105</ns3:hr>
          </ns3:TrackPointExtension>
        </extensions>
      </trkpt>
      <trkpt lat="59.08372364938259124755859375" lon="30.075193941593170166015625">
        <ele>71.1999969482421875</ele>
        <time>2026-04-26T10:29:42.000Z</time>
        <extensions>
          <ns3:TrackPointExtension>
            <ns3:hr>102</ns3:hr>
          </ns3:TrackPointExtension>
        </extensions>
      </trkpt>
      <trkpt lat="59.0837258286774158477783203125" lon="30.0751981325447559356689453125">
        <ele>71.1999969482421875</ele>
        <time>2026-04-26T10:29:44.000Z</time>
        <extensions>
          <ns3:TrackPointExtension>
            <ns3:hr>96</ns3:hr>
          </ns3:TrackPointExtension>
        </extensions>
      </trkpt>
      <trkpt lat="59.0837228111922740936279296875" lon="30.0752038322389125823974609375">
        <ele>71.1999969482421875</ele>
        <time>2026-04-26T10:29:45.000Z</time>
        <extensions>
          <ns3:TrackPointExtension>
            <ns3:hr>93</ns3:hr>
          </ns3:TrackPointExtension>
        </extensions>
      </trkpt>
      <trkpt lat="59.083719961345195770263671875" lon="30.07520508952438831329345703125">
        <ele>71.1999969482421875</ele>
        <time>2026-04-26T10:29:47.000Z</time>
        <extensions>
          <ns3:TrackPointExtension>
            <ns3:hr>90</ns3:hr>
          </ns3:TrackPointExtension>
        </extensions>
      </trkpt>
      <trkpt lat="59.08371786586940288543701171875" lon="30.0752051733434200286865234375">
        <ele>71.1999969482421875</ele>
        <time>2026-04-26T10:29:51.000Z</time>
        <extensions>
          <ns3:TrackPointExtension>
            <ns3:hr>106</ns3:hr>
          </ns3:TrackPointExtension>
        </extensions>
      </trkpt>
      <trkpt lat="59.08372230827808380126953125" lon="30.07521447725594043731689453125">
        <ele>71.1999969482421875</ele>
        <time>2026-04-26T10:29:52.000Z</time>
        <extensions>
          <ns3:TrackPointExtension>
            <ns3:hr>106</ns3:hr>
          </ns3:TrackPointExtension>
        </extensions>
      </trkpt>
      <trkpt lat="59.083721637725830078125" lon="30.0752132199704647064208984375">
        <ele>71.1999969482421875</ele>
        <time>2026-04-26T10:29:55.000Z</time>
        <extensions>
          <ns3:TrackPointExtension>
            <ns3:hr>107</ns3:hr>
          </ns3:TrackPointExtension>
        </extensions>
      </trkpt>
      <trkpt lat="59.083705879747867584228515625" lon="30.07522151805460453033447265625">
        <ele>71</ele>
        <time>2026-04-26T10:30:00.000Z</time>
        <extensions>
          <ns3:TrackPointExtension>
            <ns3:hr>106</ns3:hr>
          </ns3:TrackPointExtension>
        </extensions>
      </trkpt>
      <trkpt lat="59.08371233381330966949462890625" lon="30.0752175785601139068603515625">
        <ele>71</ele>
        <time>2026-04-26T10:30:03.000Z</time>
        <extensions>
          <ns3:TrackPointExtension>
            <ns3:hr>105</ns3:hr>
          </ns3:TrackPointExtension>
        </extensions>
      </trkpt>
      <trkpt lat="59.0837342105805873870849609375" lon="30.07515437901020050048828125">
        <ele>71.40000152587890625</ele>
        <time>2026-04-26T10:30:11.000Z</time>
        <extensions>
          <ns3:TrackPointExtension>
            <ns3:hr>107</ns3:hr>
          </ns3:TrackPointExtension>
        </extensions>
      </trkpt>
      <trkpt lat="59.0837107412517070770263671875" lon="30.07517960853874683380126953125">
        <ele>71.1999969482421875</ele>
        <time>2026-04-26T10:30:17.000Z</time>
        <extensions>
          <ns3:TrackPointExtension>
            <ns3:hr>107</ns3:hr>
          </ns3:TrackPointExtension>
        </extensions>
      </trkpt>
      <trkpt lat="59.08371702767908573150634765625" lon="30.07526510395109653472900390625">
        <ele>71.1999969482421875</ele>
        <time>2026-04-26T10:30:23.000Z</time>
        <extensions>
          <ns3:TrackPointExtension>
            <ns3:hr>106</ns3:hr>
          </ns3:TrackPointExtension>
        </extensions>
      </trkpt>
      <trkpt lat="59.083738736808300018310546875" lon="30.075268037617206573486328125">
        <ele>71.1999969482421875</ele>
        <time>2026-04-26T10:30:29.000Z</time>
        <extensions>
          <ns3:TrackPointExtension>
            <ns3:hr>105</ns3:hr>
          </ns3:TrackPointExtension>
        </extensions>
      </trkpt>
      <trkpt lat="59.08372339792549610137939453125" lon="30.0752462446689605712890625">
        <ele>71.40000152587890625</ele>
        <time>2026-04-26T10:30:36.000Z</time>
        <extensions>
          <ns3:TrackPointExtension>
            <ns3:hr>106</ns3:hr>
          </ns3:TrackPointExtension>
        </extensions>
      </trkpt>
      <trkpt lat="59.083731360733509063720703125" lon="30.0751907564699649810791015625">
        <ele>71.40000152587890625</ele>
        <time>2026-04-26T10:30:42.000Z</time>
        <extensions>
          <ns3:TrackPointExtension>
            <ns3:hr>107</ns3:hr>
          </ns3:TrackPointExtension>
        </extensions>
      </trkpt>
      <trkpt lat="59.0837573446333408355712890625" lon="30.0751872360706329345703125">
        <ele>71.1999969482421875</ele>
        <time>2026-04-26T10:30:49.000Z</time>
        <extensions>
          <ns3:TrackPointExtension>
            <ns3:hr>108</ns3:hr>
          </ns3:TrackPointExtension>
        </extensions>
      </trkpt>
      <trkpt lat="59.0837610326707363128662109375" lon="30.07523794658482074737548828125">
        <ele>71.1999969482421875</ele>
        <time>2026-04-26T10:30:58.000Z</time>
        <extensions>
          <ns3:TrackPointExtension>
            <ns3:hr>106</ns3:hr>
          </ns3:TrackPointExtension>
        </extensions>
      </trkpt>
      <trkpt lat="59.0837536565959453582763671875" lon="30.0752467475831508636474609375">
        <ele>71.1999969482421875</ele>
        <time>2026-04-26T10:31:01.000Z</time>
        <extensions>
          <ns3:TrackPointExtension>
            <ns3:hr>102</ns3:hr>
          </ns3:TrackPointExtension>
        </extensions>
      </trkpt>
      <trkpt lat="59.08374384976923465728759765625" lon="30.0752289779484272003173828125">
        <ele>71.1999969482421875</ele>
        <time>2026-04-26T10:31:05.000Z</time>
        <extensions>
          <ns3:TrackPointExtension>
            <ns3:hr>101</ns3:hr>
          </ns3:TrackPointExtension>
        </extensions>
      </trkpt>
      <trkpt lat="59.08372725360095500946044921875" lon="30.0752678699791431427001953125">
        <ele>71</ele>
        <time>2026-04-26T10:31:12.000Z</time>
        <extensions>
          <ns3:TrackPointExtension>
            <ns3:hr>103</ns3:hr>
          </ns3:TrackPointExtension>
        </extensions>
      </trkpt>
      <trkpt lat="59.08374787308275699615478515625" lon="30.07522788830101490020751953125">
        <ele>71.40000152587890625</ele>
        <time>2026-04-26T10:31:19.000Z</time>
        <extensions>
          <ns3:TrackPointExtension>
            <ns3:hr>103</ns3:hr>
          </ns3:TrackPointExtension>
        </extensions>
      </trkpt>
      <trkpt lat="59.0837323665618896484375" lon="30.0752326659858226776123046875">
        <ele>71.1999969482421875</ele>
        <time>2026-04-26T10:31:26.000Z</time>
        <extensions>
          <ns3:TrackPointExtension>
            <ns3:hr>104</ns3:hr>
          </ns3:TrackPointExtension>
        </extensions>
      </trkpt>
      <trkpt lat="59.08372255973517894744873046875" lon="30.0752259604632854461669921875">
        <ele>71</ele>
        <time>2026-04-26T10:31:32.000Z</time>
        <extensions>
          <ns3:TrackPointExtension>
            <ns3:hr>105</ns3:hr>
          </ns3:TrackPointExtension>
        </extensions>
      </trkpt>
      <trkpt lat="59.0837345458567142486572265625" lon="30.07523476146161556243896484375">
        <ele>70.8000030517578125</ele>
        <time>2026-04-26T10:31:39.000Z</time>
        <extensions>
          <ns3:TrackPointExtension>
            <ns3:hr>105</ns3:hr>
          </ns3:TrackPointExtension>
        </extensions>
      </trkpt>
      <trkpt lat="59.08377536572515964508056640625" lon="30.07523543201386928558349609375">
        <ele>71</ele>
        <time>2026-04-26T10:31:45.000Z</time>
        <extensions>
          <ns3:TrackPointExtension>
            <ns3:hr>104</ns3:hr>
          </ns3:TrackPointExtension>
        </extensions>
      </trkpt>
      <trkpt lat="59.08376966603100299835205078125" lon="30.075273402035236358642578125">
        <ele>71</ele>
        <time>2026-04-26T10:31:54.000Z</time>
        <extensions>
          <ns3:TrackPointExtension>
            <ns3:hr>105</ns3:hr>
          </ns3:TrackPointExtension>
        </extensions>
      </trkpt>
      <trkpt lat="59.08376648090779781341552734375" lon="30.07524398155510425567626953125">
        <ele>71.1999969482421875</ele>
        <time>2026-04-26T10:32:02.000Z</time>
        <extensions>
          <ns3:TrackPointExtension>
            <ns3:hr>102</ns3:hr>
          </ns3:TrackPointExtension>
        </extensions>
      </trkpt>
      <trkpt lat="59.08376832492649555206298828125" lon="30.07523627020418643951416015625">
        <ele>71.1999969482421875</ele>
        <time>2026-04-26T10:32:03.000Z</time>
        <extensions>
          <ns3:TrackPointExtension>
            <ns3:hr>101</ns3:hr>
          </ns3:TrackPointExtension>
        </extensions>
      </trkpt>
      <trkpt lat="59.0837690792977809906005859375" lon="30.07522277534008026123046875">
        <ele>71</ele>
        <time>2026-04-26T10:32:09.000Z</time>
        <extensions>
          <ns3:TrackPointExtension>
            <ns3:hr>103</ns3:hr>
          </ns3:TrackPointExtension>
        </extensions>
      </trkpt>
      <trkpt lat="59.08375793136656284332275390625" lon="30.07522252388298511505126953125">
        <ele>70.8000030517578125</ele>
        <time>2026-04-26T10:32:16.000Z</time>
        <extensions>
          <ns3:TrackPointExtension>
            <ns3:hr>104</ns3:hr>
          </ns3:TrackPointExtension>
        </extensions>
      </trkpt>
      <trkpt lat="59.08375608734786510467529296875" lon="30.0752249546349048614501953125">
        <ele>71</ele>
        <time>2026-04-26T10:32:23.000Z</time>
        <extensions>
          <ns3:TrackPointExtension>
            <ns3:hr>104</ns3:hr>
          </ns3:TrackPointExtension>
        </extensions>
      </trkpt>
      <trkpt lat="59.08375575207173824310302734375" lon="30.07522403262555599212646484375">
        <ele>71.1999969482421875</ele>
        <time>2026-04-26T10:32:30.000Z</time>
        <extensions>
          <ns3:TrackPointExtension>
            <ns3:hr>104</ns3:hr>
          </ns3:TrackPointExtension>
        </extensions>
      </trkpt>
      <trkpt lat="59.0837538242340087890625" lon="30.0752564705908298492431640625">
        <ele>71.1999969482421875</ele>
        <time>2026-04-26T10:32:32.000Z</time>
        <extensions>
          <ns3:TrackPointExtension>
            <ns3:hr>101</ns3:hr>
          </ns3:TrackPointExtension>
        </extensions>
      </trkpt>
      <trkpt lat="59.08373479731380939483642578125" lon="30.07524448446929454803466796875">
        <ele>71.1999969482421875</ele>
        <time>2026-04-26T10:32:36.000Z</time>
        <extensions>
          <ns3:TrackPointExtension>
            <ns3:hr>100</ns3:hr>
          </ns3:TrackPointExtension>
        </extensions>
      </trkpt>
      <trkpt lat="59.08375256694853305816650390625" lon="30.0752011500298976898193359375">
        <ele>71</ele>
        <time>2026-04-26T10:32:41.000Z</time>
        <extensions>
          <ns3:TrackPointExtension>
            <ns3:hr>100</ns3:hr>
          </ns3:TrackPointExtension>
        </extensions>
      </trkpt>
      <trkpt lat="59.083717279136180877685546875" lon="30.0751156546175479888916015625">
        <ele>71</ele>
        <time>2026-04-26T10:32:50.000Z</time>
        <extensions>
          <ns3:TrackPointExtension>
            <ns3:hr>100</ns3:hr>
          </ns3:TrackPointExtension>
        </extensions>
      </trkpt>
      <trkpt lat="59.0837161056697368621826171875" lon="30.075065195560455322265625">
        <ele>71.1999969482421875</ele>
        <time>2026-04-26T10:33:00.000Z</time>
        <extensions>
          <ns3:TrackPointExtension>
            <ns3:hr>101</ns3:hr>
          </ns3:TrackPointExtension>
        </extensions>
      </trkpt>
      <trkpt lat="59.08374644815921783447265625" lon="30.07501465268433094024658203125">
        <ele>71.59999847412109375</ele>
        <time>2026-04-26T10:33:05.000Z</time>
        <extensions>
          <ns3:TrackPointExtension>
            <ns3:hr>102</ns3:hr>
          </ns3:TrackPointExtension>
        </extensions>
      </trkpt>
      <trkpt lat="59.0837962366640567779541015625" lon="30.07499068044126033782958984375">
        <ele>70.59999847412109375</ele>
        <time>2026-04-26T10:33:11.000Z</time>
        <extensions>
          <ns3:TrackPointExtension>
            <ns3:hr>103</ns3:hr>
          </ns3:TrackPointExtension>
        </extensions>
      </trkpt>
      <trkpt lat="59.0838022716343402862548828125" lon="30.0750187598168849945068359375">
        <ele>70.59999847412109375</ele>
        <time>2026-04-26T10:33:18.000Z</time>
        <extensions>
          <ns3:TrackPointExtension>
            <ns3:hr>103</ns3:hr>
          </ns3:TrackPointExtension>
        </extensions>
      </trkpt>
      <trkpt lat="59.083795063197612762451171875" lon="30.07511414587497711181640625">
        <ele>71.1999969482421875</ele>
        <time>2026-04-26T10:33:24.000Z</time>
        <extensions>
          <ns3:TrackPointExtension>
            <ns3:hr>101</ns3:hr>
          </ns3:TrackPointExtension>
        </extensions>
      </trkpt>
      <trkpt lat="59.08380168490111827850341796875" lon="30.0751220248639583587646484375">
        <ele>71.40000152587890625</ele>
        <time>2026-04-26T10:33:27.000Z</time>
        <extensions>
          <ns3:TrackPointExtension>
            <ns3:hr>104</ns3:hr>
          </ns3:TrackPointExtension>
        </extensions>
      </trkpt>
      <trkpt lat="59.0838106535375118255615234375" lon="30.07508254610002040863037109375">
        <ele>71.1999969482421875</ele>
        <time>2026-04-26T10:33:31.000Z</time>
        <extensions>
          <ns3:TrackPointExtension>
            <ns3:hr>106</ns3:hr>
          </ns3:TrackPointExtension>
        </extensions>
      </trkpt>
      <trkpt lat="59.08379682339727878570556640625" lon="30.0751629285514354705810546875">
        <ele>71</ele>
        <time>2026-04-26T10:33:39.000Z</time>
        <extensions>
          <ns3:TrackPointExtension>
            <ns3:hr>106</ns3:hr>
          </ns3:TrackPointExtension>
        </extensions>
      </trkpt>
      <trkpt lat="59.08379732631146907806396484375" lon="30.0751874037086963653564453125">
        <ele>71.1999969482421875</ele>
        <time>2026-04-26T10:33:47.000Z</time>
        <extensions>
          <ns3:TrackPointExtension>
            <ns3:hr>108</ns3:hr>
          </ns3:TrackPointExtension>
        </extensions>
      </trkpt>
      <trkpt lat="59.0837875194847583770751953125" lon="30.07518463768064975738525390625">
        <ele>70.8000030517578125</ele>
        <time>2026-04-26T10:33:54.000Z</time>
        <extensions>
          <ns3:TrackPointExtension>
            <ns3:hr>105</ns3:hr>
          </ns3:TrackPointExtension>
        </extensions>
      </trkpt>
      <trkpt lat="59.08377586863934993743896484375" lon="30.0751773454248905181884765625">
        <ele>71.1999969482421875</ele>
        <time>2026-04-26T10:34:03.000Z</time>
        <extensions>
          <ns3:TrackPointExtension>
            <ns3:hr>107</ns3:hr>
          </ns3:TrackPointExtension>
        </extensions>
      </trkpt>
      <trkpt lat="59.083783663809299468994140625" lon="30.07519327104091644287109375">
        <ele>71</ele>
        <time>2026-04-26T10:34:09.000Z</time>
        <extensions>
          <ns3:TrackPointExtension>
            <ns3:hr>107</ns3:hr>
          </ns3:TrackPointExtension>
        </extensions>
      </trkpt>
      <trkpt lat="59.08375642262399196624755859375" lon="30.0752195902168750762939453125">
        <ele>71</ele>
        <time>2026-04-26T10:34:15.000Z</time>
        <extensions>
          <ns3:TrackPointExtension>
            <ns3:hr>104</ns3:hr>
          </ns3:TrackPointExtension>
        </extensions>
      </trkpt>
      <trkpt lat="59.08371283672749996185302734375" lon="30.07525630295276641845703125">
        <ele>70.8000030517578125</ele>
        <time>2026-04-26T10:34:21.000Z</time>
        <extensions>
          <ns3:TrackPointExtension>
            <ns3:hr>104</ns3:hr>
          </ns3:TrackPointExtension>
        </extensions>
      </trkpt>
      <trkpt lat="59.08371962606906890869140625" lon="30.0752837955951690673828125">
        <ele>71</ele>
        <time>2026-04-26T10:34:28.000Z</time>
        <extensions>
          <ns3:TrackPointExtension>
            <ns3:hr>103</ns3:hr>
          </ns3:TrackPointExtension>
        </extensions>
      </trkpt>
      <trkpt lat="59.083702526986598968505859375" lon="30.075298883020877838134765625">
        <ele>70.8000030517578125</ele>
        <time>2026-04-26T10:34:32.000Z</time>
        <extensions>
          <ns3:TrackPointExtension>
            <ns3:hr>103</ns3:hr>
          </ns3:TrackPointExtension>
        </extensions>
      </trkpt>
      <trkpt lat="59.083705209195613861083984375" lon="30.07531589828431606292724609375">
        <ele>71</ele>
        <time>2026-04-26T10:34:34.000Z</time>
        <extensions>
          <ns3:TrackPointExtension>
            <ns3:hr>103</ns3:hr>
          </ns3:TrackPointExtension>
        </extensions>
      </trkpt>
      <trkpt lat="59.0837122499942779541015625" lon="30.0753025710582733154296875">
        <ele>71</ele>
        <time>2026-04-26T10:34:41.000Z</time>
        <extensions>
          <ns3:TrackPointExtension>
            <ns3:hr>103</ns3:hr>
          </ns3:TrackPointExtension>
        </extensions>
      </trkpt>
      <trkpt lat="59.08370445482432842254638671875" lon="30.075302235782146453857421875">
        <ele>70.8000030517578125</ele>
        <time>2026-04-26T10:34:50.000Z</time>
        <extensions>
          <ns3:TrackPointExtension>
            <ns3:hr>105</ns3:hr>
          </ns3:TrackPointExtension>
        </extensions>
      </trkpt>
      <trkpt lat="59.08368081785738468170166015625" lon="30.0753697939217090606689453125">
        <ele>70.8000030517578125</ele>
        <time>2026-04-26T10:34:56.000Z</time>
        <extensions>
          <ns3:TrackPointExtension>
            <ns3:hr>104</ns3:hr>
          </ns3:TrackPointExtension>
        </extensions>
      </trkpt>
      <trkpt lat="59.08364209346473217010498046875" lon="30.0753738172352313995361328125">
        <ele>70.8000030517578125</ele>
        <time>2026-04-26T10:35:01.000Z</time>
        <extensions>
          <ns3:TrackPointExtension>
            <ns3:hr>104</ns3:hr>
          </ns3:TrackPointExtension>
        </extensions>
      </trkpt>
      <trkpt lat="59.083611331880092620849609375" lon="30.07540608756244182586669921875">
        <ele>71</ele>
        <time>2026-04-26T10:35:06.000Z</time>
        <extensions>
          <ns3:TrackPointExtension>
            <ns3:hr>101</ns3:hr>
          </ns3:TrackPointExtension>
        </extensions>
      </trkpt>
      <trkpt lat="59.08360940404236316680908203125" lon="30.0754190795123577117919921875">
        <ele>71</ele>
        <time>2026-04-26T10:35:07.000Z</time>
        <extensions>
          <ns3:TrackPointExtension>
            <ns3:hr>100</ns3:hr>
          </ns3:TrackPointExtension>
        </extensions>
      </trkpt>
      <trkpt lat="59.0835863538086414337158203125" lon="30.07544011808931827545166015625">
        <ele>70.8000030517578125</ele>
        <time>2026-04-26T10:35:10.000Z</time>
        <extensions>
          <ns3:TrackPointExtension>
            <ns3:hr>103</ns3:hr>
          </ns3:TrackPointExtension>
        </extensions>
      </trkpt>
      <trkpt lat="59.0835808217525482177734375" lon="30.0754549540579319000244140625">
        <ele>70.8000030517578125</ele>
        <time>2026-04-26T10:35:11.000Z</time>
        <extensions>
          <ns3:TrackPointExtension>
            <ns3:hr>102</ns3:hr>
          </ns3:TrackPointExtension>
        </extensions>
      </trkpt>
      <trkpt lat="59.0835551731288433074951171875" lon="30.07550616748631000518798828125">
        <ele>70.8000030517578125</ele>
        <time>2026-04-26T10:35:15.000Z</time>
        <extensions>
          <ns3:TrackPointExtension>
            <ns3:hr>104</ns3:hr>
          </ns3:TrackPointExtension>
        </extensions>
      </trkpt>
      <trkpt lat="59.08354503102600574493408203125" lon="30.0755230151116847991943359375">
        <ele>70.8000030517578125</ele>
        <time>2026-04-26T10:35:17.000Z</time>
        <extensions>
          <ns3:TrackPointExtension>
            <ns3:hr>103</ns3:hr>
          </ns3:TrackPointExtension>
        </extensions>
      </trkpt>
      <trkpt lat="59.0835313685238361358642578125" lon="30.075533576309680938720703125">
        <ele>71</ele>
        <time>2026-04-26T10:35:23.000Z</time>
        <extensions>
          <ns3:TrackPointExtension>
            <ns3:hr>104</ns3:hr>
          </ns3:TrackPointExtension>
        </extensions>
      </trkpt>
      <trkpt lat="59.083502031862735748291015625" lon="30.07561303675174713134765625">
        <ele>71</ele>
        <time>2026-04-26T10:35:29.000Z</time>
        <extensions>
          <ns3:TrackPointExtension>
            <ns3:hr>105</ns3:hr>
          </ns3:TrackPointExtension>
        </extensions>
      </trkpt>
      <trkpt lat="59.083438329398632049560546875" lon="30.0757102668285369873046875">
        <ele>71</ele>
        <time>2026-04-26T10:35:36.000Z</time>
        <extensions>
          <ns3:TrackPointExtension>
            <ns3:hr>103</ns3:hr>
          </ns3:TrackPointExtension>
        </extensions>
      </trkpt>
      <trkpt lat="59.08343103714287281036376953125" lon="30.07572242058813571929931640625">
        <ele>71</ele>
        <time>2026-04-26T10:35:38.000Z</time>
        <extensions>
          <ns3:TrackPointExtension>
            <ns3:hr>99</ns3:hr>
          </ns3:TrackPointExtension>
        </extensions>
      </trkpt>
      <trkpt lat="59.08340320922434329986572265625" lon="30.075765587389469146728515625">
        <ele>71.1999969482421875</ele>
        <time>2026-04-26T10:35:41.000Z</time>
        <extensions>
          <ns3:TrackPointExtension>
            <ns3:hr>101</ns3:hr>
          </ns3:TrackPointExtension>
        </extensions>
      </trkpt>
      <trkpt lat="59.0833744592964649200439453125" lon="30.075822584331035614013671875">
        <ele>71.1999969482421875</ele>
        <time>2026-04-26T10:35:46.000Z</time>
        <extensions>
          <ns3:TrackPointExtension>
            <ns3:hr>105</ns3:hr>
          </ns3:TrackPointExtension>
        </extensions>
      </trkpt>
      <trkpt lat="59.083340428769588470458984375" lon="30.07585334591567516326904296875">
        <ele>71</ele>
        <time>2026-04-26T10:35:50.000Z</time>
        <extensions>
          <ns3:TrackPointExtension>
            <ns3:hr>108</ns3:hr>
          </ns3:TrackPointExtension>
        </extensions>
      </trkpt>
      <trkpt lat="59.0833241678774356842041015625" lon="30.07587916217744350433349609375">
        <ele>71.1999969482421875</ele>
        <time>2026-04-26T10:35:52.000Z</time>
        <extensions>
          <ns3:TrackPointExtension>
            <ns3:hr>109</ns3:hr>
          </ns3:TrackPointExtension>
        </extensions>
      </trkpt>
      <trkpt lat="59.08328686840832233428955078125" lon="30.07592149078845977783203125">
        <ele>71.1999969482421875</ele>
        <time>2026-04-26T10:35:57.000Z</time>
        <extensions>
          <ns3:TrackPointExtension>
            <ns3:hr>110</ns3:hr>
          </ns3:TrackPointExtension>
        </extensions>
      </trkpt>
      <trkpt lat="59.08325267024338245391845703125" lon="30.07594923488795757293701171875">
        <ele>71.59999847412109375</ele>
        <time>2026-04-26T10:36:02.000Z</time>
        <extensions>
          <ns3:TrackPointExtension>
            <ns3:hr>108</ns3:hr>
          </ns3:TrackPointExtension>
        </extensions>
      </trkpt>
      <trkpt lat="59.0832430310547351837158203125" lon="30.07598008029162883758544921875">
        <ele>71.59999847412109375</ele>
        <time>2026-04-26T10:36:04.000Z</time>
        <extensions>
          <ns3:TrackPointExtension>
            <ns3:hr>105</ns3:hr>
          </ns3:TrackPointExtension>
        </extensions>
      </trkpt>
      <trkpt lat="59.0832286141812801361083984375" lon="30.0760004483163356781005859375">
        <ele>71.40000152587890625</ele>
        <time>2026-04-26T10:36:06.000Z</time>
        <extensions>
          <ns3:TrackPointExtension>
            <ns3:hr>101</ns3:hr>
          </ns3:TrackPointExtension>
        </extensions>
      </trkpt>
      <trkpt lat="59.0832240879535675048828125" lon="30.07601880468428134918212890625">
        <ele>71.40000152587890625</ele>
        <time>2026-04-26T10:36:07.000Z</time>
        <extensions>
          <ns3:TrackPointExtension>
            <ns3:hr>97</ns3:hr>
          </ns3:TrackPointExtension>
        </extensions>
      </trkpt>
      <trkpt lat="59.08321662805974483489990234375" lon="30.07602551020681858062744140625">
        <ele>71.1999969482421875</ele>
        <time>2026-04-26T10:36:08.000Z</time>
        <extensions>
          <ns3:TrackPointExtension>
            <ns3:hr>101</ns3:hr>
          </ns3:TrackPointExtension>
        </extensions>
      </trkpt>
      <trkpt lat="59.083214364945888519287109375" lon="30.07602634839713573455810546875">
        <ele>71.1999969482421875</ele>
        <time>2026-04-26T10:36:09.000Z</time>
        <extensions>
          <ns3:TrackPointExtension>
            <ns3:hr>106</ns3:hr>
          </ns3:TrackPointExtension>
        </extensions>
      </trkpt>
      <trkpt lat="59.0832101739943027496337890625" lon="30.07603389210999011993408203125">
        <ele>71.1999969482421875</ele>
        <time>2026-04-26T10:36:10.000Z</time>
        <extensions>
          <ns3:TrackPointExtension>
            <ns3:hr>109</ns3:hr>
          </ns3:TrackPointExtension>
        </extensions>
      </trkpt>
      <trkpt lat="59.083203636109828948974609375" lon="30.07604931481182575225830078125">
        <ele>71.1999969482421875</ele>
        <time>2026-04-26T10:36:11.000Z</time>
        <extensions>
          <ns3:TrackPointExtension>
            <ns3:hr>111</ns3:hr>
          </ns3:TrackPointExtension>
        </extensions>
      </trkpt>
      <trkpt lat="59.08319181762635707855224609375" lon="30.0760554336011409759521484375">
        <ele>71.40000152587890625</ele>
        <time>2026-04-26T10:36:12.000Z</time>
        <extensions>
          <ns3:TrackPointExtension>
            <ns3:hr>111</ns3:hr>
          </ns3:TrackPointExtension>
        </extensions>
      </trkpt>
      <trkpt lat="59.08317052759230136871337890625" lon="30.07609323598444461822509765625">
        <ele>71.59999847412109375</ele>
        <time>2026-04-26T10:36:16.000Z</time>
        <extensions>
          <ns3:TrackPointExtension>
            <ns3:hr>113</ns3:hr>
          </ns3:TrackPointExtension>
        </extensions>
      </trkpt>
      <trkpt lat="59.08316298387944698333740234375" lon="30.0761214829981327056884765625">
        <ele>71.59999847412109375</ele>
        <time>2026-04-26T10:36:18.000Z</time>
        <extensions>
          <ns3:TrackPointExtension>
            <ns3:hr>113</ns3:hr>
          </ns3:TrackPointExtension>
        </extensions>
      </trkpt>
      <trkpt lat="59.0831555239856243133544921875" lon="30.07612843997776508331298828125">
        <ele>71.40000152587890625</ele>
        <time>2026-04-26T10:36:20.000Z</time>
        <extensions>
          <ns3:TrackPointExtension>
            <ns3:hr>113</ns3:hr>
          </ns3:TrackPointExtension>
        </extensions>
      </trkpt>
      <trkpt lat="59.0831052325665950775146484375" lon="30.07614620961248874664306640625">
        <ele>71.40000152587890625</ele>
        <time>2026-04-26T10:36:25.000Z</time>
        <extensions>
          <ns3:TrackPointExtension>
            <ns3:hr>114</ns3:hr>
          </ns3:TrackPointExtension>
        </extensions>
      </trkpt>
      <trkpt lat="59.08307363279163837432861328125" lon="30.076200775802135467529296875">
        <ele>71.59999847412109375</ele>
        <time>2026-04-26T10:36:30.000Z</time>
        <extensions>
          <ns3:TrackPointExtension>
            <ns3:hr>114</ns3:hr>
          </ns3:TrackPointExtension>
        </extensions>
      </trkpt>
      <trkpt lat="59.08302225172519683837890625" lon="30.076281242072582244873046875">
        <ele>71.59999847412109375</ele>
        <time>2026-04-26T10:36:35.000Z</time>
        <extensions>
          <ns3:TrackPointExtension>
            <ns3:hr>113</ns3:hr>
          </ns3:TrackPointExtension>
        </extensions>
      </trkpt>
      <trkpt lat="59.0829825215041637420654296875" lon="30.076322816312313079833984375">
        <ele>71.8000030517578125</ele>
        <time>2026-04-26T10:36:39.000Z</time>
        <extensions>
          <ns3:TrackPointExtension>
            <ns3:hr>112</ns3:hr>
          </ns3:TrackPointExtension>
        </extensions>
      </trkpt>
      <trkpt lat="59.08295108936727046966552734375" lon="30.07638844661414623260498046875">
        <ele>71.8000030517578125</ele>
        <time>2026-04-26T10:36:44.000Z</time>
        <extensions>
          <ns3:TrackPointExtension>
            <ns3:hr>112</ns3:hr>
          </ns3:TrackPointExtension>
        </extensions>
      </trkpt>
      <trkpt lat="59.08292678184807300567626953125" lon="30.076399929821491241455078125">
        <ele>71.8000030517578125</ele>
        <time>2026-04-26T10:36:48.000Z</time>
        <extensions>
          <ns3:TrackPointExtension>
            <ns3:hr>112</ns3:hr>
          </ns3:TrackPointExtension>
        </extensions>
      </trkpt>
      <trkpt lat="59.08289484679698944091796875" lon="30.07644561119377613067626953125">
        <ele>71.8000030517578125</ele>
        <time>2026-04-26T10:36:53.000Z</time>
        <extensions>
          <ns3:TrackPointExtension>
            <ns3:hr>112</ns3:hr>
          </ns3:TrackPointExtension>
        </extensions>
      </trkpt>
      <trkpt lat="59.08287380822002887725830078125" lon="30.07648701779544353485107421875">
        <ele>71.8000030517578125</ele>
        <time>2026-04-26T10:36:55.000Z</time>
        <extensions>
          <ns3:TrackPointExtension>
            <ns3:hr>109</ns3:hr>
          </ns3:TrackPointExtension>
        </extensions>
      </trkpt>
      <trkpt lat="59.08285863697528839111328125" lon="30.076508224010467529296875">
        <ele>71.8000030517578125</ele>
        <time>2026-04-26T10:36:58.000Z</time>
        <extensions>
          <ns3:TrackPointExtension>
            <ns3:hr>110</ns3:hr>
          </ns3:TrackPointExtension>
        </extensions>
      </trkpt>
      <trkpt lat="59.08286073245108127593994140625" lon="30.07655541412532329559326171875">
        <ele>72</ele>
        <time>2026-04-26T10:37:04.000Z</time>
        <extensions>
          <ns3:TrackPointExtension>
            <ns3:hr>118</ns3:hr>
          </ns3:TrackPointExtension>
        </extensions>
      </trkpt>
      <trkpt lat="59.08285167999565601348876953125" lon="30.07654108107089996337890625">
        <ele>72</ele>
        <time>2026-04-26T10:37:05.000Z</time>
        <extensions>
          <ns3:TrackPointExtension>
            <ns3:hr>116</ns3:hr>
          </ns3:TrackPointExtension>
        </extensions>
      </trkpt>
      <trkpt lat="59.0828246064484119415283203125" lon="30.07654904387891292572021484375">
        <ele>72</ele>
        <time>2026-04-26T10:37:08.000Z</time>
        <extensions>
          <ns3:TrackPointExtension>
            <ns3:hr>113</ns3:hr>
          </ns3:TrackPointExtension>
        </extensions>
      </trkpt>
      <trkpt lat="59.082822762429714202880859375" lon="30.07654518820345401763916015625">
        <ele>72</ele>
        <time>2026-04-26T10:37:09.000Z</time>
        <extensions>
          <ns3:TrackPointExtension>
            <ns3:hr>113</ns3:hr>
          </ns3:TrackPointExtension>
        </extensions>
      </trkpt>
      <trkpt lat="59.0828101895749568939208984375" lon="30.0765395723283290863037109375">
        <ele>72</ele>
        <time>2026-04-26T10:37:11.000Z</time>
        <extensions>
          <ns3:TrackPointExtension>
            <ns3:hr>113</ns3:hr>
          </ns3:TrackPointExtension>
        </extensions>
      </trkpt>
      <trkpt lat="59.08280138857662677764892578125" lon="30.0765492953360080718994140625">
        <ele>72</ele>
        <time>2026-04-26T10:37:13.000Z</time>
        <extensions>
          <ns3:TrackPointExtension>
            <ns3:hr>112</ns3:hr>
          </ns3:TrackPointExtension>
        </extensions>
      </trkpt>
      <trkpt lat="59.0828101895749568939208984375" lon="30.07657536305487155914306640625">
        <ele>71.8000030517578125</ele>
        <time>2026-04-26T10:37:17.000Z</time>
        <extensions>
          <ns3:TrackPointExtension>
            <ns3:hr>110</ns3:hr>
          </ns3:TrackPointExtension>
        </extensions>
      </trkpt>
      <trkpt lat="59.0827997960150241851806640625" lon="30.07655139081180095672607421875">
        <ele>71.8000030517578125</ele>
        <time>2026-04-26T10:37:23.000Z</time>
        <extensions>
          <ns3:TrackPointExtension>
            <ns3:hr>110</ns3:hr>
          </ns3:TrackPointExtension>
        </extensions>
      </trkpt>
      <trkpt lat="59.08279015682637691497802734375" lon="30.0765171088278293609619140625">
        <ele>71.40000152587890625</ele>
        <time>2026-04-26T10:37:30.000Z</time>
        <extensions>
          <ns3:TrackPointExtension>
            <ns3:hr>110</ns3:hr>
          </ns3:TrackPointExtension>
        </extensions>
      </trkpt>
      <trkpt lat="59.08281228505074977874755859375" lon="30.07651199586689472198486328125">
        <ele>71.1999969482421875</ele>
        <time>2026-04-26T10:37:32.000Z</time>
        <extensions>
          <ns3:TrackPointExtension>
            <ns3:hr>110</ns3:hr>
          </ns3:TrackPointExtension>
        </extensions>
      </trkpt>
      <trkpt lat="59.08280490897595882415771484375" lon="30.076552815735340118408203125">
        <ele>71.40000152587890625</ele>
        <time>2026-04-26T10:37:34.000Z</time>
        <extensions>
          <ns3:TrackPointExtension>
            <ns3:hr>110</ns3:hr>
          </ns3:TrackPointExtension>
        </extensions>
      </trkpt>
      <trkpt lat="59.08278755843639373779296875" lon="30.07660754956305027008056640625">
        <ele>72</ele>
        <time>2026-04-26T10:37:38.000Z</time>
        <extensions>
          <ns3:TrackPointExtension>
            <ns3:hr>109</ns3:hr>
          </ns3:TrackPointExtension>
        </extensions>
      </trkpt>
      <trkpt lat="59.08276098780333995819091796875" lon="30.07663973607122898101806640625">
        <ele>72.1999969482421875</ele>
        <time>2026-04-26T10:37:42.000Z</time>
        <extensions>
          <ns3:TrackPointExtension>
            <ns3:hr>106</ns3:hr>
          </ns3:TrackPointExtension>
        </extensions>
      </trkpt>
      <trkpt lat="59.0827548690140247344970703125" lon="30.0766463577747344970703125">
        <ele>72.1999969482421875</ele>
        <time>2026-04-26T10:37:43.000Z</time>
        <extensions>
          <ns3:TrackPointExtension>
            <ns3:hr>106</ns3:hr>
          </ns3:TrackPointExtension>
        </extensions>
      </trkpt>
      <trkpt lat="59.08271891064941883087158203125" lon="30.07668131031095981597900390625">
        <ele>72.40000152587890625</ele>
        <time>2026-04-26T10:37:48.000Z</time>
        <extensions>
          <ns3:TrackPointExtension>
            <ns3:hr>105</ns3:hr>
          </ns3:TrackPointExtension>
        </extensions>
      </trkpt>
      <trkpt lat="59.08269963227212429046630859375" lon="30.07671265862882137298583984375">
        <ele>72.40000152587890625</ele>
        <time>2026-04-26T10:37:51.000Z</time>
        <extensions>
          <ns3:TrackPointExtension>
            <ns3:hr>102</ns3:hr>
          </ns3:TrackPointExtension>
        </extensions>
      </trkpt>
      <trkpt lat="59.08268772996962070465087890625" lon="30.07673847489058971405029296875">
        <ele>72.59999847412109375</ele>
        <time>2026-04-26T10:37:53.000Z</time>
        <extensions>
          <ns3:TrackPointExtension>
            <ns3:hr>102</ns3:hr>
          </ns3:TrackPointExtension>
        </extensions>
      </trkpt>
      <trkpt lat="59.0826690383255481719970703125" lon="30.076787509024143218994140625">
        <ele>72.40000152587890625</ele>
        <time>2026-04-26T10:37:59.000Z</time>
        <extensions>
          <ns3:TrackPointExtension>
            <ns3:hr>103</ns3:hr>
          </ns3:TrackPointExtension>
        </extensions>
      </trkpt>
      <trkpt lat="59.08264548517763614654541015625" lon="30.07684341631829738616943359375">
        <ele>72.40000152587890625</ele>
        <time>2026-04-26T10:38:05.000Z</time>
        <extensions>
          <ns3:TrackPointExtension>
            <ns3:hr>101</ns3:hr>
          </ns3:TrackPointExtension>
        </extensions>
      </trkpt>
      <trkpt lat="59.0826237760484218597412109375" lon="30.076839812099933624267578125">
        <ele>72.1999969482421875</ele>
        <time>2026-04-26T10:38:10.000Z</time>
        <extensions>
          <ns3:TrackPointExtension>
            <ns3:hr>100</ns3:hr>
          </ns3:TrackPointExtension>
        </extensions>
      </trkpt>
      <trkpt lat="59.08259100280702114105224609375" lon="30.07681089453399181365966796875">
        <ele>72.1999969482421875</ele>
        <time>2026-04-26T10:38:15.000Z</time>
        <extensions>
          <ns3:TrackPointExtension>
            <ns3:hr>101</ns3:hr>
          </ns3:TrackPointExtension>
        </extensions>
      </trkpt>
      <trkpt lat="59.08256636001169681549072265625" lon="30.0768010877072811126708984375">
        <ele>71.59999847412109375</ele>
        <time>2026-04-26T10:38:22.000Z</time>
        <extensions>
          <ns3:TrackPointExtension>
            <ns3:hr>96</ns3:hr>
          </ns3:TrackPointExtension>
        </extensions>
      </trkpt>
      <trkpt lat="59.08256920985877513885498046875" lon="30.07680033333599567413330078125">
        <ele>71.8000030517578125</ele>
        <time>2026-04-26T10:38:23.000Z</time>
        <extensions>
          <ns3:TrackPointExtension>
            <ns3:hr>97</ns3:hr>
          </ns3:TrackPointExtension>
        </extensions>
      </trkpt>
      <trkpt lat="59.08257105387747287750244140625" lon="30.07680284790694713592529296875">
        <ele>71.8000030517578125</ele>
        <time>2026-04-26T10:38:24.000Z</time>
        <extensions>
          <ns3:TrackPointExtension>
            <ns3:hr>98</ns3:hr>
          </ns3:TrackPointExtension>
        </extensions>
      </trkpt>
      <trkpt lat="59.0825842134654521942138671875" lon="30.07681198418140411376953125">
        <ele>72</ele>
        <time>2026-04-26T10:38:30.000Z</time>
        <extensions>
          <ns3:TrackPointExtension>
            <ns3:hr>101</ns3:hr>
          </ns3:TrackPointExtension>
        </extensions>
      </trkpt>
      <trkpt lat="59.082577340304851531982421875" lon="30.07682749070227146148681640625">
        <ele>72.1999969482421875</ele>
        <time>2026-04-26T10:38:31.000Z</time>
        <extensions>
          <ns3:TrackPointExtension>
            <ns3:hr>101</ns3:hr>
          </ns3:TrackPointExtension>
        </extensions>
      </trkpt>
      <trkpt lat="59.08258597366511821746826171875" lon="30.07688297890126705169677734375">
        <ele>72.40000152587890625</ele>
        <time>2026-04-26T10:38:35.000Z</time>
        <extensions>
          <ns3:TrackPointExtension>
            <ns3:hr>103</ns3:hr>
          </ns3:TrackPointExtension>
        </extensions>
      </trkpt>
      <trkpt lat="59.082578681409358978271484375" lon="30.07693746127188205718994140625">
        <ele>72.1999969482421875</ele>
        <time>2026-04-26T10:38:39.000Z</time>
        <extensions>
          <ns3:TrackPointExtension>
            <ns3:hr>106</ns3:hr>
          </ns3:TrackPointExtension>
        </extensions>
      </trkpt>
      <trkpt lat="59.08258077688515186309814453125" lon="30.07694332860410213470458984375">
        <ele>72.1999969482421875</ele>
        <time>2026-04-26T10:38:40.000Z</time>
        <extensions>
          <ns3:TrackPointExtension>
            <ns3:hr>106</ns3:hr>
          </ns3:TrackPointExtension>
        </extensions>
      </trkpt>
      <trkpt lat="59.08256434835493564605712890625" lon="30.07694986648857593536376953125">
        <ele>72.1999969482421875</ele>
        <time>2026-04-26T10:38:43.000Z</time>
        <extensions>
          <ns3:TrackPointExtension>
            <ns3:hr>103</ns3:hr>
          </ns3:TrackPointExtension>
        </extensions>
      </trkpt>
      <trkpt lat="59.0825443156063556671142578125" lon="30.076980628073215484619140625">
        <ele>72.1999969482421875</ele>
        <time>2026-04-26T10:38:46.000Z</time>
        <extensions>
          <ns3:TrackPointExtension>
            <ns3:hr>103</ns3:hr>
          </ns3:TrackPointExtension>
        </extensions>
      </trkpt>
      <trkpt lat="59.08252344466745853424072265625" lon="30.07701591588556766510009765625">
        <ele>72.1999969482421875</ele>
        <time>2026-04-26T10:38:48.000Z</time>
        <extensions>
          <ns3:TrackPointExtension>
            <ns3:hr>102</ns3:hr>
          </ns3:TrackPointExtension>
        </extensions>
      </trkpt>
      <trkpt lat="59.0825000591576099395751953125" lon="30.07703955285251140594482421875">
        <ele>72</ele>
        <time>2026-04-26T10:38:51.000Z</time>
        <extensions>
          <ns3:TrackPointExtension>
            <ns3:hr>103</ns3:hr>
          </ns3:TrackPointExtension>
        </extensions>
      </trkpt>
      <trkpt lat="59.08248270861804485321044921875" lon="30.07708556950092315673828125">
        <ele>72.1999969482421875</ele>
        <time>2026-04-26T10:38:57.000Z</time>
        <extensions>
          <ns3:TrackPointExtension>
            <ns3:hr>103</ns3:hr>
          </ns3:TrackPointExtension>
        </extensions>
      </trkpt>
      <trkpt lat="59.0824457444250583648681640625" lon="30.0771085359156131744384765625">
        <ele>72.1999969482421875</ele>
        <time>2026-04-26T10:39:03.000Z</time>
        <extensions>
          <ns3:TrackPointExtension>
            <ns3:hr>103</ns3:hr>
          </ns3:TrackPointExtension>
        </extensions>
      </trkpt>
      <trkpt lat="59.08241917379200458526611328125" lon="30.07710962556302547454833984375">
        <ele>72.40000152587890625</ele>
        <time>2026-04-26T10:39:08.000Z</time>
        <extensions>
          <ns3:TrackPointExtension>
            <ns3:hr>104</ns3:hr>
          </ns3:TrackPointExtension>
        </extensions>
      </trkpt>
      <trkpt lat="59.08241330645978450775146484375" lon="30.077136866748332977294921875">
        <ele>72.1999969482421875</ele>
        <time>2026-04-26T10:39:14.000Z</time>
        <extensions>
          <ns3:TrackPointExtension>
            <ns3:hr>106</ns3:hr>
          </ns3:TrackPointExtension>
        </extensions>
      </trkpt>
      <trkpt lat="59.08236435614526271820068359375" lon="30.0771789439022541046142578125">
        <ele>72.40000152587890625</ele>
        <time>2026-04-26T10:39:19.000Z</time>
        <extensions>
          <ns3:TrackPointExtension>
            <ns3:hr>105</ns3:hr>
          </ns3:TrackPointExtension>
        </extensions>
      </trkpt>
      <trkpt lat="59.08232479356229305267333984375" lon="30.07723099552094936370849609375">
        <ele>72.40000152587890625</ele>
        <time>2026-04-26T10:39:24.000Z</time>
        <extensions>
          <ns3:TrackPointExtension>
            <ns3:hr>106</ns3:hr>
          </ns3:TrackPointExtension>
        </extensions>
      </trkpt>
      <trkpt lat="59.082299731671810150146484375" lon="30.077254213392734527587890625">
        <ele>72.40000152587890625</ele>
        <time>2026-04-26T10:39:26.000Z</time>
        <extensions>
          <ns3:TrackPointExtension>
            <ns3:hr>103</ns3:hr>
          </ns3:TrackPointExtension>
        </extensions>
      </trkpt>
      <trkpt lat="59.08229076303541660308837890625" lon="30.077283382415771484375">
        <ele>72.40000152587890625</ele>
        <time>2026-04-26T10:39:28.000Z</time>
        <extensions>
          <ns3:TrackPointExtension>
            <ns3:hr>104</ns3:hr>
          </ns3:TrackPointExtension>
        </extensions>
      </trkpt>
      <trkpt lat="59.0822397172451019287109375" lon="30.07733426056802272796630859375">
        <ele>72.40000152587890625</ele>
        <time>2026-04-26T10:39:33.000Z</time>
        <extensions>
          <ns3:TrackPointExtension>
            <ns3:hr>106</ns3:hr>
          </ns3:TrackPointExtension>
        </extensions>
      </trkpt>
      <trkpt lat="59.08223125152289867401123046875" lon="30.0773472525179386138916015625">
        <ele>72.40000152587890625</ele>
        <time>2026-04-26T10:39:34.000Z</time>
        <extensions>
          <ns3:TrackPointExtension>
            <ns3:hr>106</ns3:hr>
          </ns3:TrackPointExtension>
        </extensions>
      </trkpt>
      <trkpt lat="59.08221599645912647247314453125" lon="30.0773666985332965850830078125">
        <ele>72.59999847412109375</ele>
        <time>2026-04-26T10:39:36.000Z</time>
        <extensions>
          <ns3:TrackPointExtension>
            <ns3:hr>110</ns3:hr>
          </ns3:TrackPointExtension>
        </extensions>
      </trkpt>
      <trkpt lat="59.08221448771655559539794921875" lon="30.077373571693897247314453125">
        <ele>72.59999847412109375</ele>
        <time>2026-04-26T10:39:37.000Z</time>
        <extensions>
          <ns3:TrackPointExtension>
            <ns3:hr>113</ns3:hr>
          </ns3:TrackPointExtension>
        </extensions>
      </trkpt>
      <trkpt lat="59.08221716992557048797607421875" lon="30.077382959425449371337890625">
        <ele>72.40000152587890625</ele>
        <time>2026-04-26T10:39:38.000Z</time>
        <extensions>
          <ns3:TrackPointExtension>
            <ns3:hr>116</ns3:hr>
          </ns3:TrackPointExtension>
        </extensions>
      </trkpt>
      <trkpt lat="59.08220929093658924102783203125" lon="30.07740450091660022735595703125">
        <ele>72.40000152587890625</ele>
        <time>2026-04-26T10:39:39.000Z</time>
        <extensions>
          <ns3:TrackPointExtension>
            <ns3:hr>121</ns3:hr>
          </ns3:TrackPointExtension>
        </extensions>
      </trkpt>
      <trkpt lat="59.08220392651855945587158203125" lon="30.077411122620105743408203125">
        <ele>72.40000152587890625</ele>
        <time>2026-04-26T10:39:40.000Z</time>
        <extensions>
          <ns3:TrackPointExtension>
            <ns3:hr>124</ns3:hr>
          </ns3:TrackPointExtension>
        </extensions>
      </trkpt>
      <trkpt lat="59.08219822682440280914306640625" lon="30.07742797024548053741455078125">
        <ele>72.40000152587890625</ele>
        <time>2026-04-26T10:39:41.000Z</time>
        <extensions>
          <ns3:TrackPointExtension>
            <ns3:hr>124</ns3:hr>
          </ns3:TrackPointExtension>
        </extensions>
      </trkpt>
      <trkpt lat="59.0821780264377593994140625" lon="30.07744289003312587738037109375">
        <ele>72.40000152587890625</ele>
        <time>2026-04-26T10:39:45.000Z</time>
        <extensions>
          <ns3:TrackPointExtension>
            <ns3:hr>123</ns3:hr>
          </ns3:TrackPointExtension>
        </extensions>
      </trkpt>
      <trkpt lat="59.0821466781198978424072265625" lon="30.07751740515232086181640625">
        <ele>72.40000152587890625</ele>
        <time>2026-04-26T10:39:50.000Z</time>
        <extensions>
          <ns3:TrackPointExtension>
            <ns3:hr>123</ns3:hr>
          </ns3:TrackPointExtension>
        </extensions>
      </trkpt>
      <trkpt lat="59.08211457543075084686279296875" lon="30.0775511004030704498291015625">
        <ele>72.1999969482421875</ele>
        <time>2026-04-26T10:39:55.000Z</time>
        <extensions>
          <ns3:TrackPointExtension>
            <ns3:hr>119</ns3:hr>
          </ns3:TrackPointExtension>
        </extensions>
      </trkpt>
      <trkpt lat="59.08210116438567638397216796875" lon="30.07756627164781093597412109375">
        <ele>72.1999969482421875</ele>
        <time>2026-04-26T10:39:57.000Z</time>
        <extensions>
          <ns3:TrackPointExtension>
            <ns3:hr>119</ns3:hr>
          </ns3:TrackPointExtension>
        </extensions>
      </trkpt>
      <trkpt lat="59.08210099674761295318603515625" lon="30.07759108208119869232177734375">
        <ele>72.1999969482421875</ele>
        <time>2026-04-26T10:40:00.000Z</time>
        <extensions>
          <ns3:TrackPointExtension>
            <ns3:hr>123</ns3:hr>
          </ns3:TrackPointExtension>
        </extensions>
      </trkpt>
      <trkpt lat="59.08209823071956634521484375" lon="30.0776012241840362548828125">
        <ele>72.1999969482421875</ele>
        <time>2026-04-26T10:40:01.000Z</time>
        <extensions>
          <ns3:TrackPointExtension>
            <ns3:hr>132</ns3:hr>
          </ns3:TrackPointExtension>
        </extensions>
      </trkpt>
      <trkpt lat="59.08209579996764659881591796875" lon="30.077603571116924285888671875">
        <ele>72.1999969482421875</ele>
        <time>2026-04-26T10:40:02.000Z</time>
        <extensions>
          <ns3:TrackPointExtension>
            <ns3:hr>136</ns3:hr>
          </ns3:TrackPointExtension>
        </extensions>
      </trkpt>
      <trkpt lat="59.082091189920902252197265625" lon="30.07760868407785892486572265625">
        <ele>72.1999969482421875</ele>
        <time>2026-04-26T10:40:03.000Z</time>
        <extensions>
          <ns3:TrackPointExtension>
            <ns3:hr>137</ns3:hr>
          </ns3:TrackPointExtension>
        </extensions>
      </trkpt>
      <trkpt lat="59.0820766054093837738037109375" lon="30.0776307284832000732421875">
        <ele>72.59999847412109375</ele>
        <time>2026-04-26T10:40:07.000Z</time>
        <extensions>
          <ns3:TrackPointExtension>
            <ns3:hr>134</ns3:hr>
          </ns3:TrackPointExtension>
        </extensions>
      </trkpt>
      <trkpt lat="59.08207819797098636627197265625" lon="30.0776322372257709503173828125">
        <ele>72.8000030517578125</ele>
        <time>2026-04-26T10:40:08.000Z</time>
        <extensions>
          <ns3:TrackPointExtension>
            <ns3:hr>131</ns3:hr>
          </ns3:TrackPointExtension>
        </extensions>
      </trkpt>
      <trkpt lat="59.08208222128450870513916015625" lon="30.07763542234897613525390625">
        <ele>72.8000030517578125</ele>
        <time>2026-04-26T10:40:09.000Z</time>
        <extensions>
          <ns3:TrackPointExtension>
            <ns3:hr>127</ns3:hr>
          </ns3:TrackPointExtension>
        </extensions>
      </trkpt>
      <trkpt lat="59.082075767219066619873046875" lon="30.077638439834117889404296875">
        <ele>72.59999847412109375</ele>
        <time>2026-04-26T10:40:10.000Z</time>
        <extensions>
          <ns3:TrackPointExtension>
            <ns3:hr>119</ns3:hr>
          </ns3:TrackPointExtension>
        </extensions>
      </trkpt>
      <trkpt lat="59.0820772759616374969482421875" lon="30.07763701491057872772216796875">
        <ele>72.59999847412109375</ele>
        <time>2026-04-26T10:40:11.000Z</time>
        <extensions>
          <ns3:TrackPointExtension>
            <ns3:hr>107</ns3:hr>
          </ns3:TrackPointExtension>
        </extensions>
      </trkpt>
      <trkpt lat="59.08206093125045299530029296875" lon="30.0776144675910472869873046875">
        <ele>72.40000152587890625</ele>
        <time>2026-04-26T10:40:15.000Z</time>
        <extensions>
          <ns3:TrackPointExtension>
            <ns3:hr>104</ns3:hr>
          </ns3:TrackPointExtension>
        </extensions>
      </trkpt>
      <trkpt lat="59.08205724321305751800537109375" lon="30.07762645371258258819580078125">
        <ele>72.1999969482421875</ele>
        <time>2026-04-26T10:40:20.000Z</time>
        <extensions>
          <ns3:TrackPointExtension>
            <ns3:hr>103</ns3:hr>
          </ns3:TrackPointExtension>
        </extensions>
      </trkpt>
      <trkpt lat="59.08205439336597919464111328125" lon="30.07762259803712368011474609375">
        <ele>72.1999969482421875</ele>
        <time>2026-04-26T10:40:21.000Z</time>
        <extensions>
          <ns3:TrackPointExtension>
            <ns3:hr>107</ns3:hr>
          </ns3:TrackPointExtension>
        </extensions>
      </trkpt>
      <trkpt lat="59.0820528008043766021728515625" lon="30.07763735018670558929443359375">
        <ele>72.1999969482421875</ele>
        <time>2026-04-26T10:40:22.000Z</time>
        <extensions>
          <ns3:TrackPointExtension>
            <ns3:hr>112</ns3:hr>
          </ns3:TrackPointExtension>
        </extensions>
      </trkpt>
      <trkpt lat="59.08204332925379276275634765625" lon="30.0776533596217632293701171875">
        <ele>72.1999969482421875</ele>
        <time>2026-04-26T10:40:24.000Z</time>
        <extensions>
          <ns3:TrackPointExtension>
            <ns3:hr>113</ns3:hr>
          </ns3:TrackPointExtension>
        </extensions>
      </trkpt>
      <trkpt lat="59.08203997649252414703369140625" lon="30.077688395977020263671875">
        <ele>72.1999969482421875</ele>
        <time>2026-04-26T10:40:26.000Z</time>
        <extensions>
          <ns3:TrackPointExtension>
            <ns3:hr>113</ns3:hr>
          </ns3:TrackPointExtension>
        </extensions>
      </trkpt>
      <trkpt lat="59.08202086575329303741455078125" lon="30.07772385142743587493896484375">
        <ele>72</ele>
        <time>2026-04-26T10:40:30.000Z</time>
        <extensions>
          <ns3:TrackPointExtension>
            <ns3:hr>112</ns3:hr>
          </ns3:TrackPointExtension>
        </extensions>
      </trkpt>
      <trkpt lat="59.081978537142276763916015625" lon="30.0777546130120754241943359375">
        <ele>72.1999969482421875</ele>
        <time>2026-04-26T10:40:35.000Z</time>
        <extensions>
          <ns3:TrackPointExtension>
            <ns3:hr>111</ns3:hr>
          </ns3:TrackPointExtension>
        </extensions>
      </trkpt>
      <trkpt lat="59.08194693736732006072998046875" lon="30.077795684337615966796875">
        <ele>72</ele>
        <time>2026-04-26T10:40:41.000Z</time>
        <extensions>
          <ns3:TrackPointExtension>
            <ns3:hr>111</ns3:hr>
          </ns3:TrackPointExtension>
        </extensions>
      </trkpt>
      <trkpt lat="59.0819059498608112335205078125" lon="30.0778377614915370941162109375">
        <ele>71.59999847412109375</ele>
        <time>2026-04-26T10:40:46.000Z</time>
        <extensions>
          <ns3:TrackPointExtension>
            <ns3:hr>112</ns3:hr>
          </ns3:TrackPointExtension>
        </extensions>
      </trkpt>
      <trkpt lat="59.0818829834461212158203125" lon="30.07785242982208728790283203125">
        <ele>71.40000152587890625</ele>
        <time>2026-04-26T10:40:50.000Z</time>
        <extensions>
          <ns3:TrackPointExtension>
            <ns3:hr>113</ns3:hr>
          </ns3:TrackPointExtension>
        </extensions>
      </trkpt>
      <trkpt lat="59.0818588435649871826171875" lon="30.07789953611791133880615234375">
        <ele>71.59999847412109375</ele>
        <time>2026-04-26T10:40:55.000Z</time>
        <extensions>
          <ns3:TrackPointExtension>
            <ns3:hr>111</ns3:hr>
          </ns3:TrackPointExtension>
        </extensions>
      </trkpt>
      <trkpt lat="59.0818254835903644561767578125" lon="30.07796592079102993011474609375">
        <ele>71.8000030517578125</ele>
        <time>2026-04-26T10:41:00.000Z</time>
        <extensions>
          <ns3:TrackPointExtension>
            <ns3:hr>109</ns3:hr>
          </ns3:TrackPointExtension>
        </extensions>
      </trkpt>
      <trkpt lat="59.08178701065480709075927734375" lon="30.078010261058807373046875">
        <ele>71.8000030517578125</ele>
        <time>2026-04-26T10:41:05.000Z</time>
        <extensions>
          <ns3:TrackPointExtension>
            <ns3:hr>108</ns3:hr>
          </ns3:TrackPointExtension>
        </extensions>
      </trkpt>
      <trkpt lat="59.081751219928264617919921875" lon="30.07806398905813694000244140625">
        <ele>71.8000030517578125</ele>
        <time>2026-04-26T10:41:10.000Z</time>
        <extensions>
          <ns3:TrackPointExtension>
            <ns3:hr>106</ns3:hr>
          </ns3:TrackPointExtension>
        </extensions>
      </trkpt>
      <trkpt lat="59.08171593211591243743896484375" lon="30.078120566904544830322265625">
        <ele>72</ele>
        <time>2026-04-26T10:41:16.000Z</time>
        <extensions>
          <ns3:TrackPointExtension>
            <ns3:hr>104</ns3:hr>
          </ns3:TrackPointExtension>
        </extensions>
      </trkpt>
      <trkpt lat="59.0816994197666645050048828125" lon="30.07813573814928531646728515625">
        <ele>72</ele>
        <time>2026-04-26T10:41:18.000Z</time>
        <extensions>
          <ns3:TrackPointExtension>
            <ns3:hr>105</ns3:hr>
          </ns3:TrackPointExtension>
        </extensions>
      </trkpt>
      <trkpt lat="59.081662707030773162841796875" lon="30.0781810842454433441162109375">
        <ele>71.8000030517578125</ele>
        <time>2026-04-26T10:41:22.000Z</time>
        <extensions>
          <ns3:TrackPointExtension>
            <ns3:hr>105</ns3:hr>
          </ns3:TrackPointExtension>
        </extensions>
      </trkpt>
      <trkpt lat="59.08162976615130901336669921875" lon="30.0782441161572933197021484375">
        <ele>71.59999847412109375</ele>
        <time>2026-04-26T10:41:27.000Z</time>
        <extensions>
          <ns3:TrackPointExtension>
            <ns3:hr>105</ns3:hr>
          </ns3:TrackPointExtension>
        </extensions>
      </trkpt>
      <trkpt lat="59.081607721745967864990234375" lon="30.07825962267816066741943359375">
        <ele>71.8000030517578125</ele>
        <time>2026-04-26T10:41:31.000Z</time>
        <extensions>
          <ns3:TrackPointExtension>
            <ns3:hr>105</ns3:hr>
          </ns3:TrackPointExtension>
        </extensions>
      </trkpt>
      <trkpt lat="59.08159841783344745635986328125" lon="30.07826398126780986785888671875">
        <ele>72</ele>
        <time>2026-04-26T10:41:33.000Z</time>
        <extensions>
          <ns3:TrackPointExtension>
            <ns3:hr>108</ns3:hr>
          </ns3:TrackPointExtension>
        </extensions>
      </trkpt>
      <trkpt lat="59.08158936537802219390869140625" lon="30.07828476838767528533935546875">
        <ele>71.8000030517578125</ele>
        <time>2026-04-26T10:41:36.000Z</time>
        <extensions>
          <ns3:TrackPointExtension>
            <ns3:hr>110</ns3:hr>
          </ns3:TrackPointExtension>
        </extensions>
      </trkpt>
      <trkpt lat="59.08156824298202991485595703125" lon="30.0783138535916805267333984375">
        <ele>71.8000030517578125</ele>
        <time>2026-04-26T10:41:39.000Z</time>
        <extensions>
          <ns3:TrackPointExtension>
            <ns3:hr>113</ns3:hr>
          </ns3:TrackPointExtension>
        </extensions>
      </trkpt>
      <trkpt lat="59.08156044781208038330078125" lon="30.07833841256797313690185546875">
        <ele>71.8000030517578125</ele>
        <time>2026-04-26T10:41:41.000Z</time>
        <extensions>
          <ns3:TrackPointExtension>
            <ns3:hr>116</ns3:hr>
          </ns3:TrackPointExtension>
        </extensions>
      </trkpt>
      <trkpt lat="59.0815515629947185516357421875" lon="30.0783396698534488677978515625">
        <ele>71.8000030517578125</ele>
        <time>2026-04-26T10:41:42.000Z</time>
        <extensions>
          <ns3:TrackPointExtension>
            <ns3:hr>117</ns3:hr>
          </ns3:TrackPointExtension>
        </extensions>
      </trkpt>
      <trkpt lat="59.0815210528671741485595703125" lon="30.078412257134914398193359375">
        <ele>71.59999847412109375</ele>
        <time>2026-04-26T10:41:47.000Z</time>
        <extensions>
          <ns3:TrackPointExtension>
            <ns3:hr>117</ns3:hr>
          </ns3:TrackPointExtension>
        </extensions>
      </trkpt>
      <trkpt lat="59.08149481751024723052978515625" lon="30.07845827378332614898681640625">
        <ele>71.59999847412109375</ele>
        <time>2026-04-26T10:41:51.000Z</time>
        <extensions>
          <ns3:TrackPointExtension>
            <ns3:hr>114</ns3:hr>
          </ns3:TrackPointExtension>
        </extensions>
      </trkpt>
      <trkpt lat="59.0814808197319507598876953125" lon="30.078482665121555328369140625">
        <ele>71.59999847412109375</ele>
        <time>2026-04-26T10:41:53.000Z</time>
        <extensions>
          <ns3:TrackPointExtension>
            <ns3:hr>111</ns3:hr>
          </ns3:TrackPointExtension>
        </extensions>
      </trkpt>
      <trkpt lat="59.081447124481201171875" lon="30.07852231152355670928955078125">
        <ele>71.8000030517578125</ele>
        <time>2026-04-26T10:41:59.000Z</time>
        <extensions>
          <ns3:TrackPointExtension>
            <ns3:hr>108</ns3:hr>
          </ns3:TrackPointExtension>
        </extensions>
      </trkpt>
      <trkpt lat="59.0814027003943920135498046875" lon="30.07856422103941440582275390625">
        <ele>71.8000030517578125</ele>
        <time>2026-04-26T10:42:04.000Z</time>
        <extensions>
          <ns3:TrackPointExtension>
            <ns3:hr>106</ns3:hr>
          </ns3:TrackPointExtension>
        </extensions>
      </trkpt>
      <trkpt lat="59.08134126104414463043212890625" lon="30.0786695815622806549072265625">
        <ele>71.8000030517578125</ele>
        <time>2026-04-26T10:42:11.000Z</time>
        <extensions>
          <ns3:TrackPointExtension>
            <ns3:hr>103</ns3:hr>
          </ns3:TrackPointExtension>
        </extensions>
      </trkpt>
      <trkpt lat="59.0813081525266170501708984375" lon="30.078725405037403106689453125">
        <ele>71.59999847412109375</ele>
        <time>2026-04-26T10:42:16.000Z</time>
        <extensions>
          <ns3:TrackPointExtension>
            <ns3:hr>102</ns3:hr>
          </ns3:TrackPointExtension>
        </extensions>
      </trkpt>
      <trkpt lat="59.08127353526651859283447265625" lon="30.078787766396999359130859375">
        <ele>71.59999847412109375</ele>
        <time>2026-04-26T10:42:21.000Z</time>
        <extensions>
          <ns3:TrackPointExtension>
            <ns3:hr>105</ns3:hr>
          </ns3:TrackPointExtension>
        </extensions>
      </trkpt>
      <trkpt lat="59.08126481808722019195556640625" lon="30.07879153825342655181884765625">
        <ele>71.40000152587890625</ele>
        <time>2026-04-26T10:42:22.000Z</time>
        <extensions>
          <ns3:TrackPointExtension>
            <ns3:hr>105</ns3:hr>
          </ns3:TrackPointExtension>
        </extensions>
      </trkpt>
      <trkpt lat="59.08125408925116062164306640625" lon="30.07880059070885181427001953125">
        <ele>71.40000152587890625</ele>
        <time>2026-04-26T10:42:24.000Z</time>
        <extensions>
          <ns3:TrackPointExtension>
            <ns3:hr>109</ns3:hr>
          </ns3:TrackPointExtension>
        </extensions>
      </trkpt>
      <trkpt lat="59.0812310390174388885498046875" lon="30.07880754768848419189453125">
        <ele>71.40000152587890625</ele>
        <time>2026-04-26T10:42:27.000Z</time>
        <extensions>
          <ns3:TrackPointExtension>
            <ns3:hr>108</ns3:hr>
          </ns3:TrackPointExtension>
        </extensions>
      </trkpt>
      <trkpt lat="59.08121502958238124847412109375" lon="30.07884233258664608001708984375">
        <ele>71.59999847412109375</ele>
        <time>2026-04-26T10:42:30.000Z</time>
        <extensions>
          <ns3:TrackPointExtension>
            <ns3:hr>104</ns3:hr>
          </ns3:TrackPointExtension>
        </extensions>
      </trkpt>
      <trkpt lat="59.081224165856838226318359375" lon="30.078845433890819549560546875">
        <ele>71.8000030517578125</ele>
        <time>2026-04-26T10:42:32.000Z</time>
        <extensions>
          <ns3:TrackPointExtension>
            <ns3:hr>107</ns3:hr>
          </ns3:TrackPointExtension>
        </extensions>
      </trkpt>
      <trkpt lat="59.0812199749052524566650390625" lon="30.0788492895662784576416015625">
        <ele>71.8000030517578125</ele>
        <time>2026-04-26T10:42:33.000Z</time>
        <extensions>
          <ns3:TrackPointExtension>
            <ns3:hr>108</ns3:hr>
          </ns3:TrackPointExtension>
        </extensions>
      </trkpt>
      <trkpt lat="59.08120346255600452423095703125" lon="30.07888608612120151519775390625">
        <ele>71.8000030517578125</ele>
        <time>2026-04-26T10:42:36.000Z</time>
        <extensions>
          <ns3:TrackPointExtension>
            <ns3:hr>111</ns3:hr>
          </ns3:TrackPointExtension>
        </extensions>
      </trkpt>
      <trkpt lat="59.08119373954832553863525390625" lon="30.0788787938654422760009765625">
        <ele>71.59999847412109375</ele>
        <time>2026-04-26T10:42:38.000Z</time>
        <extensions>
          <ns3:TrackPointExtension>
            <ns3:hr>113</ns3:hr>
          </ns3:TrackPointExtension>
        </extensions>
      </trkpt>
      <trkpt lat="59.08121050335466861724853515625" lon="30.07884970866143703460693359375">
        <ele>71.8000030517578125</ele>
        <time>2026-04-26T10:42:44.000Z</time>
        <extensions>
          <ns3:TrackPointExtension>
            <ns3:hr>115</ns3:hr>
          </ns3:TrackPointExtension>
        </extensions>
      </trkpt>
      <trkpt lat="59.08117312006652355194091796875" lon="30.07887401618063449859619140625">
        <ele>71.59999847412109375</ele>
        <time>2026-04-26T10:42:49.000Z</time>
        <extensions>
          <ns3:TrackPointExtension>
            <ns3:hr>111</ns3:hr>
          </ns3:TrackPointExtension>
        </extensions>
      </trkpt>
      <trkpt lat="59.08115752972662448883056640625" lon="30.07891793735325336456298828125">
        <ele>71.59999847412109375</ele>
        <time>2026-04-26T10:42:53.000Z</time>
        <extensions>
          <ns3:TrackPointExtension>
            <ns3:hr>109</ns3:hr>
          </ns3:TrackPointExtension>
        </extensions>
      </trkpt>
      <trkpt lat="59.08113129436969757080078125" lon="30.0789274089038372039794921875">
        <ele>71.59999847412109375</ele>
        <time>2026-04-26T10:42:56.000Z</time>
        <extensions>
          <ns3:TrackPointExtension>
            <ns3:hr>108</ns3:hr>
          </ns3:TrackPointExtension>
        </extensions>
      </trkpt>
      <trkpt lat="59.08112324774265289306640625" lon="30.07891081273555755615234375">
        <ele>71.59999847412109375</ele>
        <time>2026-04-26T10:42:57.000Z</time>
        <extensions>
          <ns3:TrackPointExtension>
            <ns3:hr>108</ns3:hr>
          </ns3:TrackPointExtension>
        </extensions>
      </trkpt>
      <trkpt lat="59.08111813478171825408935546875" lon="30.07889094762504100799560546875">
        <ele>71.59999847412109375</ele>
        <time>2026-04-26T10:42:58.000Z</time>
        <extensions>
          <ns3:TrackPointExtension>
            <ns3:hr>108</ns3:hr>
          </ns3:TrackPointExtension>
        </extensions>
      </trkpt>
      <trkpt lat="59.0811100043356418609619140625" lon="30.0788744352757930755615234375">
        <ele>71.40000152587890625</ele>
        <time>2026-04-26T10:43:01.000Z</time>
        <extensions>
          <ns3:TrackPointExtension>
            <ns3:hr>109</ns3:hr>
          </ns3:TrackPointExtension>
        </extensions>
      </trkpt>
      <trkpt lat="59.08107588998973369598388671875" lon="30.07888541556894779205322265625">
        <ele>71.1999969482421875</ele>
        <time>2026-04-26T10:43:04.000Z</time>
        <extensions>
          <ns3:TrackPointExtension>
            <ns3:hr>112</ns3:hr>
          </ns3:TrackPointExtension>
        </extensions>
      </trkpt>
      <trkpt lat="59.081055186688899993896484375" lon="30.078884996473789215087890625">
        <ele>71.40000152587890625</ele>
        <time>2026-04-26T10:43:06.000Z</time>
        <extensions>
          <ns3:TrackPointExtension>
            <ns3:hr>112</ns3:hr>
          </ns3:TrackPointExtension>
        </extensions>
      </trkpt>
      <trkpt lat="59.08104588277637958526611328125" lon="30.07888457737863063812255859375">
        <ele>71.40000152587890625</ele>
        <time>2026-04-26T10:43:07.000Z</time>
        <extensions>
          <ns3:TrackPointExtension>
            <ns3:hr>112</ns3:hr>
          </ns3:TrackPointExtension>
        </extensions>
      </trkpt>
      <trkpt lat="59.08103766851127147674560546875" lon="30.0789020955562591552734375">
        <ele>71.40000152587890625</ele>
        <time>2026-04-26T10:43:10.000Z</time>
        <extensions>
          <ns3:TrackPointExtension>
            <ns3:hr>113</ns3:hr>
          </ns3:TrackPointExtension>
        </extensions>
      </trkpt>
      <trkpt lat="59.0810379199683666229248046875" lon="30.07887988351285457611083984375">
        <ele>71.59999847412109375</ele>
        <time>2026-04-26T10:43:12.000Z</time>
        <extensions>
          <ns3:TrackPointExtension>
            <ns3:hr>113</ns3:hr>
          </ns3:TrackPointExtension>
        </extensions>
      </trkpt>
      <trkpt lat="59.08103532157838344573974609375" lon="30.07887871004641056060791015625">
        <ele>71.59999847412109375</ele>
        <time>2026-04-26T10:43:15.000Z</time>
        <extensions>
          <ns3:TrackPointExtension>
            <ns3:hr>116</ns3:hr>
          </ns3:TrackPointExtension>
        </extensions>
      </trkpt>
      <trkpt lat="59.08101151697337627410888671875" lon="30.07890787906944751739501953125">
        <ele>71.40000152587890625</ele>
        <time>2026-04-26T10:43:19.000Z</time>
        <extensions>
          <ns3:TrackPointExtension>
            <ns3:hr>114</ns3:hr>
          </ns3:TrackPointExtension>
        </extensions>
      </trkpt>
      <trkpt lat="59.08100062049925327301025390625" lon="30.07892682217061519622802734375">
        <ele>71.40000152587890625</ele>
        <time>2026-04-26T10:43:20.000Z</time>
        <extensions>
          <ns3:TrackPointExtension>
            <ns3:hr>113</ns3:hr>
          </ns3:TrackPointExtension>
        </extensions>
      </trkpt>
      <trkpt lat="59.080968014895915985107421875" lon="30.07896705530583858489990234375">
        <ele>71.40000152587890625</ele>
        <time>2026-04-26T10:43:23.000Z</time>
        <extensions>
          <ns3:TrackPointExtension>
            <ns3:hr>112</ns3:hr>
          </ns3:TrackPointExtension>
        </extensions>
      </trkpt>
      <trkpt lat="59.08097027800977230072021484375" lon="30.07906143553555011749267578125">
        <ele>71.59999847412109375</ele>
        <time>2026-04-26T10:43:28.000Z</time>
        <extensions>
          <ns3:TrackPointExtension>
            <ns3:hr>112</ns3:hr>
          </ns3:TrackPointExtension>
        </extensions>
      </trkpt>
      <trkpt lat="59.0809477306902408599853515625" lon="30.079099237918853759765625">
        <ele>71.1999969482421875</ele>
        <time>2026-04-26T10:43:33.000Z</time>
        <extensions>
          <ns3:TrackPointExtension>
            <ns3:hr>115</ns3:hr>
          </ns3:TrackPointExtension>
        </extensions>
      </trkpt>
      <trkpt lat="59.080941192805767059326171875" lon="30.07909546606242656707763671875">
        <ele>71.40000152587890625</ele>
        <time>2026-04-26T10:43:34.000Z</time>
        <extensions>
          <ns3:TrackPointExtension>
            <ns3:hr>116</ns3:hr>
          </ns3:TrackPointExtension>
        </extensions>
      </trkpt>
      <trkpt lat="59.0809105150401592254638671875" lon="30.07912329398095607757568359375">
        <ele>71.59999847412109375</ele>
        <time>2026-04-26T10:43:39.000Z</time>
        <extensions>
          <ns3:TrackPointExtension>
            <ns3:hr>116</ns3:hr>
          </ns3:TrackPointExtension>
        </extensions>
      </trkpt>
      <trkpt lat="59.0808903984725475311279296875" lon="30.07920275442302227020263671875">
        <ele>71.8000030517578125</ele>
        <time>2026-04-26T10:43:44.000Z</time>
        <extensions>
          <ns3:TrackPointExtension>
            <ns3:hr>116</ns3:hr>
          </ns3:TrackPointExtension>
        </extensions>
      </trkpt>
      <trkpt lat="59.080888889729976654052734375" lon="30.0792133994400501251220703125">
        <ele>71.8000030517578125</ele>
        <time>2026-04-26T10:43:47.000Z</time>
        <extensions>
          <ns3:TrackPointExtension>
            <ns3:hr>121</ns3:hr>
          </ns3:TrackPointExtension>
        </extensions>
      </trkpt>
      <trkpt lat="59.080883525311946868896484375" lon="30.07921432144939899444580078125">
        <ele>71.8000030517578125</ele>
        <time>2026-04-26T10:43:50.000Z</time>
        <extensions>
          <ns3:TrackPointExtension>
            <ns3:hr>123</ns3:hr>
          </ns3:TrackPointExtension>
        </extensions>
      </trkpt>
      <trkpt lat="59.08087514340877532958984375" lon="30.07930233143270015716552734375">
        <ele>71.8000030517578125</ele>
        <time>2026-04-26T10:43:56.000Z</time>
        <extensions>
          <ns3:TrackPointExtension>
            <ns3:hr>123</ns3:hr>
          </ns3:TrackPointExtension>
        </extensions>
      </trkpt>
      <trkpt lat="59.080854691565036773681640625" lon="30.0793527066707611083984375">
        <ele>72</ele>
        <time>2026-04-26T10:44:00.000Z</time>
        <extensions>
          <ns3:TrackPointExtension>
            <ns3:hr>120</ns3:hr>
          </ns3:TrackPointExtension>
        </extensions>
      </trkpt>
      <trkpt lat="59.0808288753032684326171875" lon="30.07938782684504985809326171875">
        <ele>72</ele>
        <time>2026-04-26T10:44:02.000Z</time>
        <extensions>
          <ns3:TrackPointExtension>
            <ns3:hr>119</ns3:hr>
          </ns3:TrackPointExtension>
        </extensions>
      </trkpt>
      <trkpt lat="59.08080146647989749908447265625" lon="30.07942638359963893890380859375">
        <ele>71.8000030517578125</ele>
        <time>2026-04-26T10:44:06.000Z</time>
        <extensions>
          <ns3:TrackPointExtension>
            <ns3:hr>117</ns3:hr>
          </ns3:TrackPointExtension>
        </extensions>
      </trkpt>
      <trkpt lat="59.08076927997171878814697265625" lon="30.0794688798487186431884765625">
        <ele>71.59999847412109375</ele>
        <time>2026-04-26T10:44:12.000Z</time>
        <extensions>
          <ns3:TrackPointExtension>
            <ns3:hr>116</ns3:hr>
          </ns3:TrackPointExtension>
        </extensions>
      </trkpt>
      <trkpt lat="59.08072586171329021453857421875" lon="30.0795335881412029266357421875">
        <ele>71.59999847412109375</ele>
        <time>2026-04-26T10:44:18.000Z</time>
        <extensions>
          <ns3:TrackPointExtension>
            <ns3:hr>114</ns3:hr>
          </ns3:TrackPointExtension>
        </extensions>
      </trkpt>
      <trkpt lat="59.0806882269680500030517578125" lon="30.079592764377593994140625">
        <ele>71.59999847412109375</ele>
        <time>2026-04-26T10:44:23.000Z</time>
        <extensions>
          <ns3:TrackPointExtension>
            <ns3:hr>115</ns3:hr>
          </ns3:TrackPointExtension>
        </extensions>
      </trkpt>
      <trkpt lat="59.0806518495082855224609375" lon="30.07962319068610668182373046875">
        <ele>71.59999847412109375</ele>
        <time>2026-04-26T10:44:28.000Z</time>
        <extensions>
          <ns3:TrackPointExtension>
            <ns3:hr>118</ns3:hr>
          </ns3:TrackPointExtension>
        </extensions>
      </trkpt>
      <trkpt lat="59.08065176568925380706787109375" lon="30.0796244479715824127197265625">
        <ele>71.59999847412109375</ele>
        <time>2026-04-26T10:44:29.000Z</time>
        <extensions>
          <ns3:TrackPointExtension>
            <ns3:hr>117</ns3:hr>
          </ns3:TrackPointExtension>
        </extensions>
      </trkpt>
      <trkpt lat="59.08061220310628414154052734375" lon="30.07964330725371837615966796875">
        <ele>71.8000030517578125</ele>
        <time>2026-04-26T10:44:34.000Z</time>
        <extensions>
          <ns3:TrackPointExtension>
            <ns3:hr>115</ns3:hr>
          </ns3:TrackPointExtension>
        </extensions>
      </trkpt>
      <trkpt lat="59.08058085478842258453369140625" lon="30.07972377352416515350341796875">
        <ele>71.59999847412109375</ele>
        <time>2026-04-26T10:44:40.000Z</time>
        <extensions>
          <ns3:TrackPointExtension>
            <ns3:hr>113</ns3:hr>
          </ns3:TrackPointExtension>
        </extensions>
      </trkpt>
      <trkpt lat="59.08056777901947498321533203125" lon="30.079743973910808563232421875">
        <ele>71.59999847412109375</ele>
        <time>2026-04-26T10:44:43.000Z</time>
        <extensions>
          <ns3:TrackPointExtension>
            <ns3:hr>111</ns3:hr>
          </ns3:TrackPointExtension>
        </extensions>
      </trkpt>
      <trkpt lat="59.08055185340344905853271484375" lon="30.07975034415721893310546875">
        <ele>71.8000030517578125</ele>
        <time>2026-04-26T10:44:45.000Z</time>
        <extensions>
          <ns3:TrackPointExtension>
            <ns3:hr>111</ns3:hr>
          </ns3:TrackPointExtension>
        </extensions>
      </trkpt>
      <trkpt lat="59.080522097647190093994140625" lon="30.0797934271395206451416015625">
        <ele>71.8000030517578125</ele>
        <time>2026-04-26T10:44:49.000Z</time>
        <extensions>
          <ns3:TrackPointExtension>
            <ns3:hr>116</ns3:hr>
          </ns3:TrackPointExtension>
        </extensions>
      </trkpt>
      <trkpt lat="59.08051765523850917816162109375" lon="30.079798288643360137939453125">
        <ele>71.8000030517578125</ele>
        <time>2026-04-26T10:44:50.000Z</time>
        <extensions>
          <ns3:TrackPointExtension>
            <ns3:hr>118</ns3:hr>
          </ns3:TrackPointExtension>
        </extensions>
      </trkpt>
      <trkpt lat="59.08048748038709163665771484375" lon="30.079847909510135650634765625">
        <ele>71.8000030517578125</ele>
        <time>2026-04-26T10:44:53.000Z</time>
        <extensions>
          <ns3:TrackPointExtension>
            <ns3:hr>119</ns3:hr>
          </ns3:TrackPointExtension>
        </extensions>
      </trkpt>
      <trkpt lat="59.08047406934201717376708984375" lon="30.07987640798091888427734375">
        <ele>72</ele>
        <time>2026-04-26T10:44:55.000Z</time>
        <extensions>
          <ns3:TrackPointExtension>
            <ns3:hr>123</ns3:hr>
          </ns3:TrackPointExtension>
        </extensions>
      </trkpt>
      <trkpt lat="59.08044288866221904754638671875" lon="30.0799007155001163482666015625">
        <ele>72</ele>
        <time>2026-04-26T10:44:58.000Z</time>
        <extensions>
          <ns3:TrackPointExtension>
            <ns3:hr>120</ns3:hr>
          </ns3:TrackPointExtension>
        </extensions>
      </trkpt>
      <trkpt lat="59.08042721450328826904296875" lon="30.07993885315954685211181640625">
        <ele>72.1999969482421875</ele>
        <time>2026-04-26T10:45:01.000Z</time>
        <extensions>
          <ns3:TrackPointExtension>
            <ns3:hr>118</ns3:hr>
          </ns3:TrackPointExtension>
        </extensions>
      </trkpt>
      <trkpt lat="59.08037365414202213287353515625" lon="30.08001194335520267486572265625">
        <ele>72</ele>
        <time>2026-04-26T10:45:08.000Z</time>
        <extensions>
          <ns3:TrackPointExtension>
            <ns3:hr>117</ns3:hr>
          </ns3:TrackPointExtension>
        </extensions>
      </trkpt>
      <trkpt lat="59.08036644570529460906982421875" lon="30.08005150593817234039306640625">
        <ele>72</ele>
        <time>2026-04-26T10:45:13.000Z</time>
        <extensions>
          <ns3:TrackPointExtension>
            <ns3:hr>116</ns3:hr>
          </ns3:TrackPointExtension>
        </extensions>
      </trkpt>
      <trkpt lat="59.080341719090938568115234375" lon="30.0800621509552001953125">
        <ele>72</ele>
        <time>2026-04-26T10:45:19.000Z</time>
        <extensions>
          <ns3:TrackPointExtension>
            <ns3:hr>114</ns3:hr>
          </ns3:TrackPointExtension>
        </extensions>
      </trkpt>
      <trkpt lat="59.08030676655471324920654296875" lon="30.0800975225865840911865234375">
        <ele>71.8000030517578125</ele>
        <time>2026-04-26T10:45:24.000Z</time>
        <extensions>
          <ns3:TrackPointExtension>
            <ns3:hr>116</ns3:hr>
          </ns3:TrackPointExtension>
        </extensions>
      </trkpt>
      <trkpt lat="59.08030986785888671875" lon="30.08017673157155513763427734375">
        <ele>71.8000030517578125</ele>
        <time>2026-04-26T10:45:29.000Z</time>
        <extensions>
          <ns3:TrackPointExtension>
            <ns3:hr>116</ns3:hr>
          </ns3:TrackPointExtension>
        </extensions>
      </trkpt>
      <trkpt lat="59.080264270305633544921875" lon="30.0801877118647098541259765625">
        <ele>71.40000152587890625</ele>
        <time>2026-04-26T10:45:34.000Z</time>
        <extensions>
          <ns3:TrackPointExtension>
            <ns3:hr>118</ns3:hr>
          </ns3:TrackPointExtension>
        </extensions>
      </trkpt>
      <trkpt lat="59.08021892420947551727294921875" lon="30.0802767276763916015625">
        <ele>71.8000030517578125</ele>
        <time>2026-04-26T10:45:40.000Z</time>
        <extensions>
          <ns3:TrackPointExtension>
            <ns3:hr>119</ns3:hr>
          </ns3:TrackPointExtension>
        </extensions>
      </trkpt>
      <trkpt lat="59.08016528002917766571044921875" lon="30.0803446210920810699462890625">
        <ele>72</ele>
        <time>2026-04-26T10:45:46.000Z</time>
        <extensions>
          <ns3:TrackPointExtension>
            <ns3:hr>119</ns3:hr>
          </ns3:TrackPointExtension>
        </extensions>
      </trkpt>
      <trkpt lat="59.08011666499078273773193359375" lon="30.08036591112613677978515625">
        <ele>72</ele>
        <time>2026-04-26T10:45:52.000Z</time>
        <extensions>
          <ns3:TrackPointExtension>
            <ns3:hr>118</ns3:hr>
          </ns3:TrackPointExtension>
        </extensions>
      </trkpt>
      <trkpt lat="59.0800845623016357421875" lon="30.080389715731143951416015625">
        <ele>71.8000030517578125</ele>
        <time>2026-04-26T10:45:58.000Z</time>
        <extensions>
          <ns3:TrackPointExtension>
            <ns3:hr>116</ns3:hr>
          </ns3:TrackPointExtension>
        </extensions>
      </trkpt>
      <trkpt lat="59.08007743768393993377685546875" lon="30.08043841458857059478759765625">
        <ele>72</ele>
        <time>2026-04-26T10:46:05.000Z</time>
        <extensions>
          <ns3:TrackPointExtension>
            <ns3:hr>116</ns3:hr>
          </ns3:TrackPointExtension>
        </extensions>
      </trkpt>
      <trkpt lat="59.08008045516908168792724609375" lon="30.08048300631344318389892578125">
        <ele>72.59999847412109375</ele>
        <time>2026-04-26T10:46:11.000Z</time>
        <extensions>
          <ns3:TrackPointExtension>
            <ns3:hr>115</ns3:hr>
          </ns3:TrackPointExtension>
        </extensions>
      </trkpt>
      <trkpt lat="59.080056734383106231689453125" lon="30.08052273653447628021240234375">
        <ele>72.40000152587890625</ele>
        <time>2026-04-26T10:46:16.000Z</time>
        <extensions>
          <ns3:TrackPointExtension>
            <ns3:hr>113</ns3:hr>
          </ns3:TrackPointExtension>
        </extensions>
      </trkpt>
      <trkpt lat="59.0800186805427074432373046875" lon="30.080482251942157745361328125">
        <ele>72</ele>
        <time>2026-04-26T10:46:22.000Z</time>
        <extensions>
          <ns3:TrackPointExtension>
            <ns3:hr>115</ns3:hr>
          </ns3:TrackPointExtension>
        </extensions>
      </trkpt>
      <trkpt lat="59.08002429641783237457275390625" lon="30.0804978422820568084716796875">
        <ele>72</ele>
        <time>2026-04-26T10:46:26.000Z</time>
        <extensions>
          <ns3:TrackPointExtension>
            <ns3:hr>116</ns3:hr>
          </ns3:TrackPointExtension>
        </extensions>
      </trkpt>
      <trkpt lat="59.08001440577208995819091796875" lon="30.08049239404499530792236328125">
        <ele>72</ele>
        <time>2026-04-26T10:46:27.000Z</time>
        <extensions>
          <ns3:TrackPointExtension>
            <ns3:hr>116</ns3:hr>
          </ns3:TrackPointExtension>
        </extensions>
      </trkpt>
      <trkpt lat="59.08001239411532878875732421875" lon="30.0804854370653629302978515625">
        <ele>71.8000030517578125</ele>
        <time>2026-04-26T10:46:30.000Z</time>
        <extensions>
          <ns3:TrackPointExtension>
            <ns3:hr>115</ns3:hr>
          </ns3:TrackPointExtension>
        </extensions>
      </trkpt>
      <trkpt lat="59.079982303082942962646484375" lon="30.08054017089307308197021484375">
        <ele>71.59999847412109375</ele>
        <time>2026-04-26T10:46:35.000Z</time>
        <extensions>
          <ns3:TrackPointExtension>
            <ns3:hr>119</ns3:hr>
          </ns3:TrackPointExtension>
        </extensions>
      </trkpt>
      <trkpt lat="59.07998599112033843994140625" lon="30.08055123500525951385498046875">
        <ele>71.59999847412109375</ele>
        <time>2026-04-26T10:46:36.000Z</time>
        <extensions>
          <ns3:TrackPointExtension>
            <ns3:hr>121</ns3:hr>
          </ns3:TrackPointExtension>
        </extensions>
      </trkpt>
      <trkpt lat="59.0799844823777675628662109375" lon="30.0805659033358097076416015625">
        <ele>71.8000030517578125</ele>
        <time>2026-04-26T10:46:38.000Z</time>
        <extensions>
          <ns3:TrackPointExtension>
            <ns3:hr>124</ns3:hr>
          </ns3:TrackPointExtension>
        </extensions>
      </trkpt>
      <trkpt lat="59.0799868293106555938720703125" lon="30.08057470433413982391357421875">
        <ele>72</ele>
        <time>2026-04-26T10:46:40.000Z</time>
        <extensions>
          <ns3:TrackPointExtension>
            <ns3:hr>126</ns3:hr>
          </ns3:TrackPointExtension>
        </extensions>
      </trkpt>
      <trkpt lat="59.0799512900412082672119140625" lon="30.08059817366302013397216796875">
        <ele>71.8000030517578125</ele>
        <time>2026-04-26T10:46:44.000Z</time>
        <extensions>
          <ns3:TrackPointExtension>
            <ns3:hr>123</ns3:hr>
          </ns3:TrackPointExtension>
        </extensions>
      </trkpt>
      <trkpt lat="59.0799439139664173126220703125" lon="30.08062633685767650604248046875">
        <ele>71.59999847412109375</ele>
        <time>2026-04-26T10:46:46.000Z</time>
        <extensions>
          <ns3:TrackPointExtension>
            <ns3:hr>121</ns3:hr>
          </ns3:TrackPointExtension>
        </extensions>
      </trkpt>
      <trkpt lat="59.079904854297637939453125" lon="30.0806423462927341461181640625">
        <ele>71.40000152587890625</ele>
        <time>2026-04-26T10:46:50.000Z</time>
        <extensions>
          <ns3:TrackPointExtension>
            <ns3:hr>118</ns3:hr>
          </ns3:TrackPointExtension>
        </extensions>
      </trkpt>
      <trkpt lat="59.07989018596708774566650390625" lon="30.080653913319110870361328125">
        <ele>71.40000152587890625</ele>
        <time>2026-04-26T10:46:52.000Z</time>
        <extensions>
          <ns3:TrackPointExtension>
            <ns3:hr>118</ns3:hr>
          </ns3:TrackPointExtension>
        </extensions>
      </trkpt>
      <trkpt lat="59.07988046295940876007080078125" lon="30.08065760135650634765625">
        <ele>71</ele>
        <time>2026-04-26T10:46:55.000Z</time>
        <extensions>
          <ns3:TrackPointExtension>
            <ns3:hr>117</ns3:hr>
          </ns3:TrackPointExtension>
        </extensions>
      </trkpt>
      <trkpt lat="59.07987895421683788299560546875" lon="30.08065651170909404754638671875">
        <ele>71</ele>
        <time>2026-04-26T10:46:56.000Z</time>
        <extensions>
          <ns3:TrackPointExtension>
            <ns3:hr>116</ns3:hr>
          </ns3:TrackPointExtension>
        </extensions>
      </trkpt>
      <trkpt lat="59.079858250916004180908203125" lon="30.0807154364883899688720703125">
        <ele>71.1999969482421875</ele>
        <time>2026-04-26T10:47:01.000Z</time>
        <extensions>
          <ns3:TrackPointExtension>
            <ns3:hr>115</ns3:hr>
          </ns3:TrackPointExtension>
        </extensions>
      </trkpt>
      <trkpt lat="59.079828076064586639404296875" lon="30.08072608150541782379150390625">
        <ele>71.1999969482421875</ele>
        <time>2026-04-26T10:47:06.000Z</time>
        <extensions>
          <ns3:TrackPointExtension>
            <ns3:hr>120</ns3:hr>
          </ns3:TrackPointExtension>
        </extensions>
      </trkpt>
      <trkpt lat="59.07981357537209987640380859375" lon="30.080730020999908447265625">
        <ele>71.1999969482421875</ele>
        <time>2026-04-26T10:47:07.000Z</time>
        <extensions>
          <ns3:TrackPointExtension>
            <ns3:hr>121</ns3:hr>
          </ns3:TrackPointExtension>
        </extensions>
      </trkpt>
      <trkpt lat="59.0798131562769412994384765625" lon="30.080743096768856048583984375">
        <ele>71.40000152587890625</ele>
        <time>2026-04-26T10:47:10.000Z</time>
        <extensions>
          <ns3:TrackPointExtension>
            <ns3:hr>118</ns3:hr>
          </ns3:TrackPointExtension>
        </extensions>
      </trkpt>
      <trkpt lat="59.07982128672301769256591796875" lon="30.08073882199823856353759765625">
        <ele>71.40000152587890625</ele>
        <time>2026-04-26T10:47:12.000Z</time>
        <extensions>
          <ns3:TrackPointExtension>
            <ns3:hr>114</ns3:hr>
          </ns3:TrackPointExtension>
        </extensions>
      </trkpt>
      <trkpt lat="59.0798346139490604400634765625" lon="30.080752484500408172607421875">
        <ele>71.40000152587890625</ele>
        <time>2026-04-26T10:47:13.000Z</time>
        <extensions>
          <ns3:TrackPointExtension>
            <ns3:hr>113</ns3:hr>
          </ns3:TrackPointExtension>
        </extensions>
      </trkpt>
      <trkpt lat="59.07983201555907726287841796875" lon="30.080774612724781036376953125">
        <ele>71.40000152587890625</ele>
        <time>2026-04-26T10:47:15.000Z</time>
        <extensions>
          <ns3:TrackPointExtension>
            <ns3:hr>110</ns3:hr>
          </ns3:TrackPointExtension>
        </extensions>
      </trkpt>
      <trkpt lat="59.0798181854188442230224609375" lon="30.0808069668710231781005859375">
        <ele>71.59999847412109375</ele>
        <time>2026-04-26T10:47:18.000Z</time>
        <extensions>
          <ns3:TrackPointExtension>
            <ns3:hr>110</ns3:hr>
          </ns3:TrackPointExtension>
        </extensions>
      </trkpt>
      <trkpt lat="59.07981608994305133819580078125" lon="30.08081979118287563323974609375">
        <ele>71.59999847412109375</ele>
        <time>2026-04-26T10:47:19.000Z</time>
        <extensions>
          <ns3:TrackPointExtension>
            <ns3:hr>110</ns3:hr>
          </ns3:TrackPointExtension>
        </extensions>
      </trkpt>
      <trkpt lat="59.079744257032871246337890625" lon="30.08087310008704662322998046875">
        <ele>72</ele>
        <time>2026-04-26T10:47:25.000Z</time>
        <extensions>
          <ns3:TrackPointExtension>
            <ns3:hr>111</ns3:hr>
          </ns3:TrackPointExtension>
        </extensions>
      </trkpt>
      <trkpt lat="59.079743586480617523193359375" lon="30.08088550530374050140380859375">
        <ele>72.1999969482421875</ele>
        <time>2026-04-26T10:47:26.000Z</time>
        <extensions>
          <ns3:TrackPointExtension>
            <ns3:hr>111</ns3:hr>
          </ns3:TrackPointExtension>
        </extensions>
      </trkpt>
      <trkpt lat="59.07974660396575927734375" lon="30.08088215254247188568115234375">
        <ele>72.59999847412109375</ele>
        <time>2026-04-26T10:47:33.000Z</time>
        <extensions>
          <ns3:TrackPointExtension>
            <ns3:hr>109</ns3:hr>
          </ns3:TrackPointExtension>
        </extensions>
      </trkpt>
      <trkpt lat="59.07974014990031719207763671875" lon="30.08085273206233978271484375">
        <ele>72</ele>
        <time>2026-04-26T10:47:38.000Z</time>
        <extensions>
          <ns3:TrackPointExtension>
            <ns3:hr>115</ns3:hr>
          </ns3:TrackPointExtension>
        </extensions>
      </trkpt>
      <trkpt lat="59.07973495312035083770751953125" lon="30.08083303458988666534423828125">
        <ele>71.8000030517578125</ele>
        <time>2026-04-26T10:47:40.000Z</time>
        <extensions>
          <ns3:TrackPointExtension>
            <ns3:hr>121</ns3:hr>
          </ns3:TrackPointExtension>
        </extensions>
      </trkpt>
      <trkpt lat="59.07973579131066799163818359375" lon="30.08083789609372615814208984375">
        <ele>71.40000152587890625</ele>
        <time>2026-04-26T10:47:41.000Z</time>
        <extensions>
          <ns3:TrackPointExtension>
            <ns3:hr>129</ns3:hr>
          </ns3:TrackPointExtension>
        </extensions>
      </trkpt>
      <trkpt lat="59.079727828502655029296875" lon="30.080826580524444580078125">
        <ele>71.40000152587890625</ele>
        <time>2026-04-26T10:47:43.000Z</time>
        <extensions>
          <ns3:TrackPointExtension>
            <ns3:hr>134</ns3:hr>
          </ns3:TrackPointExtension>
        </extensions>
      </trkpt>
      <trkpt lat="59.07972858287394046783447265625" lon="30.0808252394199371337890625">
        <ele>71.40000152587890625</ele>
        <time>2026-04-26T10:47:44.000Z</time>
        <extensions>
          <ns3:TrackPointExtension>
            <ns3:hr>134</ns3:hr>
          </ns3:TrackPointExtension>
        </extensions>
      </trkpt>
      <trkpt lat="59.0797373838722705841064453125" lon="30.08080772124230861663818359375">
        <ele>71.59999847412109375</ele>
        <time>2026-04-26T10:47:49.000Z</time>
        <extensions>
          <ns3:TrackPointExtension>
            <ns3:hr>133</ns3:hr>
          </ns3:TrackPointExtension>
        </extensions>
      </trkpt>
      <trkpt lat="59.0797514654695987701416015625" lon="30.08078634738922119140625">
        <ele>71.59999847412109375</ele>
        <time>2026-04-26T10:47:53.000Z</time>
        <extensions>
          <ns3:TrackPointExtension>
            <ns3:hr>132</ns3:hr>
          </ns3:TrackPointExtension>
        </extensions>
      </trkpt>
      <trkpt lat="59.07974182628095149993896484375" lon="30.080820880830287933349609375">
        <ele>71.8000030517578125</ele>
        <time>2026-04-26T10:47:54.000Z</time>
        <extensions>
          <ns3:TrackPointExtension>
            <ns3:hr>131</ns3:hr>
          </ns3:TrackPointExtension>
        </extensions>
      </trkpt>
      <trkpt lat="59.079733192920684814453125" lon="30.080842338502407073974609375">
        <ele>71.8000030517578125</ele>
        <time>2026-04-26T10:47:57.000Z</time>
        <extensions>
          <ns3:TrackPointExtension>
            <ns3:hr>128</ns3:hr>
          </ns3:TrackPointExtension>
        </extensions>
      </trkpt>
      <trkpt lat="59.079723469913005828857421875" lon="30.0808810628950595855712890625">
        <ele>71.59999847412109375</ele>
        <time>2026-04-26T10:48:00.000Z</time>
        <extensions>
          <ns3:TrackPointExtension>
            <ns3:hr>127</ns3:hr>
          </ns3:TrackPointExtension>
        </extensions>
      </trkpt>
      <trkpt lat="59.079715423285961151123046875" lon="30.08090428076684474945068359375">
        <ele>71.59999847412109375</ele>
        <time>2026-04-26T10:48:03.000Z</time>
        <extensions>
          <ns3:TrackPointExtension>
            <ns3:hr>128</ns3:hr>
          </ns3:TrackPointExtension>
        </extensions>
      </trkpt>
      <trkpt lat="59.0797023475170135498046875" lon="30.08092992939054965972900390625">
        <ele>71.59999847412109375</ele>
        <time>2026-04-26T10:48:05.000Z</time>
        <extensions>
          <ns3:TrackPointExtension>
            <ns3:hr>127</ns3:hr>
          </ns3:TrackPointExtension>
        </extensions>
      </trkpt>
      <trkpt lat="59.07967711798846721649169921875" lon="30.0809969007968902587890625">
        <ele>71.1999969482421875</ele>
        <time>2026-04-26T10:48:10.000Z</time>
        <extensions>
          <ns3:TrackPointExtension>
            <ns3:hr>125</ns3:hr>
          </ns3:TrackPointExtension>
        </extensions>
      </trkpt>
      <trkpt lat="59.0796916186809539794921875" lon="30.08100301958620548248291015625">
        <ele>71</ele>
        <time>2026-04-26T10:48:12.000Z</time>
        <extensions>
          <ns3:TrackPointExtension>
            <ns3:hr>125</ns3:hr>
          </ns3:TrackPointExtension>
        </extensions>
      </trkpt>
      <trkpt lat="59.07971232198178768157958984375" lon="30.0809454359114170074462890625">
        <ele>71</ele>
        <time>2026-04-26T10:48:17.000Z</time>
        <extensions>
          <ns3:TrackPointExtension>
            <ns3:hr>121</ns3:hr>
          </ns3:TrackPointExtension>
        </extensions>
      </trkpt>
      <trkpt lat="59.07971852459013462066650390625" lon="30.08094250224530696868896484375">
        <ele>71</ele>
        <time>2026-04-26T10:48:18.000Z</time>
        <extensions>
          <ns3:TrackPointExtension>
            <ns3:hr>117</ns3:hr>
          </ns3:TrackPointExtension>
        </extensions>
      </trkpt>
      <trkpt lat="59.0797212906181812286376953125" lon="30.0809419155120849609375">
        <ele>71.1999969482421875</ele>
        <time>2026-04-26T10:48:19.000Z</time>
        <extensions>
          <ns3:TrackPointExtension>
            <ns3:hr>114</ns3:hr>
          </ns3:TrackPointExtension>
        </extensions>
      </trkpt>
      <trkpt lat="59.07973310910165309906005859375" lon="30.08090746589004993438720703125">
        <ele>71.59999847412109375</ele>
        <time>2026-04-26T10:48:23.000Z</time>
        <extensions>
          <ns3:TrackPointExtension>
            <ns3:hr>117</ns3:hr>
          </ns3:TrackPointExtension>
        </extensions>
      </trkpt>
      <trkpt lat="59.0797377191483974456787109375" lon="30.08089154027402400970458984375">
        <ele>71.59999847412109375</ele>
        <time>2026-04-26T10:48:24.000Z</time>
        <extensions>
          <ns3:TrackPointExtension>
            <ns3:hr>116</ns3:hr>
          </ns3:TrackPointExtension>
        </extensions>
      </trkpt>
      <trkpt lat="59.07970712520182132720947265625" lon="30.08094535209238529205322265625">
        <ele>71.1999969482421875</ele>
        <time>2026-04-26T10:48:30.000Z</time>
        <extensions>
          <ns3:TrackPointExtension>
            <ns3:hr>116</ns3:hr>
          </ns3:TrackPointExtension>
        </extensions>
      </trkpt>
      <trkpt lat="59.07971383072435855865478515625" lon="30.08096563629806041717529296875">
        <ele>71.1999969482421875</ele>
        <time>2026-04-26T10:48:33.000Z</time>
        <extensions>
          <ns3:TrackPointExtension>
            <ns3:hr>119</ns3:hr>
          </ns3:TrackPointExtension>
        </extensions>
      </trkpt>
      <trkpt lat="59.07969857566058635711669921875" lon="30.0810044445097446441650390625">
        <ele>71</ele>
        <time>2026-04-26T10:48:37.000Z</time>
        <extensions>
          <ns3:TrackPointExtension>
            <ns3:hr>121</ns3:hr>
          </ns3:TrackPointExtension>
        </extensions>
      </trkpt>
      <trkpt lat="59.07963889651000499725341796875" lon="30.0810386426746845245361328125">
        <ele>71.40000152587890625</ele>
        <time>2026-04-26T10:48:43.000Z</time>
        <extensions>
          <ns3:TrackPointExtension>
            <ns3:hr>120</ns3:hr>
          </ns3:TrackPointExtension>
        </extensions>
      </trkpt>
      <trkpt lat="59.07961810939013957977294921875" lon="30.08111416362226009368896484375">
        <ele>71.40000152587890625</ele>
        <time>2026-04-26T10:48:49.000Z</time>
        <extensions>
          <ns3:TrackPointExtension>
            <ns3:hr>117</ns3:hr>
          </ns3:TrackPointExtension>
        </extensions>
      </trkpt>
      <trkpt lat="59.07961676828563213348388671875" lon="30.08112237788736820220947265625">
        <ele>71.1999969482421875</ele>
        <time>2026-04-26T10:48:50.000Z</time>
        <extensions>
          <ns3:TrackPointExtension>
            <ns3:hr>117</ns3:hr>
          </ns3:TrackPointExtension>
        </extensions>
      </trkpt>
      <trkpt lat="59.07959572970867156982421875" lon="30.0811398960649967193603515625">
        <ele>71.1999969482421875</ele>
        <time>2026-04-26T10:48:52.000Z</time>
        <extensions>
          <ns3:TrackPointExtension>
            <ns3:hr>114</ns3:hr>
          </ns3:TrackPointExtension>
        </extensions>
      </trkpt>
      <trkpt lat="59.0795824863016605377197265625" lon="30.08118440397083759307861328125">
        <ele>71.1999969482421875</ele>
        <time>2026-04-26T10:48:55.000Z</time>
        <extensions>
          <ns3:TrackPointExtension>
            <ns3:hr>118</ns3:hr>
          </ns3:TrackPointExtension>
        </extensions>
      </trkpt>
      <trkpt lat="59.0795523114502429962158203125" lon="30.0812133215367794036865234375">
        <ele>71.40000152587890625</ele>
        <time>2026-04-26T10:48:58.000Z</time>
        <extensions>
          <ns3:TrackPointExtension>
            <ns3:hr>121</ns3:hr>
          </ns3:TrackPointExtension>
        </extensions>
      </trkpt>
      <trkpt lat="59.07952792011201381683349609375" lon="30.08122564293444156646728515625">
        <ele>71.40000152587890625</ele>
        <time>2026-04-26T10:49:02.000Z</time>
        <extensions>
          <ns3:TrackPointExtension>
            <ns3:hr>121</ns3:hr>
          </ns3:TrackPointExtension>
        </extensions>
      </trkpt>
      <trkpt lat="59.07949405722320079803466796875" lon="30.081297643482685089111328125">
        <ele>72</ele>
        <time>2026-04-26T10:49:07.000Z</time>
        <extensions>
          <ns3:TrackPointExtension>
            <ns3:hr>124</ns3:hr>
          </ns3:TrackPointExtension>
        </extensions>
      </trkpt>
      <trkpt lat="59.0794879384338855743408203125" lon="30.08130108006298542022705078125">
        <ele>72.1999969482421875</ele>
        <time>2026-04-26T10:49:09.000Z</time>
        <extensions>
          <ns3:TrackPointExtension>
            <ns3:hr>124</ns3:hr>
          </ns3:TrackPointExtension>
        </extensions>
      </trkpt>
      <trkpt lat="59.07944460399448871612548828125" lon="30.08133846335113048553466796875">
        <ele>71.59999847412109375</ele>
        <time>2026-04-26T10:49:15.000Z</time>
        <extensions>
          <ns3:TrackPointExtension>
            <ns3:hr>125</ns3:hr>
          </ns3:TrackPointExtension>
        </extensions>
      </trkpt>
      <trkpt lat="59.07941191457211971282958984375" lon="30.08135086856782436370849609375">
        <ele>71.1999969482421875</ele>
        <time>2026-04-26T10:49:20.000Z</time>
        <extensions>
          <ns3:TrackPointExtension>
            <ns3:hr>126</ns3:hr>
          </ns3:TrackPointExtension>
        </extensions>
      </trkpt>
      <trkpt lat="59.0793695859611034393310546875" lon="30.08144860155880451202392578125">
        <ele>71.1999969482421875</ele>
        <time>2026-04-26T10:49:27.000Z</time>
        <extensions>
          <ns3:TrackPointExtension>
            <ns3:hr>123</ns3:hr>
          </ns3:TrackPointExtension>
        </extensions>
      </trkpt>
      <trkpt lat="59.07936573028564453125" lon="30.081470310688018798828125">
        <ele>71.1999969482421875</ele>
        <time>2026-04-26T10:49:29.000Z</time>
        <extensions>
          <ns3:TrackPointExtension>
            <ns3:hr>123</ns3:hr>
          </ns3:TrackPointExtension>
        </extensions>
      </trkpt>
      <trkpt lat="59.0793407522141933441162109375" lon="30.08150761015713214874267578125">
        <ele>70.8000030517578125</ele>
        <time>2026-04-26T10:49:32.000Z</time>
        <extensions>
          <ns3:TrackPointExtension>
            <ns3:hr>121</ns3:hr>
          </ns3:TrackPointExtension>
        </extensions>
      </trkpt>
      <trkpt lat="59.0793253295123577117919921875" lon="30.08152328431606292724609375">
        <ele>71</ele>
        <time>2026-04-26T10:49:34.000Z</time>
        <extensions>
          <ns3:TrackPointExtension>
            <ns3:hr>118</ns3:hr>
          </ns3:TrackPointExtension>
        </extensions>
      </trkpt>
      <trkpt lat="59.07929590903222560882568359375" lon="30.08156728930771350860595703125">
        <ele>71</ele>
        <time>2026-04-26T10:49:38.000Z</time>
        <extensions>
          <ns3:TrackPointExtension>
            <ns3:hr>116</ns3:hr>
          </ns3:TrackPointExtension>
        </extensions>
      </trkpt>
      <trkpt lat="59.07925416715443134307861328125" lon="30.08164389990270137786865234375">
        <ele>71.40000152587890625</ele>
        <time>2026-04-26T10:49:44.000Z</time>
        <extensions>
          <ns3:TrackPointExtension>
            <ns3:hr>114</ns3:hr>
          </ns3:TrackPointExtension>
        </extensions>
      </trkpt>
      <trkpt lat="59.079235307872295379638671875" lon="30.08169905282557010650634765625">
        <ele>71.59999847412109375</ele>
        <time>2026-04-26T10:49:48.000Z</time>
        <extensions>
          <ns3:TrackPointExtension>
            <ns3:hr>111</ns3:hr>
          </ns3:TrackPointExtension>
        </extensions>
      </trkpt>
      <trkpt lat="59.0792348049581050872802734375" lon="30.081703662872314453125">
        <ele>71.40000152587890625</ele>
        <time>2026-04-26T10:49:49.000Z</time>
        <extensions>
          <ns3:TrackPointExtension>
            <ns3:hr>110</ns3:hr>
          </ns3:TrackPointExtension>
        </extensions>
      </trkpt>
      <trkpt lat="59.079197756946086883544921875" lon="30.08172604255378246307373046875">
        <ele>71.1999969482421875</ele>
        <time>2026-04-26T10:49:52.000Z</time>
        <extensions>
          <ns3:TrackPointExtension>
            <ns3:hr>107</ns3:hr>
          </ns3:TrackPointExtension>
        </extensions>
      </trkpt>
      <trkpt lat="59.07919465564191341400146484375" lon="30.081733167171478271484375">
        <ele>71.1999969482421875</ele>
        <time>2026-04-26T10:49:53.000Z</time>
        <extensions>
          <ns3:TrackPointExtension>
            <ns3:hr>108</ns3:hr>
          </ns3:TrackPointExtension>
        </extensions>
      </trkpt>
      <trkpt lat="59.07916800118982791900634765625" lon="30.0817517749965190887451171875">
        <ele>71.1999969482421875</ele>
        <time>2026-04-26T10:49:56.000Z</time>
        <extensions>
          <ns3:TrackPointExtension>
            <ns3:hr>107</ns3:hr>
          </ns3:TrackPointExtension>
        </extensions>
      </trkpt>
      <trkpt lat="59.07915526069700717926025390625" lon="30.081749595701694488525390625">
        <ele>71</ele>
        <time>2026-04-26T10:49:58.000Z</time>
        <extensions>
          <ns3:TrackPointExtension>
            <ns3:hr>108</ns3:hr>
          </ns3:TrackPointExtension>
        </extensions>
      </trkpt>
      <trkpt lat="59.07912190072238445281982421875" lon="30.0817988812923431396484375">
        <ele>71.1999969482421875</ele>
        <time>2026-04-26T10:50:01.000Z</time>
        <extensions>
          <ns3:TrackPointExtension>
            <ns3:hr>113</ns3:hr>
          </ns3:TrackPointExtension>
        </extensions>
      </trkpt>
      <trkpt lat="59.0791147761046886444091796875" lon="30.08180935867130756378173828125">
        <ele>71.40000152587890625</ele>
        <time>2026-04-26T10:50:02.000Z</time>
        <extensions>
          <ns3:TrackPointExtension>
            <ns3:hr>116</ns3:hr>
          </ns3:TrackPointExtension>
        </extensions>
      </trkpt>
      <trkpt lat="59.0791087411344051361083984375" lon="30.08182008750736713409423828125">
        <ele>71.40000152587890625</ele>
        <time>2026-04-26T10:50:03.000Z</time>
        <extensions>
          <ns3:TrackPointExtension>
            <ns3:hr>116</ns3:hr>
          </ns3:TrackPointExtension>
        </extensions>
      </trkpt>
      <trkpt lat="59.07908049412071704864501953125" lon="30.0818781740963459014892578125">
        <ele>71.40000152587890625</ele>
        <time>2026-04-26T10:50:06.000Z</time>
        <extensions>
          <ns3:TrackPointExtension>
            <ns3:hr>119</ns3:hr>
          </ns3:TrackPointExtension>
        </extensions>
      </trkpt>
      <trkpt lat="59.079081751406192779541015625" lon="30.0818865559995174407958984375">
        <ele>71.40000152587890625</ele>
        <time>2026-04-26T10:50:07.000Z</time>
        <extensions>
          <ns3:TrackPointExtension>
            <ns3:hr>120</ns3:hr>
          </ns3:TrackPointExtension>
        </extensions>
      </trkpt>
      <trkpt lat="59.07904730178415775299072265625" lon="30.081953108310699462890625">
        <ele>71.1999969482421875</ele>
        <time>2026-04-26T10:50:12.000Z</time>
        <extensions>
          <ns3:TrackPointExtension>
            <ns3:hr>118</ns3:hr>
          </ns3:TrackPointExtension>
        </extensions>
      </trkpt>
      <trkpt lat="59.07901779748499393463134765625" lon="30.08195889182388782501220703125">
        <ele>71.1999969482421875</ele>
        <time>2026-04-26T10:50:18.000Z</time>
        <extensions>
          <ns3:TrackPointExtension>
            <ns3:hr>116</ns3:hr>
          </ns3:TrackPointExtension>
        </extensions>
      </trkpt>
      <trkpt lat="59.07897219993174076080322265625" lon="30.08200205862522125244140625">
        <ele>71.40000152587890625</ele>
        <time>2026-04-26T10:50:24.000Z</time>
        <extensions>
          <ns3:TrackPointExtension>
            <ns3:hr>117</ns3:hr>
          </ns3:TrackPointExtension>
        </extensions>
      </trkpt>
      <trkpt lat="59.078939259052276611328125" lon="30.0820427946746349334716796875">
        <ele>71</ele>
        <time>2026-04-26T10:50:29.000Z</time>
        <extensions>
          <ns3:TrackPointExtension>
            <ns3:hr>115</ns3:hr>
          </ns3:TrackPointExtension>
        </extensions>
      </trkpt>
      <trkpt lat="59.07892241142690181732177734375" lon="30.082072131335735321044921875">
        <ele>70.8000030517578125</ele>
        <time>2026-04-26T10:50:34.000Z</time>
        <extensions>
          <ns3:TrackPointExtension>
            <ns3:hr>114</ns3:hr>
          </ns3:TrackPointExtension>
        </extensions>
      </trkpt>
      <trkpt lat="59.07891721464693546295166015625" lon="30.08208579383790493011474609375">
        <ele>70.8000030517578125</ele>
        <time>2026-04-26T10:50:35.000Z</time>
        <extensions>
          <ns3:TrackPointExtension>
            <ns3:hr>114</ns3:hr>
          </ns3:TrackPointExtension>
        </extensions>
      </trkpt>
      <trkpt lat="59.07890263013541698455810546875" lon="30.08214010857045650482177734375">
        <ele>70.8000030517578125</ele>
        <time>2026-04-26T10:50:38.000Z</time>
        <extensions>
          <ns3:TrackPointExtension>
            <ns3:hr>114</ns3:hr>
          </ns3:TrackPointExtension>
        </extensions>
      </trkpt>
      <trkpt lat="59.0788572840392589569091796875" lon="30.082176737487316131591796875">
        <ele>70.8000030517578125</ele>
        <time>2026-04-26T10:50:42.000Z</time>
        <extensions>
          <ns3:TrackPointExtension>
            <ns3:hr>111</ns3:hr>
          </ns3:TrackPointExtension>
        </extensions>
      </trkpt>
      <trkpt lat="59.0788225829601287841796875" lon="30.08220397867262363433837890625">
        <ele>70.59999847412109375</ele>
        <time>2026-04-26T10:50:46.000Z</time>
        <extensions>
          <ns3:TrackPointExtension>
            <ns3:hr>108</ns3:hr>
          </ns3:TrackPointExtension>
        </extensions>
      </trkpt>
      <trkpt lat="59.07881378196179866790771484375" lon="30.0822235085070133209228515625">
        <ele>70.59999847412109375</ele>
        <time>2026-04-26T10:50:47.000Z</time>
        <extensions>
          <ns3:TrackPointExtension>
            <ns3:hr>109</ns3:hr>
          </ns3:TrackPointExtension>
        </extensions>
      </trkpt>
      <trkpt lat="59.0788123570382595062255859375" lon="30.08224722929298877716064453125">
        <ele>70.40000152587890625</ele>
        <time>2026-04-26T10:50:48.000Z</time>
        <extensions>
          <ns3:TrackPointExtension>
            <ns3:hr>112</ns3:hr>
          </ns3:TrackPointExtension>
        </extensions>
      </trkpt>
      <trkpt lat="59.07878704369068145751953125" lon="30.08226432837545871734619140625">
        <ele>70.8000030517578125</ele>
        <time>2026-04-26T10:50:54.000Z</time>
        <extensions>
          <ns3:TrackPointExtension>
            <ns3:hr>114</ns3:hr>
          </ns3:TrackPointExtension>
        </extensions>
      </trkpt>
      <trkpt lat="59.0787788294255733489990234375" lon="30.082269273698329925537109375">
        <ele>71</ele>
        <time>2026-04-26T10:50:55.000Z</time>
        <extensions>
          <ns3:TrackPointExtension>
            <ns3:hr>115</ns3:hr>
          </ns3:TrackPointExtension>
        </extensions>
      </trkpt>
      <trkpt lat="59.078755192458629608154296875" lon="30.0823204033076763153076171875">
        <ele>71.59999847412109375</ele>
        <time>2026-04-26T10:50:59.000Z</time>
        <extensions>
          <ns3:TrackPointExtension>
            <ns3:hr>116</ns3:hr>
          </ns3:TrackPointExtension>
        </extensions>
      </trkpt>
      <trkpt lat="59.07871789298951625823974609375" lon="30.08235686458647251129150390625">
        <ele>71.59999847412109375</ele>
        <time>2026-04-26T10:51:04.000Z</time>
        <extensions>
          <ns3:TrackPointExtension>
            <ns3:hr>119</ns3:hr>
          </ns3:TrackPointExtension>
        </extensions>
      </trkpt>
      <trkpt lat="59.0787112712860107421875" lon="30.0823562778532505035400390625">
        <ele>71.40000152587890625</ele>
        <time>2026-04-26T10:51:05.000Z</time>
        <extensions>
          <ns3:TrackPointExtension>
            <ns3:hr>120</ns3:hr>
          </ns3:TrackPointExtension>
        </extensions>
      </trkpt>
      <trkpt lat="59.07867975533008575439453125" lon="30.08240547962486743927001953125">
        <ele>71.1999969482421875</ele>
        <time>2026-04-26T10:51:10.000Z</time>
        <extensions>
          <ns3:TrackPointExtension>
            <ns3:hr>121</ns3:hr>
          </ns3:TrackPointExtension>
        </extensions>
      </trkpt>
      <trkpt lat="59.0786457248032093048095703125" lon="30.0824399292469024658203125">
        <ele>70.8000030517578125</ele>
        <time>2026-04-26T10:51:16.000Z</time>
        <extensions>
          <ns3:TrackPointExtension>
            <ns3:hr>121</ns3:hr>
          </ns3:TrackPointExtension>
        </extensions>
      </trkpt>
      <trkpt lat="59.0785843692719936370849609375" lon="30.08248041383922100067138671875">
        <ele>70.8000030517578125</ele>
        <time>2026-04-26T10:51:22.000Z</time>
        <extensions>
          <ns3:TrackPointExtension>
            <ns3:hr>118</ns3:hr>
          </ns3:TrackPointExtension>
        </extensions>
      </trkpt>
      <trkpt lat="59.0785602293908596038818359375" lon="30.08253606967628002166748046875">
        <ele>70.8000030517578125</ele>
        <time>2026-04-26T10:51:26.000Z</time>
        <extensions>
          <ns3:TrackPointExtension>
            <ns3:hr>119</ns3:hr>
          </ns3:TrackPointExtension>
        </extensions>
      </trkpt>
      <trkpt lat="59.07852024771273136138916015625" lon="30.08260580711066722869873046875">
        <ele>70.8000030517578125</ele>
        <time>2026-04-26T10:51:31.000Z</time>
        <extensions>
          <ns3:TrackPointExtension>
            <ns3:hr>120</ns3:hr>
          </ns3:TrackPointExtension>
        </extensions>
      </trkpt>
      <trkpt lat="59.07847666181623935699462890625" lon="30.08264000527560710906982421875">
        <ele>70.59999847412109375</ele>
        <time>2026-04-26T10:51:37.000Z</time>
        <extensions>
          <ns3:TrackPointExtension>
            <ns3:hr>121</ns3:hr>
          </ns3:TrackPointExtension>
        </extensions>
      </trkpt>
      <trkpt lat="59.07846383750438690185546875" lon="30.08266950957477092742919921875">
        <ele>70.40000152587890625</ele>
        <time>2026-04-26T10:51:43.000Z</time>
        <extensions>
          <ns3:TrackPointExtension>
            <ns3:hr>119</ns3:hr>
          </ns3:TrackPointExtension>
        </extensions>
      </trkpt>
      <trkpt lat="59.078451432287693023681640625" lon="30.08268157951533794403076171875">
        <ele>70.40000152587890625</ele>
        <time>2026-04-26T10:51:46.000Z</time>
        <extensions>
          <ns3:TrackPointExtension>
            <ns3:hr>115</ns3:hr>
          </ns3:TrackPointExtension>
        </extensions>
      </trkpt>
      <trkpt lat="59.07845838926732540130615234375" lon="30.08268325589597225189208984375">
        <ele>70.1999969482421875</ele>
        <time>2026-04-26T10:51:48.000Z</time>
        <extensions>
          <ns3:TrackPointExtension>
            <ns3:hr>112</ns3:hr>
          </ns3:TrackPointExtension>
        </extensions>
      </trkpt>
      <trkpt lat="59.07845721580088138580322265625" lon="30.08267386816442012786865234375">
        <ele>70</ele>
        <time>2026-04-26T10:51:49.000Z</time>
        <extensions>
          <ns3:TrackPointExtension>
            <ns3:hr>112</ns3:hr>
          </ns3:TrackPointExtension>
        </extensions>
      </trkpt>
      <trkpt lat="59.07845201902091503143310546875" lon="30.08266389369964599609375">
        <ele>70</ele>
        <time>2026-04-26T10:51:50.000Z</time>
        <extensions>
          <ns3:TrackPointExtension>
            <ns3:hr>111</ns3:hr>
          </ns3:TrackPointExtension>
        </extensions>
      </trkpt>
      <trkpt lat="59.07840206287801265716552734375" lon="30.08261301554739475250244140625">
        <ele>70.1999969482421875</ele>
        <time>2026-04-26T10:51:55.000Z</time>
        <extensions>
          <ns3:TrackPointExtension>
            <ns3:hr>115</ns3:hr>
          </ns3:TrackPointExtension>
        </extensions>
      </trkpt>
      <trkpt lat="59.078387059271335601806640625" lon="30.08262961171567440032958984375">
        <ele>70.40000152587890625</ele>
        <time>2026-04-26T10:51:57.000Z</time>
        <extensions>
          <ns3:TrackPointExtension>
            <ns3:hr>119</ns3:hr>
          </ns3:TrackPointExtension>
        </extensions>
      </trkpt>
      <trkpt lat="59.0783677808940410614013671875" lon="30.08263061754405498504638671875">
        <ele>70.59999847412109375</ele>
        <time>2026-04-26T10:52:02.000Z</time>
        <extensions>
          <ns3:TrackPointExtension>
            <ns3:hr>120</ns3:hr>
          </ns3:TrackPointExtension>
        </extensions>
      </trkpt>
      <trkpt lat="59.07834523357450962066650390625" lon="30.0826866924762725830078125">
        <ele>71</ele>
        <time>2026-04-26T10:52:07.000Z</time>
        <extensions>
          <ns3:TrackPointExtension>
            <ns3:hr>123</ns3:hr>
          </ns3:TrackPointExtension>
        </extensions>
      </trkpt>
      <trkpt lat="59.07833517529070377349853515625" lon="30.082701109349727630615234375">
        <ele>71</ele>
        <time>2026-04-26T10:52:08.000Z</time>
        <extensions>
          <ns3:TrackPointExtension>
            <ns3:hr>123</ns3:hr>
          </ns3:TrackPointExtension>
        </extensions>
      </trkpt>
      <trkpt lat="59.07829544506967067718505859375" lon="30.082699768245220184326171875">
        <ele>71</ele>
        <time>2026-04-26T10:52:11.000Z</time>
        <extensions>
          <ns3:TrackPointExtension>
            <ns3:hr>122</ns3:hr>
          </ns3:TrackPointExtension>
        </extensions>
      </trkpt>
      <trkpt lat="59.07826267182826995849609375" lon="30.08270077407360076904296875">
        <ele>71</ele>
        <time>2026-04-26T10:52:14.000Z</time>
        <extensions>
          <ns3:TrackPointExtension>
            <ns3:hr>121</ns3:hr>
          </ns3:TrackPointExtension>
        </extensions>
      </trkpt>
      <trkpt lat="59.0782437287271022796630859375" lon="30.0826845131814479827880859375">
        <ele>71</ele>
        <time>2026-04-26T10:52:16.000Z</time>
        <extensions>
          <ns3:TrackPointExtension>
            <ns3:hr>121</ns3:hr>
          </ns3:TrackPointExtension>
        </extensions>
      </trkpt>
      <trkpt lat="59.0782262943685054779052734375" lon="30.08266950957477092742919921875">
        <ele>70.59999847412109375</ele>
        <time>2026-04-26T10:52:20.000Z</time>
        <extensions>
          <ns3:TrackPointExtension>
            <ns3:hr>122</ns3:hr>
          </ns3:TrackPointExtension>
        </extensions>
      </trkpt>
      <trkpt lat="59.0781766735017299652099609375" lon="30.08268090896308422088623046875">
        <ele>71.1999969482421875</ele>
        <time>2026-04-26T10:52:27.000Z</time>
        <extensions>
          <ns3:TrackPointExtension>
            <ns3:hr>119</ns3:hr>
          </ns3:TrackPointExtension>
        </extensions>
      </trkpt>
      <trkpt lat="59.07816636376082897186279296875" lon="30.08269264362752437591552734375">
        <ele>71.1999969482421875</ele>
        <time>2026-04-26T10:52:28.000Z</time>
        <extensions>
          <ns3:TrackPointExtension>
            <ns3:hr>122</ns3:hr>
          </ns3:TrackPointExtension>
        </extensions>
      </trkpt>
      <trkpt lat="59.07814272679388523101806640625" lon="30.0827069766819477081298828125">
        <ele>71.1999969482421875</ele>
        <time>2026-04-26T10:52:30.000Z</time>
        <extensions>
          <ns3:TrackPointExtension>
            <ns3:hr>125</ns3:hr>
          </ns3:TrackPointExtension>
        </extensions>
      </trkpt>
      <trkpt lat="59.07813283614814281463623046875" lon="30.0827135145664215087890625">
        <ele>71.1999969482421875</ele>
        <time>2026-04-26T10:52:31.000Z</time>
        <extensions>
          <ns3:TrackPointExtension>
            <ns3:hr>126</ns3:hr>
          </ns3:TrackPointExtension>
        </extensions>
      </trkpt>
      <trkpt lat="59.0780650265514850616455078125" lon="30.08272784762084484100341796875">
        <ele>71</ele>
        <time>2026-04-26T10:52:37.000Z</time>
        <extensions>
          <ns3:TrackPointExtension>
            <ns3:hr>126</ns3:hr>
          </ns3:TrackPointExtension>
        </extensions>
      </trkpt>
      <trkpt lat="59.0780033357441425323486328125" lon="30.08274712599813938140869140625">
        <ele>70.59999847412109375</ele>
        <time>2026-04-26T10:52:45.000Z</time>
        <extensions>
          <ns3:TrackPointExtension>
            <ns3:hr>127</ns3:hr>
          </ns3:TrackPointExtension>
        </extensions>
      </trkpt>
      <trkpt lat="59.07794541679322719573974609375" lon="30.082776546478271484375">
        <ele>70.8000030517578125</ele>
        <time>2026-04-26T10:52:51.000Z</time>
        <extensions>
          <ns3:TrackPointExtension>
            <ns3:hr>126</ns3:hr>
          </ns3:TrackPointExtension>
        </extensions>
      </trkpt>
      <trkpt lat="59.07787886448204517364501953125" lon="30.0827592797577381134033203125">
        <ele>70.8000030517578125</ele>
        <time>2026-04-26T10:52:58.000Z</time>
        <extensions>
          <ns3:TrackPointExtension>
            <ns3:hr>125</ns3:hr>
          </ns3:TrackPointExtension>
        </extensions>
      </trkpt>
      <trkpt lat="59.07784030772745609283447265625" lon="30.08277026005089282989501953125">
        <ele>71.1999969482421875</ele>
        <time>2026-04-26T10:53:01.000Z</time>
        <extensions>
          <ns3:TrackPointExtension>
            <ns3:hr>121</ns3:hr>
          </ns3:TrackPointExtension>
        </extensions>
      </trkpt>
      <trkpt lat="59.07783544622361660003662109375" lon="30.0827658176422119140625">
        <ele>71.1999969482421875</ele>
        <time>2026-04-26T10:53:02.000Z</time>
        <extensions>
          <ns3:TrackPointExtension>
            <ns3:hr>122</ns3:hr>
          </ns3:TrackPointExtension>
        </extensions>
      </trkpt>
      <trkpt lat="59.07782949507236480712890625" lon="30.08275751955807209014892578125">
        <ele>71.1999969482421875</ele>
        <time>2026-04-26T10:53:03.000Z</time>
        <extensions>
          <ns3:TrackPointExtension>
            <ns3:hr>119</ns3:hr>
          </ns3:TrackPointExtension>
        </extensions>
      </trkpt>
      <trkpt lat="59.0778219513595104217529296875" lon="30.08277411572635173797607421875">
        <ele>71</ele>
        <time>2026-04-26T10:53:06.000Z</time>
        <extensions>
          <ns3:TrackPointExtension>
            <ns3:hr>119</ns3:hr>
          </ns3:TrackPointExtension>
        </extensions>
      </trkpt>
      <trkpt lat="59.0778152458369731903076171875" lon="30.08277830667793750762939453125">
        <ele>71</ele>
        <time>2026-04-26T10:53:07.000Z</time>
        <extensions>
          <ns3:TrackPointExtension>
            <ns3:hr>118</ns3:hr>
          </ns3:TrackPointExtension>
        </extensions>
      </trkpt>
      <trkpt lat="59.07774659804999828338623046875" lon="30.08283278904855251312255859375">
        <ele>70.8000030517578125</ele>
        <time>2026-04-26T10:53:14.000Z</time>
        <extensions>
          <ns3:TrackPointExtension>
            <ns3:hr>115</ns3:hr>
          </ns3:TrackPointExtension>
        </extensions>
      </trkpt>
      <trkpt lat="59.077734611928462982177734375" lon="30.08283488452434539794921875">
        <ele>70.59999847412109375</ele>
        <time>2026-04-26T10:53:15.000Z</time>
        <extensions>
          <ns3:TrackPointExtension>
            <ns3:hr>115</ns3:hr>
          </ns3:TrackPointExtension>
        </extensions>
      </trkpt>
      <trkpt lat="59.077715165913105010986328125" lon="30.082864724099636077880859375">
        <ele>70.59999847412109375</ele>
        <time>2026-04-26T10:53:18.000Z</time>
        <extensions>
          <ns3:TrackPointExtension>
            <ns3:hr>116</ns3:hr>
          </ns3:TrackPointExtension>
        </extensions>
      </trkpt>
      <trkpt lat="59.0776948817074298858642578125" lon="30.08288609795272350311279296875">
        <ele>70.59999847412109375</ele>
        <time>2026-04-26T10:53:22.000Z</time>
        <extensions>
          <ns3:TrackPointExtension>
            <ns3:hr>115</ns3:hr>
          </ns3:TrackPointExtension>
        </extensions>
      </trkpt>
      <trkpt lat="59.07767753116786479949951171875" lon="30.0828900374472141265869140625">
        <ele>70.40000152587890625</ele>
        <time>2026-04-26T10:53:25.000Z</time>
        <extensions>
          <ns3:TrackPointExtension>
            <ns3:hr>118</ns3:hr>
          </ns3:TrackPointExtension>
        </extensions>
      </trkpt>
      <trkpt lat="59.07764249481260776519775390625" lon="30.0828876905143260955810546875">
        <ele>70.40000152587890625</ele>
        <time>2026-04-26T10:53:28.000Z</time>
        <extensions>
          <ns3:TrackPointExtension>
            <ns3:hr>121</ns3:hr>
          </ns3:TrackPointExtension>
        </extensions>
      </trkpt>
      <trkpt lat="59.07763780094683170318603515625" lon="30.08289515040814876556396484375">
        <ele>70.40000152587890625</ele>
        <time>2026-04-26T10:53:29.000Z</time>
        <extensions>
          <ns3:TrackPointExtension>
            <ns3:hr>123</ns3:hr>
          </ns3:TrackPointExtension>
        </extensions>
      </trkpt>
      <trkpt lat="59.07758734188973903656005859375" lon="30.082899592816829681396484375">
        <ele>70.59999847412109375</ele>
        <time>2026-04-26T10:53:33.000Z</time>
        <extensions>
          <ns3:TrackPointExtension>
            <ns3:hr>121</ns3:hr>
          </ns3:TrackPointExtension>
        </extensions>
      </trkpt>
      <trkpt lat="59.0775476954877376556396484375" lon="30.0829292647540569305419921875">
        <ele>70.59999847412109375</ele>
        <time>2026-04-26T10:53:38.000Z</time>
        <extensions>
          <ns3:TrackPointExtension>
            <ns3:hr>119</ns3:hr>
          </ns3:TrackPointExtension>
        </extensions>
      </trkpt>
      <trkpt lat="59.0775083005428314208984375" lon="30.08295197971165180206298828125">
        <ele>70.40000152587890625</ele>
        <time>2026-04-26T10:53:42.000Z</time>
        <extensions>
          <ns3:TrackPointExtension>
            <ns3:hr>118</ns3:hr>
          </ns3:TrackPointExtension>
        </extensions>
      </trkpt>
      <trkpt lat="59.077421464025974273681640625" lon="30.082979388535022735595703125">
        <ele>70.40000152587890625</ele>
        <time>2026-04-26T10:53:48.000Z</time>
        <extensions>
          <ns3:TrackPointExtension>
            <ns3:hr>117</ns3:hr>
          </ns3:TrackPointExtension>
        </extensions>
      </trkpt>
      <trkpt lat="59.0773669816553592681884765625" lon="30.08300411514937877655029296875">
        <ele>70</ele>
        <time>2026-04-26T10:53:53.000Z</time>
        <extensions>
          <ns3:TrackPointExtension>
            <ns3:hr>115</ns3:hr>
          </ns3:TrackPointExtension>
        </extensions>
      </trkpt>
      <trkpt lat="59.077351726591587066650390625" lon="30.08299489505589008331298828125">
        <ele>70</ele>
        <time>2026-04-26T10:53:55.000Z</time>
        <extensions>
          <ns3:TrackPointExtension>
            <ns3:hr>115</ns3:hr>
          </ns3:TrackPointExtension>
        </extensions>
      </trkpt>
      <trkpt lat="59.0772969089448451995849609375" lon="30.08301450870931148529052734375">
        <ele>69.8000030517578125</ele>
        <time>2026-04-26T10:54:01.000Z</time>
        <extensions>
          <ns3:TrackPointExtension>
            <ns3:hr>116</ns3:hr>
          </ns3:TrackPointExtension>
        </extensions>
      </trkpt>
      <trkpt lat="59.0772556699812412261962890625" lon="30.08301517926156520843505859375">
        <ele>70</ele>
        <time>2026-04-26T10:54:06.000Z</time>
        <extensions>
          <ns3:TrackPointExtension>
            <ns3:hr>114</ns3:hr>
          </ns3:TrackPointExtension>
        </extensions>
      </trkpt>
      <trkpt lat="59.0771949850022792816162109375" lon="30.083009563386440277099609375">
        <ele>70.1999969482421875</ele>
        <time>2026-04-26T10:54:11.000Z</time>
        <extensions>
          <ns3:TrackPointExtension>
            <ns3:hr>114</ns3:hr>
          </ns3:TrackPointExtension>
        </extensions>
      </trkpt>
      <trkpt lat="59.07713857479393482208251953125" lon="30.0830419175326824188232421875">
        <ele>70.1999969482421875</ele>
        <time>2026-04-26T10:54:17.000Z</time>
        <extensions>
          <ns3:TrackPointExtension>
            <ns3:hr>112</ns3:hr>
          </ns3:TrackPointExtension>
        </extensions>
      </trkpt>
      <trkpt lat="59.0770940668880939483642578125" lon="30.08305273018777370452880859375">
        <ele>70.40000152587890625</ele>
        <time>2026-04-26T10:54:22.000Z</time>
        <extensions>
          <ns3:TrackPointExtension>
            <ns3:hr>110</ns3:hr>
          </ns3:TrackPointExtension>
        </extensions>
      </trkpt>
      <trkpt lat="59.07706732861697673797607421875" lon="30.083079971373081207275390625">
        <ele>70.59999847412109375</ele>
        <time>2026-04-26T10:54:26.000Z</time>
        <extensions>
          <ns3:TrackPointExtension>
            <ns3:hr>113</ns3:hr>
          </ns3:TrackPointExtension>
        </extensions>
      </trkpt>
      <trkpt lat="59.077052660286426544189453125" lon="30.0830836594104766845703125">
        <ele>70.59999847412109375</ele>
        <time>2026-04-26T10:54:28.000Z</time>
        <extensions>
          <ns3:TrackPointExtension>
            <ns3:hr>113</ns3:hr>
          </ns3:TrackPointExtension>
        </extensions>
      </trkpt>
      <trkpt lat="59.07700463198125362396240234375" lon="30.08309782482683658599853515625">
        <ele>70.8000030517578125</ele>
        <time>2026-04-26T10:54:33.000Z</time>
        <extensions>
          <ns3:TrackPointExtension>
            <ns3:hr>111</ns3:hr>
          </ns3:TrackPointExtension>
        </extensions>
      </trkpt>
      <trkpt lat="59.07696775160729885101318359375" lon="30.08310939185321331024169921875">
        <ele>70.59999847412109375</ele>
        <time>2026-04-26T10:54:39.000Z</time>
        <extensions>
          <ns3:TrackPointExtension>
            <ns3:hr>111</ns3:hr>
          </ns3:TrackPointExtension>
        </extensions>
      </trkpt>
      <trkpt lat="59.07695911824703216552734375" lon="30.08314074017107486724853515625">
        <ele>70.59999847412109375</ele>
        <time>2026-04-26T10:54:42.000Z</time>
        <extensions>
          <ns3:TrackPointExtension>
            <ns3:hr>114</ns3:hr>
          </ns3:TrackPointExtension>
        </extensions>
      </trkpt>
      <trkpt lat="59.07696439884603023529052734375" lon="30.0831502117216587066650390625">
        <ele>70.59999847412109375</ele>
        <time>2026-04-26T10:54:43.000Z</time>
        <extensions>
          <ns3:TrackPointExtension>
            <ns3:hr>117</ns3:hr>
          </ns3:TrackPointExtension>
        </extensions>
      </trkpt>
      <trkpt lat="59.076967500150203704833984375" lon="30.08314845152199268341064453125">
        <ele>70.40000152587890625</ele>
        <time>2026-04-26T10:54:44.000Z</time>
        <extensions>
          <ns3:TrackPointExtension>
            <ns3:hr>121</ns3:hr>
          </ns3:TrackPointExtension>
        </extensions>
      </trkpt>
      <trkpt lat="59.07697663642466068267822265625" lon="30.0831676460802555084228515625">
        <ele>70</ele>
        <time>2026-04-26T10:54:47.000Z</time>
        <extensions>
          <ns3:TrackPointExtension>
            <ns3:hr>124</ns3:hr>
          </ns3:TrackPointExtension>
        </extensions>
      </trkpt>
      <trkpt lat="59.076987616717815399169921875" lon="30.08318063803017139434814453125">
        <ele>69.8000030517578125</ele>
        <time>2026-04-26T10:54:50.000Z</time>
        <extensions>
          <ns3:TrackPointExtension>
            <ns3:hr>125</ns3:hr>
          </ns3:TrackPointExtension>
        </extensions>
      </trkpt>
      <trkpt lat="59.07698334194719791412353515625" lon="30.08319958113133907318115234375">
        <ele>69.59999847412109375</ele>
        <time>2026-04-26T10:54:54.000Z</time>
        <extensions>
          <ns3:TrackPointExtension>
            <ns3:hr>124</ns3:hr>
          </ns3:TrackPointExtension>
        </extensions>
      </trkpt>
      <trkpt lat="59.07694897614419460296630859375" lon="30.08319019339978694915771484375">
        <ele>69.8000030517578125</ele>
        <time>2026-04-26T10:54:59.000Z</time>
        <extensions>
          <ns3:TrackPointExtension>
            <ns3:hr>122</ns3:hr>
          </ns3:TrackPointExtension>
        </extensions>
      </trkpt>
      <trkpt lat="59.0769441984593868255615234375" lon="30.08315817452967166900634765625">
        <ele>70</ele>
        <time>2026-04-26T10:55:01.000Z</time>
        <extensions>
          <ns3:TrackPointExtension>
            <ns3:hr>121</ns3:hr>
          </ns3:TrackPointExtension>
        </extensions>
      </trkpt>
      <trkpt lat="59.07693858258426189422607421875" lon="30.08316504769027233123779296875">
        <ele>70</ele>
        <time>2026-04-26T10:55:03.000Z</time>
        <extensions>
          <ns3:TrackPointExtension>
            <ns3:hr>120</ns3:hr>
          </ns3:TrackPointExtension>
        </extensions>
      </trkpt>
      <trkpt lat="59.0769287757575511932373046875" lon="30.083122216165065765380859375">
        <ele>70.1999969482421875</ele>
        <time>2026-04-26T10:55:09.000Z</time>
        <extensions>
          <ns3:TrackPointExtension>
            <ns3:hr>119</ns3:hr>
          </ns3:TrackPointExtension>
        </extensions>
      </trkpt>
      <trkpt lat="59.0768905542790889739990234375" lon="30.083083994686603546142578125">
        <ele>70.40000152587890625</ele>
        <time>2026-04-26T10:55:14.000Z</time>
        <extensions>
          <ns3:TrackPointExtension>
            <ns3:hr>122</ns3:hr>
          </ns3:TrackPointExtension>
        </extensions>
      </trkpt>
      <trkpt lat="59.0768741257488727569580078125" lon="30.0830784626305103302001953125">
        <ele>70.40000152587890625</ele>
        <time>2026-04-26T10:55:15.000Z</time>
        <extensions>
          <ns3:TrackPointExtension>
            <ns3:hr>122</ns3:hr>
          </ns3:TrackPointExtension>
        </extensions>
      </trkpt>
      <trkpt lat="59.07686834223568439483642578125" lon="30.08311324752867221832275390625">
        <ele>70.40000152587890625</ele>
        <time>2026-04-26T10:55:18.000Z</time>
        <extensions>
          <ns3:TrackPointExtension>
            <ns3:hr>124</ns3:hr>
          </ns3:TrackPointExtension>
        </extensions>
      </trkpt>
      <trkpt lat="59.0768540091812610626220703125" lon="30.08314476348459720611572265625">
        <ele>70.1999969482421875</ele>
        <time>2026-04-26T10:55:23.000Z</time>
        <extensions>
          <ns3:TrackPointExtension>
            <ns3:hr>125</ns3:hr>
          </ns3:TrackPointExtension>
        </extensions>
      </trkpt>
      <trkpt lat="59.0768208168447017669677734375" lon="30.083158425986766815185546875">
        <ele>70.1999969482421875</ele>
        <time>2026-04-26T10:55:28.000Z</time>
        <extensions>
          <ns3:TrackPointExtension>
            <ns3:hr>124</ns3:hr>
          </ns3:TrackPointExtension>
        </extensions>
      </trkpt>
      <trkpt lat="59.07677111215889453887939453125" lon="30.08316152729094028472900390625">
        <ele>70</ele>
        <time>2026-04-26T10:55:32.000Z</time>
        <extensions>
          <ns3:TrackPointExtension>
            <ns3:hr>120</ns3:hr>
          </ns3:TrackPointExtension>
        </extensions>
      </trkpt>
      <trkpt lat="59.076760970056056976318359375" lon="30.08315918035805225372314453125">
        <ele>70.1999969482421875</ele>
        <time>2026-04-26T10:55:33.000Z</time>
        <extensions>
          <ns3:TrackPointExtension>
            <ns3:hr>116</ns3:hr>
          </ns3:TrackPointExtension>
        </extensions>
      </trkpt>
      <trkpt lat="59.076743535697460174560546875" lon="30.0831575877964496612548828125">
        <ele>70.1999969482421875</ele>
        <time>2026-04-26T10:55:35.000Z</time>
        <extensions>
          <ns3:TrackPointExtension>
            <ns3:hr>113</ns3:hr>
          </ns3:TrackPointExtension>
        </extensions>
      </trkpt>
      <trkpt lat="59.07673322595655918121337890625" lon="30.08316923864185810089111328125">
        <ele>70.1999969482421875</ele>
        <time>2026-04-26T10:55:37.000Z</time>
        <extensions>
          <ns3:TrackPointExtension>
            <ns3:hr>110</ns3:hr>
          </ns3:TrackPointExtension>
        </extensions>
      </trkpt>
      <trkpt lat="59.07673381268978118896484375" lon="30.08317552506923675537109375">
        <ele>70.1999969482421875</ele>
        <time>2026-04-26T10:55:38.000Z</time>
        <extensions>
          <ns3:TrackPointExtension>
            <ns3:hr>106</ns3:hr>
          </ns3:TrackPointExtension>
        </extensions>
      </trkpt>
      <trkpt lat="59.0767312981188297271728515625" lon="30.08317979983985424041748046875">
        <ele>70.1999969482421875</ele>
        <time>2026-04-26T10:55:39.000Z</time>
        <extensions>
          <ns3:TrackPointExtension>
            <ns3:hr>99</ns3:hr>
          </ns3:TrackPointExtension>
        </extensions>
      </trkpt>
      <trkpt lat="59.07672434113919734954833984375" lon="30.08319220505654811859130859375">
        <ele>70.1999969482421875</ele>
        <time>2026-04-26T10:55:40.000Z</time>
        <extensions>
          <ns3:TrackPointExtension>
            <ns3:hr>93</ns3:hr>
          </ns3:TrackPointExtension>
        </extensions>
      </trkpt>
      <trkpt lat="59.0767048113048076629638671875" lon="30.083209387958049774169921875">
        <ele>70.1999969482421875</ele>
        <time>2026-04-26T10:55:42.000Z</time>
        <extensions>
          <ns3:TrackPointExtension>
            <ns3:hr>90</ns3:hr>
          </ns3:TrackPointExtension>
        </extensions>
      </trkpt>
      <trkpt lat="59.07668528147041797637939453125" lon="30.0832353718578815460205078125">
        <ele>70.40000152587890625</ele>
        <time>2026-04-26T10:55:44.000Z</time>
        <extensions>
          <ns3:TrackPointExtension>
            <ns3:hr>87</ns3:hr>
          </ns3:TrackPointExtension>
        </extensions>
      </trkpt>
      <trkpt lat="59.07667371444404125213623046875" lon="30.08323587477207183837890625">
        <ele>70.40000152587890625</ele>
        <time>2026-04-26T10:55:45.000Z</time>
        <extensions>
          <ns3:TrackPointExtension>
            <ns3:hr>87</ns3:hr>
          </ns3:TrackPointExtension>
        </extensions>
      </trkpt>
      <trkpt lat="59.07666097395122051239013671875" lon="30.08323243819177150726318359375">
        <ele>70.40000152587890625</ele>
        <time>2026-04-26T10:55:46.000Z</time>
        <extensions>
          <ns3:TrackPointExtension>
            <ns3:hr>90</ns3:hr>
          </ns3:TrackPointExtension>
        </extensions>
      </trkpt>
      <trkpt lat="59.07665468752384185791015625" lon="30.08323847316205501556396484375">
        <ele>70.40000152587890625</ele>
        <time>2026-04-26T10:55:47.000Z</time>
        <extensions>
          <ns3:TrackPointExtension>
            <ns3:hr>93</ns3:hr>
          </ns3:TrackPointExtension>
        </extensions>
      </trkpt>
      <trkpt lat="59.07663901336491107940673828125" lon="30.08324970491230487823486328125">
        <ele>70.59999847412109375</ele>
        <time>2026-04-26T10:55:49.000Z</time>
        <extensions>
          <ns3:TrackPointExtension>
            <ns3:hr>96</ns3:hr>
          </ns3:TrackPointExtension>
        </extensions>
      </trkpt>
      <trkpt lat="59.07663348130881786346435546875" lon="30.0832593441009521484375">
        <ele>70.59999847412109375</ele>
        <time>2026-04-26T10:55:50.000Z</time>
        <extensions>
          <ns3:TrackPointExtension>
            <ns3:hr>99</ns3:hr>
          </ns3:TrackPointExtension>
        </extensions>
      </trkpt>
      <trkpt lat="59.0766260214149951934814453125" lon="30.08325423114001750946044921875">
        <ele>70.59999847412109375</ele>
        <time>2026-04-26T10:55:51.000Z</time>
        <extensions>
          <ns3:TrackPointExtension>
            <ns3:hr>102</ns3:hr>
          </ns3:TrackPointExtension>
        </extensions>
      </trkpt>
      <trkpt lat="59.07661722041666507720947265625" lon="30.08325020782649517059326171875">
        <ele>70.59999847412109375</ele>
        <time>2026-04-26T10:55:52.000Z</time>
        <extensions>
          <ns3:TrackPointExtension>
            <ns3:hr>105</ns3:hr>
          </ns3:TrackPointExtension>
        </extensions>
      </trkpt>
      <trkpt lat="59.07661017961800098419189453125" lon="30.08324886672198772430419921875">
        <ele>70.59999847412109375</ele>
        <time>2026-04-26T10:55:54.000Z</time>
        <extensions>
          <ns3:TrackPointExtension>
            <ns3:hr>109</ns3:hr>
          </ns3:TrackPointExtension>
        </extensions>
      </trkpt>
      <trkpt lat="59.076587967574596405029296875" lon="30.083242245018482208251953125">
        <ele>70.59999847412109375</ele>
        <time>2026-04-26T10:55:57.000Z</time>
        <extensions>
          <ns3:TrackPointExtension>
            <ns3:hr>111</ns3:hr>
          </ns3:TrackPointExtension>
        </extensions>
      </trkpt>
      <trkpt lat="59.076534323394298553466796875" lon="30.08321450091898441314697265625">
        <ele>70.59999847412109375</ele>
        <time>2026-04-26T10:56:03.000Z</time>
        <extensions>
          <ns3:TrackPointExtension>
            <ns3:hr>113</ns3:hr>
          </ns3:TrackPointExtension>
        </extensions>
      </trkpt>
      <trkpt lat="59.0764952637255191802978515625" lon="30.08323025889694690704345703125">
        <ele>70.59999847412109375</ele>
        <time>2026-04-26T10:56:07.000Z</time>
        <extensions>
          <ns3:TrackPointExtension>
            <ns3:hr>110</ns3:hr>
          </ns3:TrackPointExtension>
        </extensions>
      </trkpt>
      <trkpt lat="59.07649266533553600311279296875" lon="30.08323629386723041534423828125">
        <ele>70.59999847412109375</ele>
        <time>2026-04-26T10:56:08.000Z</time>
        <extensions>
          <ns3:TrackPointExtension>
            <ns3:hr>108</ns3:hr>
          </ns3:TrackPointExtension>
        </extensions>
      </trkpt>
      <trkpt lat="59.07648570835590362548828125" lon="30.08324635215103626251220703125">
        <ele>70.59999847412109375</ele>
        <time>2026-04-26T10:56:09.000Z</time>
        <extensions>
          <ns3:TrackPointExtension>
            <ns3:hr>105</ns3:hr>
          </ns3:TrackPointExtension>
        </extensions>
      </trkpt>
      <trkpt lat="59.07647036947309970855712890625" lon="30.083260349929332733154296875">
        <ele>70.59999847412109375</ele>
        <time>2026-04-26T10:56:11.000Z</time>
        <extensions>
          <ns3:TrackPointExtension>
            <ns3:hr>102</ns3:hr>
          </ns3:TrackPointExtension>
        </extensions>
      </trkpt>
      <trkpt lat="59.07644086517393589019775390625" lon="30.083273760974407196044921875">
        <ele>70.59999847412109375</ele>
        <time>2026-04-26T10:56:14.000Z</time>
        <extensions>
          <ns3:TrackPointExtension>
            <ns3:hr>99</ns3:hr>
          </ns3:TrackPointExtension>
        </extensions>
      </trkpt>
      <trkpt lat="59.0764359198510646820068359375" lon="30.0832809694111347198486328125">
        <ele>70.40000152587890625</ele>
        <time>2026-04-26T10:56:15.000Z</time>
        <extensions>
          <ns3:TrackPointExtension>
            <ns3:hr>101</ns3:hr>
          </ns3:TrackPointExtension>
        </extensions>
      </trkpt>
      <trkpt lat="59.0764181502163410186767578125" lon="30.083265043795108795166015625">
        <ele>70.40000152587890625</ele>
        <time>2026-04-26T10:56:17.000Z</time>
        <extensions>
          <ns3:TrackPointExtension>
            <ns3:hr>105</ns3:hr>
          </ns3:TrackPointExtension>
        </extensions>
      </trkpt>
      <trkpt lat="59.07638638280332088470458984375" lon="30.083253644406795501708984375">
        <ele>70.40000152587890625</ele>
        <time>2026-04-26T10:56:20.000Z</time>
        <extensions>
          <ns3:TrackPointExtension>
            <ns3:hr>109</ns3:hr>
          </ns3:TrackPointExtension>
        </extensions>
      </trkpt>
      <trkpt lat="59.0763695351779460906982421875" lon="30.083246938884258270263671875">
        <ele>70.59999847412109375</ele>
        <time>2026-04-26T10:56:22.000Z</time>
        <extensions>
          <ns3:TrackPointExtension>
            <ns3:hr>114</ns3:hr>
          </ns3:TrackPointExtension>
        </extensions>
      </trkpt>
      <trkpt lat="59.07636542804539203643798828125" lon="30.08325305767357349395751953125">
        <ele>70.59999847412109375</ele>
        <time>2026-04-26T10:56:23.000Z</time>
        <extensions>
          <ns3:TrackPointExtension>
            <ns3:hr>118</ns3:hr>
          </ns3:TrackPointExtension>
        </extensions>
      </trkpt>
      <trkpt lat="59.07636165618896484375" lon="30.0832588411867618560791015625">
        <ele>70.59999847412109375</ele>
        <time>2026-04-26T10:56:24.000Z</time>
        <extensions>
          <ns3:TrackPointExtension>
            <ns3:hr>120</ns3:hr>
          </ns3:TrackPointExtension>
        </extensions>
      </trkpt>
      <trkpt lat="59.07633407972753047943115234375" lon="30.08325825445353984832763671875">
        <ele>70.8000030517578125</ele>
        <time>2026-04-26T10:56:26.000Z</time>
        <extensions>
          <ns3:TrackPointExtension>
            <ns3:hr>123</ns3:hr>
          </ns3:TrackPointExtension>
        </extensions>
      </trkpt>
      <trkpt lat="59.07631329260766506195068359375" lon="30.083269067108631134033203125">
        <ele>70.8000030517578125</ele>
        <time>2026-04-26T10:56:28.000Z</time>
        <extensions>
          <ns3:TrackPointExtension>
            <ns3:hr>124</ns3:hr>
          </ns3:TrackPointExtension>
        </extensions>
      </trkpt>
      <trkpt lat="59.076311029493808746337890625" lon="30.08328071795403957366943359375">
        <ele>70.8000030517578125</ele>
        <time>2026-04-26T10:56:30.000Z</time>
        <extensions>
          <ns3:TrackPointExtension>
            <ns3:hr>125</ns3:hr>
          </ns3:TrackPointExtension>
        </extensions>
      </trkpt>
      <trkpt lat="59.07628328539431095123291015625" lon="30.08329044096171855926513671875">
        <ele>70.59999847412109375</ele>
        <time>2026-04-26T10:56:34.000Z</time>
        <extensions>
          <ns3:TrackPointExtension>
            <ns3:hr>122</ns3:hr>
          </ns3:TrackPointExtension>
        </extensions>
      </trkpt>
      <trkpt lat="59.076282866299152374267578125" lon="30.08329580537974834442138671875">
        <ele>70.40000152587890625</ele>
        <time>2026-04-26T10:56:35.000Z</time>
        <extensions>
          <ns3:TrackPointExtension>
            <ns3:hr>122</ns3:hr>
          </ns3:TrackPointExtension>
        </extensions>
      </trkpt>
      <trkpt lat="59.07623534090816974639892578125" lon="30.0833403132855892181396484375">
        <ele>70.1999969482421875</ele>
        <time>2026-04-26T10:56:41.000Z</time>
        <extensions>
          <ns3:TrackPointExtension>
            <ns3:hr>120</ns3:hr>
          </ns3:TrackPointExtension>
        </extensions>
      </trkpt>
      <trkpt lat="59.07617859542369842529296875" lon="30.08338616229593753814697265625">
        <ele>70</ele>
        <time>2026-04-26T10:56:46.000Z</time>
        <extensions>
          <ns3:TrackPointExtension>
            <ns3:hr>121</ns3:hr>
          </ns3:TrackPointExtension>
        </extensions>
      </trkpt>
      <trkpt lat="59.0761573053896427154541015625" lon="30.08338599465787410736083984375">
        <ele>70.1999969482421875</ele>
        <time>2026-04-26T10:56:48.000Z</time>
        <extensions>
          <ns3:TrackPointExtension>
            <ns3:hr>121</ns3:hr>
          </ns3:TrackPointExtension>
        </extensions>
      </trkpt>
      <trkpt lat="59.07612025737762451171875" lon="30.08338515646755695343017578125">
        <ele>70.40000152587890625</ele>
        <time>2026-04-26T10:56:51.000Z</time>
        <extensions>
          <ns3:TrackPointExtension>
            <ns3:hr>122</ns3:hr>
          </ns3:TrackPointExtension>
        </extensions>
      </trkpt>
      <trkpt lat="59.0760845504701137542724609375" lon="30.08336990140378475189208984375">
        <ele>71</ele>
        <time>2026-04-26T10:56:57.000Z</time>
        <extensions>
          <ns3:TrackPointExtension>
            <ns3:hr>120</ns3:hr>
          </ns3:TrackPointExtension>
        </extensions>
      </trkpt>
      <trkpt lat="59.0760483406484127044677734375" lon="30.08337132632732391357421875">
        <ele>70.59999847412109375</ele>
        <time>2026-04-26T10:57:01.000Z</time>
        <extensions>
          <ns3:TrackPointExtension>
            <ns3:hr>119</ns3:hr>
          </ns3:TrackPointExtension>
        </extensions>
      </trkpt>
      <trkpt lat="59.07602193765342235565185546875" lon="30.083393789827823638916015625">
        <ele>70.40000152587890625</ele>
        <time>2026-04-26T10:57:04.000Z</time>
        <extensions>
          <ns3:TrackPointExtension>
            <ns3:hr>115</ns3:hr>
          </ns3:TrackPointExtension>
        </extensions>
      </trkpt>
      <trkpt lat="59.0760158188641071319580078125" lon="30.08340443484485149383544921875">
        <ele>70.40000152587890625</ele>
        <time>2026-04-26T10:57:05.000Z</time>
        <extensions>
          <ns3:TrackPointExtension>
            <ns3:hr>112</ns3:hr>
          </ns3:TrackPointExtension>
        </extensions>
      </trkpt>
      <trkpt lat="59.07601020298898220062255859375" lon="30.0834117271006107330322265625">
        <ele>70.59999847412109375</ele>
        <time>2026-04-26T10:57:06.000Z</time>
        <extensions>
          <ns3:TrackPointExtension>
            <ns3:hr>110</ns3:hr>
          </ns3:TrackPointExtension>
        </extensions>
      </trkpt>
      <trkpt lat="59.07601154409348964691162109375" lon="30.0834348611533641815185546875">
        <ele>70.59999847412109375</ele>
        <time>2026-04-26T10:57:07.000Z</time>
        <extensions>
          <ns3:TrackPointExtension>
            <ns3:hr>109</ns3:hr>
          </ns3:TrackPointExtension>
        </extensions>
      </trkpt>
      <trkpt lat="59.0759950317442417144775390625" lon="30.08345724083483219146728515625">
        <ele>70.8000030517578125</ele>
        <time>2026-04-26T10:57:10.000Z</time>
        <extensions>
          <ns3:TrackPointExtension>
            <ns3:hr>110</ns3:hr>
          </ns3:TrackPointExtension>
        </extensions>
      </trkpt>
      <trkpt lat="59.07596795819699764251708984375" lon="30.083426646888256072998046875">
        <ele>70.59999847412109375</ele>
        <time>2026-04-26T10:57:14.000Z</time>
        <extensions>
          <ns3:TrackPointExtension>
            <ns3:hr>111</ns3:hr>
          </ns3:TrackPointExtension>
        </extensions>
      </trkpt>
      <trkpt lat="59.07593426294624805450439453125" lon="30.0834248028695583343505859375">
        <ele>70.59999847412109375</ele>
        <time>2026-04-26T10:57:19.000Z</time>
        <extensions>
          <ns3:TrackPointExtension>
            <ns3:hr>115</ns3:hr>
          </ns3:TrackPointExtension>
        </extensions>
      </trkpt>
      <trkpt lat="59.0759340114891529083251953125" lon="30.08342823944985866546630859375">
        <ele>70.59999847412109375</ele>
        <time>2026-04-26T10:57:20.000Z</time>
        <extensions>
          <ns3:TrackPointExtension>
            <ns3:hr>116</ns3:hr>
          </ns3:TrackPointExtension>
        </extensions>
      </trkpt>
      <trkpt lat="59.0759065188467502593994140625" lon="30.08344709873199462890625">
        <ele>70.59999847412109375</ele>
        <time>2026-04-26T10:57:24.000Z</time>
        <extensions>
          <ns3:TrackPointExtension>
            <ns3:hr>115</ns3:hr>
          </ns3:TrackPointExtension>
        </extensions>
      </trkpt>
      <trkpt lat="59.07586368732154369354248046875" lon="30.0834633596241474151611328125">
        <ele>70.40000152587890625</ele>
        <time>2026-04-26T10:57:30.000Z</time>
        <extensions>
          <ns3:TrackPointExtension>
            <ns3:hr>113</ns3:hr>
          </ns3:TrackPointExtension>
        </extensions>
      </trkpt>
      <trkpt lat="59.07582412473857402801513671875" lon="30.0834908522665500640869140625">
        <ele>69.8000030517578125</ele>
        <time>2026-04-26T10:57:34.000Z</time>
        <extensions>
          <ns3:TrackPointExtension>
            <ns3:hr>114</ns3:hr>
          </ns3:TrackPointExtension>
        </extensions>
      </trkpt>
      <trkpt lat="59.07577986828982830047607421875" lon="30.08348791860044002532958984375">
        <ele>69.8000030517578125</ele>
        <time>2026-04-26T10:57:39.000Z</time>
        <extensions>
          <ns3:TrackPointExtension>
            <ns3:hr>114</ns3:hr>
          </ns3:TrackPointExtension>
        </extensions>
      </trkpt>
      <trkpt lat="59.07572974450886249542236328125" lon="30.08350568823516368865966796875">
        <ele>70.40000152587890625</ele>
        <time>2026-04-26T10:57:46.000Z</time>
        <extensions>
          <ns3:TrackPointExtension>
            <ns3:hr>114</ns3:hr>
          </ns3:TrackPointExtension>
        </extensions>
      </trkpt>
      <trkpt lat="59.07571750693023204803466796875" lon="30.0835183449089527130126953125">
        <ele>70.40000152587890625</ele>
        <time>2026-04-26T10:57:48.000Z</time>
        <extensions>
          <ns3:TrackPointExtension>
            <ns3:hr>114</ns3:hr>
          </ns3:TrackPointExtension>
        </extensions>
      </trkpt>
      <trkpt lat="59.07570183277130126953125" lon="30.083504430949687957763671875">
        <ele>70.40000152587890625</ele>
        <time>2026-04-26T10:57:50.000Z</time>
        <extensions>
          <ns3:TrackPointExtension>
            <ns3:hr>114</ns3:hr>
          </ns3:TrackPointExtension>
        </extensions>
      </trkpt>
      <trkpt lat="59.07568666152656078338623046875" lon="30.08353183977305889129638671875">
        <ele>70.40000152587890625</ele>
        <time>2026-04-26T10:57:52.000Z</time>
        <extensions>
          <ns3:TrackPointExtension>
            <ns3:hr>111</ns3:hr>
          </ns3:TrackPointExtension>
        </extensions>
      </trkpt>
      <trkpt lat="59.0756600908935070037841796875" lon="30.08353267796337604522705078125">
        <ele>70.59999847412109375</ele>
        <time>2026-04-26T10:57:55.000Z</time>
        <extensions>
          <ns3:TrackPointExtension>
            <ns3:hr>108</ns3:hr>
          </ns3:TrackPointExtension>
        </extensions>
      </trkpt>
      <trkpt lat="59.07561474479734897613525390625" lon="30.0835431553423404693603515625">
        <ele>70.40000152587890625</ele>
        <time>2026-04-26T10:58:01.000Z</time>
        <extensions>
          <ns3:TrackPointExtension>
            <ns3:hr>107</ns3:hr>
          </ns3:TrackPointExtension>
        </extensions>
      </trkpt>
      <trkpt lat="59.07560535706579685211181640625" lon="30.08354105986654758453369140625">
        <ele>70.40000152587890625</ele>
        <time>2026-04-26T10:58:03.000Z</time>
        <extensions>
          <ns3:TrackPointExtension>
            <ns3:hr>110</ns3:hr>
          </ns3:TrackPointExtension>
        </extensions>
      </trkpt>
      <trkpt lat="59.0755977295339107513427734375" lon="30.08354407735168933868408203125">
        <ele>70.40000152587890625</ele>
        <time>2026-04-26T10:58:05.000Z</time>
        <extensions>
          <ns3:TrackPointExtension>
            <ns3:hr>110</ns3:hr>
          </ns3:TrackPointExtension>
        </extensions>
      </trkpt>
      <trkpt lat="59.07557333819568157196044921875" lon="30.0835522077977657318115234375">
        <ele>70.1999969482421875</ele>
        <time>2026-04-26T10:58:08.000Z</time>
        <extensions>
          <ns3:TrackPointExtension>
            <ns3:hr>111</ns3:hr>
          </ns3:TrackPointExtension>
        </extensions>
      </trkpt>
      <trkpt lat="59.07555338926613330841064453125" lon="30.08355564437806606292724609375">
        <ele>70.1999969482421875</ele>
        <time>2026-04-26T10:58:11.000Z</time>
        <extensions>
          <ns3:TrackPointExtension>
            <ns3:hr>114</ns3:hr>
          </ns3:TrackPointExtension>
        </extensions>
      </trkpt>
      <trkpt lat="59.07553930766880512237548828125" lon="30.08355262689292430877685546875">
        <ele>70</ele>
        <time>2026-04-26T10:58:13.000Z</time>
        <extensions>
          <ns3:TrackPointExtension>
            <ns3:hr>114</ns3:hr>
          </ns3:TrackPointExtension>
        </extensions>
      </trkpt>
      <trkpt lat="59.07549907453358173370361328125" lon="30.083547346293926239013671875">
        <ele>70</ele>
        <time>2026-04-26T10:58:20.000Z</time>
        <extensions>
          <ns3:TrackPointExtension>
            <ns3:hr>113</ns3:hr>
          </ns3:TrackPointExtension>
        </extensions>
      </trkpt>
      <trkpt lat="59.07549404539167881011962890625" lon="30.08357190527021884918212890625">
        <ele>70.1999969482421875</ele>
        <time>2026-04-26T10:58:23.000Z</time>
        <extensions>
          <ns3:TrackPointExtension>
            <ns3:hr>117</ns3:hr>
          </ns3:TrackPointExtension>
        </extensions>
      </trkpt>
      <trkpt lat="59.0754880942404270172119140625" lon="30.0835783593356609344482421875">
        <ele>70.1999969482421875</ele>
        <time>2026-04-26T10:58:24.000Z</time>
        <extensions>
          <ns3:TrackPointExtension>
            <ns3:hr>120</ns3:hr>
          </ns3:TrackPointExtension>
        </extensions>
      </trkpt>
      <trkpt lat="59.07548214308917522430419921875" lon="30.08358229883015155792236328125">
        <ele>70.1999969482421875</ele>
        <time>2026-04-26T10:58:25.000Z</time>
        <extensions>
          <ns3:TrackPointExtension>
            <ns3:hr>120</ns3:hr>
          </ns3:TrackPointExtension>
        </extensions>
      </trkpt>
      <trkpt lat="59.07546152360737323760986328125" lon="30.083574838936328887939453125">
        <ele>70.1999969482421875</ele>
        <time>2026-04-26T10:58:27.000Z</time>
        <extensions>
          <ns3:TrackPointExtension>
            <ns3:hr>121</ns3:hr>
          </ns3:TrackPointExtension>
        </extensions>
      </trkpt>
      <trkpt lat="59.07543973065912723541259765625" lon="30.0835937820374965667724609375">
        <ele>69.59999847412109375</ele>
        <time>2026-04-26T10:58:32.000Z</time>
        <extensions>
          <ns3:TrackPointExtension>
            <ns3:hr>121</ns3:hr>
          </ns3:TrackPointExtension>
        </extensions>
      </trkpt>
      <trkpt lat="59.07543268986046314239501953125" lon="30.08360241539776325225830078125">
        <ele>69.40000152587890625</ele>
        <time>2026-04-26T10:58:33.000Z</time>
        <extensions>
          <ns3:TrackPointExtension>
            <ns3:hr>121</ns3:hr>
          </ns3:TrackPointExtension>
        </extensions>
      </trkpt>
      <trkpt lat="59.07540653832256793975830078125" lon="30.08362068794667720794677734375">
        <ele>69.8000030517578125</ele>
        <time>2026-04-26T10:58:37.000Z</time>
        <extensions>
          <ns3:TrackPointExtension>
            <ns3:hr>120</ns3:hr>
          </ns3:TrackPointExtension>
        </extensions>
      </trkpt>
      <trkpt lat="59.0754022635519504547119140625" lon="30.08362404070794582366943359375">
        <ele>70.1999969482421875</ele>
        <time>2026-04-26T10:58:41.000Z</time>
        <extensions>
          <ns3:TrackPointExtension>
            <ns3:hr>123</ns3:hr>
          </ns3:TrackPointExtension>
        </extensions>
      </trkpt>
      <trkpt lat="59.07539983280003070831298828125" lon="30.08362747728824615478515625">
        <ele>70.1999969482421875</ele>
        <time>2026-04-26T10:58:42.000Z</time>
        <extensions>
          <ns3:TrackPointExtension>
            <ns3:hr>127</ns3:hr>
          </ns3:TrackPointExtension>
        </extensions>
      </trkpt>
      <trkpt lat="59.075395055115222930908203125" lon="30.08360199630260467529296875">
        <ele>70.1999969482421875</ele>
        <time>2026-04-26T10:58:43.000Z</time>
        <extensions>
          <ns3:TrackPointExtension>
            <ns3:hr>129</ns3:hr>
          </ns3:TrackPointExtension>
        </extensions>
      </trkpt>
      <trkpt lat="59.07538734376430511474609375" lon="30.083583556115627288818359375">
        <ele>70</ele>
        <time>2026-04-26T10:58:46.000Z</time>
        <extensions>
          <ns3:TrackPointExtension>
            <ns3:hr>127</ns3:hr>
          </ns3:TrackPointExtension>
        </extensions>
      </trkpt>
      <trkpt lat="59.07536613754928112030029296875" lon="30.08356704376637935638427734375">
        <ele>70</ele>
        <time>2026-04-26T10:58:48.000Z</time>
        <extensions>
          <ns3:TrackPointExtension>
            <ns3:hr>123</ns3:hr>
          </ns3:TrackPointExtension>
        </extensions>
      </trkpt>
      <trkpt lat="59.07534786500036716461181640625" lon="30.08356654085218906402587890625">
        <ele>69.8000030517578125</ele>
        <time>2026-04-26T10:58:50.000Z</time>
        <extensions>
          <ns3:TrackPointExtension>
            <ns3:hr>123</ns3:hr>
          </ns3:TrackPointExtension>
        </extensions>
      </trkpt>
      <trkpt lat="59.07533780671656131744384765625" lon="30.08358699269592761993408203125">
        <ele>69.59999847412109375</ele>
        <time>2026-04-26T10:58:53.000Z</time>
        <extensions>
          <ns3:TrackPointExtension>
            <ns3:hr>121</ns3:hr>
          </ns3:TrackPointExtension>
        </extensions>
      </trkpt>
      <trkpt lat="59.07532858662307262420654296875" lon="30.083591602742671966552734375">
        <ele>69.8000030517578125</ele>
        <time>2026-04-26T10:58:55.000Z</time>
        <extensions>
          <ns3:TrackPointExtension>
            <ns3:hr>121</ns3:hr>
          </ns3:TrackPointExtension>
        </extensions>
      </trkpt>
      <trkpt lat="59.07531400211155414581298828125" lon="30.08361716754734516143798828125">
        <ele>69.8000030517578125</ele>
        <time>2026-04-26T10:59:00.000Z</time>
        <extensions>
          <ns3:TrackPointExtension>
            <ns3:hr>120</ns3:hr>
          </ns3:TrackPointExtension>
        </extensions>
      </trkpt>
      <trkpt lat="59.07530897296965122222900390625" lon="30.08361582644283771514892578125">
        <ele>70.1999969482421875</ele>
        <time>2026-04-26T10:59:04.000Z</time>
        <extensions>
          <ns3:TrackPointExtension>
            <ns3:hr>115</ns3:hr>
          </ns3:TrackPointExtension>
        </extensions>
      </trkpt>
      <trkpt lat="59.075315929949283599853515625" lon="30.0836179219186305999755859375">
        <ele>70.40000152587890625</ele>
        <time>2026-04-26T10:59:05.000Z</time>
        <extensions>
          <ns3:TrackPointExtension>
            <ns3:hr>112</ns3:hr>
          </ns3:TrackPointExtension>
        </extensions>
      </trkpt>
      <trkpt lat="59.0753204561769962310791015625" lon="30.08360660634934902191162109375">
        <ele>70.40000152587890625</ele>
        <time>2026-04-26T10:59:06.000Z</time>
        <extensions>
          <ns3:TrackPointExtension>
            <ns3:hr>109</ns3:hr>
          </ns3:TrackPointExtension>
        </extensions>
      </trkpt>
      <trkpt lat="59.075318276882171630859375" lon="30.08359671570360660552978515625">
        <ele>70.40000152587890625</ele>
        <time>2026-04-26T10:59:07.000Z</time>
        <extensions>
          <ns3:TrackPointExtension>
            <ns3:hr>109</ns3:hr>
          </ns3:TrackPointExtension>
        </extensions>
      </trkpt>
      <trkpt lat="59.07531634904444217681884765625" lon="30.0835994817316532135009765625">
        <ele>70.40000152587890625</ele>
        <time>2026-04-26T10:59:09.000Z</time>
        <extensions>
          <ns3:TrackPointExtension>
            <ns3:hr>118</ns3:hr>
          </ns3:TrackPointExtension>
        </extensions>
      </trkpt>
      <trkpt lat="59.0753157623112201690673828125" lon="30.08360560052096843719482421875">
        <ele>70.40000152587890625</ele>
        <time>2026-04-26T10:59:10.000Z</time>
        <extensions>
          <ns3:TrackPointExtension>
            <ns3:hr>123</ns3:hr>
          </ns3:TrackPointExtension>
        </extensions>
      </trkpt>
      <trkpt lat="59.075296819210052490234375" lon="30.083613060414791107177734375">
        <ele>70.1999969482421875</ele>
        <time>2026-04-26T10:59:15.000Z</time>
        <extensions>
          <ns3:TrackPointExtension>
            <ns3:hr>126</ns3:hr>
          </ns3:TrackPointExtension>
        </extensions>
      </trkpt>
      <trkpt lat="59.07528416253626346588134765625" lon="30.083629153668880462646484375">
        <ele>70</ele>
        <time>2026-04-26T10:59:20.000Z</time>
        <extensions>
          <ns3:TrackPointExtension>
            <ns3:hr>124</ns3:hr>
          </ns3:TrackPointExtension>
        </extensions>
      </trkpt>
      <trkpt lat="59.0752611123025417327880859375" lon="30.08365639485418796539306640625">
        <ele>70</ele>
        <time>2026-04-26T10:59:26.000Z</time>
        <extensions>
          <ns3:TrackPointExtension>
            <ns3:hr>127</ns3:hr>
          </ns3:TrackPointExtension>
        </extensions>
      </trkpt>
      <trkpt lat="59.07526798546314239501953125" lon="30.08361280895769596099853515625">
        <ele>70</ele>
        <time>2026-04-26T10:59:29.000Z</time>
        <extensions>
          <ns3:TrackPointExtension>
            <ns3:hr>127</ns3:hr>
          </ns3:TrackPointExtension>
        </extensions>
      </trkpt>
      <trkpt lat="59.07528449781239032745361328125" lon="30.08361867628991603851318359375">
        <ele>70</ele>
        <time>2026-04-26T10:59:33.000Z</time>
        <extensions>
          <ns3:TrackPointExtension>
            <ns3:hr>128</ns3:hr>
          </ns3:TrackPointExtension>
        </extensions>
      </trkpt>
      <trkpt lat="59.0752606093883514404296875" lon="30.08362186141312122344970703125">
        <ele>70.59999847412109375</ele>
        <time>2026-04-26T10:59:39.000Z</time>
        <extensions>
          <ns3:TrackPointExtension>
            <ns3:hr>127</ns3:hr>
          </ns3:TrackPointExtension>
        </extensions>
      </trkpt>
      <trkpt lat="59.07524694688618183135986328125" lon="30.083649270236492156982421875">
        <ele>70.40000152587890625</ele>
        <time>2026-04-26T10:59:44.000Z</time>
        <extensions>
          <ns3:TrackPointExtension>
            <ns3:hr>128</ns3:hr>
          </ns3:TrackPointExtension>
        </extensions>
      </trkpt>
      <trkpt lat="59.075196571648120880126953125" lon="30.08368087001144886016845703125">
        <ele>70.1999969482421875</ele>
        <time>2026-04-26T10:59:50.000Z</time>
        <extensions>
          <ns3:TrackPointExtension>
            <ns3:hr>129</ns3:hr>
          </ns3:TrackPointExtension>
        </extensions>
      </trkpt>
      <trkpt lat="59.07515457831323146820068359375" lon="30.08369444869458675384521484375">
        <ele>69.8000030517578125</ele>
        <time>2026-04-26T10:59:56.000Z</time>
        <extensions>
          <ns3:TrackPointExtension>
            <ns3:hr>129</ns3:hr>
          </ns3:TrackPointExtension>
        </extensions>
      </trkpt>
      <trkpt lat="59.07513580285012722015380859375" lon="30.0837007351219654083251953125">
        <ele>69.8000030517578125</ele>
        <time>2026-04-26T10:59:58.000Z</time>
        <extensions>
          <ns3:TrackPointExtension>
            <ns3:hr>124</ns3:hr>
          </ns3:TrackPointExtension>
        </extensions>
      </trkpt>
      <trkpt lat="59.0751310251653194427490234375" lon="30.08370534516870975494384765625">
        <ele>69.8000030517578125</ele>
        <time>2026-04-26T10:59:59.000Z</time>
        <extensions>
          <ns3:TrackPointExtension>
            <ns3:hr>121</ns3:hr>
          </ns3:TrackPointExtension>
        </extensions>
      </trkpt>
      <trkpt lat="59.07512239180505275726318359375" lon="30.08370333351194858551025390625">
        <ele>70</ele>
        <time>2026-04-26T11:00:00.000Z</time>
        <extensions>
          <ns3:TrackPointExtension>
            <ns3:hr>118</ns3:hr>
          </ns3:TrackPointExtension>
        </extensions>
      </trkpt>
      <trkpt lat="59.07511317171156406402587890625" lon="30.08369361050426959991455078125">
        <ele>70</ele>
        <time>2026-04-26T11:00:01.000Z</time>
        <extensions>
          <ns3:TrackPointExtension>
            <ns3:hr>118</ns3:hr>
          </ns3:TrackPointExtension>
        </extensions>
      </trkpt>
      <trkpt lat="59.07509104348719120025634765625" lon="30.083697549998760223388671875">
        <ele>69.8000030517578125</ele>
        <time>2026-04-26T11:00:03.000Z</time>
        <extensions>
          <ns3:TrackPointExtension>
            <ns3:hr>117</ns3:hr>
          </ns3:TrackPointExtension>
        </extensions>
      </trkpt>
      <trkpt lat="59.07507528550922870635986328125" lon="30.0837319158017635345458984375">
        <ele>69.8000030517578125</ele>
        <time>2026-04-26T11:00:06.000Z</time>
        <extensions>
          <ns3:TrackPointExtension>
            <ns3:hr>116</ns3:hr>
          </ns3:TrackPointExtension>
        </extensions>
      </trkpt>
      <trkpt lat="59.07506857998669147491455078125" lon="30.0837812013924121856689453125">
        <ele>70.59999847412109375</ele>
        <time>2026-04-26T11:00:11.000Z</time>
        <extensions>
          <ns3:TrackPointExtension>
            <ns3:hr>116</ns3:hr>
          </ns3:TrackPointExtension>
        </extensions>
      </trkpt>
      <trkpt lat="59.07507930882275104522705078125" lon="30.08374683558940887451171875">
        <ele>70.8000030517578125</ele>
        <time>2026-04-26T11:00:17.000Z</time>
        <extensions>
          <ns3:TrackPointExtension>
            <ns3:hr>117</ns3:hr>
          </ns3:TrackPointExtension>
        </extensions>
      </trkpt>
      <trkpt lat="59.07507578842341899871826171875" lon="30.083776004612445831298828125">
        <ele>70.59999847412109375</ele>
        <time>2026-04-26T11:00:19.000Z</time>
        <extensions>
          <ns3:TrackPointExtension>
            <ns3:hr>121</ns3:hr>
          </ns3:TrackPointExtension>
        </extensions>
      </trkpt>
      <trkpt lat="59.07509422861039638519287109375" lon="30.083757229149341583251953125">
        <ele>69.8000030517578125</ele>
        <time>2026-04-26T11:00:24.000Z</time>
        <extensions>
          <ns3:TrackPointExtension>
            <ns3:hr>119</ns3:hr>
          </ns3:TrackPointExtension>
        </extensions>
      </trkpt>
      <trkpt lat="59.0750921331346035003662109375" lon="30.0837738253176212310791015625">
        <ele>69.59999847412109375</ele>
        <time>2026-04-26T11:00:29.000Z</time>
        <extensions>
          <ns3:TrackPointExtension>
            <ns3:hr>117</ns3:hr>
          </ns3:TrackPointExtension>
        </extensions>
      </trkpt>
      <trkpt lat="59.07508450560271739959716796875" lon="30.08376284502446651458740234375">
        <ele>69.8000030517578125</ele>
        <time>2026-04-26T11:00:35.000Z</time>
        <extensions>
          <ns3:TrackPointExtension>
            <ns3:hr>115</ns3:hr>
          </ns3:TrackPointExtension>
        </extensions>
      </trkpt>
      <trkpt lat="59.07507142983376979827880859375" lon="30.08374356664717197418212890625">
        <ele>70.1999969482421875</ele>
        <time>2026-04-26T11:00:38.000Z</time>
        <extensions>
          <ns3:TrackPointExtension>
            <ns3:hr>118</ns3:hr>
          </ns3:TrackPointExtension>
        </extensions>
      </trkpt>
      <trkpt lat="59.0750589407980442047119140625" lon="30.08371087722480297088623046875">
        <ele>70.40000152587890625</ele>
        <time>2026-04-26T11:00:40.000Z</time>
        <extensions>
          <ns3:TrackPointExtension>
            <ns3:hr>118</ns3:hr>
          </ns3:TrackPointExtension>
        </extensions>
      </trkpt>
      <trkpt lat="59.07503253780305385589599609375" lon="30.08370165713131427764892578125">
        <ele>70.1999969482421875</ele>
        <time>2026-04-26T11:00:44.000Z</time>
        <extensions>
          <ns3:TrackPointExtension>
            <ns3:hr>118</ns3:hr>
          </ns3:TrackPointExtension>
        </extensions>
      </trkpt>
      <trkpt lat="59.075004123151302337646484375" lon="30.08372864685952663421630859375">
        <ele>70</ele>
        <time>2026-04-26T11:00:48.000Z</time>
        <extensions>
          <ns3:TrackPointExtension>
            <ns3:hr>115</ns3:hr>
          </ns3:TrackPointExtension>
        </extensions>
      </trkpt>
      <trkpt lat="59.07493933103978633880615234375" lon="30.0837832130491733551025390625">
        <ele>70.40000152587890625</ele>
        <time>2026-04-26T11:00:55.000Z</time>
        <extensions>
          <ns3:TrackPointExtension>
            <ns3:hr>117</ns3:hr>
          </ns3:TrackPointExtension>
        </extensions>
      </trkpt>
      <trkpt lat="59.0749130956828594207763671875" lon="30.08377810008823871612548828125">
        <ele>70.1999969482421875</ele>
        <time>2026-04-26T11:00:58.000Z</time>
        <extensions>
          <ns3:TrackPointExtension>
            <ns3:hr>120</ns3:hr>
          </ns3:TrackPointExtension>
        </extensions>
      </trkpt>
      <trkpt lat="59.0748959966003894805908203125" lon="30.08378664962947368621826171875">
        <ele>70.1999969482421875</ele>
        <time>2026-04-26T11:01:00.000Z</time>
        <extensions>
          <ns3:TrackPointExtension>
            <ns3:hr>120</ns3:hr>
          </ns3:TrackPointExtension>
        </extensions>
      </trkpt>
      <trkpt lat="59.074863977730274200439453125" lon="30.0838103704154491424560546875">
        <ele>70.1999969482421875</ele>
        <time>2026-04-26T11:01:04.000Z</time>
        <extensions>
          <ns3:TrackPointExtension>
            <ns3:hr>123</ns3:hr>
          </ns3:TrackPointExtension>
        </extensions>
      </trkpt>
      <trkpt lat="59.074853248894214630126953125" lon="30.08380894549190998077392578125">
        <ele>70</ele>
        <time>2026-04-26T11:01:05.000Z</time>
        <extensions>
          <ns3:TrackPointExtension>
            <ns3:hr>123</ns3:hr>
          </ns3:TrackPointExtension>
        </extensions>
      </trkpt>
      <trkpt lat="59.074832461774349212646484375" lon="30.0838194228708744049072265625">
        <ele>69.8000030517578125</ele>
        <time>2026-04-26T11:01:10.000Z</time>
        <extensions>
          <ns3:TrackPointExtension>
            <ns3:hr>124</ns3:hr>
          </ns3:TrackPointExtension>
        </extensions>
      </trkpt>
      <trkpt lat="59.07477873377501964569091796875" lon="30.0838264636695384979248046875">
        <ele>69.40000152587890625</ele>
        <time>2026-04-26T11:01:17.000Z</time>
        <extensions>
          <ns3:TrackPointExtension>
            <ns3:hr>126</ns3:hr>
          </ns3:TrackPointExtension>
        </extensions>
      </trkpt>
      <trkpt lat="59.07470631413161754608154296875" lon="30.08385186083614826202392578125">
        <ele>69.59999847412109375</ele>
        <time>2026-04-26T11:01:23.000Z</time>
        <extensions>
          <ns3:TrackPointExtension>
            <ns3:hr>127</ns3:hr>
          </ns3:TrackPointExtension>
        </extensions>
      </trkpt>
      <trkpt lat="59.07468686811625957489013671875" lon="30.08385119028389453887939453125">
        <ele>69.59999847412109375</ele>
        <time>2026-04-26T11:01:25.000Z</time>
        <extensions>
          <ns3:TrackPointExtension>
            <ns3:hr>129</ns3:hr>
          </ns3:TrackPointExtension>
        </extensions>
      </trkpt>
      <trkpt lat="59.07465904019773006439208984375" lon="30.08387021720409393310546875">
        <ele>69.59999847412109375</ele>
        <time>2026-04-26T11:01:28.000Z</time>
        <extensions>
          <ns3:TrackPointExtension>
            <ns3:hr>131</ns3:hr>
          </ns3:TrackPointExtension>
        </extensions>
      </trkpt>
      <trkpt lat="59.0746458806097507476806640625" lon="30.08388119749724864959716796875">
        <ele>69.8000030517578125</ele>
        <time>2026-04-26T11:01:30.000Z</time>
        <extensions>
          <ns3:TrackPointExtension>
            <ns3:hr>128</ns3:hr>
          </ns3:TrackPointExtension>
        </extensions>
      </trkpt>
      <trkpt lat="59.074626602232456207275390625" lon="30.08387818001210689544677734375">
        <ele>69.8000030517578125</ele>
        <time>2026-04-26T11:01:33.000Z</time>
        <extensions>
          <ns3:TrackPointExtension>
            <ns3:hr>125</ns3:hr>
          </ns3:TrackPointExtension>
        </extensions>
      </trkpt>
      <trkpt lat="59.074615873396396636962890625" lon="30.08387717418372631072998046875">
        <ele>69.8000030517578125</ele>
        <time>2026-04-26T11:01:35.000Z</time>
        <extensions>
          <ns3:TrackPointExtension>
            <ns3:hr>125</ns3:hr>
          </ns3:TrackPointExtension>
        </extensions>
      </trkpt>
      <trkpt lat="59.07457890920341014862060546875" lon="30.0838925130665302276611328125">
        <ele>69.8000030517578125</ele>
        <time>2026-04-26T11:01:40.000Z</time>
        <extensions>
          <ns3:TrackPointExtension>
            <ns3:hr>122</ns3:hr>
          </ns3:TrackPointExtension>
        </extensions>
      </trkpt>
      <trkpt lat="59.07457035966217517852783203125" lon="30.08390374481678009033203125">
        <ele>69.8000030517578125</ele>
        <time>2026-04-26T11:01:41.000Z</time>
        <extensions>
          <ns3:TrackPointExtension>
            <ns3:hr>122</ns3:hr>
          </ns3:TrackPointExtension>
        </extensions>
      </trkpt>
      <trkpt lat="59.074537418782711029052734375" lon="30.0839176587760448455810546875">
        <ele>69.8000030517578125</ele>
        <time>2026-04-26T11:01:46.000Z</time>
        <extensions>
          <ns3:TrackPointExtension>
            <ns3:hr>122</ns3:hr>
          </ns3:TrackPointExtension>
        </extensions>
      </trkpt>
      <trkpt lat="59.074507243931293487548828125" lon="30.08395470678806304931640625">
        <ele>69.59999847412109375</ele>
        <time>2026-04-26T11:01:50.000Z</time>
        <extensions>
          <ns3:TrackPointExtension>
            <ns3:hr>122</ns3:hr>
          </ns3:TrackPointExtension>
        </extensions>
      </trkpt>
      <trkpt lat="59.07446064054965972900390625" lon="30.08395562879741191864013671875">
        <ele>69.40000152587890625</ele>
        <time>2026-04-26T11:01:55.000Z</time>
        <extensions>
          <ns3:TrackPointExtension>
            <ns3:hr>121</ns3:hr>
          </ns3:TrackPointExtension>
        </extensions>
      </trkpt>
      <trkpt lat="59.0744433738291263580322265625" lon="30.08394355885684490203857421875">
        <ele>69.40000152587890625</ele>
        <time>2026-04-26T11:01:56.000Z</time>
        <extensions>
          <ns3:TrackPointExtension>
            <ns3:hr>122</ns3:hr>
          </ns3:TrackPointExtension>
        </extensions>
      </trkpt>
      <trkpt lat="59.074426777660846710205078125" lon="30.08394674398005008697509765625">
        <ele>69.40000152587890625</ele>
        <time>2026-04-26T11:01:59.000Z</time>
        <extensions>
          <ns3:TrackPointExtension>
            <ns3:hr>120</ns3:hr>
          </ns3:TrackPointExtension>
        </extensions>
      </trkpt>
      <trkpt lat="59.07438226975500583648681640625" lon="30.0839746557176113128662109375">
        <ele>69</ele>
        <time>2026-04-26T11:02:04.000Z</time>
        <extensions>
          <ns3:TrackPointExtension>
            <ns3:hr>119</ns3:hr>
          </ns3:TrackPointExtension>
        </extensions>
      </trkpt>
      <trkpt lat="59.07436810433864593505859375" lon="30.0839741528034210205078125">
        <ele>68.8000030517578125</ele>
        <time>2026-04-26T11:02:06.000Z</time>
        <extensions>
          <ns3:TrackPointExtension>
            <ns3:hr>118</ns3:hr>
          </ns3:TrackPointExtension>
        </extensions>
      </trkpt>
      <trkpt lat="59.0743173100054264068603515625" lon="30.083993934094905853271484375">
        <ele>68.8000030517578125</ele>
        <time>2026-04-26T11:02:13.000Z</time>
        <extensions>
          <ns3:TrackPointExtension>
            <ns3:hr>120</ns3:hr>
          </ns3:TrackPointExtension>
        </extensions>
      </trkpt>
      <trkpt lat="59.07429509796202182769775390625" lon="30.0839674472808837890625">
        <ele>68.8000030517578125</ele>
        <time>2026-04-26T11:02:18.000Z</time>
        <extensions>
          <ns3:TrackPointExtension>
            <ns3:hr>118</ns3:hr>
          </ns3:TrackPointExtension>
        </extensions>
      </trkpt>
      <trkpt lat="59.0742851234972476959228515625" lon="30.0839770026504993438720703125">
        <ele>68.8000030517578125</ele>
        <time>2026-04-26T11:02:20.000Z</time>
        <extensions>
          <ns3:TrackPointExtension>
            <ns3:hr>115</ns3:hr>
          </ns3:TrackPointExtension>
        </extensions>
      </trkpt>
      <trkpt lat="59.074277915060520172119140625" lon="30.08392193354666233062744140625">
        <ele>69</ele>
        <time>2026-04-26T11:02:25.000Z</time>
        <extensions>
          <ns3:TrackPointExtension>
            <ns3:hr>115</ns3:hr>
          </ns3:TrackPointExtension>
        </extensions>
      </trkpt>
      <trkpt lat="59.0742655098438262939453125" lon="30.08386887609958648681640625">
        <ele>68.8000030517578125</ele>
        <time>2026-04-26T11:02:30.000Z</time>
        <extensions>
          <ns3:TrackPointExtension>
            <ns3:hr>115</ns3:hr>
          </ns3:TrackPointExtension>
        </extensions>
      </trkpt>
      <trkpt lat="59.07425520010292530059814453125" lon="30.08388840593397617340087890625">
        <ele>69</ele>
        <time>2026-04-26T11:02:35.000Z</time>
        <extensions>
          <ns3:TrackPointExtension>
            <ns3:hr>115</ns3:hr>
          </ns3:TrackPointExtension>
        </extensions>
      </trkpt>
      <trkpt lat="59.07423265278339385986328125" lon="30.083899386227130889892578125">
        <ele>69.1999969482421875</ele>
        <time>2026-04-26T11:02:37.000Z</time>
        <extensions>
          <ns3:TrackPointExtension>
            <ns3:hr>115</ns3:hr>
          </ns3:TrackPointExtension>
        </extensions>
      </trkpt>
      <trkpt lat="59.0742197446525096893310546875" lon="30.08391103707253932952880859375">
        <ele>69.40000152587890625</ele>
        <time>2026-04-26T11:02:40.000Z</time>
        <extensions>
          <ns3:TrackPointExtension>
            <ns3:hr>115</ns3:hr>
          </ns3:TrackPointExtension>
        </extensions>
      </trkpt>
      <trkpt lat="59.07421597279608249664306640625" lon="30.0839044153690338134765625">
        <ele>69.8000030517578125</ele>
        <time>2026-04-26T11:02:43.000Z</time>
        <extensions>
          <ns3:TrackPointExtension>
            <ns3:hr>112</ns3:hr>
          </ns3:TrackPointExtension>
        </extensions>
      </trkpt>
      <trkpt lat="59.074218571186065673828125" lon="30.08388455025851726531982421875">
        <ele>69.8000030517578125</ele>
        <time>2026-04-26T11:02:44.000Z</time>
        <extensions>
          <ns3:TrackPointExtension>
            <ns3:hr>111</ns3:hr>
          </ns3:TrackPointExtension>
        </extensions>
      </trkpt>
      <trkpt lat="59.07421044073998928070068359375" lon="30.08387818001210689544677734375">
        <ele>69.8000030517578125</ele>
        <time>2026-04-26T11:02:46.000Z</time>
        <extensions>
          <ns3:TrackPointExtension>
            <ns3:hr>110</ns3:hr>
          </ns3:TrackPointExtension>
        </extensions>
      </trkpt>
      <trkpt lat="59.07420339994132518768310546875" lon="30.08388957940042018890380859375">
        <ele>69.8000030517578125</ele>
        <time>2026-04-26T11:02:48.000Z</time>
        <extensions>
          <ns3:TrackPointExtension>
            <ns3:hr>112</ns3:hr>
          </ns3:TrackPointExtension>
        </extensions>
      </trkpt>
      <trkpt lat="59.0741855464875698089599609375" lon="30.0838824547827243804931640625">
        <ele>69.8000030517578125</ele>
        <time>2026-04-26T11:02:49.000Z</time>
        <extensions>
          <ns3:TrackPointExtension>
            <ns3:hr>116</ns3:hr>
          </ns3:TrackPointExtension>
        </extensions>
      </trkpt>
      <trkpt lat="59.0741721354424953460693359375" lon="30.0839042477309703826904296875">
        <ele>69.8000030517578125</ele>
        <time>2026-04-26T11:02:51.000Z</time>
        <extensions>
          <ns3:TrackPointExtension>
            <ns3:hr>121</ns3:hr>
          </ns3:TrackPointExtension>
        </extensions>
      </trkpt>
      <trkpt lat="59.07417230308055877685546875" lon="30.08390835486352443695068359375">
        <ele>69.8000030517578125</ele>
        <time>2026-04-26T11:02:52.000Z</time>
        <extensions>
          <ns3:TrackPointExtension>
            <ns3:hr>121</ns3:hr>
          </ns3:TrackPointExtension>
        </extensions>
      </trkpt>
      <trkpt lat="59.074143134057521820068359375" lon="30.0839344225823879241943359375">
        <ele>69.8000030517578125</ele>
        <time>2026-04-26T11:02:56.000Z</time>
        <extensions>
          <ns3:TrackPointExtension>
            <ns3:hr>121</ns3:hr>
          </ns3:TrackPointExtension>
        </extensions>
      </trkpt>
      <trkpt lat="59.07409963198006153106689453125" lon="30.0839428044855594635009765625">
        <ele>69.59999847412109375</ele>
        <time>2026-04-26T11:03:02.000Z</time>
        <extensions>
          <ns3:TrackPointExtension>
            <ns3:hr>121</ns3:hr>
          </ns3:TrackPointExtension>
        </extensions>
      </trkpt>
      <trkpt lat="59.07408202998340129852294921875" lon="30.083953030407428741455078125">
        <ele>69.59999847412109375</ele>
        <time>2026-04-26T11:03:05.000Z</time>
        <extensions>
          <ns3:TrackPointExtension>
            <ns3:hr>120</ns3:hr>
          </ns3:TrackPointExtension>
        </extensions>
      </trkpt>
      <trkpt lat="59.0740303136408329010009765625" lon="30.08396954275667667388916015625">
        <ele>69.40000152587890625</ele>
        <time>2026-04-26T11:03:11.000Z</time>
        <extensions>
          <ns3:TrackPointExtension>
            <ns3:hr>119</ns3:hr>
          </ns3:TrackPointExtension>
        </extensions>
      </trkpt>
      <trkpt lat="59.0740018151700496673583984375" lon="30.08402117528021335601806640625">
        <ele>69.59999847412109375</ele>
        <time>2026-04-26T11:03:16.000Z</time>
        <extensions>
          <ns3:TrackPointExtension>
            <ns3:hr>119</ns3:hr>
          </ns3:TrackPointExtension>
        </extensions>
      </trkpt>
      <trkpt lat="59.07399686984717845916748046875" lon="30.08407817222177982330322265625">
        <ele>69.40000152587890625</ele>
        <time>2026-04-26T11:03:21.000Z</time>
        <extensions>
          <ns3:TrackPointExtension>
            <ns3:hr>119</ns3:hr>
          </ns3:TrackPointExtension>
        </extensions>
      </trkpt>
      <trkpt lat="59.07399586401879787445068359375" lon="30.08405989967286586761474609375">
        <ele>69.1999969482421875</ele>
        <time>2026-04-26T11:03:25.000Z</time>
        <extensions>
          <ns3:TrackPointExtension>
            <ns3:hr>118</ns3:hr>
          </ns3:TrackPointExtension>
        </extensions>
      </trkpt>
      <trkpt lat="59.07397876493632793426513671875" lon="30.08409149944782257080078125">
        <ele>68.8000030517578125</ele>
        <time>2026-04-26T11:03:29.000Z</time>
        <extensions>
          <ns3:TrackPointExtension>
            <ns3:hr>117</ns3:hr>
          </ns3:TrackPointExtension>
        </extensions>
      </trkpt>
      <trkpt lat="59.07395596615970134735107421875" lon="30.084081776440143585205078125">
        <ele>68.8000030517578125</ele>
        <time>2026-04-26T11:03:31.000Z</time>
        <extensions>
          <ns3:TrackPointExtension>
            <ns3:hr>118</ns3:hr>
          </ns3:TrackPointExtension>
        </extensions>
      </trkpt>
      <trkpt lat="59.07394557259976863861083984375" lon="30.08408219553530216217041015625">
        <ele>69</ele>
        <time>2026-04-26T11:03:33.000Z</time>
        <extensions>
          <ns3:TrackPointExtension>
            <ns3:hr>121</ns3:hr>
          </ns3:TrackPointExtension>
        </extensions>
      </trkpt>
      <trkpt lat="59.07393484376370906829833984375" lon="30.084076412022113800048828125">
        <ele>69</ele>
        <time>2026-04-26T11:03:34.000Z</time>
        <extensions>
          <ns3:TrackPointExtension>
            <ns3:hr>122</ns3:hr>
          </ns3:TrackPointExtension>
        </extensions>
      </trkpt>
      <trkpt lat="59.07390718348324298858642578125" lon="30.0840762443840503692626953125">
        <ele>69</ele>
        <time>2026-04-26T11:03:38.000Z</time>
        <extensions>
          <ns3:TrackPointExtension>
            <ns3:hr>124</ns3:hr>
          </ns3:TrackPointExtension>
        </extensions>
      </trkpt>
      <trkpt lat="59.07389712519943714141845703125" lon="30.08408940397202968597412109375">
        <ele>69</ele>
        <time>2026-04-26T11:03:40.000Z</time>
        <extensions>
          <ns3:TrackPointExtension>
            <ns3:hr>125</ns3:hr>
          </ns3:TrackPointExtension>
        </extensions>
      </trkpt>
      <trkpt lat="59.07387013547122478485107421875" lon="30.08410348556935787200927734375">
        <ele>69</ele>
        <time>2026-04-26T11:03:42.000Z</time>
        <extensions>
          <ns3:TrackPointExtension>
            <ns3:hr>124</ns3:hr>
          </ns3:TrackPointExtension>
        </extensions>
      </trkpt>
      <trkpt lat="59.073838032782077789306640625" lon="30.08413500152528285980224609375">
        <ele>69</ele>
        <time>2026-04-26T11:03:49.000Z</time>
        <extensions>
          <ns3:TrackPointExtension>
            <ns3:hr>123</ns3:hr>
          </ns3:TrackPointExtension>
        </extensions>
      </trkpt>
      <trkpt lat="59.0738264657557010650634765625" lon="30.0841295532882213592529296875">
        <ele>69</ele>
        <time>2026-04-26T11:03:52.000Z</time>
        <extensions>
          <ns3:TrackPointExtension>
            <ns3:hr>126</ns3:hr>
          </ns3:TrackPointExtension>
        </extensions>
      </trkpt>
      <trkpt lat="59.07382638193666934967041015625" lon="30.084152854979038238525390625">
        <ele>69</ele>
        <time>2026-04-26T11:03:55.000Z</time>
        <extensions>
          <ns3:TrackPointExtension>
            <ns3:hr>128</ns3:hr>
          </ns3:TrackPointExtension>
        </extensions>
      </trkpt>
      <trkpt lat="59.07379654236137866973876953125" lon="30.0841580517590045928955078125">
        <ele>69.40000152587890625</ele>
        <time>2026-04-26T11:04:00.000Z</time>
        <extensions>
          <ns3:TrackPointExtension>
            <ns3:hr>129</ns3:hr>
          </ns3:TrackPointExtension>
        </extensions>
      </trkpt>
      <trkpt lat="59.07379209995269775390625" lon="30.084147155284881591796875">
        <ele>69.1999969482421875</ele>
        <time>2026-04-26T11:04:01.000Z</time>
        <extensions>
          <ns3:TrackPointExtension>
            <ns3:hr>129</ns3:hr>
          </ns3:TrackPointExtension>
        </extensions>
      </trkpt>
      <trkpt lat="59.073740802705287933349609375" lon="30.08416752330958843231201171875">
        <ele>68.8000030517578125</ele>
        <time>2026-04-26T11:04:06.000Z</time>
        <extensions>
          <ns3:TrackPointExtension>
            <ns3:hr>131</ns3:hr>
          </ns3:TrackPointExtension>
        </extensions>
      </trkpt>
      <trkpt lat="59.07370266504585742950439453125" lon="30.0841875560581684112548828125">
        <ele>68.8000030517578125</ele>
        <time>2026-04-26T11:04:10.000Z</time>
        <extensions>
          <ns3:TrackPointExtension>
            <ns3:hr>132</ns3:hr>
          </ns3:TrackPointExtension>
        </extensions>
      </trkpt>
      <trkpt lat="59.07369378022849559783935546875" lon="30.0841788388788700103759765625">
        <ele>68.8000030517578125</ele>
        <time>2026-04-26T11:04:15.000Z</time>
        <extensions>
          <ns3:TrackPointExtension>
            <ns3:hr>132</ns3:hr>
          </ns3:TrackPointExtension>
        </extensions>
      </trkpt>
      <trkpt lat="59.07369294203817844390869140625" lon="30.08417196571826934814453125">
        <ele>68.8000030517578125</ele>
        <time>2026-04-26T11:04:16.000Z</time>
        <extensions>
          <ns3:TrackPointExtension>
            <ns3:hr>131</ns3:hr>
          </ns3:TrackPointExtension>
        </extensions>
      </trkpt>
      <trkpt lat="59.0736655332148075103759765625" lon="30.08414120413362979888916015625">
        <ele>68.8000030517578125</ele>
        <time>2026-04-26T11:04:21.000Z</time>
        <extensions>
          <ns3:TrackPointExtension>
            <ns3:hr>131</ns3:hr>
          </ns3:TrackPointExtension>
        </extensions>
      </trkpt>
      <trkpt lat="59.07366402447223663330078125" lon="30.08415210060775279998779296875">
        <ele>68.8000030517578125</ele>
        <time>2026-04-26T11:04:22.000Z</time>
        <extensions>
          <ns3:TrackPointExtension>
            <ns3:hr>132</ns3:hr>
          </ns3:TrackPointExtension>
        </extensions>
      </trkpt>
      <trkpt lat="59.07364332117140293121337890625" lon="30.08417456410825252532958984375">
        <ele>68.8000030517578125</ele>
        <time>2026-04-26T11:04:26.000Z</time>
        <extensions>
          <ns3:TrackPointExtension>
            <ns3:hr>133</ns3:hr>
          </ns3:TrackPointExtension>
        </extensions>
      </trkpt>
      <trkpt lat="59.073617756366729736328125" lon="30.08419903926551342010498046875">
        <ele>68.8000030517578125</ele>
        <time>2026-04-26T11:04:30.000Z</time>
        <extensions>
          <ns3:TrackPointExtension>
            <ns3:hr>135</ns3:hr>
          </ns3:TrackPointExtension>
        </extensions>
      </trkpt>
      <trkpt lat="59.07358489930629730224609375" lon="30.084199793636798858642578125">
        <ele>68.8000030517578125</ele>
        <time>2026-04-26T11:04:32.000Z</time>
        <extensions>
          <ns3:TrackPointExtension>
            <ns3:hr>135</ns3:hr>
          </ns3:TrackPointExtension>
        </extensions>
      </trkpt>
      <trkpt lat="59.0735642798244953155517578125" lon="30.08419015444815158843994140625">
        <ele>68.8000030517578125</ele>
        <time>2026-04-26T11:04:34.000Z</time>
        <extensions>
          <ns3:TrackPointExtension>
            <ns3:hr>134</ns3:hr>
          </ns3:TrackPointExtension>
        </extensions>
      </trkpt>
      <trkpt lat="59.073531590402126312255859375" lon="30.0842128694057464599609375">
        <ele>68.8000030517578125</ele>
        <time>2026-04-26T11:04:39.000Z</time>
        <extensions>
          <ns3:TrackPointExtension>
            <ns3:hr>132</ns3:hr>
          </ns3:TrackPointExtension>
        </extensions>
      </trkpt>
      <trkpt lat="59.07350233756005764007568359375" lon="30.08425486274063587188720703125">
        <ele>68.8000030517578125</ele>
        <time>2026-04-26T11:04:44.000Z</time>
        <extensions>
          <ns3:TrackPointExtension>
            <ns3:hr>130</ns3:hr>
          </ns3:TrackPointExtension>
        </extensions>
      </trkpt>
      <trkpt lat="59.0734442509710788726806640625" lon="30.08426005952060222625732421875">
        <ele>68.8000030517578125</ele>
        <time>2026-04-26T11:04:50.000Z</time>
        <extensions>
          <ns3:TrackPointExtension>
            <ns3:hr>129</ns3:hr>
          </ns3:TrackPointExtension>
        </extensions>
      </trkpt>
      <trkpt lat="59.07343192957341670989990234375" lon="30.08423030376434326171875">
        <ele>68.8000030517578125</ele>
        <time>2026-04-26T11:04:54.000Z</time>
        <extensions>
          <ns3:TrackPointExtension>
            <ns3:hr>128</ns3:hr>
          </ns3:TrackPointExtension>
        </extensions>
      </trkpt>
      <trkpt lat="59.07341717742383480072021484375" lon="30.08426743559539318084716796875">
        <ele>69</ele>
        <time>2026-04-26T11:04:57.000Z</time>
        <extensions>
          <ns3:TrackPointExtension>
            <ns3:hr>125</ns3:hr>
          </ns3:TrackPointExtension>
        </extensions>
      </trkpt>
      <trkpt lat="59.0733936242759227752685546875" lon="30.0842720456421375274658203125">
        <ele>69.1999969482421875</ele>
        <time>2026-04-26T11:04:59.000Z</time>
        <extensions>
          <ns3:TrackPointExtension>
            <ns3:hr>123</ns3:hr>
          </ns3:TrackPointExtension>
        </extensions>
      </trkpt>
      <trkpt lat="59.07334643416106700897216796875" lon="30.0842760689556598663330078125">
        <ele>69.1999969482421875</ele>
        <time>2026-04-26T11:05:04.000Z</time>
        <extensions>
          <ns3:TrackPointExtension>
            <ns3:hr>126</ns3:hr>
          </ns3:TrackPointExtension>
        </extensions>
      </trkpt>
      <trkpt lat="59.07333117909729480743408203125" lon="30.084278918802738189697265625">
        <ele>69.40000152587890625</ele>
        <time>2026-04-26T11:05:05.000Z</time>
        <extensions>
          <ns3:TrackPointExtension>
            <ns3:hr>126</ns3:hr>
          </ns3:TrackPointExtension>
        </extensions>
      </trkpt>
      <trkpt lat="59.07330569811165332794189453125" lon="30.08431856520473957061767578125">
        <ele>69.59999847412109375</ele>
        <time>2026-04-26T11:05:08.000Z</time>
        <extensions>
          <ns3:TrackPointExtension>
            <ns3:hr>126</ns3:hr>
          </ns3:TrackPointExtension>
        </extensions>
      </trkpt>
      <trkpt lat="59.073286838829517364501953125" lon="30.0843307189643383026123046875">
        <ele>69.59999847412109375</ele>
        <time>2026-04-26T11:05:12.000Z</time>
        <extensions>
          <ns3:TrackPointExtension>
            <ns3:hr>125</ns3:hr>
          </ns3:TrackPointExtension>
        </extensions>
      </trkpt>
      <trkpt lat="59.07327116467058658599853515625" lon="30.08434002287685871124267578125">
        <ele>69.59999847412109375</ele>
        <time>2026-04-26T11:05:13.000Z</time>
        <extensions>
          <ns3:TrackPointExtension>
            <ns3:hr>125</ns3:hr>
          </ns3:TrackPointExtension>
        </extensions>
      </trkpt>
      <trkpt lat="59.07323411665856838226318359375" lon="30.08436768315732479095458984375">
        <ele>69.8000030517578125</ele>
        <time>2026-04-26T11:05:17.000Z</time>
        <extensions>
          <ns3:TrackPointExtension>
            <ns3:hr>126</ns3:hr>
          </ns3:TrackPointExtension>
        </extensions>
      </trkpt>
      <trkpt lat="59.07321517355740070343017578125" lon="30.0844011269509792327880859375">
        <ele>69.1999969482421875</ele>
        <time>2026-04-26T11:05:21.000Z</time>
        <extensions>
          <ns3:TrackPointExtension>
            <ns3:hr>129</ns3:hr>
          </ns3:TrackPointExtension>
        </extensions>
      </trkpt>
      <trkpt lat="59.07321098260581493377685546875" lon="30.0844180583953857421875">
        <ele>69.1999969482421875</ele>
        <time>2026-04-26T11:05:22.000Z</time>
        <extensions>
          <ns3:TrackPointExtension>
            <ns3:hr>129</ns3:hr>
          </ns3:TrackPointExtension>
        </extensions>
      </trkpt>
      <trkpt lat="59.07319405116140842437744140625" lon="30.0844661705195903778076171875">
        <ele>69</ele>
        <time>2026-04-26T11:05:26.000Z</time>
        <extensions>
          <ns3:TrackPointExtension>
            <ns3:hr>126</ns3:hr>
          </ns3:TrackPointExtension>
        </extensions>
      </trkpt>
      <trkpt lat="59.0731807239353656768798828125" lon="30.0844919867813587188720703125">
        <ele>69.1999969482421875</ele>
        <time>2026-04-26T11:05:28.000Z</time>
        <extensions>
          <ns3:TrackPointExtension>
            <ns3:hr>127</ns3:hr>
          </ns3:TrackPointExtension>
        </extensions>
      </trkpt>
      <trkpt lat="59.0731649659574031829833984375" lon="30.084502212703227996826171875">
        <ele>69.1999969482421875</ele>
        <time>2026-04-26T11:05:29.000Z</time>
        <extensions>
          <ns3:TrackPointExtension>
            <ns3:hr>128</ns3:hr>
          </ns3:TrackPointExtension>
        </extensions>
      </trkpt>
      <trkpt lat="59.0731497108936309814453125" lon="30.08449140004813671112060546875">
        <ele>69.40000152587890625</ele>
        <time>2026-04-26T11:05:31.000Z</time>
        <extensions>
          <ns3:TrackPointExtension>
            <ns3:hr>129</ns3:hr>
          </ns3:TrackPointExtension>
        </extensions>
      </trkpt>
      <trkpt lat="59.07311257906258106231689453125" lon="30.0844393484294414520263671875">
        <ele>69.40000152587890625</ele>
        <time>2026-04-26T11:05:35.000Z</time>
        <extensions>
          <ns3:TrackPointExtension>
            <ns3:hr>127</ns3:hr>
          </ns3:TrackPointExtension>
        </extensions>
      </trkpt>
      <trkpt lat="59.0730814822018146514892578125" lon="30.08443884551525115966796875">
        <ele>69.1999969482421875</ele>
        <time>2026-04-26T11:05:39.000Z</time>
        <extensions>
          <ns3:TrackPointExtension>
            <ns3:hr>128</ns3:hr>
          </ns3:TrackPointExtension>
        </extensions>
      </trkpt>
      <trkpt lat="59.07304602675139904022216796875" lon="30.0844292901456356048583984375">
        <ele>69.40000152587890625</ele>
        <time>2026-04-26T11:05:44.000Z</time>
        <extensions>
          <ns3:TrackPointExtension>
            <ns3:hr>127</ns3:hr>
          </ns3:TrackPointExtension>
        </extensions>
      </trkpt>
      <trkpt lat="59.0730013512074947357177734375" lon="30.0844004563987255096435546875">
        <ele>69.59999847412109375</ele>
        <time>2026-04-26T11:05:50.000Z</time>
        <extensions>
          <ns3:TrackPointExtension>
            <ns3:hr>130</ns3:hr>
          </ns3:TrackPointExtension>
        </extensions>
      </trkpt>
      <trkpt lat="59.07294896431267261505126953125" lon="30.08439517579972743988037109375">
        <ele>69.1999969482421875</ele>
        <time>2026-04-26T11:05:55.000Z</time>
        <extensions>
          <ns3:TrackPointExtension>
            <ns3:hr>130</ns3:hr>
          </ns3:TrackPointExtension>
        </extensions>
      </trkpt>
      <trkpt lat="59.072896577417850494384765625" lon="30.0844520889222621917724609375">
        <ele>68.8000030517578125</ele>
        <time>2026-04-26T11:06:00.000Z</time>
        <extensions>
          <ns3:TrackPointExtension>
            <ns3:hr>132</ns3:hr>
          </ns3:TrackPointExtension>
        </extensions>
      </trkpt>
      <trkpt lat="59.07286070287227630615234375" lon="30.0844547711312770843505859375">
        <ele>68.8000030517578125</ele>
        <time>2026-04-26T11:06:05.000Z</time>
        <extensions>
          <ns3:TrackPointExtension>
            <ns3:hr>132</ns3:hr>
          </ns3:TrackPointExtension>
        </extensions>
      </trkpt>
      <trkpt lat="59.0728296898305416107177734375" lon="30.0844810903072357177734375">
        <ele>68.8000030517578125</ele>
        <time>2026-04-26T11:06:08.000Z</time>
        <extensions>
          <ns3:TrackPointExtension>
            <ns3:hr>129</ns3:hr>
          </ns3:TrackPointExtension>
        </extensions>
      </trkpt>
      <trkpt lat="59.07282256521284580230712890625" lon="30.084480755031108856201171875">
        <ele>68.8000030517578125</ele>
        <time>2026-04-26T11:06:09.000Z</time>
        <extensions>
          <ns3:TrackPointExtension>
            <ns3:hr>126</ns3:hr>
          </ns3:TrackPointExtension>
        </extensions>
      </trkpt>
      <trkpt lat="59.07280035316944122314453125" lon="30.084474720060825347900390625">
        <ele>68.59999847412109375</ele>
        <time>2026-04-26T11:06:11.000Z</time>
        <extensions>
          <ns3:TrackPointExtension>
            <ns3:hr>124</ns3:hr>
          </ns3:TrackPointExtension>
        </extensions>
      </trkpt>
      <trkpt lat="59.07275366596877574920654296875" lon="30.08448603563010692596435546875">
        <ele>68.40000152587890625</ele>
        <time>2026-04-26T11:06:16.000Z</time>
        <extensions>
          <ns3:TrackPointExtension>
            <ns3:hr>119</ns3:hr>
          </ns3:TrackPointExtension>
        </extensions>
      </trkpt>
      <trkpt lat="59.0727036260068416595458984375" lon="30.08449223823845386505126953125">
        <ele>68.40000152587890625</ele>
        <time>2026-04-26T11:06:21.000Z</time>
        <extensions>
          <ns3:TrackPointExtension>
            <ns3:hr>119</ns3:hr>
          </ns3:TrackPointExtension>
        </extensions>
      </trkpt>
      <trkpt lat="59.0726768039166927337646484375" lon="30.0845025479793548583984375">
        <ele>68.1999969482421875</ele>
        <time>2026-04-26T11:06:24.000Z</time>
        <extensions>
          <ns3:TrackPointExtension>
            <ns3:hr>120</ns3:hr>
          </ns3:TrackPointExtension>
        </extensions>
      </trkpt>
      <trkpt lat="59.0726322121918201446533203125" lon="30.0845275260508060455322265625">
        <ele>68.40000152587890625</ele>
        <time>2026-04-26T11:06:28.000Z</time>
        <extensions>
          <ns3:TrackPointExtension>
            <ns3:hr>118</ns3:hr>
          </ns3:TrackPointExtension>
        </extensions>
      </trkpt>
      <trkpt lat="59.07259918749332427978515625" lon="30.0845228321850299835205078125">
        <ele>68.1999969482421875</ele>
        <time>2026-04-26T11:06:33.000Z</time>
        <extensions>
          <ns3:TrackPointExtension>
            <ns3:hr>119</ns3:hr>
          </ns3:TrackPointExtension>
        </extensions>
      </trkpt>
      <trkpt lat="59.0725852735340595245361328125" lon="30.0845315493643283843994140625">
        <ele>68.1999969482421875</ele>
        <time>2026-04-26T11:06:34.000Z</time>
        <extensions>
          <ns3:TrackPointExtension>
            <ns3:hr>122</ns3:hr>
          </ns3:TrackPointExtension>
        </extensions>
      </trkpt>
      <trkpt lat="59.07255870290100574493408203125" lon="30.08453934453427791595458984375">
        <ele>68.1999969482421875</ele>
        <time>2026-04-26T11:06:37.000Z</time>
        <extensions>
          <ns3:TrackPointExtension>
            <ns3:hr>125</ns3:hr>
          </ns3:TrackPointExtension>
        </extensions>
      </trkpt>
      <trkpt lat="59.07254998572170734405517578125" lon="30.0845349021255970001220703125">
        <ele>68.40000152587890625</ele>
        <time>2026-04-26T11:06:38.000Z</time>
        <extensions>
          <ns3:TrackPointExtension>
            <ns3:hr>124</ns3:hr>
          </ns3:TrackPointExtension>
        </extensions>
      </trkpt>
      <trkpt lat="59.07253255136311054229736328125" lon="30.08453565649688243865966796875">
        <ele>68.40000152587890625</ele>
        <time>2026-04-26T11:06:40.000Z</time>
        <extensions>
          <ns3:TrackPointExtension>
            <ns3:hr>121</ns3:hr>
          </ns3:TrackPointExtension>
        </extensions>
      </trkpt>
      <trkpt lat="59.0725125186145305633544921875" lon="30.08455560542643070220947265625">
        <ele>68.59999847412109375</ele>
        <time>2026-04-26T11:06:42.000Z</time>
        <extensions>
          <ns3:TrackPointExtension>
            <ns3:hr>118</ns3:hr>
          </ns3:TrackPointExtension>
        </extensions>
      </trkpt>
      <trkpt lat="59.0724885463714599609375" lon="30.0845697708427906036376953125">
        <ele>68.59999847412109375</ele>
        <time>2026-04-26T11:06:44.000Z</time>
        <extensions>
          <ns3:TrackPointExtension>
            <ns3:hr>116</ns3:hr>
          </ns3:TrackPointExtension>
        </extensions>
      </trkpt>
      <trkpt lat="59.072459377348423004150390625" lon="30.08456465788185596466064453125">
        <ele>68.8000030517578125</ele>
        <time>2026-04-26T11:06:47.000Z</time>
        <extensions>
          <ns3:TrackPointExtension>
            <ns3:hr>113</ns3:hr>
          </ns3:TrackPointExtension>
        </extensions>
      </trkpt>
      <trkpt lat="59.07243917696177959442138671875" lon="30.084568597376346588134765625">
        <ele>68.8000030517578125</ele>
        <time>2026-04-26T11:06:49.000Z</time>
        <extensions>
          <ns3:TrackPointExtension>
            <ns3:hr>109</ns3:hr>
          </ns3:TrackPointExtension>
        </extensions>
      </trkpt>
      <trkpt lat="59.0724350698292255401611328125" lon="30.08456666953861713409423828125">
        <ele>68.8000030517578125</ele>
        <time>2026-04-26T11:06:50.000Z</time>
        <extensions>
          <ns3:TrackPointExtension>
            <ns3:hr>103</ns3:hr>
          </ns3:TrackPointExtension>
        </extensions>
      </trkpt>
      <trkpt lat="59.0724286995828151702880859375" lon="30.08457471616566181182861328125">
        <ele>68.8000030517578125</ele>
        <time>2026-04-26T11:06:51.000Z</time>
        <extensions>
          <ns3:TrackPointExtension>
            <ns3:hr>104</ns3:hr>
          </ns3:TrackPointExtension>
        </extensions>
      </trkpt>
      <trkpt lat="59.0723747201263904571533203125" lon="30.08463389240205287933349609375">
        <ele>68.59999847412109375</ele>
        <time>2026-04-26T11:06:57.000Z</time>
        <extensions>
          <ns3:TrackPointExtension>
            <ns3:hr>104</ns3:hr>
          </ns3:TrackPointExtension>
        </extensions>
      </trkpt>
      <trkpt lat="59.0723606385290622711181640625" lon="30.08464260958135128021240234375">
        <ele>68.40000152587890625</ele>
        <time>2026-04-26T11:06:59.000Z</time>
        <extensions>
          <ns3:TrackPointExtension>
            <ns3:hr>103</ns3:hr>
          </ns3:TrackPointExtension>
        </extensions>
      </trkpt>
      <trkpt lat="59.07231395132839679718017578125" lon="30.08466054685413837432861328125">
        <ele>68.1999969482421875</ele>
        <time>2026-04-26T11:07:03.000Z</time>
        <extensions>
          <ns3:TrackPointExtension>
            <ns3:hr>102</ns3:hr>
          </ns3:TrackPointExtension>
        </extensions>
      </trkpt>
      <trkpt lat="59.0722919069230556488037109375" lon="30.08466674946248531341552734375">
        <ele>68.40000152587890625</ele>
        <time>2026-04-26T11:07:05.000Z</time>
        <extensions>
          <ns3:TrackPointExtension>
            <ns3:hr>105</ns3:hr>
          </ns3:TrackPointExtension>
        </extensions>
      </trkpt>
      <trkpt lat="59.07227598130702972412109375" lon="30.08466037921607494354248046875">
        <ele>68.40000152587890625</ele>
        <time>2026-04-26T11:07:06.000Z</time>
        <extensions>
          <ns3:TrackPointExtension>
            <ns3:hr>106</ns3:hr>
          </ns3:TrackPointExtension>
        </extensions>
      </trkpt>
      <trkpt lat="59.07227170653641223907470703125" lon="30.08465199731290340423583984375">
        <ele>68.40000152587890625</ele>
        <time>2026-04-26T11:07:07.000Z</time>
        <extensions>
          <ns3:TrackPointExtension>
            <ns3:hr>107</ns3:hr>
          </ns3:TrackPointExtension>
        </extensions>
      </trkpt>
      <trkpt lat="59.07225318253040313720703125" lon="30.0846535898745059967041015625">
        <ele>68.40000152587890625</ele>
        <time>2026-04-26T11:07:09.000Z</time>
        <extensions>
          <ns3:TrackPointExtension>
            <ns3:hr>111</ns3:hr>
          </ns3:TrackPointExtension>
        </extensions>
      </trkpt>
      <trkpt lat="59.0722483210265636444091796875" lon="30.08464948274195194244384765625">
        <ele>68.40000152587890625</ele>
        <time>2026-04-26T11:07:10.000Z</time>
        <extensions>
          <ns3:TrackPointExtension>
            <ns3:hr>114</ns3:hr>
          </ns3:TrackPointExtension>
        </extensions>
      </trkpt>
      <trkpt lat="59.0722208283841609954833984375" lon="30.0846737064421176910400390625">
        <ele>68.40000152587890625</ele>
        <time>2026-04-26T11:07:12.000Z</time>
        <extensions>
          <ns3:TrackPointExtension>
            <ns3:hr>117</ns3:hr>
          </ns3:TrackPointExtension>
        </extensions>
      </trkpt>
      <trkpt lat="59.07219241373240947723388671875" lon="30.08467622101306915283203125">
        <ele>68.1999969482421875</ele>
        <time>2026-04-26T11:07:16.000Z</time>
        <extensions>
          <ns3:TrackPointExtension>
            <ns3:hr>119</ns3:hr>
          </ns3:TrackPointExtension>
        </extensions>
      </trkpt>
      <trkpt lat="59.07212845981121063232421875" lon="30.0846991874277591705322265625">
        <ele>68.59999847412109375</ele>
        <time>2026-04-26T11:07:22.000Z</time>
        <extensions>
          <ns3:TrackPointExtension>
            <ns3:hr>121</ns3:hr>
          </ns3:TrackPointExtension>
        </extensions>
      </trkpt>
      <trkpt lat="59.07211236655712127685546875" lon="30.0846941582858562469482421875">
        <ele>68.59999847412109375</ele>
        <time>2026-04-26T11:07:24.000Z</time>
        <extensions>
          <ns3:TrackPointExtension>
            <ns3:hr>121</ns3:hr>
          </ns3:TrackPointExtension>
        </extensions>
      </trkpt>
      <trkpt lat="59.07209853641688823699951171875" lon="30.0846857763826847076416015625">
        <ele>68.59999847412109375</ele>
        <time>2026-04-26T11:07:26.000Z</time>
        <extensions>
          <ns3:TrackPointExtension>
            <ns3:hr>123</ns3:hr>
          </ns3:TrackPointExtension>
        </extensions>
      </trkpt>
      <trkpt lat="59.07205763272941112518310546875" lon="30.0847176276147365570068359375">
        <ele>68.8000030517578125</ele>
        <time>2026-04-26T11:07:31.000Z</time>
        <extensions>
          <ns3:TrackPointExtension>
            <ns3:hr>125</ns3:hr>
          </ns3:TrackPointExtension>
        </extensions>
      </trkpt>
      <trkpt lat="59.07204003073275089263916015625" lon="30.0847239978611469268798828125">
        <ele>68.59999847412109375</ele>
        <time>2026-04-26T11:07:32.000Z</time>
        <extensions>
          <ns3:TrackPointExtension>
            <ns3:hr>124</ns3:hr>
          </ns3:TrackPointExtension>
        </extensions>
      </trkpt>
      <trkpt lat="59.07199543900787830352783203125" lon="30.084747970104217529296875">
        <ele>68.40000152587890625</ele>
        <time>2026-04-26T11:07:37.000Z</time>
        <extensions>
          <ns3:TrackPointExtension>
            <ns3:hr>124</ns3:hr>
          </ns3:TrackPointExtension>
        </extensions>
      </trkpt>
      <trkpt lat="59.0719821117818355560302734375" lon="30.0847642309963703155517578125">
        <ele>68.40000152587890625</ele>
        <time>2026-04-26T11:07:38.000Z</time>
        <extensions>
          <ns3:TrackPointExtension>
            <ns3:hr>127</ns3:hr>
          </ns3:TrackPointExtension>
        </extensions>
      </trkpt>
      <trkpt lat="59.071969874203205108642578125" lon="30.0847592018544673919677734375">
        <ele>68.59999847412109375</ele>
        <time>2026-04-26T11:07:39.000Z</time>
        <extensions>
          <ns3:TrackPointExtension>
            <ns3:hr>130</ns3:hr>
          </ns3:TrackPointExtension>
        </extensions>
      </trkpt>
      <trkpt lat="59.07196124084293842315673828125" lon="30.084758363664150238037109375">
        <ele>68.59999847412109375</ele>
        <time>2026-04-26T11:07:40.000Z</time>
        <extensions>
          <ns3:TrackPointExtension>
            <ns3:hr>130</ns3:hr>
          </ns3:TrackPointExtension>
        </extensions>
      </trkpt>
      <trkpt lat="59.07194280065596103668212890625" lon="30.084761045873165130615234375">
        <ele>68.40000152587890625</ele>
        <time>2026-04-26T11:07:42.000Z</time>
        <extensions>
          <ns3:TrackPointExtension>
            <ns3:hr>128</ns3:hr>
          </ns3:TrackPointExtension>
        </extensions>
      </trkpt>
      <trkpt lat="59.0719251148402690887451171875" lon="30.084773115813732147216796875">
        <ele>68.1999969482421875</ele>
        <time>2026-04-26T11:07:45.000Z</time>
        <extensions>
          <ns3:TrackPointExtension>
            <ns3:hr>126</ns3:hr>
          </ns3:TrackPointExtension>
        </extensions>
      </trkpt>
      <trkpt lat="59.07190692611038684844970703125" lon="30.0847685895860195159912109375">
        <ele>68.1999969482421875</ele>
        <time>2026-04-26T11:07:47.000Z</time>
        <extensions>
          <ns3:TrackPointExtension>
            <ns3:hr>126</ns3:hr>
          </ns3:TrackPointExtension>
        </extensions>
      </trkpt>
      <trkpt lat="59.07189510762691497802734375" lon="30.08477219380438327789306640625">
        <ele>68.40000152587890625</ele>
        <time>2026-04-26T11:07:53.000Z</time>
        <extensions>
          <ns3:TrackPointExtension>
            <ns3:hr>126</ns3:hr>
          </ns3:TrackPointExtension>
        </extensions>
      </trkpt>
      <trkpt lat="59.07186384312808513641357421875" lon="30.084767751395702362060546875">
        <ele>68.40000152587890625</ele>
        <time>2026-04-26T11:07:58.000Z</time>
        <extensions>
          <ns3:TrackPointExtension>
            <ns3:hr>126</ns3:hr>
          </ns3:TrackPointExtension>
        </extensions>
      </trkpt>
      <trkpt lat="59.07183744013309478759765625" lon="30.08478820323944091796875">
        <ele>68.40000152587890625</ele>
        <time>2026-04-26T11:08:02.000Z</time>
        <extensions>
          <ns3:TrackPointExtension>
            <ns3:hr>127</ns3:hr>
          </ns3:TrackPointExtension>
        </extensions>
      </trkpt>
      <trkpt lat="59.0718154795467853546142578125" lon="30.08481829427182674407958984375">
        <ele>68.59999847412109375</ele>
        <time>2026-04-26T11:08:07.000Z</time>
        <extensions>
          <ns3:TrackPointExtension>
            <ns3:hr>129</ns3:hr>
          </ns3:TrackPointExtension>
        </extensions>
      </trkpt>
      <trkpt lat="59.0718047507107257843017578125" lon="30.0848433561623096466064453125">
        <ele>68.59999847412109375</ele>
        <time>2026-04-26T11:08:09.000Z</time>
        <extensions>
          <ns3:TrackPointExtension>
            <ns3:hr>130</ns3:hr>
          </ns3:TrackPointExtension>
        </extensions>
      </trkpt>
      <trkpt lat="59.071799218654632568359375" lon="30.08484520018100738525390625">
        <ele>68.40000152587890625</ele>
        <time>2026-04-26T11:08:11.000Z</time>
        <extensions>
          <ns3:TrackPointExtension>
            <ns3:hr>134</ns3:hr>
          </ns3:TrackPointExtension>
        </extensions>
      </trkpt>
      <trkpt lat="59.07179980538785457611083984375" lon="30.08482801727950572967529296875">
        <ele>68.40000152587890625</ele>
        <time>2026-04-26T11:08:14.000Z</time>
        <extensions>
          <ns3:TrackPointExtension>
            <ns3:hr>131</ns3:hr>
          </ns3:TrackPointExtension>
        </extensions>
      </trkpt>
      <trkpt lat="59.071797542273998260498046875" lon="30.08482768200337886810302734375">
        <ele>68.59999847412109375</ele>
        <time>2026-04-26T11:08:17.000Z</time>
        <extensions>
          <ns3:TrackPointExtension>
            <ns3:hr>131</ns3:hr>
          </ns3:TrackPointExtension>
        </extensions>
      </trkpt>
      <trkpt lat="59.07177281565964221954345703125" lon="30.0848202221095561981201171875">
        <ele>68.59999847412109375</ele>
        <time>2026-04-26T11:08:21.000Z</time>
        <extensions>
          <ns3:TrackPointExtension>
            <ns3:hr>131</ns3:hr>
          </ns3:TrackPointExtension>
        </extensions>
      </trkpt>
      <trkpt lat="59.071764014661312103271484375" lon="30.084834806621074676513671875">
        <ele>68.40000152587890625</ele>
        <time>2026-04-26T11:08:23.000Z</time>
        <extensions>
          <ns3:TrackPointExtension>
            <ns3:hr>126</ns3:hr>
          </ns3:TrackPointExtension>
        </extensions>
      </trkpt>
      <trkpt lat="59.0717685408890247344970703125" lon="30.0848581083118915557861328125">
        <ele>68.40000152587890625</ele>
        <time>2026-04-26T11:08:25.000Z</time>
        <extensions>
          <ns3:TrackPointExtension>
            <ns3:hr>123</ns3:hr>
          </ns3:TrackPointExtension>
        </extensions>
      </trkpt>
      <trkpt lat="59.07176560722291469573974609375" lon="30.0848902948200702667236328125">
        <ele>68.40000152587890625</ele>
        <time>2026-04-26T11:08:27.000Z</time>
        <extensions>
          <ns3:TrackPointExtension>
            <ns3:hr>122</ns3:hr>
          </ns3:TrackPointExtension>
        </extensions>
      </trkpt>
      <trkpt lat="59.0717387013137340545654296875" lon="30.08487059734761714935302734375">
        <ele>68</ele>
        <time>2026-04-26T11:08:31.000Z</time>
        <extensions>
          <ns3:TrackPointExtension>
            <ns3:hr>123</ns3:hr>
          </ns3:TrackPointExtension>
        </extensions>
      </trkpt>
      <trkpt lat="59.071738533675670623779296875" lon="30.08487881161272525787353515625">
        <ele>68</ele>
        <time>2026-04-26T11:08:32.000Z</time>
        <extensions>
          <ns3:TrackPointExtension>
            <ns3:hr>123</ns3:hr>
          </ns3:TrackPointExtension>
        </extensions>
      </trkpt>
      <trkpt lat="59.071704335510730743408203125" lon="30.08491300977766513824462890625">
        <ele>68</ele>
        <time>2026-04-26T11:08:37.000Z</time>
        <extensions>
          <ns3:TrackPointExtension>
            <ns3:hr>122</ns3:hr>
          </ns3:TrackPointExtension>
        </extensions>
      </trkpt>
      <trkpt lat="59.0716716460883617401123046875" lon="30.0849248282611370086669921875">
        <ele>68.40000152587890625</ele>
        <time>2026-04-26T11:08:42.000Z</time>
        <extensions>
          <ns3:TrackPointExtension>
            <ns3:hr>122</ns3:hr>
          </ns3:TrackPointExtension>
        </extensions>
      </trkpt>
      <trkpt lat="59.07167038880288600921630859375" lon="30.08492357097566127777099609375">
        <ele>68.40000152587890625</ele>
        <time>2026-04-26T11:08:43.000Z</time>
        <extensions>
          <ns3:TrackPointExtension>
            <ns3:hr>122</ns3:hr>
          </ns3:TrackPointExtension>
        </extensions>
      </trkpt>
      <trkpt lat="59.07164809294044971466064453125" lon="30.084899850189685821533203125">
        <ele>68.40000152587890625</ele>
        <time>2026-04-26T11:08:45.000Z</time>
        <extensions>
          <ns3:TrackPointExtension>
            <ns3:hr>122</ns3:hr>
          </ns3:TrackPointExtension>
        </extensions>
      </trkpt>
      <trkpt lat="59.071620516479015350341796875" lon="30.084892809391021728515625">
        <ele>68.59999847412109375</ele>
        <time>2026-04-26T11:08:50.000Z</time>
        <extensions>
          <ns3:TrackPointExtension>
            <ns3:hr>123</ns3:hr>
          </ns3:TrackPointExtension>
        </extensions>
      </trkpt>
      <trkpt lat="59.0716087818145751953125" lon="30.0848845951259136199951171875">
        <ele>68.59999847412109375</ele>
        <time>2026-04-26T11:08:51.000Z</time>
        <extensions>
          <ns3:TrackPointExtension>
            <ns3:hr>126</ns3:hr>
          </ns3:TrackPointExtension>
        </extensions>
      </trkpt>
      <trkpt lat="59.07157726585865020751953125" lon="30.0848852656781673431396484375">
        <ele>68.40000152587890625</ele>
        <time>2026-04-26T11:08:54.000Z</time>
        <extensions>
          <ns3:TrackPointExtension>
            <ns3:hr>127</ns3:hr>
          </ns3:TrackPointExtension>
        </extensions>
      </trkpt>
      <trkpt lat="59.07154264859855175018310546875" lon="30.08489079773426055908203125">
        <ele>68.40000152587890625</ele>
        <time>2026-04-26T11:08:59.000Z</time>
        <extensions>
          <ns3:TrackPointExtension>
            <ns3:hr>125</ns3:hr>
          </ns3:TrackPointExtension>
        </extensions>
      </trkpt>
      <trkpt lat="59.07151750288903713226318359375" lon="30.08490697480738162994384765625">
        <ele>68.40000152587890625</ele>
        <time>2026-04-26T11:09:02.000Z</time>
        <extensions>
          <ns3:TrackPointExtension>
            <ns3:hr>124</ns3:hr>
          </ns3:TrackPointExtension>
        </extensions>
      </trkpt>
      <trkpt lat="59.071504175662994384765625" lon="30.0849094055593013763427734375">
        <ele>68.40000152587890625</ele>
        <time>2026-04-26T11:09:04.000Z</time>
        <extensions>
          <ns3:TrackPointExtension>
            <ns3:hr>125</ns3:hr>
          </ns3:TrackPointExtension>
        </extensions>
      </trkpt>
      <trkpt lat="59.07146603800356388092041015625" lon="30.08492692373692989349365234375">
        <ele>68</ele>
        <time>2026-04-26T11:09:08.000Z</time>
        <extensions>
          <ns3:TrackPointExtension>
            <ns3:hr>124</ns3:hr>
          </ns3:TrackPointExtension>
        </extensions>
      </trkpt>
      <trkpt lat="59.071438796818256378173828125" lon="30.08493631146848201751708984375">
        <ele>68.1999969482421875</ele>
        <time>2026-04-26T11:09:11.000Z</time>
        <extensions>
          <ns3:TrackPointExtension>
            <ns3:hr>121</ns3:hr>
          </ns3:TrackPointExtension>
        </extensions>
      </trkpt>
      <trkpt lat="59.07143318094313144683837890625" lon="30.08494268171489238739013671875">
        <ele>68.1999969482421875</ele>
        <time>2026-04-26T11:09:13.000Z</time>
        <extensions>
          <ns3:TrackPointExtension>
            <ns3:hr>118</ns3:hr>
          </ns3:TrackPointExtension>
        </extensions>
      </trkpt>
      <trkpt lat="59.07143016345798969268798828125" lon="30.08494033478200435638427734375">
        <ele>68.1999969482421875</ele>
        <time>2026-04-26T11:09:14.000Z</time>
        <extensions>
          <ns3:TrackPointExtension>
            <ns3:hr>117</ns3:hr>
          </ns3:TrackPointExtension>
        </extensions>
      </trkpt>
      <trkpt lat="59.071409963071346282958984375" lon="30.0849328748881816864013671875">
        <ele>68.40000152587890625</ele>
        <time>2026-04-26T11:09:16.000Z</time>
        <extensions>
          <ns3:TrackPointExtension>
            <ns3:hr>116</ns3:hr>
          </ns3:TrackPointExtension>
        </extensions>
      </trkpt>
      <trkpt lat="59.07139563001692295074462890625" lon="30.08493765257298946380615234375">
        <ele>68.40000152587890625</ele>
        <time>2026-04-26T11:09:17.000Z</time>
        <extensions>
          <ns3:TrackPointExtension>
            <ns3:hr>116</ns3:hr>
          </ns3:TrackPointExtension>
        </extensions>
      </trkpt>
      <trkpt lat="59.07137207686901092529296875" lon="30.0849650613963603973388671875">
        <ele>68.1999969482421875</ele>
        <time>2026-04-26T11:09:21.000Z</time>
        <extensions>
          <ns3:TrackPointExtension>
            <ns3:hr>118</ns3:hr>
          </ns3:TrackPointExtension>
        </extensions>
      </trkpt>
      <trkpt lat="59.071354307234287261962890625" lon="30.08497436530888080596923828125">
        <ele>68.1999969482421875</ele>
        <time>2026-04-26T11:09:23.000Z</time>
        <extensions>
          <ns3:TrackPointExtension>
            <ns3:hr>119</ns3:hr>
          </ns3:TrackPointExtension>
        </extensions>
      </trkpt>
      <trkpt lat="59.0713298320770263671875" lon="30.0849761255085468292236328125">
        <ele>68.40000152587890625</ele>
        <time>2026-04-26T11:09:26.000Z</time>
        <extensions>
          <ns3:TrackPointExtension>
            <ns3:hr>118</ns3:hr>
          </ns3:TrackPointExtension>
        </extensions>
      </trkpt>
      <trkpt lat="59.0713219530880451202392578125" lon="30.0849895365536212921142578125">
        <ele>68.40000152587890625</ele>
        <time>2026-04-26T11:09:28.000Z</time>
        <extensions>
          <ns3:TrackPointExtension>
            <ns3:hr>120</ns3:hr>
          </ns3:TrackPointExtension>
        </extensions>
      </trkpt>
      <trkpt lat="59.07131901942193508148193359375" lon="30.0849955715239048004150390625">
        <ele>68.40000152587890625</ele>
        <time>2026-04-26T11:09:29.000Z</time>
        <extensions>
          <ns3:TrackPointExtension>
            <ns3:hr>123</ns3:hr>
          </ns3:TrackPointExtension>
        </extensions>
      </trkpt>
      <trkpt lat="59.07131181098520755767822265625" lon="30.0850059650838375091552734375">
        <ele>68.40000152587890625</ele>
        <time>2026-04-26T11:09:30.000Z</time>
        <extensions>
          <ns3:TrackPointExtension>
            <ns3:hr>124</ns3:hr>
          </ns3:TrackPointExtension>
        </extensions>
      </trkpt>
      <trkpt lat="59.07126353122293949127197265625" lon="30.0850314460694789886474609375">
        <ele>68.40000152587890625</ele>
        <time>2026-04-26T11:09:35.000Z</time>
        <extensions>
          <ns3:TrackPointExtension>
            <ns3:hr>126</ns3:hr>
          </ns3:TrackPointExtension>
        </extensions>
      </trkpt>
      <trkpt lat="59.0712560713291168212890625" lon="30.08502130396664142608642578125">
        <ele>68.40000152587890625</ele>
        <time>2026-04-26T11:09:40.000Z</time>
        <extensions>
          <ns3:TrackPointExtension>
            <ns3:hr>126</ns3:hr>
          </ns3:TrackPointExtension>
        </extensions>
      </trkpt>
      <trkpt lat="59.07125095836818218231201171875" lon="30.085028596222400665283203125">
        <ele>68.40000152587890625</ele>
        <time>2026-04-26T11:09:41.000Z</time>
        <extensions>
          <ns3:TrackPointExtension>
            <ns3:hr>126</ns3:hr>
          </ns3:TrackPointExtension>
        </extensions>
      </trkpt>
      <trkpt lat="59.07122983597218990325927734375" lon="30.08503119461238384246826171875">
        <ele>68.1999969482421875</ele>
        <time>2026-04-26T11:09:44.000Z</time>
        <extensions>
          <ns3:TrackPointExtension>
            <ns3:hr>127</ns3:hr>
          </ns3:TrackPointExtension>
        </extensions>
      </trkpt>
      <trkpt lat="59.07121407799422740936279296875" lon="30.0850314460694789886474609375">
        <ele>68</ele>
        <time>2026-04-26T11:09:48.000Z</time>
        <extensions>
          <ns3:TrackPointExtension>
            <ns3:hr>126</ns3:hr>
          </ns3:TrackPointExtension>
        </extensions>
      </trkpt>
      <trkpt lat="59.07118809409439563751220703125" lon="30.08505080826580524444580078125">
        <ele>67.8000030517578125</ele>
        <time>2026-04-26T11:09:52.000Z</time>
        <extensions>
          <ns3:TrackPointExtension>
            <ns3:hr>124</ns3:hr>
          </ns3:TrackPointExtension>
        </extensions>
      </trkpt>
      <trkpt lat="59.07113528810441493988037109375" lon="30.0850394926965236663818359375">
        <ele>68</ele>
        <time>2026-04-26T11:09:57.000Z</time>
        <extensions>
          <ns3:TrackPointExtension>
            <ns3:hr>126</ns3:hr>
          </ns3:TrackPointExtension>
        </extensions>
      </trkpt>
      <trkpt lat="59.071113578975200653076171875" lon="30.0850854255259037017822265625">
        <ele>68.1999969482421875</ele>
        <time>2026-04-26T11:10:03.000Z</time>
        <extensions>
          <ns3:TrackPointExtension>
            <ns3:hr>127</ns3:hr>
          </ns3:TrackPointExtension>
        </extensions>
      </trkpt>
      <trkpt lat="59.0710966475307941436767578125" lon="30.085084252059459686279296875">
        <ele>68</ele>
        <time>2026-04-26T11:10:05.000Z</time>
        <extensions>
          <ns3:TrackPointExtension>
            <ns3:hr>127</ns3:hr>
          </ns3:TrackPointExtension>
        </extensions>
      </trkpt>
      <trkpt lat="59.0710758604109287261962890625" lon="30.0850790552794933319091796875">
        <ele>68</ele>
        <time>2026-04-26T11:10:07.000Z</time>
        <extensions>
          <ns3:TrackPointExtension>
            <ns3:hr>127</ns3:hr>
          </ns3:TrackPointExtension>
        </extensions>
      </trkpt>
      <trkpt lat="59.0710678137838840484619140625" lon="30.0851025246083736419677734375">
        <ele>67.8000030517578125</ele>
        <time>2026-04-26T11:10:11.000Z</time>
        <extensions>
          <ns3:TrackPointExtension>
            <ns3:hr>131</ns3:hr>
          </ns3:TrackPointExtension>
        </extensions>
      </trkpt>
      <trkpt lat="59.07106219790875911712646484375" lon="30.0850800611078739166259765625">
        <ele>67.8000030517578125</ele>
        <time>2026-04-26T11:10:14.000Z</time>
        <extensions>
          <ns3:TrackPointExtension>
            <ns3:hr>133</ns3:hr>
          </ns3:TrackPointExtension>
        </extensions>
      </trkpt>
      <trkpt lat="59.0710128284990787506103515625" lon="30.0851005129516124725341796875">
        <ele>67.40000152587890625</ele>
        <time>2026-04-26T11:10:19.000Z</time>
        <extensions>
          <ns3:TrackPointExtension>
            <ns3:hr>132</ns3:hr>
          </ns3:TrackPointExtension>
        </extensions>
      </trkpt>
      <trkpt lat="59.07098793424665927886962890625" lon="30.08513663895428180694580078125">
        <ele>67.8000030517578125</ele>
        <time>2026-04-26T11:10:24.000Z</time>
        <extensions>
          <ns3:TrackPointExtension>
            <ns3:hr>131</ns3:hr>
          </ns3:TrackPointExtension>
        </extensions>
      </trkpt>
      <trkpt lat="59.070999585092067718505859375" lon="30.08508098311722278594970703125">
        <ele>67.40000152587890625</ele>
        <time>2026-04-26T11:10:32.000Z</time>
        <extensions>
          <ns3:TrackPointExtension>
            <ns3:hr>131</ns3:hr>
          </ns3:TrackPointExtension>
        </extensions>
      </trkpt>
      <trkpt lat="59.0709903649985790252685546875" lon="30.085070841014385223388671875">
        <ele>67.59999847412109375</ele>
        <time>2026-04-26T11:10:36.000Z</time>
        <extensions>
          <ns3:TrackPointExtension>
            <ns3:hr>132</ns3:hr>
          </ns3:TrackPointExtension>
        </extensions>
      </trkpt>
      <trkpt lat="59.0709588490426540374755859375" lon="30.085102356970310211181640625">
        <ele>67.40000152587890625</ele>
        <time>2026-04-26T11:10:41.000Z</time>
        <extensions>
          <ns3:TrackPointExtension>
            <ns3:hr>134</ns3:hr>
          </ns3:TrackPointExtension>
        </extensions>
      </trkpt>
      <trkpt lat="59.070931859314441680908203125" lon="30.08511836640536785125732421875">
        <ele>67.1999969482421875</ele>
        <time>2026-04-26T11:10:44.000Z</time>
        <extensions>
          <ns3:TrackPointExtension>
            <ns3:hr>137</ns3:hr>
          </ns3:TrackPointExtension>
        </extensions>
      </trkpt>
      <trkpt lat="59.07091987319290637969970703125" lon="30.08513328619301319122314453125">
        <ele>67.40000152587890625</ele>
        <time>2026-04-26T11:10:46.000Z</time>
        <extensions>
          <ns3:TrackPointExtension>
            <ns3:hr>136</ns3:hr>
          </ns3:TrackPointExtension>
        </extensions>
      </trkpt>
      <trkpt lat="59.0708978287875652313232421875" lon="30.08513412438333034515380859375">
        <ele>67.1999969482421875</ele>
        <time>2026-04-26T11:10:51.000Z</time>
        <extensions>
          <ns3:TrackPointExtension>
            <ns3:hr>133</ns3:hr>
          </ns3:TrackPointExtension>
        </extensions>
      </trkpt>
      <trkpt lat="59.07084502279758453369140625" lon="30.085139237344264984130859375">
        <ele>67</ele>
        <time>2026-04-26T11:10:56.000Z</time>
        <extensions>
          <ns3:TrackPointExtension>
            <ns3:hr>133</ns3:hr>
          </ns3:TrackPointExtension>
        </extensions>
      </trkpt>
      <trkpt lat="59.07082247547805309295654296875" lon="30.08516228757798671722412109375">
        <ele>67.1999969482421875</ele>
        <time>2026-04-26T11:11:01.000Z</time>
        <extensions>
          <ns3:TrackPointExtension>
            <ns3:hr>132</ns3:hr>
          </ns3:TrackPointExtension>
        </extensions>
      </trkpt>
      <trkpt lat="59.070811159908771514892578125" lon="30.08518592454493045806884765625">
        <ele>67.40000152587890625</ele>
        <time>2026-04-26T11:11:04.000Z</time>
        <extensions>
          <ns3:TrackPointExtension>
            <ns3:hr>131</ns3:hr>
          </ns3:TrackPointExtension>
        </extensions>
      </trkpt>
      <trkpt lat="59.070791043341159820556640625" lon="30.08520637638866901397705078125">
        <ele>67.1999969482421875</ele>
        <time>2026-04-26T11:11:06.000Z</time>
        <extensions>
          <ns3:TrackPointExtension>
            <ns3:hr>130</ns3:hr>
          </ns3:TrackPointExtension>
        </extensions>
      </trkpt>
      <trkpt lat="59.07075542025268077850341796875" lon="30.08521744050085544586181640625">
        <ele>66.8000030517578125</ele>
        <time>2026-04-26T11:11:09.000Z</time>
        <extensions>
          <ns3:TrackPointExtension>
            <ns3:hr>129</ns3:hr>
          </ns3:TrackPointExtension>
        </extensions>
      </trkpt>
      <trkpt lat="59.0707437694072723388671875" lon="30.08523923344910144805908203125">
        <ele>66.59999847412109375</ele>
        <time>2026-04-26T11:11:11.000Z</time>
        <extensions>
          <ns3:TrackPointExtension>
            <ns3:hr>129</ns3:hr>
          </ns3:TrackPointExtension>
        </extensions>
      </trkpt>
      <trkpt lat="59.0707107447087764739990234375" lon="30.08524510078132152557373046875">
        <ele>66.8000030517578125</ele>
        <time>2026-04-26T11:11:17.000Z</time>
        <extensions>
          <ns3:TrackPointExtension>
            <ns3:hr>121</ns3:hr>
          </ns3:TrackPointExtension>
        </extensions>
      </trkpt>
      <trkpt lat="59.07070529647171497344970703125" lon="30.08523403666913509368896484375">
        <ele>66.59999847412109375</ele>
        <time>2026-04-26T11:11:18.000Z</time>
        <extensions>
          <ns3:TrackPointExtension>
            <ns3:hr>118</ns3:hr>
          </ns3:TrackPointExtension>
        </extensions>
      </trkpt>
      <trkpt lat="59.070692472159862518310546875" lon="30.08523470722138881683349609375">
        <ele>66.59999847412109375</ele>
        <time>2026-04-26T11:11:19.000Z</time>
        <extensions>
          <ns3:TrackPointExtension>
            <ns3:hr>118</ns3:hr>
          </ns3:TrackPointExtension>
        </extensions>
      </trkpt>
      <trkpt lat="59.07067512162029743194580078125" lon="30.08523604832589626312255859375">
        <ele>67.1999969482421875</ele>
        <time>2026-04-26T11:11:24.000Z</time>
        <extensions>
          <ns3:TrackPointExtension>
            <ns3:hr>118</ns3:hr>
          </ns3:TrackPointExtension>
        </extensions>
      </trkpt>
      <trkpt lat="59.07064829953014850616455078125" lon="30.085199587047100067138671875">
        <ele>67.59999847412109375</ele>
        <time>2026-04-26T11:11:28.000Z</time>
        <extensions>
          <ns3:TrackPointExtension>
            <ns3:hr>118</ns3:hr>
          </ns3:TrackPointExtension>
        </extensions>
      </trkpt>
      <trkpt lat="59.07060354016721248626708984375" lon="30.08522615768015384674072265625">
        <ele>67.1999969482421875</ele>
        <time>2026-04-26T11:11:33.000Z</time>
        <extensions>
          <ns3:TrackPointExtension>
            <ns3:hr>118</ns3:hr>
          </ns3:TrackPointExtension>
        </extensions>
      </trkpt>
      <trkpt lat="59.070569761097431182861328125" lon="30.08526320569217205047607421875">
        <ele>67.40000152587890625</ele>
        <time>2026-04-26T11:11:37.000Z</time>
        <extensions>
          <ns3:TrackPointExtension>
            <ns3:hr>120</ns3:hr>
          </ns3:TrackPointExtension>
        </extensions>
      </trkpt>
      <trkpt lat="59.07055995427072048187255859375" lon="30.085267983376979827880859375">
        <ele>67.40000152587890625</ele>
        <time>2026-04-26T11:11:38.000Z</time>
        <extensions>
          <ns3:TrackPointExtension>
            <ns3:hr>120</ns3:hr>
          </ns3:TrackPointExtension>
        </extensions>
      </trkpt>
      <trkpt lat="59.0705514885485172271728515625" lon="30.0852641277015209197998046875">
        <ele>67.40000152587890625</ele>
        <time>2026-04-26T11:11:45.000Z</time>
        <extensions>
          <ns3:TrackPointExtension>
            <ns3:hr>121</ns3:hr>
          </ns3:TrackPointExtension>
        </extensions>
      </trkpt>
      <trkpt lat="59.070520810782909393310546875" lon="30.0852428376674652099609375">
        <ele>67.59999847412109375</ele>
        <time>2026-04-26T11:11:50.000Z</time>
        <extensions>
          <ns3:TrackPointExtension>
            <ns3:hr>122</ns3:hr>
          </ns3:TrackPointExtension>
        </extensions>
      </trkpt>
      <trkpt lat="59.07050228677690029144287109375" lon="30.0852517224848270416259765625">
        <ele>67.40000152587890625</ele>
        <time>2026-04-26T11:11:53.000Z</time>
        <extensions>
          <ns3:TrackPointExtension>
            <ns3:hr>127</ns3:hr>
          </ns3:TrackPointExtension>
        </extensions>
      </trkpt>
      <trkpt lat="59.070487283170223236083984375" lon="30.0852604396641254425048828125">
        <ele>67.40000152587890625</ele>
        <time>2026-04-26T11:11:54.000Z</time>
        <extensions>
          <ns3:TrackPointExtension>
            <ns3:hr>132</ns3:hr>
          </ns3:TrackPointExtension>
        </extensions>
      </trkpt>
      <trkpt lat="59.07048099674284458160400390625" lon="30.0852738507091999053955078125">
        <ele>67.40000152587890625</ele>
        <time>2026-04-26T11:11:56.000Z</time>
        <extensions>
          <ns3:TrackPointExtension>
            <ns3:hr>135</ns3:hr>
          </ns3:TrackPointExtension>
        </extensions>
      </trkpt>
      <trkpt lat="59.0704743750393390655517578125" lon="30.085258595645427703857421875">
        <ele>67.59999847412109375</ele>
        <time>2026-04-26T11:12:00.000Z</time>
        <extensions>
          <ns3:TrackPointExtension>
            <ns3:hr>136</ns3:hr>
          </ns3:TrackPointExtension>
        </extensions>
      </trkpt>
      <trkpt lat="59.07047295011579990386962890625" lon="30.08524929173290729522705078125">
        <ele>67.59999847412109375</ele>
        <time>2026-04-26T11:12:02.000Z</time>
        <extensions>
          <ns3:TrackPointExtension>
            <ns3:hr>132</ns3:hr>
          </ns3:TrackPointExtension>
        </extensions>
      </trkpt>
      <trkpt lat="59.07047043554484844207763671875" lon="30.0852601043879985809326171875">
        <ele>67.59999847412109375</ele>
        <time>2026-04-26T11:12:04.000Z</time>
        <extensions>
          <ns3:TrackPointExtension>
            <ns3:hr>135</ns3:hr>
          </ns3:TrackPointExtension>
        </extensions>
      </trkpt>
      <trkpt lat="59.0704643167555332183837890625" lon="30.0852547399699687957763671875">
        <ele>67.59999847412109375</ele>
        <time>2026-04-26T11:12:06.000Z</time>
        <extensions>
          <ns3:TrackPointExtension>
            <ns3:hr>139</ns3:hr>
          </ns3:TrackPointExtension>
        </extensions>
      </trkpt>
      <trkpt lat="59.0704522468149662017822265625" lon="30.08527125231921672821044921875">
        <ele>67.40000152587890625</ele>
        <time>2026-04-26T11:12:09.000Z</time>
        <extensions>
          <ns3:TrackPointExtension>
            <ns3:hr>142</ns3:hr>
          </ns3:TrackPointExtension>
        </extensions>
      </trkpt>
      <trkpt lat="59.070448391139507293701171875" lon="30.08528181351721286773681640625">
        <ele>67.1999969482421875</ele>
        <time>2026-04-26T11:12:10.000Z</time>
        <extensions>
          <ns3:TrackPointExtension>
            <ns3:hr>142</ns3:hr>
          </ns3:TrackPointExtension>
        </extensions>
      </trkpt>
      <trkpt lat="59.07044009305536746978759765625" lon="30.085280723869800567626953125">
        <ele>66.8000030517578125</ele>
        <time>2026-04-26T11:12:13.000Z</time>
        <extensions>
          <ns3:TrackPointExtension>
            <ns3:hr>134</ns3:hr>
          </ns3:TrackPointExtension>
        </extensions>
      </trkpt>
      <trkpt lat="59.070420563220977783203125" lon="30.08532154373824596405029296875">
        <ele>66.8000030517578125</ele>
        <time>2026-04-26T11:12:15.000Z</time>
        <extensions>
          <ns3:TrackPointExtension>
            <ns3:hr>124</ns3:hr>
          </ns3:TrackPointExtension>
        </extensions>
      </trkpt>
      <trkpt lat="59.0704220719635486602783203125" lon="30.08532640524208545684814453125">
        <ele>67</ele>
        <time>2026-04-26T11:12:16.000Z</time>
        <extensions>
          <ns3:TrackPointExtension>
            <ns3:hr>124</ns3:hr>
          </ns3:TrackPointExtension>
        </extensions>
      </trkpt>
      <trkpt lat="59.07041125930845737457275390625" lon="30.08533227257430553436279296875">
        <ele>67.1999969482421875</ele>
        <time>2026-04-26T11:12:18.000Z</time>
        <extensions>
          <ns3:TrackPointExtension>
            <ns3:hr>127</ns3:hr>
          </ns3:TrackPointExtension>
        </extensions>
      </trkpt>
      <trkpt lat="59.07039969228208065032958984375" lon="30.085337720811367034912109375">
        <ele>67.40000152587890625</ele>
        <time>2026-04-26T11:12:19.000Z</time>
        <extensions>
          <ns3:TrackPointExtension>
            <ns3:hr>130</ns3:hr>
          </ns3:TrackPointExtension>
        </extensions>
      </trkpt>
      <trkpt lat="59.0703992731869220733642578125" lon="30.08534199558198451995849609375">
        <ele>67.40000152587890625</ele>
        <time>2026-04-26T11:12:20.000Z</time>
        <extensions>
          <ns3:TrackPointExtension>
            <ns3:hr>133</ns3:hr>
          </ns3:TrackPointExtension>
        </extensions>
      </trkpt>
      <trkpt lat="59.07040002755820751190185546875" lon="30.085341073572635650634765625">
        <ele>67.40000152587890625</ele>
        <time>2026-04-26T11:12:21.000Z</time>
        <extensions>
          <ns3:TrackPointExtension>
            <ns3:hr>136</ns3:hr>
          </ns3:TrackPointExtension>
        </extensions>
      </trkpt>
      <trkpt lat="59.0703979320824146270751953125" lon="30.08533881045877933502197265625">
        <ele>67.40000152587890625</ele>
        <time>2026-04-26T11:12:22.000Z</time>
        <extensions>
          <ns3:TrackPointExtension>
            <ns3:hr>139</ns3:hr>
          </ns3:TrackPointExtension>
        </extensions>
      </trkpt>
      <trkpt lat="59.0703952498733997344970703125" lon="30.085341073572635650634765625">
        <ele>67.40000152587890625</ele>
        <time>2026-04-26T11:12:24.000Z</time>
        <extensions>
          <ns3:TrackPointExtension>
            <ns3:hr>141</ns3:hr>
          </ns3:TrackPointExtension>
        </extensions>
      </trkpt>
      <trkpt lat="59.0703828446567058563232421875" lon="30.085346437990665435791015625">
        <ele>67.1999969482421875</ele>
        <time>2026-04-26T11:12:26.000Z</time>
        <extensions>
          <ns3:TrackPointExtension>
            <ns3:hr>143</ns3:hr>
          </ns3:TrackPointExtension>
        </extensions>
      </trkpt>
      <trkpt lat="59.07036750577390193939208984375" lon="30.0853160955011844635009765625">
        <ele>66.59999847412109375</ele>
        <time>2026-04-26T11:12:30.000Z</time>
        <extensions>
          <ns3:TrackPointExtension>
            <ns3:hr>146</ns3:hr>
          </ns3:TrackPointExtension>
        </extensions>
      </trkpt>
      <trkpt lat="59.070353843271732330322265625" lon="30.0853482820093631744384765625">
        <ele>66.8000030517578125</ele>
        <time>2026-04-26T11:12:32.000Z</time>
        <extensions>
          <ns3:TrackPointExtension>
            <ns3:hr>147</ns3:hr>
          </ns3:TrackPointExtension>
        </extensions>
      </trkpt>
      <trkpt lat="59.070329032838344573974609375" lon="30.0853623636066913604736328125">
        <ele>67</ele>
        <time>2026-04-26T11:12:36.000Z</time>
        <extensions>
          <ns3:TrackPointExtension>
            <ns3:hr>149</ns3:hr>
          </ns3:TrackPointExtension>
        </extensions>
      </trkpt>
      <trkpt lat="59.070325680077075958251953125" lon="30.08537854067981243133544921875">
        <ele>67</ele>
        <time>2026-04-26T11:12:37.000Z</time>
        <extensions>
          <ns3:TrackPointExtension>
            <ns3:hr>150</ns3:hr>
          </ns3:TrackPointExtension>
        </extensions>
      </trkpt>
      <trkpt lat="59.07031687907874584197998046875" lon="30.08536278270184993743896484375">
        <ele>67</ele>
        <time>2026-04-26T11:12:42.000Z</time>
        <extensions>
          <ns3:TrackPointExtension>
            <ns3:hr>150</ns3:hr>
          </ns3:TrackPointExtension>
        </extensions>
      </trkpt>
      <trkpt lat="59.070308916270732879638671875" lon="30.08536915294826030731201171875">
        <ele>67</ele>
        <time>2026-04-26T11:12:45.000Z</time>
        <extensions>
          <ns3:TrackPointExtension>
            <ns3:hr>150</ns3:hr>
          </ns3:TrackPointExtension>
        </extensions>
      </trkpt>
      <trkpt lat="59.07030095346271991729736328125" lon="30.08536697365343570709228515625">
        <ele>67</ele>
        <time>2026-04-26T11:12:46.000Z</time>
        <extensions>
          <ns3:TrackPointExtension>
            <ns3:hr>150</ns3:hr>
          </ns3:TrackPointExtension>
        </extensions>
      </trkpt>
      <trkpt lat="59.070266671478748321533203125" lon="30.08540712296962738037109375">
        <ele>67.1999969482421875</ele>
        <time>2026-04-26T11:12:50.000Z</time>
        <extensions>
          <ns3:TrackPointExtension>
            <ns3:hr>150</ns3:hr>
          </ns3:TrackPointExtension>
        </extensions>
      </trkpt>
      <trkpt lat="59.07026943750679492950439453125" lon="30.0854069553315639495849609375">
        <ele>67.1999969482421875</ele>
        <time>2026-04-26T11:12:51.000Z</time>
        <extensions>
          <ns3:TrackPointExtension>
            <ns3:hr>149</ns3:hr>
          </ns3:TrackPointExtension>
        </extensions>
      </trkpt>
      <trkpt lat="59.07025099731981754302978515625" lon="30.08539228700101375579833984375">
        <ele>67</ele>
        <time>2026-04-26T11:12:53.000Z</time>
        <extensions>
          <ns3:TrackPointExtension>
            <ns3:hr>150</ns3:hr>
          </ns3:TrackPointExtension>
        </extensions>
      </trkpt>
      <trkpt lat="59.0702564455568790435791015625" lon="30.08538088761270046234130859375">
        <ele>66.8000030517578125</ele>
        <time>2026-04-26T11:12:55.000Z</time>
        <extensions>
          <ns3:TrackPointExtension>
            <ns3:hr>151</ns3:hr>
          </ns3:TrackPointExtension>
        </extensions>
      </trkpt>
      <trkpt lat="59.07024093903601169586181640625" lon="30.0853781215846538543701171875">
        <ele>66.59999847412109375</ele>
        <time>2026-04-26T11:12:58.000Z</time>
        <extensions>
          <ns3:TrackPointExtension>
            <ns3:hr>145</ns3:hr>
          </ns3:TrackPointExtension>
        </extensions>
      </trkpt>
      <trkpt lat="59.0702299587428569793701171875" lon="30.08537837304174900054931640625">
        <ele>66.59999847412109375</ele>
        <time>2026-04-26T11:12:59.000Z</time>
        <extensions>
          <ns3:TrackPointExtension>
            <ns3:hr>139</ns3:hr>
          </ns3:TrackPointExtension>
        </extensions>
      </trkpt>
      <trkpt lat="59.0702225826680660247802734375" lon="30.08537166751921176910400390625">
        <ele>66.40000152587890625</ele>
        <time>2026-04-26T11:13:00.000Z</time>
        <extensions>
          <ns3:TrackPointExtension>
            <ns3:hr>133</ns3:hr>
          </ns3:TrackPointExtension>
        </extensions>
      </trkpt>
      <trkpt lat="59.07021545805037021636962890625" lon="30.0853811390697956085205078125">
        <ele>66.40000152587890625</ele>
        <time>2026-04-26T11:13:01.000Z</time>
        <extensions>
          <ns3:TrackPointExtension>
            <ns3:hr>129</ns3:hr>
          </ns3:TrackPointExtension>
        </extensions>
      </trkpt>
      <trkpt lat="59.070208333432674407958984375" lon="30.0853932090103626251220703125">
        <ele>66.40000152587890625</ele>
        <time>2026-04-26T11:13:02.000Z</time>
        <extensions>
          <ns3:TrackPointExtension>
            <ns3:hr>130</ns3:hr>
          </ns3:TrackPointExtension>
        </extensions>
      </trkpt>
      <trkpt lat="59.0702007897198200225830078125" lon="30.08538742549717426300048828125">
        <ele>66.1999969482421875</ele>
        <time>2026-04-26T11:13:03.000Z</time>
        <extensions>
          <ns3:TrackPointExtension>
            <ns3:hr>135</ns3:hr>
          </ns3:TrackPointExtension>
        </extensions>
      </trkpt>
      <trkpt lat="59.07019861042499542236328125" lon="30.0853834860026836395263671875">
        <ele>66.1999969482421875</ele>
        <time>2026-04-26T11:13:04.000Z</time>
        <extensions>
          <ns3:TrackPointExtension>
            <ns3:hr>140</ns3:hr>
          </ns3:TrackPointExtension>
        </extensions>
      </trkpt>
      <trkpt lat="59.070190899074077606201171875" lon="30.08538893423974514007568359375">
        <ele>66</ele>
        <time>2026-04-26T11:13:06.000Z</time>
        <extensions>
          <ns3:TrackPointExtension>
            <ns3:hr>143</ns3:hr>
          </ns3:TrackPointExtension>
        </extensions>
      </trkpt>
      <trkpt lat="59.07015829347074031829833984375" lon="30.08537627756595611572265625">
        <ele>66</ele>
        <time>2026-04-26T11:13:10.000Z</time>
        <extensions>
          <ns3:TrackPointExtension>
            <ns3:hr>145</ns3:hr>
          </ns3:TrackPointExtension>
        </extensions>
      </trkpt>
      <trkpt lat="59.070137254893779754638671875" lon="30.085377283394336700439453125">
        <ele>66</ele>
        <time>2026-04-26T11:13:15.000Z</time>
        <extensions>
          <ns3:TrackPointExtension>
            <ns3:hr>148</ns3:hr>
          </ns3:TrackPointExtension>
        </extensions>
      </trkpt>
      <trkpt lat="59.07013147138059139251708984375" lon="30.08538742549717426300048828125">
        <ele>66.1999969482421875</ele>
        <time>2026-04-26T11:13:16.000Z</time>
        <extensions>
          <ns3:TrackPointExtension>
            <ns3:hr>149</ns3:hr>
          </ns3:TrackPointExtension>
        </extensions>
      </trkpt>
      <trkpt lat="59.0701354108750820159912109375" lon="30.0854082964360713958740234375">
        <ele>66.8000030517578125</ele>
        <time>2026-04-26T11:13:24.000Z</time>
        <extensions>
          <ns3:TrackPointExtension>
            <ns3:hr>151</ns3:hr>
          </ns3:TrackPointExtension>
        </extensions>
      </trkpt>
      <trkpt lat="59.07012593932449817657470703125" lon="30.0854279100894927978515625">
        <ele>67</ele>
        <time>2026-04-26T11:13:28.000Z</time>
        <extensions>
          <ns3:TrackPointExtension>
            <ns3:hr>151</ns3:hr>
          </ns3:TrackPointExtension>
        </extensions>
      </trkpt>
      <trkpt lat="59.07009425573050975799560546875" lon="30.08543520234525203704833984375">
        <ele>66.59999847412109375</ele>
        <time>2026-04-26T11:13:32.000Z</time>
        <extensions>
          <ns3:TrackPointExtension>
            <ns3:hr>151</ns3:hr>
          </ns3:TrackPointExtension>
        </extensions>
      </trkpt>
      <trkpt lat="59.070085622370243072509765625" lon="30.0854233838617801666259765625">
        <ele>66.59999847412109375</ele>
        <time>2026-04-26T11:13:35.000Z</time>
        <extensions>
          <ns3:TrackPointExtension>
            <ns3:hr>151</ns3:hr>
          </ns3:TrackPointExtension>
        </extensions>
      </trkpt>
      <trkpt lat="59.07007564790546894073486328125" lon="30.085426904261112213134765625">
        <ele>66.8000030517578125</ele>
        <time>2026-04-26T11:13:37.000Z</time>
        <extensions>
          <ns3:TrackPointExtension>
            <ns3:hr>152</ns3:hr>
          </ns3:TrackPointExtension>
        </extensions>
      </trkpt>
      <trkpt lat="59.07006324268877506256103515625" lon="30.0854257307946681976318359375">
        <ele>67</ele>
        <time>2026-04-26T11:13:39.000Z</time>
        <extensions>
          <ns3:TrackPointExtension>
            <ns3:hr>149</ns3:hr>
          </ns3:TrackPointExtension>
        </extensions>
      </trkpt>
      <trkpt lat="59.0700572915375232696533203125" lon="30.085419528186321258544921875">
        <ele>67.1999969482421875</ele>
        <time>2026-04-26T11:13:41.000Z</time>
        <extensions>
          <ns3:TrackPointExtension>
            <ns3:hr>145</ns3:hr>
          </ns3:TrackPointExtension>
        </extensions>
      </trkpt>
      <trkpt lat="59.07004949636757373809814453125" lon="30.085413157939910888671875">
        <ele>67.1999969482421875</ele>
        <time>2026-04-26T11:13:42.000Z</time>
        <extensions>
          <ns3:TrackPointExtension>
            <ns3:hr>145</ns3:hr>
          </ns3:TrackPointExtension>
        </extensions>
      </trkpt>
      <trkpt lat="59.07002083025872707366943359375" lon="30.08543503470718860626220703125">
        <ele>67.1999969482421875</ele>
        <time>2026-04-26T11:13:44.000Z</time>
        <extensions>
          <ns3:TrackPointExtension>
            <ns3:hr>145</ns3:hr>
          </ns3:TrackPointExtension>
        </extensions>
      </trkpt>
      <trkpt lat="59.0699989534914493560791015625" lon="30.08543939329683780670166015625">
        <ele>67.1999969482421875</ele>
        <time>2026-04-26T11:13:47.000Z</time>
        <extensions>
          <ns3:TrackPointExtension>
            <ns3:hr>146</ns3:hr>
          </ns3:TrackPointExtension>
        </extensions>
      </trkpt>
      <trkpt lat="59.0699962712824344635009765625" lon="30.0854381360113620758056640625">
        <ele>67.1999969482421875</ele>
        <time>2026-04-26T11:13:49.000Z</time>
        <extensions>
          <ns3:TrackPointExtension>
            <ns3:hr>149</ns3:hr>
          </ns3:TrackPointExtension>
        </extensions>
      </trkpt>
      <trkpt lat="59.06999501399695873260498046875" lon="30.08543469943106174468994140625">
        <ele>67</ele>
        <time>2026-04-26T11:13:51.000Z</time>
        <extensions>
          <ns3:TrackPointExtension>
            <ns3:hr>149</ns3:hr>
          </ns3:TrackPointExtension>
        </extensions>
      </trkpt>
      <trkpt lat="59.06998814083635807037353515625" lon="30.0854502059519290924072265625">
        <ele>67</ele>
        <time>2026-04-26T11:13:52.000Z</time>
        <extensions>
          <ns3:TrackPointExtension>
            <ns3:hr>149</ns3:hr>
          </ns3:TrackPointExtension>
        </extensions>
      </trkpt>
      <trkpt lat="59.06998210586607456207275390625" lon="30.08545297197997570037841796875">
        <ele>67</ele>
        <time>2026-04-26T11:13:55.000Z</time>
        <extensions>
          <ns3:TrackPointExtension>
            <ns3:hr>151</ns3:hr>
          </ns3:TrackPointExtension>
        </extensions>
      </trkpt>
      <trkpt lat="59.06994271092116832733154296875" lon="30.0854585878551006317138671875">
        <ele>66.8000030517578125</ele>
        <time>2026-04-26T11:14:00.000Z</time>
        <extensions>
          <ns3:TrackPointExtension>
            <ns3:hr>153</ns3:hr>
          </ns3:TrackPointExtension>
        </extensions>
      </trkpt>
      <trkpt lat="59.06994254328310489654541015625" lon="30.08546437136828899383544921875">
        <ele>66.8000030517578125</ele>
        <time>2026-04-26T11:14:06.000Z</time>
        <extensions>
          <ns3:TrackPointExtension>
            <ns3:hr>151</ns3:hr>
          </ns3:TrackPointExtension>
        </extensions>
      </trkpt>
      <trkpt lat="59.06991295516490936279296875" lon="30.08545179851353168487548828125">
        <ele>66.59999847412109375</ele>
        <time>2026-04-26T11:14:10.000Z</time>
        <extensions>
          <ns3:TrackPointExtension>
            <ns3:hr>152</ns3:hr>
          </ns3:TrackPointExtension>
        </extensions>
      </trkpt>
      <trkpt lat="59.06989778392016887664794921875" lon="30.08546068333089351654052734375">
        <ele>66.40000152587890625</ele>
        <time>2026-04-26T11:14:14.000Z</time>
        <extensions>
          <ns3:TrackPointExtension>
            <ns3:hr>152</ns3:hr>
          </ns3:TrackPointExtension>
        </extensions>
      </trkpt>
      <trkpt lat="59.0698893181979656219482421875" lon="30.08546353317797183990478515625">
        <ele>66.40000152587890625</ele>
        <time>2026-04-26T11:14:15.000Z</time>
        <extensions>
          <ns3:TrackPointExtension>
            <ns3:hr>152</ns3:hr>
          </ns3:TrackPointExtension>
        </extensions>
      </trkpt>
      <trkpt lat="59.06985436566174030303955078125" lon="30.08547744713723659515380859375">
        <ele>66.40000152587890625</ele>
        <time>2026-04-26T11:14:18.000Z</time>
        <extensions>
          <ns3:TrackPointExtension>
            <ns3:hr>150</ns3:hr>
          </ns3:TrackPointExtension>
        </extensions>
      </trkpt>
      <trkpt lat="59.069838188588619232177734375" lon="30.085488595068454742431640625">
        <ele>66.40000152587890625</ele>
        <time>2026-04-26T11:14:19.000Z</time>
        <extensions>
          <ns3:TrackPointExtension>
            <ns3:hr>149</ns3:hr>
          </ns3:TrackPointExtension>
        </extensions>
      </trkpt>
      <trkpt lat="59.069824777543544769287109375" lon="30.08549555204808712005615234375">
        <ele>66.1999969482421875</ele>
        <time>2026-04-26T11:14:24.000Z</time>
        <extensions>
          <ns3:TrackPointExtension>
            <ns3:hr>147</ns3:hr>
          </ns3:TrackPointExtension>
        </extensions>
      </trkpt>
      <trkpt lat="59.0698038227856159210205078125" lon="30.0855041854083538055419921875">
        <ele>66.59999847412109375</ele>
        <time>2026-04-26T11:14:26.000Z</time>
        <extensions>
          <ns3:TrackPointExtension>
            <ns3:hr>144</ns3:hr>
          </ns3:TrackPointExtension>
        </extensions>
      </trkpt>
      <trkpt lat="59.0697833709418773651123046875" lon="30.08550175465643405914306640625">
        <ele>66.8000030517578125</ele>
        <time>2026-04-26T11:14:28.000Z</time>
        <extensions>
          <ns3:TrackPointExtension>
            <ns3:hr>143</ns3:hr>
          </ns3:TrackPointExtension>
        </extensions>
      </trkpt>
      <trkpt lat="59.06977884471416473388671875" lon="30.08551265113055706024169921875">
        <ele>66.8000030517578125</ele>
        <time>2026-04-26T11:14:29.000Z</time>
        <extensions>
          <ns3:TrackPointExtension>
            <ns3:hr>140</ns3:hr>
          </ns3:TrackPointExtension>
        </extensions>
      </trkpt>
      <trkpt lat="59.06976065598428249359130859375" lon="30.08552639745175838470458984375">
        <ele>66.8000030517578125</ele>
        <time>2026-04-26T11:14:31.000Z</time>
        <extensions>
          <ns3:TrackPointExtension>
            <ns3:hr>134</ns3:hr>
          </ns3:TrackPointExtension>
        </extensions>
      </trkpt>
      <trkpt lat="59.06975864432752132415771484375" lon="30.085520781576633453369140625">
        <ele>66.8000030517578125</ele>
        <time>2026-04-26T11:14:32.000Z</time>
        <extensions>
          <ns3:TrackPointExtension>
            <ns3:hr>128</ns3:hr>
          </ns3:TrackPointExtension>
        </extensions>
      </trkpt>
      <trkpt lat="59.06975336372852325439453125" lon="30.08551449514925479888916015625">
        <ele>66.59999847412109375</ele>
        <time>2026-04-26T11:14:33.000Z</time>
        <extensions>
          <ns3:TrackPointExtension>
            <ns3:hr>111</ns3:hr>
          </ns3:TrackPointExtension>
        </extensions>
      </trkpt>
      <trkpt lat="59.0697354264557361602783203125" lon="30.08552337996661663055419921875">
        <ele>66.59999847412109375</ele>
        <time>2026-04-26T11:14:34.000Z</time>
        <extensions>
          <ns3:TrackPointExtension>
            <ns3:hr>97</ns3:hr>
          </ns3:TrackPointExtension>
        </extensions>
      </trkpt>
      <trkpt lat="59.0697218477725982666015625" lon="30.08551382459700107574462890625">
        <ele>66.1999969482421875</ele>
        <time>2026-04-26T11:14:36.000Z</time>
        <extensions>
          <ns3:TrackPointExtension>
            <ns3:hr>95</ns3:hr>
          </ns3:TrackPointExtension>
        </extensions>
      </trkpt>
      <trkpt lat="59.069694690406322479248046875" lon="30.085520781576633453369140625">
        <ele>66.1999969482421875</ele>
        <time>2026-04-26T11:14:39.000Z</time>
        <extensions>
          <ns3:TrackPointExtension>
            <ns3:hr>95</ns3:hr>
          </ns3:TrackPointExtension>
        </extensions>
      </trkpt>
      <trkpt lat="59.0696955285966396331787109375" lon="30.08552505634725093841552734375">
        <ele>66.40000152587890625</ele>
        <time>2026-04-26T11:14:40.000Z</time>
        <extensions>
          <ns3:TrackPointExtension>
            <ns3:hr>98</ns3:hr>
          </ns3:TrackPointExtension>
        </extensions>
      </trkpt>
      <trkpt lat="59.06968505121767520904541015625" lon="30.0855360366404056549072265625">
        <ele>66.40000152587890625</ele>
        <time>2026-04-26T11:14:41.000Z</time>
        <extensions>
          <ns3:TrackPointExtension>
            <ns3:hr>102</ns3:hr>
          </ns3:TrackPointExtension>
        </extensions>
      </trkpt>
      <trkpt lat="59.06968303956091403961181640625" lon="30.0855333544313907623291015625">
        <ele>66.59999847412109375</ele>
        <time>2026-04-26T11:14:42.000Z</time>
        <extensions>
          <ns3:TrackPointExtension>
            <ns3:hr>108</ns3:hr>
          </ns3:TrackPointExtension>
        </extensions>
      </trkpt>
      <trkpt lat="59.0696767531335353851318359375" lon="30.08550041355192661285400390625">
        <ele>66.59999847412109375</ele>
        <time>2026-04-26T11:14:44.000Z</time>
        <extensions>
          <ns3:TrackPointExtension>
            <ns3:hr>113</ns3:hr>
          </ns3:TrackPointExtension>
        </extensions>
      </trkpt>
      <trkpt lat="59.06966778449714183807373046875" lon="30.08549119345843791961669921875">
        <ele>66.59999847412109375</ele>
        <time>2026-04-26T11:14:45.000Z</time>
        <extensions>
          <ns3:TrackPointExtension>
            <ns3:hr>118</ns3:hr>
          </ns3:TrackPointExtension>
        </extensions>
      </trkpt>
      <trkpt lat="59.06965219415724277496337890625" lon="30.0854976475238800048828125">
        <ele>66.59999847412109375</ele>
        <time>2026-04-26T11:14:46.000Z</time>
        <extensions>
          <ns3:TrackPointExtension>
            <ns3:hr>123</ns3:hr>
          </ns3:TrackPointExtension>
        </extensions>
      </trkpt>
      <trkpt lat="59.06964699737727642059326171875" lon="30.0855320133268833160400390625">
        <ele>66.59999847412109375</ele>
        <time>2026-04-26T11:14:47.000Z</time>
        <extensions>
          <ns3:TrackPointExtension>
            <ns3:hr>141</ns3:hr>
          </ns3:TrackPointExtension>
        </extensions>
      </trkpt>
      <trkpt lat="59.06964364461600780487060546875" lon="30.08551583625376224517822265625">
        <ele>66.59999847412109375</ele>
        <time>2026-04-26T11:14:48.000Z</time>
        <extensions>
          <ns3:TrackPointExtension>
            <ns3:hr>147</ns3:hr>
          </ns3:TrackPointExtension>
        </extensions>
      </trkpt>
      <trkpt lat="59.06964364461600780487060546875" lon="30.08551583625376224517822265625">
        <ele>66.40000152587890625</ele>
        <time>2026-04-26T11:14:50.000Z</time>
        <extensions>
          <ns3:TrackPointExtension>
            <ns3:hr>147</ns3:hr>
          </ns3:TrackPointExtension>
        </extensions>
      </trkpt>
      <trkpt lat="59.06964364461600780487060546875" lon="30.08551583625376224517822265625">
        <ele>66.40000152587890625</ele>
        <time>2026-04-26T11:14:51.000Z</time>
        <extensions>
          <ns3:TrackPointExtension>
            <ns3:hr>148</ns3:hr>
          </ns3:TrackPointExtension>
        </extensions>
      </trkpt>
      <trkpt lat="59.06964045949280261993408203125" lon="30.0855216197669506072998046875">
        <ele>66.40000152587890625</ele>
        <time>2026-04-26T11:14:53.000Z</time>
        <extensions>
          <ns3:TrackPointExtension>
            <ns3:hr>147</ns3:hr>
          </ns3:TrackPointExtension>
        </extensions>
      </trkpt>
      <trkpt lat="59.06964364461600780487060546875" lon="30.0855625234544277191162109375">
        <ele>66.59999847412109375</ele>
        <time>2026-04-26T11:14:58.000Z</time>
        <extensions>
          <ns3:TrackPointExtension>
            <ns3:hr>146</ns3:hr>
          </ns3:TrackPointExtension>
        </extensions>
      </trkpt>
      <trkpt lat="59.0696174092590808868408203125" lon="30.0855923630297183990478515625">
        <ele>66.59999847412109375</ele>
        <time>2026-04-26T11:15:03.000Z</time>
        <extensions>
          <ns3:TrackPointExtension>
            <ns3:hr>143</ns3:hr>
          </ns3:TrackPointExtension>
        </extensions>
      </trkpt>
      <trkpt lat="59.06959251500666141510009765625" lon="30.085583813488483428955078125">
        <ele>66.40000152587890625</ele>
        <time>2026-04-26T11:15:08.000Z</time>
        <extensions>
          <ns3:TrackPointExtension>
            <ns3:hr>141</ns3:hr>
          </ns3:TrackPointExtension>
        </extensions>
      </trkpt>
      <trkpt lat="59.0695855580270290374755859375" lon="30.08558255620300769805908203125">
        <ele>66.40000152587890625</ele>
        <time>2026-04-26T11:15:10.000Z</time>
        <extensions>
          <ns3:TrackPointExtension>
            <ns3:hr>142</ns3:hr>
          </ns3:TrackPointExtension>
        </extensions>
      </trkpt>
      <trkpt lat="59.0695634298026561737060546875" lon="30.08558188565075397491455078125">
        <ele>66.1999969482421875</ele>
        <time>2026-04-26T11:15:13.000Z</time>
        <extensions>
          <ns3:TrackPointExtension>
            <ns3:hr>143</ns3:hr>
          </ns3:TrackPointExtension>
        </extensions>
      </trkpt>
      <trkpt lat="59.06953719444572925567626953125" lon="30.08558104746043682098388671875">
        <ele>66.1999969482421875</ele>
        <time>2026-04-26T11:15:16.000Z</time>
        <extensions>
          <ns3:TrackPointExtension>
            <ns3:hr>143</ns3:hr>
          </ns3:TrackPointExtension>
        </extensions>
      </trkpt>
      <trkpt lat="59.06953870318830013275146484375" lon="30.08559395559132099151611328125">
        <ele>66.40000152587890625</ele>
        <time>2026-04-26T11:15:18.000Z</time>
        <extensions>
          <ns3:TrackPointExtension>
            <ns3:hr>143</ns3:hr>
          </ns3:TrackPointExtension>
        </extensions>
      </trkpt>
      <trkpt lat="59.0695352666079998016357421875" lon="30.0855886749923229217529296875">
        <ele>66</ele>
        <time>2026-04-26T11:15:23.000Z</time>
        <extensions>
          <ns3:TrackPointExtension>
            <ns3:hr>143</ns3:hr>
          </ns3:TrackPointExtension>
        </extensions>
      </trkpt>
      <trkpt lat="59.06951121054589748382568359375" lon="30.0856000743806362152099609375">
        <ele>66.1999969482421875</ele>
        <time>2026-04-26T11:15:29.000Z</time>
        <extensions>
          <ns3:TrackPointExtension>
            <ns3:hr>141</ns3:hr>
          </ns3:TrackPointExtension>
        </extensions>
      </trkpt>
      <trkpt lat="59.06948857940733432769775390625" lon="30.08559697307646274566650390625">
        <ele>66.1999969482421875</ele>
        <time>2026-04-26T11:15:33.000Z</time>
        <extensions>
          <ns3:TrackPointExtension>
            <ns3:hr>141</ns3:hr>
          </ns3:TrackPointExtension>
        </extensions>
      </trkpt>
      <trkpt lat="59.069488160312175750732421875" lon="30.0855953805148601531982421875">
        <ele>66.1999969482421875</ele>
        <time>2026-04-26T11:15:37.000Z</time>
        <extensions>
          <ns3:TrackPointExtension>
            <ns3:hr>141</ns3:hr>
          </ns3:TrackPointExtension>
        </extensions>
      </trkpt>
      <trkpt lat="59.0694910101592540740966796875" lon="30.0856027565896511077880859375">
        <ele>66.1999969482421875</ele>
        <time>2026-04-26T11:15:38.000Z</time>
        <extensions>
          <ns3:TrackPointExtension>
            <ns3:hr>142</ns3:hr>
          </ns3:TrackPointExtension>
        </extensions>
      </trkpt>
      <trkpt lat="59.0694926865398883819580078125" lon="30.08560367859899997711181640625">
        <ele>66</ele>
        <time>2026-04-26T11:15:43.000Z</time>
        <extensions>
          <ns3:TrackPointExtension>
            <ns3:hr>139</ns3:hr>
          </ns3:TrackPointExtension>
        </extensions>
      </trkpt>
      <trkpt lat="59.0694849751889705657958984375" lon="30.0856181792914867401123046875">
        <ele>66.1999969482421875</ele>
        <time>2026-04-26T11:15:45.000Z</time>
        <extensions>
          <ns3:TrackPointExtension>
            <ns3:hr>135</ns3:hr>
          </ns3:TrackPointExtension>
        </extensions>
      </trkpt>
      <trkpt lat="59.06946980394423007965087890625" lon="30.08562698028981685638427734375">
        <ele>66.1999969482421875</ele>
        <time>2026-04-26T11:15:46.000Z</time>
        <extensions>
          <ns3:TrackPointExtension>
            <ns3:hr>131</ns3:hr>
          </ns3:TrackPointExtension>
        </extensions>
      </trkpt>
      <trkpt lat="59.0694625116884708404541015625" lon="30.08561943657696247100830078125">
        <ele>66.1999969482421875</ele>
        <time>2026-04-26T11:15:47.000Z</time>
        <extensions>
          <ns3:TrackPointExtension>
            <ns3:hr>128</ns3:hr>
          </ns3:TrackPointExtension>
        </extensions>
      </trkpt>
      <trkpt lat="59.0694333426654338836669921875" lon="30.08562178350985050201416015625">
        <ele>66.40000152587890625</ele>
        <time>2026-04-26T11:15:49.000Z</time>
        <extensions>
          <ns3:TrackPointExtension>
            <ns3:hr>126</ns3:hr>
          </ns3:TrackPointExtension>
        </extensions>
      </trkpt>
      <trkpt lat="59.0694263018667697906494140625" lon="30.08564181625843048095703125">
        <ele>66.40000152587890625</ele>
        <time>2026-04-26T11:15:50.000Z</time>
        <extensions>
          <ns3:TrackPointExtension>
            <ns3:hr>127</ns3:hr>
          </ns3:TrackPointExtension>
        </extensions>
      </trkpt>
      <trkpt lat="59.06941716559231281280517578125" lon="30.08563670329749584197998046875">
        <ele>66.40000152587890625</ele>
        <time>2026-04-26T11:15:53.000Z</time>
        <extensions>
          <ns3:TrackPointExtension>
            <ns3:hr>127</ns3:hr>
          </ns3:TrackPointExtension>
        </extensions>
      </trkpt>
      <trkpt lat="59.06941180117428302764892578125" lon="30.08564860559999942779541015625">
        <ele>66.59999847412109375</ele>
        <time>2026-04-26T11:15:54.000Z</time>
        <extensions>
          <ns3:TrackPointExtension>
            <ns3:hr>126</ns3:hr>
          </ns3:TrackPointExtension>
        </extensions>
      </trkpt>
      <trkpt lat="59.0694031678140163421630859375" lon="30.085640810430049896240234375">
        <ele>66.59999847412109375</ele>
        <time>2026-04-26T11:15:56.000Z</time>
        <extensions>
          <ns3:TrackPointExtension>
            <ns3:hr>125</ns3:hr>
          </ns3:TrackPointExtension>
        </extensions>
      </trkpt>
      <trkpt lat="59.06940140761435031890869140625" lon="30.08564357645809650421142578125">
        <ele>66.59999847412109375</ele>
        <time>2026-04-26T11:15:57.000Z</time>
        <extensions>
          <ns3:TrackPointExtension>
            <ns3:hr>126</ns3:hr>
          </ns3:TrackPointExtension>
        </extensions>
      </trkpt>
      <trkpt lat="59.069358743727207183837890625" lon="30.08564407937228679656982421875">
        <ele>66.40000152587890625</ele>
        <time>2026-04-26T11:16:02.000Z</time>
        <extensions>
          <ns3:TrackPointExtension>
            <ns3:hr>126</ns3:hr>
          </ns3:TrackPointExtension>
        </extensions>
      </trkpt>
      <trkpt lat="59.06930887140333652496337890625" lon="30.08565581403672695159912109375">
        <ele>66.40000152587890625</ele>
        <time>2026-04-26T11:16:06.000Z</time>
        <extensions>
          <ns3:TrackPointExtension>
            <ns3:hr>122</ns3:hr>
          </ns3:TrackPointExtension>
        </extensions>
      </trkpt>
      <trkpt lat="59.06929663382470607757568359375" lon="30.08566872216761112213134765625">
        <ele>66.40000152587890625</ele>
        <time>2026-04-26T11:16:07.000Z</time>
        <extensions>
          <ns3:TrackPointExtension>
            <ns3:hr>122</ns3:hr>
          </ns3:TrackPointExtension>
        </extensions>
      </trkpt>
      <trkpt lat="59.0692737512290477752685546875" lon="30.085661597549915313720703125">
        <ele>66.40000152587890625</ele>
        <time>2026-04-26T11:16:09.000Z</time>
        <extensions>
          <ns3:TrackPointExtension>
            <ns3:hr>130</ns3:hr>
          </ns3:TrackPointExtension>
        </extensions>
      </trkpt>
      <trkpt lat="59.0692636929452419281005859375" lon="30.0856708176434040069580078125">
        <ele>66.1999969482421875</ele>
        <time>2026-04-26T11:16:10.000Z</time>
        <extensions>
          <ns3:TrackPointExtension>
            <ns3:hr>128</ns3:hr>
          </ns3:TrackPointExtension>
        </extensions>
      </trkpt>
      <trkpt lat="59.06925857998430728912353515625" lon="30.0856788642704486846923828125">
        <ele>66.1999969482421875</ele>
        <time>2026-04-26T11:16:11.000Z</time>
        <extensions>
          <ns3:TrackPointExtension>
            <ns3:hr>122</ns3:hr>
          </ns3:TrackPointExtension>
        </extensions>
      </trkpt>
      <trkpt lat="59.06925656832754611968994140625" lon="30.0856882520020008087158203125">
        <ele>66.1999969482421875</ele>
        <time>2026-04-26T11:16:12.000Z</time>
        <extensions>
          <ns3:TrackPointExtension>
            <ns3:hr>122</ns3:hr>
          </ns3:TrackPointExtension>
        </extensions>
      </trkpt>
      <trkpt lat="59.0692298300564289093017578125" lon="30.085687078535556793212890625">
        <ele>66.1999969482421875</ele>
        <time>2026-04-26T11:16:16.000Z</time>
        <extensions>
          <ns3:TrackPointExtension>
            <ns3:hr>120</ns3:hr>
          </ns3:TrackPointExtension>
        </extensions>
      </trkpt>
      <trkpt lat="59.0692261420190334320068359375" lon="30.0856956280767917633056640625">
        <ele>66.1999969482421875</ele>
        <time>2026-04-26T11:16:17.000Z</time>
        <extensions>
          <ns3:TrackPointExtension>
            <ns3:hr>119</ns3:hr>
          </ns3:TrackPointExtension>
        </extensions>
      </trkpt>
      <trkpt lat="59.0692130662500858306884765625" lon="30.08571825921535491943359375">
        <ele>65.8000030517578125</ele>
        <time>2026-04-26T11:16:20.000Z</time>
        <extensions>
          <ns3:TrackPointExtension>
            <ns3:hr>120</ns3:hr>
          </ns3:TrackPointExtension>
        </extensions>
      </trkpt>
      <trkpt lat="59.06920887529850006103515625" lon="30.08572286926209926605224609375">
        <ele>65.8000030517578125</ele>
        <time>2026-04-26T11:16:21.000Z</time>
        <extensions>
          <ns3:TrackPointExtension>
            <ns3:hr>124</ns3:hr>
          </ns3:TrackPointExtension>
        </extensions>
      </trkpt>
      <trkpt lat="59.069200493395328521728515625" lon="30.0857274793088436126708984375">
        <ele>65.8000030517578125</ele>
        <time>2026-04-26T11:16:22.000Z</time>
        <extensions>
          <ns3:TrackPointExtension>
            <ns3:hr>127</ns3:hr>
          </ns3:TrackPointExtension>
        </extensions>
      </trkpt>
      <trkpt lat="59.0691711567342281341552734375" lon="30.0857412256300449371337890625">
        <ele>65.8000030517578125</ele>
        <time>2026-04-26T11:16:25.000Z</time>
        <extensions>
          <ns3:TrackPointExtension>
            <ns3:hr>130</ns3:hr>
          </ns3:TrackPointExtension>
        </extensions>
      </trkpt>
      <trkpt lat="59.06916772015392780303955078125" lon="30.08573963306844234466552734375">
        <ele>65.8000030517578125</ele>
        <time>2026-04-26T11:16:26.000Z</time>
        <extensions>
          <ns3:TrackPointExtension>
            <ns3:hr>134</ns3:hr>
          </ns3:TrackPointExtension>
        </extensions>
      </trkpt>
      <trkpt lat="59.06916403211653232574462890625" lon="30.085711888968944549560546875">
        <ele>65.8000030517578125</ele>
        <time>2026-04-26T11:16:28.000Z</time>
        <extensions>
          <ns3:TrackPointExtension>
            <ns3:hr>138</ns3:hr>
          </ns3:TrackPointExtension>
        </extensions>
      </trkpt>
      <trkpt lat="59.06915229745209217071533203125" lon="30.0857563130557537078857421875">
        <ele>65.8000030517578125</ele>
        <time>2026-04-26T11:16:31.000Z</time>
        <extensions>
          <ns3:TrackPointExtension>
            <ns3:hr>142</ns3:hr>
          </ns3:TrackPointExtension>
        </extensions>
      </trkpt>
      <trkpt lat="59.0691523812711238861083984375" lon="30.08575036190450191497802734375">
        <ele>65.8000030517578125</ele>
        <time>2026-04-26T11:16:32.000Z</time>
        <extensions>
          <ns3:TrackPointExtension>
            <ns3:hr>142</ns3:hr>
          </ns3:TrackPointExtension>
        </extensions>
      </trkpt>
      <trkpt lat="59.0691453404724597930908203125" lon="30.08573971688747406005859375">
        <ele>66</ele>
        <time>2026-04-26T11:16:33.000Z</time>
        <extensions>
          <ns3:TrackPointExtension>
            <ns3:hr>143</ns3:hr>
          </ns3:TrackPointExtension>
        </extensions>
      </trkpt>
      <trkpt lat="59.0691433288156986236572265625" lon="30.085738040506839752197265625">
        <ele>66</ele>
        <time>2026-04-26T11:16:35.000Z</time>
        <extensions>
          <ns3:TrackPointExtension>
            <ns3:hr>144</ns3:hr>
          </ns3:TrackPointExtension>
        </extensions>
      </trkpt>
      <trkpt lat="59.0691369585692882537841796875" lon="30.085743404924869537353515625">
        <ele>66</ele>
        <time>2026-04-26T11:16:39.000Z</time>
        <extensions>
          <ns3:TrackPointExtension>
            <ns3:hr>146</ns3:hr>
          </ns3:TrackPointExtension>
        </extensions>
      </trkpt>
      <trkpt lat="59.069129414856433868408203125" lon="30.08573108352720737457275390625">
        <ele>66</ele>
        <time>2026-04-26T11:16:40.000Z</time>
        <extensions>
          <ns3:TrackPointExtension>
            <ns3:hr>147</ns3:hr>
          </ns3:TrackPointExtension>
        </extensions>
      </trkpt>
      <trkpt lat="59.06906814314424991607666015625" lon="30.08575622923672199249267578125">
        <ele>65.8000030517578125</ele>
        <time>2026-04-26T11:16:46.000Z</time>
        <extensions>
          <ns3:TrackPointExtension>
            <ns3:hr>145</ns3:hr>
          </ns3:TrackPointExtension>
        </extensions>
      </trkpt>
      <trkpt lat="59.06902723945677280426025390625" lon="30.08577131666243076324462890625">
        <ele>66.1999969482421875</ele>
        <time>2026-04-26T11:16:51.000Z</time>
        <extensions>
          <ns3:TrackPointExtension>
            <ns3:hr>145</ns3:hr>
          </ns3:TrackPointExtension>
        </extensions>
      </trkpt>
      <trkpt lat="59.06899639405310153961181640625" lon="30.08574910461902618408203125">
        <ele>66.1999969482421875</ele>
        <time>2026-04-26T11:16:57.000Z</time>
        <extensions>
          <ns3:TrackPointExtension>
            <ns3:hr>144</ns3:hr>
          </ns3:TrackPointExtension>
        </extensions>
      </trkpt>
      <trkpt lat="59.06897015869617462158203125" lon="30.08577919565141201019287109375">
        <ele>66</ele>
        <time>2026-04-26T11:17:01.000Z</time>
        <extensions>
          <ns3:TrackPointExtension>
            <ns3:hr>144</ns3:hr>
          </ns3:TrackPointExtension>
        </extensions>
      </trkpt>
      <trkpt lat="59.06894090585410594940185546875" lon="30.08577466942369937896728515625">
        <ele>66.1999969482421875</ele>
        <time>2026-04-26T11:17:06.000Z</time>
        <extensions>
          <ns3:TrackPointExtension>
            <ns3:hr>145</ns3:hr>
          </ns3:TrackPointExtension>
        </extensions>
      </trkpt>
      <trkpt lat="59.06891919672489166259765625" lon="30.0857931934297084808349609375">
        <ele>66</ele>
        <time>2026-04-26T11:17:10.000Z</time>
        <extensions>
          <ns3:TrackPointExtension>
            <ns3:hr>146</ns3:hr>
          </ns3:TrackPointExtension>
        </extensions>
      </trkpt>
      <trkpt lat="59.06890352256596088409423828125" lon="30.08579713292419910430908203125">
        <ele>66</ele>
        <time>2026-04-26T11:17:11.000Z</time>
        <extensions>
          <ns3:TrackPointExtension>
            <ns3:hr>146</ns3:hr>
          </ns3:TrackPointExtension>
        </extensions>
      </trkpt>
      <trkpt lat="59.06888927333056926727294921875" lon="30.08583015762269496917724609375">
        <ele>66</ele>
        <time>2026-04-26T11:17:17.000Z</time>
        <extensions>
          <ns3:TrackPointExtension>
            <ns3:hr>145</ns3:hr>
          </ns3:TrackPointExtension>
        </extensions>
      </trkpt>
      <trkpt lat="59.06889564357697963714599609375" lon="30.0858273915946483612060546875">
        <ele>66.1999969482421875</ele>
        <time>2026-04-26T11:17:19.000Z</time>
        <extensions>
          <ns3:TrackPointExtension>
            <ns3:hr>145</ns3:hr>
          </ns3:TrackPointExtension>
        </extensions>
      </trkpt>
      <trkpt lat="59.06890134327113628387451171875" lon="30.0857941992580890655517578125">
        <ele>66.1999969482421875</ele>
        <time>2026-04-26T11:17:21.000Z</time>
        <extensions>
          <ns3:TrackPointExtension>
            <ns3:hr>144</ns3:hr>
          </ns3:TrackPointExtension>
        </extensions>
      </trkpt>
      <trkpt lat="59.06894995830953121185302734375" lon="30.08574265055358409881591796875">
        <ele>66</ele>
        <time>2026-04-26T11:17:27.000Z</time>
        <extensions>
          <ns3:TrackPointExtension>
            <ns3:hr>141</ns3:hr>
          </ns3:TrackPointExtension>
        </extensions>
      </trkpt>
      <trkpt lat="59.068944342434406280517578125" lon="30.08573678322136402130126953125">
        <ele>66</ele>
        <time>2026-04-26T11:17:28.000Z</time>
        <extensions>
          <ns3:TrackPointExtension>
            <ns3:hr>138</ns3:hr>
          </ns3:TrackPointExtension>
        </extensions>
      </trkpt>
      <trkpt lat="59.068941660225391387939453125" lon="30.0857308320701122283935546875">
        <ele>66</ele>
        <time>2026-04-26T11:17:29.000Z</time>
        <extensions>
          <ns3:TrackPointExtension>
            <ns3:hr>135</ns3:hr>
          </ns3:TrackPointExtension>
        </extensions>
      </trkpt>
      <trkpt lat="59.0689461864531040191650390625" lon="30.085735358297824859619140625">
        <ele>65.8000030517578125</ele>
        <time>2026-04-26T11:17:32.000Z</time>
        <extensions>
          <ns3:TrackPointExtension>
            <ns3:hr>137</ns3:hr>
          </ns3:TrackPointExtension>
        </extensions>
      </trkpt>
      <trkpt lat="59.0689413249492645263671875" lon="30.0857432372868061065673828125">
        <ele>65.59999847412109375</ele>
        <time>2026-04-26T11:17:36.000Z</time>
        <extensions>
          <ns3:TrackPointExtension>
            <ns3:hr>138</ns3:hr>
          </ns3:TrackPointExtension>
        </extensions>
      </trkpt>
      <trkpt lat="59.06891676597297191619873046875" lon="30.08570610545575618743896484375">
        <ele>65.59999847412109375</ele>
        <time>2026-04-26T11:17:41.000Z</time>
        <extensions>
          <ns3:TrackPointExtension>
            <ns3:hr>137</ns3:hr>
          </ns3:TrackPointExtension>
        </extensions>
      </trkpt>
      <trkpt lat="59.06891978345811367034912109375" lon="30.08573845960199832916259765625">
        <ele>65.59999847412109375</ele>
        <time>2026-04-26T11:17:47.000Z</time>
        <extensions>
          <ns3:TrackPointExtension>
            <ns3:hr>138</ns3:hr>
          </ns3:TrackPointExtension>
        </extensions>
      </trkpt>
      <trkpt lat="59.06890452839434146881103515625" lon="30.08572605438530445098876953125">
        <ele>65.40000152587890625</ele>
        <time>2026-04-26T11:17:51.000Z</time>
        <extensions>
          <ns3:TrackPointExtension>
            <ns3:hr>138</ns3:hr>
          </ns3:TrackPointExtension>
        </extensions>
      </trkpt>
      <trkpt lat="59.068882651627063751220703125" lon="30.0857512839138507843017578125">
        <ele>65.8000030517578125</ele>
        <time>2026-04-26T11:17:55.000Z</time>
        <extensions>
          <ns3:TrackPointExtension>
            <ns3:hr>137</ns3:hr>
          </ns3:TrackPointExtension>
        </extensions>
      </trkpt>
      <trkpt lat="59.06886555254459381103515625" lon="30.08575153537094593048095703125">
        <ele>65.8000030517578125</ele>
        <time>2026-04-26T11:18:00.000Z</time>
        <extensions>
          <ns3:TrackPointExtension>
            <ns3:hr>138</ns3:hr>
          </ns3:TrackPointExtension>
        </extensions>
      </trkpt>
      <trkpt lat="59.0688402391970157623291015625" lon="30.08577869273722171783447265625">
        <ele>65.8000030517578125</ele>
        <time>2026-04-26T11:18:05.000Z</time>
        <extensions>
          <ns3:TrackPointExtension>
            <ns3:hr>141</ns3:hr>
          </ns3:TrackPointExtension>
        </extensions>
      </trkpt>
      <trkpt lat="59.06879489310085773468017578125" lon="30.08579361252486705780029296875">
        <ele>65.8000030517578125</ele>
        <time>2026-04-26T11:18:09.000Z</time>
        <extensions>
          <ns3:TrackPointExtension>
            <ns3:hr>139</ns3:hr>
          </ns3:TrackPointExtension>
        </extensions>
      </trkpt>
      <trkpt lat="59.06878718174993991851806640625" lon="30.0857968814671039581298828125">
        <ele>65.59999847412109375</ele>
        <time>2026-04-26T11:18:11.000Z</time>
        <extensions>
          <ns3:TrackPointExtension>
            <ns3:hr>135</ns3:hr>
          </ns3:TrackPointExtension>
        </extensions>
      </trkpt>
      <trkpt lat="59.068757593631744384765625" lon="30.085790343582630157470703125">
        <ele>65.40000152587890625</ele>
        <time>2026-04-26T11:18:13.000Z</time>
        <extensions>
          <ns3:TrackPointExtension>
            <ns3:hr>130</ns3:hr>
          </ns3:TrackPointExtension>
        </extensions>
      </trkpt>
      <trkpt lat="59.06872683204710483551025390625" lon="30.0857958756387233734130859375">
        <ele>65.1999969482421875</ele>
        <time>2026-04-26T11:18:15.000Z</time>
        <extensions>
          <ns3:TrackPointExtension>
            <ns3:hr>126</ns3:hr>
          </ns3:TrackPointExtension>
        </extensions>
      </trkpt>
      <trkpt lat="59.06870570965111255645751953125" lon="30.08579981513321399688720703125">
        <ele>65.1999969482421875</ele>
        <time>2026-04-26T11:18:19.000Z</time>
        <extensions>
          <ns3:TrackPointExtension>
            <ns3:hr>127</ns3:hr>
          </ns3:TrackPointExtension>
        </extensions>
      </trkpt>
      <trkpt lat="59.06865525059401988983154296875" lon="30.0858032517135143280029296875">
        <ele>65.59999847412109375</ele>
        <time>2026-04-26T11:18:24.000Z</time>
        <extensions>
          <ns3:TrackPointExtension>
            <ns3:hr>129</ns3:hr>
          </ns3:TrackPointExtension>
        </extensions>
      </trkpt>
      <trkpt lat="59.0686444379389286041259765625" lon="30.08580953814089298248291015625">
        <ele>65.59999847412109375</ele>
        <time>2026-04-26T11:18:27.000Z</time>
        <extensions>
          <ns3:TrackPointExtension>
            <ns3:hr>132</ns3:hr>
          </ns3:TrackPointExtension>
        </extensions>
      </trkpt>
      <trkpt lat="59.06863044016063213348388671875" lon="30.08584641851484775543212890625">
        <ele>65.59999847412109375</ele>
        <time>2026-04-26T11:18:30.000Z</time>
        <extensions>
          <ns3:TrackPointExtension>
            <ns3:hr>134</ns3:hr>
          </ns3:TrackPointExtension>
        </extensions>
      </trkpt>
      <trkpt lat="59.06859775073826313018798828125" lon="30.08585932664573192596435546875">
        <ele>65.59999847412109375</ele>
        <time>2026-04-26T11:18:36.000Z</time>
        <extensions>
          <ns3:TrackPointExtension>
            <ns3:hr>135</ns3:hr>
          </ns3:TrackPointExtension>
        </extensions>
      </trkpt>
      <trkpt lat="59.068585932254791259765625" lon="30.08585480041801929473876953125">
        <ele>65.40000152587890625</ele>
        <time>2026-04-26T11:18:37.000Z</time>
        <extensions>
          <ns3:TrackPointExtension>
            <ns3:hr>135</ns3:hr>
          </ns3:TrackPointExtension>
        </extensions>
      </trkpt>
      <trkpt lat="59.0685562603175640106201171875" lon="30.0858612544834613800048828125">
        <ele>65.40000152587890625</ele>
        <time>2026-04-26T11:18:41.000Z</time>
        <extensions>
          <ns3:TrackPointExtension>
            <ns3:hr>135</ns3:hr>
          </ns3:TrackPointExtension>
        </extensions>
      </trkpt>
      <trkpt lat="59.0685411728918552398681640625" lon="30.0859031639993190765380859375">
        <ele>65.59999847412109375</ele>
        <time>2026-04-26T11:18:44.000Z</time>
        <extensions>
          <ns3:TrackPointExtension>
            <ns3:hr>135</ns3:hr>
          </ns3:TrackPointExtension>
        </extensions>
      </trkpt>
      <trkpt lat="59.06853656284511089324951171875" lon="30.08589922450482845306396484375">
        <ele>65.40000152587890625</ele>
        <time>2026-04-26T11:18:46.000Z</time>
        <extensions>
          <ns3:TrackPointExtension>
            <ns3:hr>134</ns3:hr>
          </ns3:TrackPointExtension>
        </extensions>
      </trkpt>
      <trkpt lat="59.0685210563242435455322265625" lon="30.08590995334088802337646484375">
        <ele>65</ele>
        <time>2026-04-26T11:18:50.000Z</time>
        <extensions>
          <ns3:TrackPointExtension>
            <ns3:hr>135</ns3:hr>
          </ns3:TrackPointExtension>
        </extensions>
      </trkpt>
      <trkpt lat="59.06852013431489467620849609375" lon="30.0859145633876323699951171875">
        <ele>65</ele>
        <time>2026-04-26T11:18:51.000Z</time>
        <extensions>
          <ns3:TrackPointExtension>
            <ns3:hr>134</ns3:hr>
          </ns3:TrackPointExtension>
        </extensions>
      </trkpt>
      <trkpt lat="59.068499766290187835693359375" lon="30.085889585316181182861328125">
        <ele>65.1999969482421875</ele>
        <time>2026-04-26T11:18:55.000Z</time>
        <extensions>
          <ns3:TrackPointExtension>
            <ns3:hr>131</ns3:hr>
          </ns3:TrackPointExtension>
        </extensions>
      </trkpt>
      <trkpt lat="59.0684935636818408966064453125" lon="30.0858864001929759979248046875">
        <ele>65.1999969482421875</ele>
        <time>2026-04-26T11:18:56.000Z</time>
        <extensions>
          <ns3:TrackPointExtension>
            <ns3:hr>130</ns3:hr>
          </ns3:TrackPointExtension>
        </extensions>
      </trkpt>
      <trkpt lat="59.0684912167489528656005859375" lon="30.0858743302524089813232421875">
        <ele>65</ele>
        <time>2026-04-26T11:18:58.000Z</time>
        <extensions>
          <ns3:TrackPointExtension>
            <ns3:hr>129</ns3:hr>
          </ns3:TrackPointExtension>
        </extensions>
      </trkpt>
      <trkpt lat="59.0684835053980350494384765625" lon="30.08588229306042194366455078125">
        <ele>65</ele>
        <time>2026-04-26T11:19:00.000Z</time>
        <extensions>
          <ns3:TrackPointExtension>
            <ns3:hr>130</ns3:hr>
          </ns3:TrackPointExtension>
        </extensions>
      </trkpt>
      <trkpt lat="59.0684271790087223052978515625" lon="30.08587324060499668121337890625">
        <ele>65</ele>
        <time>2026-04-26T11:19:05.000Z</time>
        <extensions>
          <ns3:TrackPointExtension>
            <ns3:hr>130</ns3:hr>
          </ns3:TrackPointExtension>
        </extensions>
      </trkpt>
      <trkpt lat="59.06841401942074298858642578125" lon="30.08591900579631328582763671875">
        <ele>65</ele>
        <time>2026-04-26T11:19:09.000Z</time>
        <extensions>
          <ns3:TrackPointExtension>
            <ns3:hr>133</ns3:hr>
          </ns3:TrackPointExtension>
        </extensions>
      </trkpt>
      <trkpt lat="59.0683929808437824249267578125" lon="30.085917748510837554931640625">
        <ele>65</ele>
        <time>2026-04-26T11:19:14.000Z</time>
        <extensions>
          <ns3:TrackPointExtension>
            <ns3:hr>133</ns3:hr>
          </ns3:TrackPointExtension>
        </extensions>
      </trkpt>
      <trkpt lat="59.068389795720577239990234375" lon="30.08590877987444400787353515625">
        <ele>64.8000030517578125</ele>
        <time>2026-04-26T11:19:16.000Z</time>
        <extensions>
          <ns3:TrackPointExtension>
            <ns3:hr>133</ns3:hr>
          </ns3:TrackPointExtension>
        </extensions>
      </trkpt>
      <trkpt lat="59.06836666166782379150390625" lon="30.08591012097895145416259765625">
        <ele>65</ele>
        <time>2026-04-26T11:19:18.000Z</time>
        <extensions>
          <ns3:TrackPointExtension>
            <ns3:hr>133</ns3:hr>
          </ns3:TrackPointExtension>
        </extensions>
      </trkpt>
      <trkpt lat="59.06832240521907806396484375" lon="30.08587374351918697357177734375">
        <ele>65</ele>
        <time>2026-04-26T11:19:23.000Z</time>
        <extensions>
          <ns3:TrackPointExtension>
            <ns3:hr>133</ns3:hr>
          </ns3:TrackPointExtension>
        </extensions>
      </trkpt>
      <trkpt lat="59.06832265667617321014404296875" lon="30.08587206713855266571044921875">
        <ele>65</ele>
        <time>2026-04-26T11:19:24.000Z</time>
        <extensions>
          <ns3:TrackPointExtension>
            <ns3:hr>132</ns3:hr>
          </ns3:TrackPointExtension>
        </extensions>
      </trkpt>
      <trkpt lat="59.0683128498494625091552734375" lon="30.08588111959397792816162109375">
        <ele>65.1999969482421875</ele>
        <time>2026-04-26T11:19:26.000Z</time>
        <extensions>
          <ns3:TrackPointExtension>
            <ns3:hr>131</ns3:hr>
          </ns3:TrackPointExtension>
        </extensions>
      </trkpt>
      <trkpt lat="59.0682940743863582611083984375" lon="30.0858377851545810699462890625">
        <ele>65.59999847412109375</ele>
        <time>2026-04-26T11:19:33.000Z</time>
        <extensions>
          <ns3:TrackPointExtension>
            <ns3:hr>132</ns3:hr>
          </ns3:TrackPointExtension>
        </extensions>
      </trkpt>
      <trkpt lat="59.06829834915697574615478515625" lon="30.0858515314757823944091796875">
        <ele>65.40000152587890625</ele>
        <time>2026-04-26T11:19:39.000Z</time>
        <extensions>
          <ns3:TrackPointExtension>
            <ns3:hr>131</ns3:hr>
          </ns3:TrackPointExtension>
        </extensions>
      </trkpt>
      <trkpt lat="59.0682877041399478912353515625" lon="30.08580065332353115081787109375">
        <ele>65.1999969482421875</ele>
        <time>2026-04-26T11:19:47.000Z</time>
        <extensions>
          <ns3:TrackPointExtension>
            <ns3:hr>132</ns3:hr>
          </ns3:TrackPointExtension>
        </extensions>
      </trkpt>
      <trkpt lat="59.06827253289520740509033203125" lon="30.08577936328947544097900390625">
        <ele>65</ele>
        <time>2026-04-26T11:19:52.000Z</time>
        <extensions>
          <ns3:TrackPointExtension>
            <ns3:hr>133</ns3:hr>
          </ns3:TrackPointExtension>
        </extensions>
      </trkpt>
      <trkpt lat="59.0682662464678287506103515625" lon="30.08576695807278156280517578125">
        <ele>64.8000030517578125</ele>
        <time>2026-04-26T11:19:53.000Z</time>
        <extensions>
          <ns3:TrackPointExtension>
            <ns3:hr>132</ns3:hr>
          </ns3:TrackPointExtension>
        </extensions>
      </trkpt>
      <trkpt lat="59.06825744546949863433837890625" lon="30.08576494641602039337158203125">
        <ele>64.8000030517578125</ele>
        <time>2026-04-26T11:19:55.000Z</time>
        <extensions>
          <ns3:TrackPointExtension>
            <ns3:hr>132</ns3:hr>
          </ns3:TrackPointExtension>
        </extensions>
      </trkpt>
      <trkpt lat="59.06825040467083454132080078125" lon="30.0857623480260372161865234375">
        <ele>64.8000030517578125</ele>
        <time>2026-04-26T11:19:56.000Z</time>
        <extensions>
          <ns3:TrackPointExtension>
            <ns3:hr>132</ns3:hr>
          </ns3:TrackPointExtension>
        </extensions>
      </trkpt>
      <trkpt lat="59.06825057230889797210693359375" lon="30.085756480693817138671875">
        <ele>64.8000030517578125</ele>
        <time>2026-04-26T11:19:57.000Z</time>
        <extensions>
          <ns3:TrackPointExtension>
            <ns3:hr>133</ns3:hr>
          </ns3:TrackPointExtension>
        </extensions>
      </trkpt>
      <trkpt lat="59.06825358979403972625732421875" lon="30.08569470606744289398193359375">
        <ele>64.8000030517578125</ele>
        <time>2026-04-26T11:20:00.000Z</time>
        <extensions>
          <ns3:TrackPointExtension>
            <ns3:hr>132</ns3:hr>
          </ns3:TrackPointExtension>
        </extensions>
      </trkpt>
      <trkpt lat="59.068274460732936859130859375" lon="30.08561859838664531707763671875">
        <ele>65.1999969482421875</ele>
        <time>2026-04-26T11:20:05.000Z</time>
        <extensions>
          <ns3:TrackPointExtension>
            <ns3:hr>134</ns3:hr>
          </ns3:TrackPointExtension>
        </extensions>
      </trkpt>
      <trkpt lat="59.06828376464545726776123046875" lon="30.0855883397161960601806640625">
        <ele>65</ele>
        <time>2026-04-26T11:20:09.000Z</time>
        <extensions>
          <ns3:TrackPointExtension>
            <ns3:hr>134</ns3:hr>
          </ns3:TrackPointExtension>
        </extensions>
      </trkpt>
      <trkpt lat="59.0682860277593135833740234375" lon="30.08552455343306064605712890625">
        <ele>64.8000030517578125</ele>
        <time>2026-04-26T11:20:13.000Z</time>
        <extensions>
          <ns3:TrackPointExtension>
            <ns3:hr>134</ns3:hr>
          </ns3:TrackPointExtension>
        </extensions>
      </trkpt>
      <trkpt lat="59.06828812323510646820068359375" lon="30.08551047183573246002197265625">
        <ele>64.8000030517578125</ele>
        <time>2026-04-26T11:20:14.000Z</time>
        <extensions>
          <ns3:TrackPointExtension>
            <ns3:hr>134</ns3:hr>
          </ns3:TrackPointExtension>
        </extensions>
      </trkpt>
      <trkpt lat="59.068289883434772491455078125" lon="30.08549471385776996612548828125">
        <ele>64.8000030517578125</ele>
        <time>2026-04-26T11:20:16.000Z</time>
        <extensions>
          <ns3:TrackPointExtension>
            <ns3:hr>135</ns3:hr>
          </ns3:TrackPointExtension>
        </extensions>
      </trkpt>
      <trkpt lat="59.06829290091991424560546875" lon="30.08544056676328182220458984375">
        <ele>65</ele>
        <time>2026-04-26T11:20:18.000Z</time>
        <extensions>
          <ns3:TrackPointExtension>
            <ns3:hr>135</ns3:hr>
          </ns3:TrackPointExtension>
        </extensions>
      </trkpt>
      <trkpt lat="59.06829147599637508392333984375" lon="30.0854062847793102264404296875">
        <ele>65</ele>
        <time>2026-04-26T11:20:20.000Z</time>
        <extensions>
          <ns3:TrackPointExtension>
            <ns3:hr>132</ns3:hr>
          </ns3:TrackPointExtension>
        </extensions>
      </trkpt>
      <trkpt lat="59.0682873688638210296630859375" lon="30.0853811390697956085205078125">
        <ele>64.8000030517578125</ele>
        <time>2026-04-26T11:20:21.000Z</time>
        <extensions>
          <ns3:TrackPointExtension>
            <ns3:hr>129</ns3:hr>
          </ns3:TrackPointExtension>
        </extensions>
      </trkpt>
      <trkpt lat="59.06829097308218479156494140625" lon="30.0853704102337360382080078125">
        <ele>64.8000030517578125</ele>
        <time>2026-04-26T11:20:22.000Z</time>
        <extensions>
          <ns3:TrackPointExtension>
            <ns3:hr>129</ns3:hr>
          </ns3:TrackPointExtension>
        </extensions>
      </trkpt>
      <trkpt lat="59.068291895091533660888671875" lon="30.085368566215038299560546875">
        <ele>64.59999847412109375</ele>
        <time>2026-04-26T11:20:23.000Z</time>
        <extensions>
          <ns3:TrackPointExtension>
            <ns3:hr>130</ns3:hr>
          </ns3:TrackPointExtension>
        </extensions>
      </trkpt>
      <trkpt lat="59.0682739578187465667724609375" lon="30.0852939672768115997314453125">
        <ele>64.40000152587890625</ele>
        <time>2026-04-26T11:20:28.000Z</time>
        <extensions>
          <ns3:TrackPointExtension>
            <ns3:hr>131</ns3:hr>
          </ns3:TrackPointExtension>
        </extensions>
      </trkpt>
      <trkpt lat="59.06825643964111804962158203125" lon="30.08525289595127105712890625">
        <ele>64.59999847412109375</ele>
        <time>2026-04-26T11:20:30.000Z</time>
        <extensions>
          <ns3:TrackPointExtension>
            <ns3:hr>130</ns3:hr>
          </ns3:TrackPointExtension>
        </extensions>
      </trkpt>
      <trkpt lat="59.0682491473853588104248046875" lon="30.085252225399017333984375">
        <ele>64.59999847412109375</ele>
        <time>2026-04-26T11:20:31.000Z</time>
        <extensions>
          <ns3:TrackPointExtension>
            <ns3:hr>130</ns3:hr>
          </ns3:TrackPointExtension>
        </extensions>
      </trkpt>
      <trkpt lat="59.068242609500885009765625" lon="30.0851876847445964813232421875">
        <ele>65</ele>
        <time>2026-04-26T11:20:35.000Z</time>
        <extensions>
          <ns3:TrackPointExtension>
            <ns3:hr>129</ns3:hr>
          </ns3:TrackPointExtension>
        </extensions>
      </trkpt>
      <trkpt lat="59.06823414377868175506591796875" lon="30.08517779409885406494140625">
        <ele>65.1999969482421875</ele>
        <time>2026-04-26T11:20:37.000Z</time>
        <extensions>
          <ns3:TrackPointExtension>
            <ns3:hr>130</ns3:hr>
          </ns3:TrackPointExtension>
        </extensions>
      </trkpt>
      <trkpt lat="59.0682340599596500396728515625" lon="30.08514401502907276153564453125">
        <ele>65.1999969482421875</ele>
        <time>2026-04-26T11:20:39.000Z</time>
        <extensions>
          <ns3:TrackPointExtension>
            <ns3:hr>133</ns3:hr>
          </ns3:TrackPointExtension>
        </extensions>
      </trkpt>
      <trkpt lat="59.0682367421686649322509765625" lon="30.08513093926012516021728515625">
        <ele>65.1999969482421875</ele>
        <time>2026-04-26T11:20:40.000Z</time>
        <extensions>
          <ns3:TrackPointExtension>
            <ns3:hr>133</ns3:hr>
          </ns3:TrackPointExtension>
        </extensions>
      </trkpt>
      <trkpt lat="59.06824328005313873291015625" lon="30.08507587015628814697265625">
        <ele>65</ele>
        <time>2026-04-26T11:20:43.000Z</time>
        <extensions>
          <ns3:TrackPointExtension>
            <ns3:hr>132</ns3:hr>
          </ns3:TrackPointExtension>
        </extensions>
      </trkpt>
      <trkpt lat="59.0682407654821872711181640625" lon="30.08506715297698974609375">
        <ele>65</ele>
        <time>2026-04-26T11:20:45.000Z</time>
        <extensions>
          <ns3:TrackPointExtension>
            <ns3:hr>132</ns3:hr>
          </ns3:TrackPointExtension>
        </extensions>
      </trkpt>
      <trkpt lat="59.068249650299549102783203125" lon="30.08499498479068279266357421875">
        <ele>65.1999969482421875</ele>
        <time>2026-04-26T11:20:49.000Z</time>
        <extensions>
          <ns3:TrackPointExtension>
            <ns3:hr>128</ns3:hr>
          </ns3:TrackPointExtension>
        </extensions>
      </trkpt>
      <trkpt lat="59.068246297538280487060546875" lon="30.08496128953993320465087890625">
        <ele>65.1999969482421875</ele>
        <time>2026-04-26T11:20:50.000Z</time>
        <extensions>
          <ns3:TrackPointExtension>
            <ns3:hr>128</ns3:hr>
          </ns3:TrackPointExtension>
        </extensions>
      </trkpt>
      <trkpt lat="59.06824193894863128662109375" lon="30.0848695077002048492431640625">
        <ele>65</ele>
        <time>2026-04-26T11:20:56.000Z</time>
        <extensions>
          <ns3:TrackPointExtension>
            <ns3:hr>132</ns3:hr>
          </ns3:TrackPointExtension>
        </extensions>
      </trkpt>
      <trkpt lat="59.06823816709220409393310546875" lon="30.08479113690555095672607421875">
        <ele>65</ele>
        <time>2026-04-26T11:21:01.000Z</time>
        <extensions>
          <ns3:TrackPointExtension>
            <ns3:hr>131</ns3:hr>
          </ns3:TrackPointExtension>
        </extensions>
      </trkpt>
      <trkpt lat="59.06822442077100276947021484375" lon="30.084690637886524200439453125">
        <ele>64.59999847412109375</ele>
        <time>2026-04-26T11:21:05.000Z</time>
        <extensions>
          <ns3:TrackPointExtension>
            <ns3:hr>128</ns3:hr>
          </ns3:TrackPointExtension>
        </extensions>
      </trkpt>
      <trkpt lat="59.06821520067751407623291015625" lon="30.08465610444545745849609375">
        <ele>64.59999847412109375</ele>
        <time>2026-04-26T11:21:08.000Z</time>
        <extensions>
          <ns3:TrackPointExtension>
            <ns3:hr>122</ns3:hr>
          </ns3:TrackPointExtension>
        </extensions>
      </trkpt>
      <trkpt lat="59.068212769925594329833984375" lon="30.08460673503577709197998046875">
        <ele>64.8000030517578125</ele>
        <time>2026-04-26T11:21:10.000Z</time>
        <extensions>
          <ns3:TrackPointExtension>
            <ns3:hr>119</ns3:hr>
          </ns3:TrackPointExtension>
        </extensions>
      </trkpt>
      <trkpt lat="59.0682038851082324981689453125" lon="30.08455644361674785614013671875">
        <ele>64.8000030517578125</ele>
        <time>2026-04-26T11:21:13.000Z</time>
        <extensions>
          <ns3:TrackPointExtension>
            <ns3:hr>119</ns3:hr>
          </ns3:TrackPointExtension>
        </extensions>
      </trkpt>
      <trkpt lat="59.068208746612071990966796875" lon="30.08445669896900653839111328125">
        <ele>64.59999847412109375</ele>
        <time>2026-04-26T11:21:17.000Z</time>
        <extensions>
          <ns3:TrackPointExtension>
            <ns3:hr>117</ns3:hr>
          </ns3:TrackPointExtension>
        </extensions>
      </trkpt>
      <trkpt lat="59.068200699985027313232421875" lon="30.0843800045549869537353515625">
        <ele>64.8000030517578125</ele>
        <time>2026-04-26T11:21:22.000Z</time>
        <extensions>
          <ns3:TrackPointExtension>
            <ns3:hr>119</ns3:hr>
          </ns3:TrackPointExtension>
        </extensions>
      </trkpt>
      <trkpt lat="59.06818418763577938079833984375" lon="30.0843424536287784576416015625">
        <ele>64.8000030517578125</ele>
        <time>2026-04-26T11:21:27.000Z</time>
        <extensions>
          <ns3:TrackPointExtension>
            <ns3:hr>121</ns3:hr>
          </ns3:TrackPointExtension>
        </extensions>
      </trkpt>
      <trkpt lat="59.0681891329586505889892578125" lon="30.084353350102901458740234375">
        <ele>65</ele>
        <time>2026-04-26T11:21:29.000Z</time>
        <extensions>
          <ns3:TrackPointExtension>
            <ns3:hr>124</ns3:hr>
          </ns3:TrackPointExtension>
        </extensions>
      </trkpt>
      <trkpt lat="59.06820799224078655242919921875" lon="30.08433683775365352630615234375">
        <ele>65</ele>
        <time>2026-04-26T11:21:32.000Z</time>
        <extensions>
          <ns3:TrackPointExtension>
            <ns3:hr>125</ns3:hr>
          </ns3:TrackPointExtension>
        </extensions>
      </trkpt>
      <trkpt lat="59.06820631586015224456787109375" lon="30.084315128624439239501953125">
        <ele>65</ele>
        <time>2026-04-26T11:21:33.000Z</time>
        <extensions>
          <ns3:TrackPointExtension>
            <ns3:hr>122</ns3:hr>
          </ns3:TrackPointExtension>
        </extensions>
      </trkpt>
      <trkpt lat="59.06821050681173801422119140625" lon="30.08423558436334133148193359375">
        <ele>64.8000030517578125</ele>
        <time>2026-04-26T11:21:37.000Z</time>
        <extensions>
          <ns3:TrackPointExtension>
            <ns3:hr>126</ns3:hr>
          </ns3:TrackPointExtension>
        </extensions>
      </trkpt>
      <trkpt lat="59.06821117736399173736572265625" lon="30.084216892719268798828125">
        <ele>64.8000030517578125</ele>
        <time>2026-04-26T11:21:38.000Z</time>
        <extensions>
          <ns3:TrackPointExtension>
            <ns3:hr>127</ns3:hr>
          </ns3:TrackPointExtension>
        </extensions>
      </trkpt>
      <trkpt lat="59.06820212490856647491455078125" lon="30.08415612392127513885498046875">
        <ele>64.59999847412109375</ele>
        <time>2026-04-26T11:21:41.000Z</time>
        <extensions>
          <ns3:TrackPointExtension>
            <ns3:hr>129</ns3:hr>
          </ns3:TrackPointExtension>
        </extensions>
      </trkpt>
      <trkpt lat="59.06819877214729785919189453125" lon="30.08415662683546543121337890625">
        <ele>64.59999847412109375</ele>
        <time>2026-04-26T11:21:44.000Z</time>
        <extensions>
          <ns3:TrackPointExtension>
            <ns3:hr>130</ns3:hr>
          </ns3:TrackPointExtension>
        </extensions>
      </trkpt>
      <trkpt lat="59.0682022087275981903076171875" lon="30.08415075950324535369873046875">
        <ele>64.59999847412109375</ele>
        <time>2026-04-26T11:21:45.000Z</time>
        <extensions>
          <ns3:TrackPointExtension>
            <ns3:hr>131</ns3:hr>
          </ns3:TrackPointExtension>
        </extensions>
      </trkpt>
      <trkpt lat="59.06819592230021953582763671875" lon="30.08412343449890613555908203125">
        <ele>64.59999847412109375</ele>
        <time>2026-04-26T11:21:46.000Z</time>
        <extensions>
          <ns3:TrackPointExtension>
            <ns3:hr>130</ns3:hr>
          </ns3:TrackPointExtension>
        </extensions>
      </trkpt>
      <trkpt lat="59.06819097697734832763671875" lon="30.08408638648688793182373046875">
        <ele>64.59999847412109375</ele>
        <time>2026-04-26T11:21:49.000Z</time>
        <extensions>
          <ns3:TrackPointExtension>
            <ns3:hr>125</ns3:hr>
          </ns3:TrackPointExtension>
        </extensions>
      </trkpt>
      <trkpt lat="59.068178571760654449462890625" lon="30.08407012559473514556884765625">
        <ele>64.40000152587890625</ele>
        <time>2026-04-26T11:21:50.000Z</time>
        <extensions>
          <ns3:TrackPointExtension>
            <ns3:hr>122</ns3:hr>
          </ns3:TrackPointExtension>
        </extensions>
      </trkpt>
      <trkpt lat="59.06816859729588031768798828125" lon="30.08405319415032863616943359375">
        <ele>64.1999969482421875</ele>
        <time>2026-04-26T11:21:52.000Z</time>
        <extensions>
          <ns3:TrackPointExtension>
            <ns3:hr>120</ns3:hr>
          </ns3:TrackPointExtension>
        </extensions>
      </trkpt>
      <trkpt lat="59.06816977076232433319091796875" lon="30.08402419276535511016845703125">
        <ele>64.1999969482421875</ele>
        <time>2026-04-26T11:21:54.000Z</time>
        <extensions>
          <ns3:TrackPointExtension>
            <ns3:hr>115</ns3:hr>
          </ns3:TrackPointExtension>
        </extensions>
      </trkpt>
      <trkpt lat="59.06814697198569774627685546875" lon="30.0839682854712009429931640625">
        <ele>64.40000152587890625</ele>
        <time>2026-04-26T11:21:59.000Z</time>
        <extensions>
          <ns3:TrackPointExtension>
            <ns3:hr>113</ns3:hr>
          </ns3:TrackPointExtension>
        </extensions>
      </trkpt>
      <trkpt lat="59.0681378357112407684326171875" lon="30.0839339196681976318359375">
        <ele>64.40000152587890625</ele>
        <time>2026-04-26T11:22:01.000Z</time>
        <extensions>
          <ns3:TrackPointExtension>
            <ns3:hr>121</ns3:hr>
          </ns3:TrackPointExtension>
        </extensions>
      </trkpt>
      <trkpt lat="59.0681334771215915679931640625" lon="30.0839307345449924468994140625">
        <ele>64.59999847412109375</ele>
        <time>2026-04-26T11:22:02.000Z</time>
        <extensions>
          <ns3:TrackPointExtension>
            <ns3:hr>126</ns3:hr>
          </ns3:TrackPointExtension>
        </extensions>
      </trkpt>
      <trkpt lat="59.06813305802643299102783203125" lon="30.08391723968088626861572265625">
        <ele>64.59999847412109375</ele>
        <time>2026-04-26T11:22:03.000Z</time>
        <extensions>
          <ns3:TrackPointExtension>
            <ns3:hr>133</ns3:hr>
          </ns3:TrackPointExtension>
        </extensions>
      </trkpt>
      <trkpt lat="59.0681173838675022125244140625" lon="30.0838734023272991180419921875">
        <ele>64.59999847412109375</ele>
        <time>2026-04-26T11:22:05.000Z</time>
        <extensions>
          <ns3:TrackPointExtension>
            <ns3:hr>136</ns3:hr>
          </ns3:TrackPointExtension>
        </extensions>
      </trkpt>
      <trkpt lat="59.0681170485913753509521484375" lon="30.08384800516068935394287109375">
        <ele>64.8000030517578125</ele>
        <time>2026-04-26T11:22:07.000Z</time>
        <extensions>
          <ns3:TrackPointExtension>
            <ns3:hr>137</ns3:hr>
          </ns3:TrackPointExtension>
        </extensions>
      </trkpt>
      <trkpt lat="59.068125598132610321044921875" lon="30.08369377814233303070068359375">
        <ele>65.1999969482421875</ele>
        <time>2026-04-26T11:22:12.000Z</time>
        <extensions>
          <ns3:TrackPointExtension>
            <ns3:hr>137</ns3:hr>
          </ns3:TrackPointExtension>
        </extensions>
      </trkpt>
      <trkpt lat="59.0681311301887035369873046875" lon="30.08355178870260715484619140625">
        <ele>65.40000152587890625</ele>
        <time>2026-04-26T11:22:18.000Z</time>
        <extensions>
          <ns3:TrackPointExtension>
            <ns3:hr>137</ns3:hr>
          </ns3:TrackPointExtension>
        </extensions>
      </trkpt>
      <trkpt lat="59.068132974207401275634765625" lon="30.08352379314601421356201171875">
        <ele>65.40000152587890625</ele>
        <time>2026-04-26T11:22:19.000Z</time>
        <extensions>
          <ns3:TrackPointExtension>
            <ns3:hr>137</ns3:hr>
          </ns3:TrackPointExtension>
        </extensions>
      </trkpt>
      <trkpt lat="59.06813138164579868316650390625" lon="30.083463191986083984375">
        <ele>65.40000152587890625</ele>
        <time>2026-04-26T11:22:23.000Z</time>
        <extensions>
          <ns3:TrackPointExtension>
            <ns3:hr>139</ns3:hr>
          </ns3:TrackPointExtension>
        </extensions>
      </trkpt>
      <trkpt lat="59.0681281127035617828369140625" lon="30.083316005766391754150390625">
        <ele>65</ele>
        <time>2026-04-26T11:22:30.000Z</time>
        <extensions>
          <ns3:TrackPointExtension>
            <ns3:hr>140</ns3:hr>
          </ns3:TrackPointExtension>
        </extensions>
      </trkpt>
      <trkpt lat="59.06812123954296112060546875" lon="30.08320142515003681182861328125">
        <ele>65.40000152587890625</ele>
        <time>2026-04-26T11:22:36.000Z</time>
        <extensions>
          <ns3:TrackPointExtension>
            <ns3:hr>137</ns3:hr>
          </ns3:TrackPointExtension>
        </extensions>
      </trkpt>
      <trkpt lat="59.06812450848519802093505859375" lon="30.08316772989928722381591796875">
        <ele>65.59999847412109375</ele>
        <time>2026-04-26T11:22:37.000Z</time>
        <extensions>
          <ns3:TrackPointExtension>
            <ns3:hr>137</ns3:hr>
          </ns3:TrackPointExtension>
        </extensions>
      </trkpt>
      <trkpt lat="59.0681178867816925048828125" lon="30.08314258418977260589599609375">
        <ele>65.59999847412109375</ele>
        <time>2026-04-26T11:22:38.000Z</time>
        <extensions>
          <ns3:TrackPointExtension>
            <ns3:hr>137</ns3:hr>
          </ns3:TrackPointExtension>
        </extensions>
      </trkpt>
      <trkpt lat="59.0681046433746814727783203125" lon="30.08308826945722103118896484375">
        <ele>65.40000152587890625</ele>
        <time>2026-04-26T11:22:41.000Z</time>
        <extensions>
          <ns3:TrackPointExtension>
            <ns3:hr>136</ns3:hr>
          </ns3:TrackPointExtension>
        </extensions>
      </trkpt>
      <trkpt lat="59.068084694445133209228515625" lon="30.0829782150685787200927734375">
        <ele>65.1999969482421875</ele>
        <time>2026-04-26T11:22:48.000Z</time>
        <extensions>
          <ns3:TrackPointExtension>
            <ns3:hr>134</ns3:hr>
          </ns3:TrackPointExtension>
        </extensions>
      </trkpt>
      <trkpt lat="59.06807891093194484710693359375" lon="30.08285625837743282318115234375">
        <ele>65.59999847412109375</ele>
        <time>2026-04-26T11:22:54.000Z</time>
        <extensions>
          <ns3:TrackPointExtension>
            <ns3:hr>135</ns3:hr>
          </ns3:TrackPointExtension>
        </extensions>
      </trkpt>
      <trkpt lat="59.068071283400058746337890625" lon="30.08280462585389614105224609375">
        <ele>65.8000030517578125</ele>
        <time>2026-04-26T11:22:56.000Z</time>
        <extensions>
          <ns3:TrackPointExtension>
            <ns3:hr>137</ns3:hr>
          </ns3:TrackPointExtension>
        </extensions>
      </trkpt>
      <trkpt lat="59.06806935556232929229736328125" lon="30.082745365798473358154296875">
        <ele>65.59999847412109375</ele>
        <time>2026-04-26T11:22:59.000Z</time>
        <extensions>
          <ns3:TrackPointExtension>
            <ns3:hr>140</ns3:hr>
          </ns3:TrackPointExtension>
        </extensions>
      </trkpt>
      <trkpt lat="59.06807270832359790802001953125" lon="30.08272533304989337921142578125">
        <ele>65.59999847412109375</ele>
        <time>2026-04-26T11:23:00.000Z</time>
        <extensions>
          <ns3:TrackPointExtension>
            <ns3:hr>141</ns3:hr>
          </ns3:TrackPointExtension>
        </extensions>
      </trkpt>
      <trkpt lat="59.0680788271129131317138671875" lon="30.08266515098512172698974609375">
        <ele>65.8000030517578125</ele>
        <time>2026-04-26T11:23:03.000Z</time>
        <extensions>
          <ns3:TrackPointExtension>
            <ns3:hr>144</ns3:hr>
          </ns3:TrackPointExtension>
        </extensions>
      </trkpt>
      <trkpt lat="59.06807136721909046173095703125" lon="30.0825926475226879119873046875">
        <ele>66</ele>
        <time>2026-04-26T11:23:06.000Z</time>
        <extensions>
          <ns3:TrackPointExtension>
            <ns3:hr>145</ns3:hr>
          </ns3:TrackPointExtension>
        </extensions>
      </trkpt>
      <trkpt lat="59.068053849041461944580078125" lon="30.0824991054832935333251953125">
        <ele>66.1999969482421875</ele>
        <time>2026-04-26T11:23:11.000Z</time>
        <extensions>
          <ns3:TrackPointExtension>
            <ns3:hr>148</ns3:hr>
          </ns3:TrackPointExtension>
        </extensions>
      </trkpt>
      <trkpt lat="59.06804605387151241302490234375" lon="30.08247437886893749237060546875">
        <ele>66.1999969482421875</ele>
        <time>2026-04-26T11:23:13.000Z</time>
        <extensions>
          <ns3:TrackPointExtension>
            <ns3:hr>150</ns3:hr>
          </ns3:TrackPointExtension>
        </extensions>
      </trkpt>
      <trkpt lat="59.06802602112293243408203125" lon="30.0823452137410640716552734375">
        <ele>66</ele>
        <time>2026-04-26T11:23:18.000Z</time>
        <extensions>
          <ns3:TrackPointExtension>
            <ns3:hr>147</ns3:hr>
          </ns3:TrackPointExtension>
        </extensions>
      </trkpt>
      <trkpt lat="59.06802258454263210296630859375" lon="30.0823299586772918701171875">
        <ele>66</ele>
        <time>2026-04-26T11:23:19.000Z</time>
        <extensions>
          <ns3:TrackPointExtension>
            <ns3:hr>146</ns3:hr>
          </ns3:TrackPointExtension>
        </extensions>
      </trkpt>
      <trkpt lat="59.068020991981029510498046875" lon="30.08227036334574222564697265625">
        <ele>65.8000030517578125</ele>
        <time>2026-04-26T11:23:22.000Z</time>
        <extensions>
          <ns3:TrackPointExtension>
            <ns3:hr>142</ns3:hr>
          </ns3:TrackPointExtension>
        </extensions>
      </trkpt>
      <trkpt lat="59.0680231712758541107177734375" lon="30.082251839339733123779296875">
        <ele>65.8000030517578125</ele>
        <time>2026-04-26T11:23:24.000Z</time>
        <extensions>
          <ns3:TrackPointExtension>
            <ns3:hr>138</ns3:hr>
          </ns3:TrackPointExtension>
        </extensions>
      </trkpt>
      <trkpt lat="59.0680245123803615570068359375" lon="30.08223867975175380706787109375">
        <ele>66</ele>
        <time>2026-04-26T11:23:25.000Z</time>
        <extensions>
          <ns3:TrackPointExtension>
            <ns3:hr>135</ns3:hr>
          </ns3:TrackPointExtension>
        </extensions>
      </trkpt>
      <trkpt lat="59.068017303943634033203125" lon="30.082220993936061859130859375">
        <ele>66.1999969482421875</ele>
        <time>2026-04-26T11:23:26.000Z</time>
        <extensions>
          <ns3:TrackPointExtension>
            <ns3:hr>134</ns3:hr>
          </ns3:TrackPointExtension>
        </extensions>
      </trkpt>
      <trkpt lat="59.06800900585949420928955078125" lon="30.0821636617183685302734375">
        <ele>66.40000152587890625</ele>
        <time>2026-04-26T11:23:28.000Z</time>
        <extensions>
          <ns3:TrackPointExtension>
            <ns3:hr>131</ns3:hr>
          </ns3:TrackPointExtension>
        </extensions>
      </trkpt>
      <trkpt lat="59.06800380907952785491943359375" lon="30.08214865811169147491455078125">
        <ele>66.40000152587890625</ele>
        <time>2026-04-26T11:23:29.000Z</time>
        <extensions>
          <ns3:TrackPointExtension>
            <ns3:hr>131</ns3:hr>
          </ns3:TrackPointExtension>
        </extensions>
      </trkpt>
      <trkpt lat="59.06797866337001323699951171875" lon="30.08206098340451717376708984375">
        <ele>66.40000152587890625</ele>
        <time>2026-04-26T11:23:34.000Z</time>
        <extensions>
          <ns3:TrackPointExtension>
            <ns3:hr>131</ns3:hr>
          </ns3:TrackPointExtension>
        </extensions>
      </trkpt>
      <trkpt lat="59.067979753017425537109375" lon="30.08203265257179737091064453125">
        <ele>66.40000152587890625</ele>
        <time>2026-04-26T11:23:35.000Z</time>
        <extensions>
          <ns3:TrackPointExtension>
            <ns3:hr>131</ns3:hr>
          </ns3:TrackPointExtension>
        </extensions>
      </trkpt>
      <trkpt lat="59.0679779089987277984619140625" lon="30.08190792985260486602783203125">
        <ele>66.40000152587890625</ele>
        <time>2026-04-26T11:23:41.000Z</time>
        <extensions>
          <ns3:TrackPointExtension>
            <ns3:hr>130</ns3:hr>
          </ns3:TrackPointExtension>
        </extensions>
      </trkpt>
      <trkpt lat="59.06796240247786045074462890625" lon="30.0817772559821605682373046875">
        <ele>66.40000152587890625</ele>
        <time>2026-04-26T11:23:47.000Z</time>
        <extensions>
          <ns3:TrackPointExtension>
            <ns3:hr>129</ns3:hr>
          </ns3:TrackPointExtension>
        </extensions>
      </trkpt>
      <trkpt lat="59.0679517574608325958251953125" lon="30.08166485466063022613525390625">
        <ele>66.1999969482421875</ele>
        <time>2026-04-26T11:23:53.000Z</time>
        <extensions>
          <ns3:TrackPointExtension>
            <ns3:hr>130</ns3:hr>
          </ns3:TrackPointExtension>
        </extensions>
      </trkpt>
      <trkpt lat="59.0679480694234371185302734375" lon="30.08164239116013050079345703125">
        <ele>66.40000152587890625</ele>
        <time>2026-04-26T11:23:54.000Z</time>
        <extensions>
          <ns3:TrackPointExtension>
            <ns3:hr>129</ns3:hr>
          </ns3:TrackPointExtension>
        </extensions>
      </trkpt>
      <trkpt lat="59.06793675385415554046630859375" lon="30.08158572949469089508056640625">
        <ele>66.40000152587890625</ele>
        <time>2026-04-26T11:23:58.000Z</time>
        <extensions>
          <ns3:TrackPointExtension>
            <ns3:hr>127</ns3:hr>
          </ns3:TrackPointExtension>
        </extensions>
      </trkpt>
      <trkpt lat="59.06791412271559238433837890625" lon="30.081465952098369598388671875">
        <ele>66.59999847412109375</ele>
        <time>2026-04-26T11:24:04.000Z</time>
        <extensions>
          <ns3:TrackPointExtension>
            <ns3:hr>127</ns3:hr>
          </ns3:TrackPointExtension>
        </extensions>
      </trkpt>
      <trkpt lat="59.0679189004004001617431640625" lon="30.0813749246299266815185546875">
        <ele>66.8000030517578125</ele>
        <time>2026-04-26T11:24:08.000Z</time>
        <extensions>
          <ns3:TrackPointExtension>
            <ns3:hr>127</ns3:hr>
          </ns3:TrackPointExtension>
        </extensions>
      </trkpt>
      <trkpt lat="59.06790322624146938323974609375" lon="30.08126336149871349334716796875">
        <ele>66.40000152587890625</ele>
        <time>2026-04-26T11:24:13.000Z</time>
        <extensions>
          <ns3:TrackPointExtension>
            <ns3:hr>126</ns3:hr>
          </ns3:TrackPointExtension>
        </extensions>
      </trkpt>
      <trkpt lat="59.0679051540791988372802734375" lon="30.0812637805938720703125">
        <ele>66.40000152587890625</ele>
        <time>2026-04-26T11:24:14.000Z</time>
        <extensions>
          <ns3:TrackPointExtension>
            <ns3:hr>127</ns3:hr>
          </ns3:TrackPointExtension>
        </extensions>
      </trkpt>
      <trkpt lat="59.06790691427886486053466796875" lon="30.08123603649437427520751953125">
        <ele>66.40000152587890625</ele>
        <time>2026-04-26T11:24:15.000Z</time>
        <extensions>
          <ns3:TrackPointExtension>
            <ns3:hr>127</ns3:hr>
          </ns3:TrackPointExtension>
        </extensions>
      </trkpt>
      <trkpt lat="59.06789819709956645965576171875" lon="30.08113411255180835723876953125">
        <ele>66.40000152587890625</ele>
        <time>2026-04-26T11:24:19.000Z</time>
        <extensions>
          <ns3:TrackPointExtension>
            <ns3:hr>127</ns3:hr>
          </ns3:TrackPointExtension>
        </extensions>
      </trkpt>
      <trkpt lat="59.067890904843807220458984375" lon="30.08106705732643604278564453125">
        <ele>66.40000152587890625</ele>
        <time>2026-04-26T11:24:24.000Z</time>
        <extensions>
          <ns3:TrackPointExtension>
            <ns3:hr>125</ns3:hr>
          </ns3:TrackPointExtension>
        </extensions>
      </trkpt>
      <trkpt lat="59.06788378022611141204833984375" lon="30.0810205377638339996337890625">
        <ele>66.1999969482421875</ele>
        <time>2026-04-26T11:24:26.000Z</time>
        <extensions>
          <ns3:TrackPointExtension>
            <ns3:hr>122</ns3:hr>
          </ns3:TrackPointExtension>
        </extensions>
      </trkpt>
      <trkpt lat="59.067876152694225311279296875" lon="30.08097318001091480255126953125">
        <ele>66.1999969482421875</ele>
        <time>2026-04-26T11:24:29.000Z</time>
        <extensions>
          <ns3:TrackPointExtension>
            <ns3:hr>120</ns3:hr>
          </ns3:TrackPointExtension>
        </extensions>
      </trkpt>
      <trkpt lat="59.067886210978031158447265625" lon="30.08089221082627773284912109375">
        <ele>66.1999969482421875</ele>
        <time>2026-04-26T11:24:33.000Z</time>
        <extensions>
          <ns3:TrackPointExtension>
            <ns3:hr>121</ns3:hr>
          </ns3:TrackPointExtension>
        </extensions>
      </trkpt>
      <trkpt lat="59.0678883902728557586669921875" lon="30.080867148935794830322265625">
        <ele>66.1999969482421875</ele>
        <time>2026-04-26T11:24:34.000Z</time>
        <extensions>
          <ns3:TrackPointExtension>
            <ns3:hr>123</ns3:hr>
          </ns3:TrackPointExtension>
        </extensions>
      </trkpt>
      <trkpt lat="59.06788009218871593475341796875" lon="30.0807804800570011138916015625">
        <ele>66</ele>
        <time>2026-04-26T11:24:37.000Z</time>
        <extensions>
          <ns3:TrackPointExtension>
            <ns3:hr>123</ns3:hr>
          </ns3:TrackPointExtension>
        </extensions>
      </trkpt>
      <trkpt lat="59.0678709559142589569091796875" lon="30.0807563401758670806884765625">
        <ele>66.1999969482421875</ele>
        <time>2026-04-26T11:24:39.000Z</time>
        <extensions>
          <ns3:TrackPointExtension>
            <ns3:hr>124</ns3:hr>
          </ns3:TrackPointExtension>
        </extensions>
      </trkpt>
      <trkpt lat="59.067885875701904296875" lon="30.08074133656919002532958984375">
        <ele>66.40000152587890625</ele>
        <time>2026-04-26T11:24:40.000Z</time>
        <extensions>
          <ns3:TrackPointExtension>
            <ns3:hr>124</ns3:hr>
          </ns3:TrackPointExtension>
        </extensions>
      </trkpt>
      <trkpt lat="59.06787673942744731903076171875" lon="30.0806721858680248260498046875">
        <ele>66.40000152587890625</ele>
        <time>2026-04-26T11:24:43.000Z</time>
        <extensions>
          <ns3:TrackPointExtension>
            <ns3:hr>123</ns3:hr>
          </ns3:TrackPointExtension>
        </extensions>
      </trkpt>
      <trkpt lat="59.06786869280040264129638671875" lon="30.0806455314159393310546875">
        <ele>66.40000152587890625</ele>
        <time>2026-04-26T11:24:45.000Z</time>
        <extensions>
          <ns3:TrackPointExtension>
            <ns3:hr>123</ns3:hr>
          </ns3:TrackPointExtension>
        </extensions>
      </trkpt>
      <trkpt lat="59.0678696148097515106201171875" lon="30.08057889528572559356689453125">
        <ele>66.59999847412109375</ele>
        <time>2026-04-26T11:24:48.000Z</time>
        <extensions>
          <ns3:TrackPointExtension>
            <ns3:hr>121</ns3:hr>
          </ns3:TrackPointExtension>
        </extensions>
      </trkpt>
      <trkpt lat="59.06786232255399227142333984375" lon="30.080546624958515167236328125">
        <ele>66.59999847412109375</ele>
        <time>2026-04-26T11:24:49.000Z</time>
        <extensions>
          <ns3:TrackPointExtension>
            <ns3:hr>121</ns3:hr>
          </ns3:TrackPointExtension>
        </extensions>
      </trkpt>
      <trkpt lat="59.06785704195499420166015625" lon="30.08051351644098758697509765625">
        <ele>66.59999847412109375</ele>
        <time>2026-04-26T11:24:51.000Z</time>
        <extensions>
          <ns3:TrackPointExtension>
            <ns3:hr>119</ns3:hr>
          </ns3:TrackPointExtension>
        </extensions>
      </trkpt>
      <trkpt lat="59.067845977842807769775390625" lon="30.0804800726473331451416015625">
        <ele>66.59999847412109375</ele>
        <time>2026-04-26T11:24:53.000Z</time>
        <extensions>
          <ns3:TrackPointExtension>
            <ns3:hr>117</ns3:hr>
          </ns3:TrackPointExtension>
        </extensions>
      </trkpt>
      <trkpt lat="59.0678270347416400909423828125" lon="30.08037135936319828033447265625">
        <ele>66.1999969482421875</ele>
        <time>2026-04-26T11:24:59.000Z</time>
        <extensions>
          <ns3:TrackPointExtension>
            <ns3:hr>120</ns3:hr>
          </ns3:TrackPointExtension>
        </extensions>
      </trkpt>
      <trkpt lat="59.0678136236965656280517578125" lon="30.0802735425531864166259765625">
        <ele>66.59999847412109375</ele>
        <time>2026-04-26T11:25:04.000Z</time>
        <extensions>
          <ns3:TrackPointExtension>
            <ns3:hr>121</ns3:hr>
          </ns3:TrackPointExtension>
        </extensions>
      </trkpt>
      <trkpt lat="59.06782326288521289825439453125" lon="30.08022165857255458831787109375">
        <ele>66.1999969482421875</ele>
        <time>2026-04-26T11:25:07.000Z</time>
        <extensions>
          <ns3:TrackPointExtension>
            <ns3:hr>122</ns3:hr>
          </ns3:TrackPointExtension>
        </extensions>
      </trkpt>
      <trkpt lat="59.06782007776200771331787109375" lon="30.0801706127822399139404296875">
        <ele>66</ele>
        <time>2026-04-26T11:25:09.000Z</time>
        <extensions>
          <ns3:TrackPointExtension>
            <ns3:hr>122</ns3:hr>
          </ns3:TrackPointExtension>
        </extensions>
      </trkpt>
      <trkpt lat="59.06781353987753391265869140625" lon="30.0800955109298229217529296875">
        <ele>66.8000030517578125</ele>
        <time>2026-04-26T11:25:13.000Z</time>
        <extensions>
          <ns3:TrackPointExtension>
            <ns3:hr>121</ns3:hr>
          </ns3:TrackPointExtension>
        </extensions>
      </trkpt>
      <trkpt lat="59.06781136058270931243896484375" lon="30.08007220923900604248046875">
        <ele>67.1999969482421875</ele>
        <time>2026-04-26T11:25:14.000Z</time>
        <extensions>
          <ns3:TrackPointExtension>
            <ns3:hr>121</ns3:hr>
          </ns3:TrackPointExtension>
        </extensions>
      </trkpt>
      <trkpt lat="59.0678174793720245361328125" lon="30.079969950020313262939453125">
        <ele>66.8000030517578125</ele>
        <time>2026-04-26T11:25:19.000Z</time>
        <extensions>
          <ns3:TrackPointExtension>
            <ns3:hr>122</ns3:hr>
          </ns3:TrackPointExtension>
        </extensions>
      </trkpt>
      <trkpt lat="59.06780599616467952728271484375" lon="30.07992560975253582000732421875">
        <ele>66.40000152587890625</ele>
        <time>2026-04-26T11:25:23.000Z</time>
        <extensions>
          <ns3:TrackPointExtension>
            <ns3:hr>122</ns3:hr>
          </ns3:TrackPointExtension>
        </extensions>
      </trkpt>
      <trkpt lat="59.0677995420992374420166015625" lon="30.079823099076747894287109375">
        <ele>66.59999847412109375</ele>
        <time>2026-04-26T11:25:29.000Z</time>
        <extensions>
          <ns3:TrackPointExtension>
            <ns3:hr>122</ns3:hr>
          </ns3:TrackPointExtension>
        </extensions>
      </trkpt>
      <trkpt lat="59.067803062498569488525390625" lon="30.0797736458480358123779296875">
        <ele>66.59999847412109375</ele>
        <time>2026-04-26T11:25:31.000Z</time>
        <extensions>
          <ns3:TrackPointExtension>
            <ns3:hr>119</ns3:hr>
          </ns3:TrackPointExtension>
        </extensions>
      </trkpt>
      <trkpt lat="59.06780281104147434234619140625" lon="30.0797511823475360870361328125">
        <ele>66.59999847412109375</ele>
        <time>2026-04-26T11:25:32.000Z</time>
        <extensions>
          <ns3:TrackPointExtension>
            <ns3:hr>118</ns3:hr>
          </ns3:TrackPointExtension>
        </extensions>
      </trkpt>
      <trkpt lat="59.06779778189957141876220703125" lon="30.0796754099428653717041015625">
        <ele>66.40000152587890625</ele>
        <time>2026-04-26T11:25:36.000Z</time>
        <extensions>
          <ns3:TrackPointExtension>
            <ns3:hr>117</ns3:hr>
          </ns3:TrackPointExtension>
        </extensions>
      </trkpt>
      <trkpt lat="59.06780063174664974212646484375" lon="30.07958807051181793212890625">
        <ele>66.40000152587890625</ele>
        <time>2026-04-26T11:25:40.000Z</time>
        <extensions>
          <ns3:TrackPointExtension>
            <ns3:hr>118</ns3:hr>
          </ns3:TrackPointExtension>
        </extensions>
      </trkpt>
      <trkpt lat="59.0677852928638458251953125" lon="30.07956082932651042938232421875">
        <ele>66.40000152587890625</ele>
        <time>2026-04-26T11:25:43.000Z</time>
        <extensions>
          <ns3:TrackPointExtension>
            <ns3:hr>118</ns3:hr>
          </ns3:TrackPointExtension>
        </extensions>
      </trkpt>
      <trkpt lat="59.06778252683579921722412109375" lon="30.079544149339199066162109375">
        <ele>66.40000152587890625</ele>
        <time>2026-04-26T11:25:44.000Z</time>
        <extensions>
          <ns3:TrackPointExtension>
            <ns3:hr>119</ns3:hr>
          </ns3:TrackPointExtension>
        </extensions>
      </trkpt>
      <trkpt lat="59.06779560260474681854248046875" lon="30.0794195942580699920654296875">
        <ele>66</ele>
        <time>2026-04-26T11:25:50.000Z</time>
        <extensions>
          <ns3:TrackPointExtension>
            <ns3:hr>120</ns3:hr>
          </ns3:TrackPointExtension>
        </extensions>
      </trkpt>
      <trkpt lat="59.06777984462678432464599609375" lon="30.079378522932529449462890625">
        <ele>65.8000030517578125</ele>
        <time>2026-04-26T11:25:53.000Z</time>
        <extensions>
          <ns3:TrackPointExtension>
            <ns3:hr>121</ns3:hr>
          </ns3:TrackPointExtension>
        </extensions>
      </trkpt>
      <trkpt lat="59.0677636675536632537841796875" lon="30.07931716740131378173828125">
        <ele>65.59999847412109375</ele>
        <time>2026-04-26T11:25:55.000Z</time>
        <extensions>
          <ns3:TrackPointExtension>
            <ns3:hr>121</ns3:hr>
          </ns3:TrackPointExtension>
        </extensions>
      </trkpt>
      <trkpt lat="59.06775235198438167572021484375" lon="30.0792888365685939788818359375">
        <ele>66</ele>
        <time>2026-04-26T11:26:00.000Z</time>
        <extensions>
          <ns3:TrackPointExtension>
            <ns3:hr>128</ns3:hr>
          </ns3:TrackPointExtension>
        </extensions>
      </trkpt>
      <trkpt lat="59.06775151379406452178955078125" lon="30.0792908482253551483154296875">
        <ele>66.59999847412109375</ele>
        <time>2026-04-26T11:26:01.000Z</time>
        <extensions>
          <ns3:TrackPointExtension>
            <ns3:hr>131</ns3:hr>
          </ns3:TrackPointExtension>
        </extensions>
      </trkpt>
      <trkpt lat="59.06774841248989105224609375" lon="30.0792898423969745635986328125">
        <ele>66.8000030517578125</ele>
        <time>2026-04-26T11:26:02.000Z</time>
        <extensions>
          <ns3:TrackPointExtension>
            <ns3:hr>140</ns3:hr>
          </ns3:TrackPointExtension>
        </extensions>
      </trkpt>
      <trkpt lat="59.06774816103279590606689453125" lon="30.07928120903670787811279296875">
        <ele>67</ele>
        <time>2026-04-26T11:26:04.000Z</time>
        <extensions>
          <ns3:TrackPointExtension>
            <ns3:hr>141</ns3:hr>
          </ns3:TrackPointExtension>
        </extensions>
      </trkpt>
    </trkseg>
  </trk>
</gpx>
